<?xml version="1.0" encoding="UTF-8" standalone="no" ?>
<gpx xmlns="http://www.topografix.com/GPX/1/1" xmlns:xsi="http://www.w3.org/2001/XMLSchema-instance" xsi:schemaLocation="http://www.topografix.com/GPX/1/1 http://www.topografix.com/GPX/1/1/gpx.xsd" version="1.1" creator="VisuGPX - https://www.visugpx.com">
  <metadata>
    <name>Pornichet 10/12/2020</name>
    <desc><![CDATA[Sortie VTT du jeudi 10 décembre 2020]]></desc>
  </metadata>
  <trk>
    <name><![CDATA[Pornichet Cyclisme]]></name>
    <trkseg>
      <trkpt lat="47.26386" lon="-2.3157">
        <ele>85.400001525879</ele>
        <time>2020-12-10T08:15:23.000Z</time>
      </trkpt>
      <trkpt lat="47.26387" lon="-2.31572">
        <ele>85.400001525879</ele>
        <time>2020-12-10T08:15:24.000Z</time>
      </trkpt>
      <trkpt lat="47.26387" lon="-2.31586">
        <ele>85.400001525879</ele>
        <time>2020-12-10T08:15:27.000Z</time>
      </trkpt>
      <trkpt lat="47.26387" lon="-2.3159">
        <ele>85.599998474121</ele>
        <time>2020-12-10T08:15:28.000Z</time>
      </trkpt>
      <trkpt lat="47.26392" lon="-2.31622">
        <ele>85.599998474121</ele>
        <time>2020-12-10T08:15:34.000Z</time>
      </trkpt>
      <trkpt lat="47.26399" lon="-2.31665">
        <ele>85.599998474121</ele>
        <time>2020-12-10T08:15:41.000Z</time>
      </trkpt>
      <trkpt lat="47.264" lon="-2.31682">
        <ele>85.599998474121</ele>
        <time>2020-12-10T08:15:45.000Z</time>
      </trkpt>
      <trkpt lat="47.26394" lon="-2.31688">
        <ele>85.199996948242</ele>
        <time>2020-12-10T08:15:48.000Z</time>
      </trkpt>
      <trkpt lat="47.26391" lon="-2.3169">
        <ele>84.800003051758</ele>
        <time>2020-12-10T08:15:49.000Z</time>
      </trkpt>
      <trkpt lat="47.26388" lon="-2.31693">
        <ele>84.400001525879</ele>
        <time>2020-12-10T08:15:50.000Z</time>
      </trkpt>
      <trkpt lat="47.26385" lon="-2.31695">
        <ele>84</ele>
        <time>2020-12-10T08:15:51.000Z</time>
      </trkpt>
      <trkpt lat="47.26381" lon="-2.31698">
        <ele>83.599998474121</ele>
        <time>2020-12-10T08:15:52.000Z</time>
      </trkpt>
      <trkpt lat="47.26369" lon="-2.31706">
        <ele>83.599998474121</ele>
        <time>2020-12-10T08:15:55.000Z</time>
      </trkpt>
      <trkpt lat="47.26337" lon="-2.31724">
        <ele>83.599998474121</ele>
        <time>2020-12-10T08:16:02.000Z</time>
      </trkpt>
      <trkpt lat="47.26323" lon="-2.31733">
        <ele>83.199996948242</ele>
        <time>2020-12-10T08:16:05.000Z</time>
      </trkpt>
      <trkpt lat="47.26319" lon="-2.31736">
        <ele>82.800003051758</ele>
        <time>2020-12-10T08:16:06.000Z</time>
      </trkpt>
      <trkpt lat="47.26314" lon="-2.31738">
        <ele>82.400001525879</ele>
        <time>2020-12-10T08:16:07.000Z</time>
      </trkpt>
      <trkpt lat="47.26311" lon="-2.31742">
        <ele>82</ele>
        <time>2020-12-10T08:16:08.000Z</time>
      </trkpt>
      <trkpt lat="47.26308" lon="-2.31746">
        <ele>81.599998474121</ele>
        <time>2020-12-10T08:16:09.000Z</time>
      </trkpt>
      <trkpt lat="47.26307" lon="-2.31756">
        <ele>81.599998474121</ele>
        <time>2020-12-10T08:16:11.000Z</time>
      </trkpt>
      <trkpt lat="47.26308" lon="-2.31761">
        <ele>81.599998474121</ele>
        <time>2020-12-10T08:16:12.000Z</time>
      </trkpt>
      <trkpt lat="47.26311" lon="-2.31788">
        <ele>81.599998474121</ele>
        <time>2020-12-10T08:16:17.000Z</time>
      </trkpt>
      <trkpt lat="47.26311" lon="-2.3181">
        <ele>81.599998474121</ele>
        <time>2020-12-10T08:16:21.000Z</time>
      </trkpt>
      <trkpt lat="47.26311" lon="-2.31817">
        <ele>81.599998474121</ele>
        <time>2020-12-10T08:16:22.000Z</time>
      </trkpt>
      <trkpt lat="47.26309" lon="-2.31847">
        <ele>81.199996948242</ele>
        <time>2020-12-10T08:16:27.000Z</time>
      </trkpt>
      <trkpt lat="47.26308" lon="-2.31853">
        <ele>80.400001525879</ele>
        <time>2020-12-10T08:16:28.000Z</time>
      </trkpt>
      <trkpt lat="47.26307" lon="-2.31859">
        <ele>80</ele>
        <time>2020-12-10T08:16:29.000Z</time>
      </trkpt>
      <trkpt lat="47.26307" lon="-2.31864">
        <ele>79.400001525879</ele>
        <time>2020-12-10T08:16:30.000Z</time>
      </trkpt>
      <trkpt lat="47.26306" lon="-2.31884">
        <ele>79.400001525879</ele>
        <time>2020-12-10T08:16:34.000Z</time>
      </trkpt>
      <trkpt lat="47.26303" lon="-2.31901">
        <ele>79.400001525879</ele>
        <time>2020-12-10T08:16:38.000Z</time>
      </trkpt>
      <trkpt lat="47.26301" lon="-2.31904">
        <ele>79.400001525879</ele>
        <time>2020-12-10T08:16:39.000Z</time>
      </trkpt>
      <trkpt lat="47.26288" lon="-2.31921">
        <ele>79.400001525879</ele>
        <time>2020-12-10T08:16:45.000Z</time>
      </trkpt>
      <trkpt lat="47.26275" lon="-2.31939">
        <ele>79.400001525879</ele>
        <time>2020-12-10T08:16:50.000Z</time>
      </trkpt>
      <trkpt lat="47.26272" lon="-2.31943">
        <ele>79.400001525879</ele>
        <time>2020-12-10T08:16:51.000Z</time>
      </trkpt>
      <trkpt lat="47.26257" lon="-2.31965">
        <ele>79.400001525879</ele>
        <time>2020-12-10T08:16:57.000Z</time>
      </trkpt>
      <trkpt lat="47.26247" lon="-2.31982">
        <ele>79.400001525879</ele>
        <time>2020-12-10T08:17:02.000Z</time>
      </trkpt>
      <trkpt lat="47.26237" lon="-2.31985">
        <ele>79.400001525879</ele>
        <time>2020-12-10T08:17:06.000Z</time>
      </trkpt>
      <trkpt lat="47.26235" lon="-2.31987">
        <ele>79.400001525879</ele>
        <time>2020-12-10T08:17:07.000Z</time>
      </trkpt>
      <trkpt lat="47.26224" lon="-2.31999">
        <ele>79.400001525879</ele>
        <time>2020-12-10T08:17:12.000Z</time>
      </trkpt>
      <trkpt lat="47.26216" lon="-2.32007">
        <ele>79.400001525879</ele>
        <time>2020-12-10T08:17:16.000Z</time>
      </trkpt>
      <trkpt lat="47.26213" lon="-2.32012">
        <ele>79</ele>
        <time>2020-12-10T08:17:18.000Z</time>
      </trkpt>
      <trkpt lat="47.26212" lon="-2.32014">
        <ele>78.599998474121</ele>
        <time>2020-12-10T08:17:19.000Z</time>
      </trkpt>
      <trkpt lat="47.26211" lon="-2.32017">
        <ele>78.199996948242</ele>
        <time>2020-12-10T08:17:20.000Z</time>
      </trkpt>
      <trkpt lat="47.2621" lon="-2.3202">
        <ele>77.800003051758</ele>
        <time>2020-12-10T08:17:21.000Z</time>
      </trkpt>
      <trkpt lat="47.26209" lon="-2.32022">
        <ele>77.400001525879</ele>
        <time>2020-12-10T08:17:22.000Z</time>
      </trkpt>
      <trkpt lat="47.26205" lon="-2.32027">
        <ele>77.400001525879</ele>
        <time>2020-12-10T08:17:26.000Z</time>
      </trkpt>
      <trkpt lat="47.26204" lon="-2.32027">
        <ele>77.400001525879</ele>
        <time>2020-12-10T08:17:27.000Z</time>
      </trkpt>
      <trkpt lat="47.26188" lon="-2.32035">
        <ele>77.400001525879</ele>
        <time>2020-12-10T08:17:34.000Z</time>
      </trkpt>
      <trkpt lat="47.26174" lon="-2.32045">
        <ele>77.400001525879</ele>
        <time>2020-12-10T08:17:38.000Z</time>
      </trkpt>
      <trkpt lat="47.26166" lon="-2.3206">
        <ele>77.400001525879</ele>
        <time>2020-12-10T08:17:41.000Z</time>
      </trkpt>
      <trkpt lat="47.26163" lon="-2.32072">
        <ele>77.400001525879</ele>
        <time>2020-12-10T08:17:43.000Z</time>
      </trkpt>
      <trkpt lat="47.26152" lon="-2.32111">
        <ele>77.400001525879</ele>
        <time>2020-12-10T08:17:50.000Z</time>
      </trkpt>
      <trkpt lat="47.26139" lon="-2.32148">
        <ele>77.400001525879</ele>
        <time>2020-12-10T08:17:57.000Z</time>
      </trkpt>
      <trkpt lat="47.2613" lon="-2.32173">
        <ele>77.400001525879</ele>
        <time>2020-12-10T08:18:02.000Z</time>
      </trkpt>
      <trkpt lat="47.26114" lon="-2.32207">
        <ele>77.400001525879</ele>
        <time>2020-12-10T08:18:09.000Z</time>
      </trkpt>
      <trkpt lat="47.26101" lon="-2.32231">
        <ele>77.400001525879</ele>
        <time>2020-12-10T08:18:14.000Z</time>
      </trkpt>
      <trkpt lat="47.26091" lon="-2.32244">
        <ele>77.400001525879</ele>
        <time>2020-12-10T08:18:17.000Z</time>
      </trkpt>
      <trkpt lat="47.2607" lon="-2.32268">
        <ele>77.400001525879</ele>
        <time>2020-12-10T08:18:23.000Z</time>
      </trkpt>
      <trkpt lat="47.26042" lon="-2.32302">
        <ele>77.400001525879</ele>
        <time>2020-12-10T08:18:31.000Z</time>
      </trkpt>
      <trkpt lat="47.26017" lon="-2.32332">
        <ele>77.400001525879</ele>
        <time>2020-12-10T08:18:38.000Z</time>
      </trkpt>
      <trkpt lat="47.26014" lon="-2.32337">
        <ele>77.400001525879</ele>
        <time>2020-12-10T08:18:39.000Z</time>
      </trkpt>
      <trkpt lat="47.25997" lon="-2.3236">
        <ele>77.400001525879</ele>
        <time>2020-12-10T08:18:44.000Z</time>
      </trkpt>
      <trkpt lat="47.2597" lon="-2.32384">
        <ele>77.400001525879</ele>
        <time>2020-12-10T08:18:52.000Z</time>
      </trkpt>
      <trkpt lat="47.25942" lon="-2.32411">
        <ele>77.400001525879</ele>
        <time>2020-12-10T08:19:00.000Z</time>
      </trkpt>
      <trkpt lat="47.25916" lon="-2.32443">
        <ele>77.400001525879</ele>
        <time>2020-12-10T08:19:08.000Z</time>
      </trkpt>
      <trkpt lat="47.25911" lon="-2.32455">
        <ele>77.400001525879</ele>
        <time>2020-12-10T08:19:11.000Z</time>
      </trkpt>
      <trkpt lat="47.25912" lon="-2.32459">
        <ele>77.400001525879</ele>
        <time>2020-12-10T08:19:12.000Z</time>
      </trkpt>
      <trkpt lat="47.25922" lon="-2.32467">
        <ele>77.400001525879</ele>
        <time>2020-12-10T08:19:16.000Z</time>
      </trkpt>
      <trkpt lat="47.25933" lon="-2.32485">
        <ele>77.400001525879</ele>
        <time>2020-12-10T08:19:20.000Z</time>
      </trkpt>
      <trkpt lat="47.25936" lon="-2.32498">
        <ele>77.400001525879</ele>
        <time>2020-12-10T08:19:22.000Z</time>
      </trkpt>
      <trkpt lat="47.25945" lon="-2.3253">
        <ele>77.400001525879</ele>
        <time>2020-12-10T08:19:27.000Z</time>
      </trkpt>
      <trkpt lat="47.2596" lon="-2.32595">
        <ele>77.400001525879</ele>
        <time>2020-12-10T08:19:37.000Z</time>
      </trkpt>
      <trkpt lat="47.25965" lon="-2.32613">
        <ele>77.400001525879</ele>
        <time>2020-12-10T08:19:40.000Z</time>
      </trkpt>
      <trkpt lat="47.25968" lon="-2.32632">
        <ele>77.400001525879</ele>
        <time>2020-12-10T08:19:43.000Z</time>
      </trkpt>
      <trkpt lat="47.25966" lon="-2.32653">
        <ele>77.400001525879</ele>
        <time>2020-12-10T08:19:47.000Z</time>
      </trkpt>
      <trkpt lat="47.25976" lon="-2.32655">
        <ele>77.400001525879</ele>
        <time>2020-12-10T08:19:50.000Z</time>
      </trkpt>
      <trkpt lat="47.25996" lon="-2.32656">
        <ele>77.400001525879</ele>
        <time>2020-12-10T08:19:55.000Z</time>
      </trkpt>
      <trkpt lat="47.26028" lon="-2.32654">
        <ele>77.400001525879</ele>
        <time>2020-12-10T08:20:03.000Z</time>
      </trkpt>
      <trkpt lat="47.26039" lon="-2.32655">
        <ele>77.400001525879</ele>
        <time>2020-12-10T08:20:07.000Z</time>
      </trkpt>
      <trkpt lat="47.26045" lon="-2.32652">
        <ele>77.400001525879</ele>
        <time>2020-12-10T08:20:10.000Z</time>
      </trkpt>
      <trkpt lat="47.26048" lon="-2.32651">
        <ele>77.400001525879</ele>
        <time>2020-12-10T08:20:11.000Z</time>
      </trkpt>
      <trkpt lat="47.26071" lon="-2.32645">
        <ele>77.400001525879</ele>
        <time>2020-12-10T08:20:17.000Z</time>
      </trkpt>
      <trkpt lat="47.26088" lon="-2.32642">
        <ele>77.800003051758</ele>
        <time>2020-12-10T08:20:21.000Z</time>
      </trkpt>
      <trkpt lat="47.26092" lon="-2.32641">
        <ele>78.199996948242</ele>
        <time>2020-12-10T08:20:22.000Z</time>
      </trkpt>
      <trkpt lat="47.26096" lon="-2.32641">
        <ele>78.800003051758</ele>
        <time>2020-12-10T08:20:23.000Z</time>
      </trkpt>
      <trkpt lat="47.26101" lon="-2.32641">
        <ele>79.199996948242</ele>
        <time>2020-12-10T08:20:24.000Z</time>
      </trkpt>
      <trkpt lat="47.26105" lon="-2.3264">
        <ele>79.599998474121</ele>
        <time>2020-12-10T08:20:25.000Z</time>
      </trkpt>
      <trkpt lat="47.26135" lon="-2.32639">
        <ele>79.599998474121</ele>
        <time>2020-12-10T08:20:32.000Z</time>
      </trkpt>
      <trkpt lat="47.26139" lon="-2.3264">
        <ele>79.599998474121</ele>
        <time>2020-12-10T08:20:33.000Z</time>
      </trkpt>
      <trkpt lat="47.26174" lon="-2.32654">
        <ele>79.599998474121</ele>
        <time>2020-12-10T08:20:41.000Z</time>
      </trkpt>
      <trkpt lat="47.26178" lon="-2.32656">
        <ele>79.599998474121</ele>
        <time>2020-12-10T08:20:42.000Z</time>
      </trkpt>
      <trkpt lat="47.26206" lon="-2.32682">
        <ele>79.599998474121</ele>
        <time>2020-12-10T08:20:49.000Z</time>
      </trkpt>
      <trkpt lat="47.26235" lon="-2.32721">
        <ele>79.599998474121</ele>
        <time>2020-12-10T08:20:57.000Z</time>
      </trkpt>
      <trkpt lat="47.26267" lon="-2.3277">
        <ele>79.599998474121</ele>
        <time>2020-12-10T08:21:06.000Z</time>
      </trkpt>
      <trkpt lat="47.26282" lon="-2.32808">
        <ele>79.599998474121</ele>
        <time>2020-12-10T08:21:12.000Z</time>
      </trkpt>
      <trkpt lat="47.2629" lon="-2.32847">
        <ele>79.599998474121</ele>
        <time>2020-12-10T08:21:18.000Z</time>
      </trkpt>
      <trkpt lat="47.26303" lon="-2.32864">
        <ele>79.599998474121</ele>
        <time>2020-12-10T08:21:22.000Z</time>
      </trkpt>
      <trkpt lat="47.26318" lon="-2.32877">
        <ele>79.599998474121</ele>
        <time>2020-12-10T08:21:26.000Z</time>
      </trkpt>
      <trkpt lat="47.26322" lon="-2.3289">
        <ele>79.599998474121</ele>
        <time>2020-12-10T08:21:28.000Z</time>
      </trkpt>
      <trkpt lat="47.26331" lon="-2.32914">
        <ele>79.599998474121</ele>
        <time>2020-12-10T08:21:32.000Z</time>
      </trkpt>
      <trkpt lat="47.26353" lon="-2.32971">
        <ele>79.599998474121</ele>
        <time>2020-12-10T08:21:41.000Z</time>
      </trkpt>
      <trkpt lat="47.26366" lon="-2.32992">
        <ele>79.599998474121</ele>
        <time>2020-12-10T08:21:45.000Z</time>
      </trkpt>
      <trkpt lat="47.26369" lon="-2.33019">
        <ele>79.599998474121</ele>
        <time>2020-12-10T08:21:49.000Z</time>
      </trkpt>
      <trkpt lat="47.26371" lon="-2.33059">
        <ele>79.599998474121</ele>
        <time>2020-12-10T08:21:55.000Z</time>
      </trkpt>
      <trkpt lat="47.26372" lon="-2.33079">
        <ele>79.599998474121</ele>
        <time>2020-12-10T08:21:58.000Z</time>
      </trkpt>
      <trkpt lat="47.26376" lon="-2.33137">
        <ele>79.599998474121</ele>
        <time>2020-12-10T08:22:07.000Z</time>
      </trkpt>
      <trkpt lat="47.26378" lon="-2.33194">
        <ele>79.599998474121</ele>
        <time>2020-12-10T08:22:16.000Z</time>
      </trkpt>
      <trkpt lat="47.26381" lon="-2.33238">
        <ele>79.599998474121</ele>
        <time>2020-12-10T08:22:23.000Z</time>
      </trkpt>
      <trkpt lat="47.26383" lon="-2.3325">
        <ele>79.599998474121</ele>
        <time>2020-12-10T08:22:25.000Z</time>
      </trkpt>
      <trkpt lat="47.26392" lon="-2.33262">
        <ele>79.599998474121</ele>
        <time>2020-12-10T08:22:28.000Z</time>
      </trkpt>
      <trkpt lat="47.26405" lon="-2.33267">
        <ele>79.599998474121</ele>
        <time>2020-12-10T08:22:31.000Z</time>
      </trkpt>
      <trkpt lat="47.2641" lon="-2.33267">
        <ele>79.599998474121</ele>
        <time>2020-12-10T08:22:32.000Z</time>
      </trkpt>
      <trkpt lat="47.26444" lon="-2.33271">
        <ele>79.599998474121</ele>
        <time>2020-12-10T08:22:40.000Z</time>
      </trkpt>
      <trkpt lat="47.26475" lon="-2.33279">
        <ele>79.599998474121</ele>
        <time>2020-12-10T08:22:48.000Z</time>
      </trkpt>
      <trkpt lat="47.26502" lon="-2.33283">
        <ele>79.599998474121</ele>
        <time>2020-12-10T08:22:55.000Z</time>
      </trkpt>
      <trkpt lat="47.26514" lon="-2.33289">
        <ele>79.599998474121</ele>
        <time>2020-12-10T08:22:58.000Z</time>
      </trkpt>
      <trkpt lat="47.26523" lon="-2.33289">
        <ele>79.599998474121</ele>
        <time>2020-12-10T08:23:00.000Z</time>
      </trkpt>
      <trkpt lat="47.26533" lon="-2.33293">
        <ele>79.599998474121</ele>
        <time>2020-12-10T08:23:03.000Z</time>
      </trkpt>
      <trkpt lat="47.26536" lon="-2.33296">
        <ele>79.599998474121</ele>
        <time>2020-12-10T08:23:04.000Z</time>
      </trkpt>
      <trkpt lat="47.26542" lon="-2.33299">
        <ele>79.599998474121</ele>
        <time>2020-12-10T08:23:07.000Z</time>
      </trkpt>
      <trkpt lat="47.26551" lon="-2.33289">
        <ele>79.599998474121</ele>
        <time>2020-12-10T08:23:10.000Z</time>
      </trkpt>
      <trkpt lat="47.26571" lon="-2.33267">
        <ele>79.599998474121</ele>
        <time>2020-12-10T08:23:16.000Z</time>
      </trkpt>
      <trkpt lat="47.26594" lon="-2.33244">
        <ele>80</ele>
        <time>2020-12-10T08:23:22.000Z</time>
      </trkpt>
      <trkpt lat="47.26598" lon="-2.3324">
        <ele>80.400001525879</ele>
        <time>2020-12-10T08:23:23.000Z</time>
      </trkpt>
      <trkpt lat="47.26601" lon="-2.33236">
        <ele>80.800003051758</ele>
        <time>2020-12-10T08:23:24.000Z</time>
      </trkpt>
      <trkpt lat="47.26605" lon="-2.33233">
        <ele>81.199996948242</ele>
        <time>2020-12-10T08:23:25.000Z</time>
      </trkpt>
      <trkpt lat="47.26609" lon="-2.33229">
        <ele>81.599998474121</ele>
        <time>2020-12-10T08:23:26.000Z</time>
      </trkpt>
      <trkpt lat="47.26629" lon="-2.33209">
        <ele>81.599998474121</ele>
        <time>2020-12-10T08:23:31.000Z</time>
      </trkpt>
      <trkpt lat="47.26656" lon="-2.33182">
        <ele>81.599998474121</ele>
        <time>2020-12-10T08:23:38.000Z</time>
      </trkpt>
      <trkpt lat="47.26681" lon="-2.33155">
        <ele>81.599998474121</ele>
        <time>2020-12-10T08:23:45.000Z</time>
      </trkpt>
      <trkpt lat="47.26707" lon="-2.33128">
        <ele>81.599998474121</ele>
        <time>2020-12-10T08:23:52.000Z</time>
      </trkpt>
      <trkpt lat="47.26711" lon="-2.33125">
        <ele>81.599998474121</ele>
        <time>2020-12-10T08:23:53.000Z</time>
      </trkpt>
      <trkpt lat="47.26714" lon="-2.33121">
        <ele>81.599998474121</ele>
        <time>2020-12-10T08:23:54.000Z</time>
      </trkpt>
      <trkpt lat="47.26731" lon="-2.33102">
        <ele>81.599998474121</ele>
        <time>2020-12-10T08:23:59.000Z</time>
      </trkpt>
      <trkpt lat="47.26752" lon="-2.33085">
        <ele>81.599998474121</ele>
        <time>2020-12-10T08:24:05.000Z</time>
      </trkpt>
      <trkpt lat="47.26763" lon="-2.33099">
        <ele>81.599998474121</ele>
        <time>2020-12-10T08:24:08.000Z</time>
      </trkpt>
      <trkpt lat="47.26764" lon="-2.33131">
        <ele>81.599998474121</ele>
        <time>2020-12-10T08:24:12.000Z</time>
      </trkpt>
      <trkpt lat="47.26761" lon="-2.33146">
        <ele>81.599998474121</ele>
        <time>2020-12-10T08:24:14.000Z</time>
      </trkpt>
      <trkpt lat="47.26755" lon="-2.33168">
        <ele>81.599998474121</ele>
        <time>2020-12-10T08:24:17.000Z</time>
      </trkpt>
      <trkpt lat="47.26744" lon="-2.33212">
        <ele>81.599998474121</ele>
        <time>2020-12-10T08:24:24.000Z</time>
      </trkpt>
      <trkpt lat="47.2673" lon="-2.33258">
        <ele>81.599998474121</ele>
        <time>2020-12-10T08:24:31.000Z</time>
      </trkpt>
      <trkpt lat="47.26731" lon="-2.33286">
        <ele>81.599998474121</ele>
        <time>2020-12-10T08:24:35.000Z</time>
      </trkpt>
      <trkpt lat="47.26733" lon="-2.33293">
        <ele>81.599998474121</ele>
        <time>2020-12-10T08:24:36.000Z</time>
      </trkpt>
      <trkpt lat="47.26745" lon="-2.33334">
        <ele>81.599998474121</ele>
        <time>2020-12-10T08:24:42.000Z</time>
      </trkpt>
      <trkpt lat="47.26752" lon="-2.33378">
        <ele>81.599998474121</ele>
        <time>2020-12-10T08:24:48.000Z</time>
      </trkpt>
      <trkpt lat="47.26752" lon="-2.33384">
        <ele>81.599998474121</ele>
        <time>2020-12-10T08:24:49.000Z</time>
      </trkpt>
      <trkpt lat="47.26756" lon="-2.33412">
        <ele>81.599998474121</ele>
        <time>2020-12-10T08:24:53.000Z</time>
      </trkpt>
      <trkpt lat="47.26764" lon="-2.33468">
        <ele>81.599998474121</ele>
        <time>2020-12-10T08:25:01.000Z</time>
      </trkpt>
      <trkpt lat="47.26774" lon="-2.33523">
        <ele>81.599998474121</ele>
        <time>2020-12-10T08:25:09.000Z</time>
      </trkpt>
      <trkpt lat="47.26776" lon="-2.33537">
        <ele>82</ele>
        <time>2020-12-10T08:25:11.000Z</time>
      </trkpt>
      <trkpt lat="47.26776" lon="-2.33544">
        <ele>82.400001525879</ele>
        <time>2020-12-10T08:25:12.000Z</time>
      </trkpt>
      <trkpt lat="47.26777" lon="-2.33551">
        <ele>82.800003051758</ele>
        <time>2020-12-10T08:25:13.000Z</time>
      </trkpt>
      <trkpt lat="47.26777" lon="-2.33559">
        <ele>83.199996948242</ele>
        <time>2020-12-10T08:25:14.000Z</time>
      </trkpt>
      <trkpt lat="47.26778" lon="-2.33567">
        <ele>83.599998474121</ele>
        <time>2020-12-10T08:25:15.000Z</time>
      </trkpt>
      <trkpt lat="47.26778" lon="-2.33575">
        <ele>83.599998474121</ele>
        <time>2020-12-10T08:25:16.000Z</time>
      </trkpt>
      <trkpt lat="47.26779" lon="-2.33637">
        <ele>83.599998474121</ele>
        <time>2020-12-10T08:25:25.000Z</time>
      </trkpt>
      <trkpt lat="47.26779" lon="-2.33669">
        <ele>84.400001525879</ele>
        <time>2020-12-10T08:25:30.000Z</time>
      </trkpt>
      <trkpt lat="47.26779" lon="-2.33675">
        <ele>84.800003051758</ele>
        <time>2020-12-10T08:25:31.000Z</time>
      </trkpt>
      <trkpt lat="47.26779" lon="-2.3368">
        <ele>85.400001525879</ele>
        <time>2020-12-10T08:25:32.000Z</time>
      </trkpt>
      <trkpt lat="47.26779" lon="-2.33686">
        <ele>85.800003051758</ele>
        <time>2020-12-10T08:25:33.000Z</time>
      </trkpt>
      <trkpt lat="47.26785" lon="-2.33707">
        <ele>85.800003051758</ele>
        <time>2020-12-10T08:25:37.000Z</time>
      </trkpt>
      <trkpt lat="47.26805" lon="-2.33731">
        <ele>86.199996948242</ele>
        <time>2020-12-10T08:25:43.000Z</time>
      </trkpt>
      <trkpt lat="47.26809" lon="-2.33735">
        <ele>86.599998474121</ele>
        <time>2020-12-10T08:25:44.000Z</time>
      </trkpt>
      <trkpt lat="47.26812" lon="-2.33739">
        <ele>87</ele>
        <time>2020-12-10T08:25:45.000Z</time>
      </trkpt>
      <trkpt lat="47.26816" lon="-2.33743">
        <ele>87.400001525879</ele>
        <time>2020-12-10T08:25:46.000Z</time>
      </trkpt>
      <trkpt lat="47.26819" lon="-2.33747">
        <ele>88</ele>
        <time>2020-12-10T08:25:47.000Z</time>
      </trkpt>
      <trkpt lat="47.26834" lon="-2.33762">
        <ele>88</ele>
        <time>2020-12-10T08:25:51.000Z</time>
      </trkpt>
      <trkpt lat="47.26853" lon="-2.3378">
        <ele>88</ele>
        <time>2020-12-10T08:25:56.000Z</time>
      </trkpt>
      <trkpt lat="47.26857" lon="-2.33782">
        <ele>88</ele>
        <time>2020-12-10T08:25:57.000Z</time>
      </trkpt>
      <trkpt lat="47.26891" lon="-2.33795">
        <ele>88</ele>
        <time>2020-12-10T08:26:05.000Z</time>
      </trkpt>
      <trkpt lat="47.26898" lon="-2.338">
        <ele>88</ele>
        <time>2020-12-10T08:26:07.000Z</time>
      </trkpt>
      <trkpt lat="47.26902" lon="-2.33811">
        <ele>88</ele>
        <time>2020-12-10T08:26:09.000Z</time>
      </trkpt>
      <trkpt lat="47.26903" lon="-2.33817">
        <ele>88</ele>
        <time>2020-12-10T08:26:10.000Z</time>
      </trkpt>
      <trkpt lat="47.2691" lon="-2.33849">
        <ele>88</ele>
        <time>2020-12-10T08:26:15.000Z</time>
      </trkpt>
      <trkpt lat="47.26921" lon="-2.339">
        <ele>88</ele>
        <time>2020-12-10T08:26:23.000Z</time>
      </trkpt>
      <trkpt lat="47.2693" lon="-2.33943">
        <ele>88.400001525879</ele>
        <time>2020-12-10T08:26:30.000Z</time>
      </trkpt>
      <trkpt lat="47.26931" lon="-2.3395">
        <ele>88.800003051758</ele>
        <time>2020-12-10T08:26:31.000Z</time>
      </trkpt>
      <trkpt lat="47.26933" lon="-2.33955">
        <ele>89.199996948242</ele>
        <time>2020-12-10T08:26:32.000Z</time>
      </trkpt>
      <trkpt lat="47.26934" lon="-2.33961">
        <ele>89.599998474121</ele>
        <time>2020-12-10T08:26:33.000Z</time>
      </trkpt>
      <trkpt lat="47.26936" lon="-2.33967">
        <ele>90</ele>
        <time>2020-12-10T08:26:34.000Z</time>
      </trkpt>
      <trkpt lat="47.26939" lon="-2.33985">
        <ele>90</ele>
        <time>2020-12-10T08:26:37.000Z</time>
      </trkpt>
      <trkpt lat="47.2695" lon="-2.34027">
        <ele>90</ele>
        <time>2020-12-10T08:26:44.000Z</time>
      </trkpt>
      <trkpt lat="47.26955" lon="-2.3405">
        <ele>90.400001525879</ele>
        <time>2020-12-10T08:26:48.000Z</time>
      </trkpt>
      <trkpt lat="47.26956" lon="-2.34056">
        <ele>90.800003051758</ele>
        <time>2020-12-10T08:26:49.000Z</time>
      </trkpt>
      <trkpt lat="47.26958" lon="-2.34062">
        <ele>91.199996948242</ele>
        <time>2020-12-10T08:26:50.000Z</time>
      </trkpt>
      <trkpt lat="47.2696" lon="-2.34068">
        <ele>91.599998474121</ele>
        <time>2020-12-10T08:26:51.000Z</time>
      </trkpt>
      <trkpt lat="47.26961" lon="-2.34074">
        <ele>92</ele>
        <time>2020-12-10T08:26:52.000Z</time>
      </trkpt>
      <trkpt lat="47.26972" lon="-2.34124">
        <ele>92</ele>
        <time>2020-12-10T08:27:00.000Z</time>
      </trkpt>
      <trkpt lat="47.26986" lon="-2.34184">
        <ele>92</ele>
        <time>2020-12-10T08:27:10.000Z</time>
      </trkpt>
      <trkpt lat="47.26998" lon="-2.34233">
        <ele>92</ele>
        <time>2020-12-10T08:27:18.000Z</time>
      </trkpt>
      <trkpt lat="47.27008" lon="-2.34283">
        <ele>92</ele>
        <time>2020-12-10T08:27:26.000Z</time>
      </trkpt>
      <trkpt lat="47.27009" lon="-2.34288">
        <ele>92</ele>
        <time>2020-12-10T08:27:27.000Z</time>
      </trkpt>
      <trkpt lat="47.27009" lon="-2.34312">
        <ele>92</ele>
        <time>2020-12-10T08:27:31.000Z</time>
      </trkpt>
      <trkpt lat="47.27015" lon="-2.34323">
        <ele>92</ele>
        <time>2020-12-10T08:27:34.000Z</time>
      </trkpt>
      <trkpt lat="47.27018" lon="-2.34323">
        <ele>92</ele>
        <time>2020-12-10T08:27:35.000Z</time>
      </trkpt>
      <trkpt lat="47.27036" lon="-2.34326">
        <ele>92</ele>
        <time>2020-12-10T08:27:40.000Z</time>
      </trkpt>
      <trkpt lat="47.27043" lon="-2.34338">
        <ele>92</ele>
        <time>2020-12-10T08:27:43.000Z</time>
      </trkpt>
      <trkpt lat="47.27044" lon="-2.34344">
        <ele>92</ele>
        <time>2020-12-10T08:27:44.000Z</time>
      </trkpt>
      <trkpt lat="47.27053" lon="-2.34386">
        <ele>92</ele>
        <time>2020-12-10T08:27:50.000Z</time>
      </trkpt>
      <trkpt lat="47.27056" lon="-2.34399">
        <ele>92.400001525879</ele>
        <time>2020-12-10T08:27:52.000Z</time>
      </trkpt>
      <trkpt lat="47.27058" lon="-2.34406">
        <ele>92.800003051758</ele>
        <time>2020-12-10T08:27:53.000Z</time>
      </trkpt>
      <trkpt lat="47.27059" lon="-2.34412">
        <ele>93.199996948242</ele>
        <time>2020-12-10T08:27:54.000Z</time>
      </trkpt>
      <trkpt lat="47.27061" lon="-2.34419">
        <ele>93.599998474121</ele>
        <time>2020-12-10T08:27:55.000Z</time>
      </trkpt>
      <trkpt lat="47.27062" lon="-2.34426">
        <ele>94</ele>
        <time>2020-12-10T08:27:56.000Z</time>
      </trkpt>
      <trkpt lat="47.27065" lon="-2.34439">
        <ele>94</ele>
        <time>2020-12-10T08:27:58.000Z</time>
      </trkpt>
      <trkpt lat="47.27077" lon="-2.34489">
        <ele>94</ele>
        <time>2020-12-10T08:28:06.000Z</time>
      </trkpt>
      <trkpt lat="47.27088" lon="-2.34539">
        <ele>94</ele>
        <time>2020-12-10T08:28:14.000Z</time>
      </trkpt>
      <trkpt lat="47.271" lon="-2.34595">
        <ele>94</ele>
        <time>2020-12-10T08:28:23.000Z</time>
      </trkpt>
      <trkpt lat="47.27114" lon="-2.34652">
        <ele>94</ele>
        <time>2020-12-10T08:28:31.000Z</time>
      </trkpt>
      <trkpt lat="47.27122" lon="-2.34688">
        <ele>94</ele>
        <time>2020-12-10T08:28:36.000Z</time>
      </trkpt>
      <trkpt lat="47.2713" lon="-2.34723">
        <ele>94</ele>
        <time>2020-12-10T08:28:41.000Z</time>
      </trkpt>
      <trkpt lat="47.27139" lon="-2.34768">
        <ele>94</ele>
        <time>2020-12-10T08:28:48.000Z</time>
      </trkpt>
      <trkpt lat="47.27151" lon="-2.34823">
        <ele>94</ele>
        <time>2020-12-10T08:28:56.000Z</time>
      </trkpt>
      <trkpt lat="47.27164" lon="-2.34884">
        <ele>94</ele>
        <time>2020-12-10T08:29:05.000Z</time>
      </trkpt>
      <trkpt lat="47.27175" lon="-2.34921">
        <ele>94.400001525879</ele>
        <time>2020-12-10T08:29:11.000Z</time>
      </trkpt>
      <trkpt lat="47.27177" lon="-2.34927">
        <ele>94.800003051758</ele>
        <time>2020-12-10T08:29:12.000Z</time>
      </trkpt>
      <trkpt lat="47.27179" lon="-2.34933">
        <ele>95.599998474121</ele>
        <time>2020-12-10T08:29:13.000Z</time>
      </trkpt>
      <trkpt lat="47.27181" lon="-2.34939">
        <ele>96.199996948242</ele>
        <time>2020-12-10T08:29:14.000Z</time>
      </trkpt>
      <trkpt lat="47.27192" lon="-2.34971">
        <ele>96.199996948242</ele>
        <time>2020-12-10T08:29:19.000Z</time>
      </trkpt>
      <trkpt lat="47.27207" lon="-2.35011">
        <ele>96.199996948242</ele>
        <time>2020-12-10T08:29:26.000Z</time>
      </trkpt>
      <trkpt lat="47.27223" lon="-2.35053">
        <ele>96.199996948242</ele>
        <time>2020-12-10T08:29:33.000Z</time>
      </trkpt>
      <trkpt lat="47.27232" lon="-2.35079">
        <ele>96.199996948242</ele>
        <time>2020-12-10T08:29:37.000Z</time>
      </trkpt>
      <trkpt lat="47.27238" lon="-2.35091">
        <ele>96.199996948242</ele>
        <time>2020-12-10T08:29:39.000Z</time>
      </trkpt>
      <trkpt lat="47.27254" lon="-2.35123">
        <ele>96.199996948242</ele>
        <time>2020-12-10T08:29:45.000Z</time>
      </trkpt>
      <trkpt lat="47.27259" lon="-2.35124">
        <ele>96.199996948242</ele>
        <time>2020-12-10T08:29:46.000Z</time>
      </trkpt>
      <trkpt lat="47.27275" lon="-2.35116">
        <ele>96.199996948242</ele>
        <time>2020-12-10T08:29:50.000Z</time>
      </trkpt>
      <trkpt lat="47.27292" lon="-2.35107">
        <ele>96.599998474121</ele>
        <time>2020-12-10T08:29:55.000Z</time>
      </trkpt>
      <trkpt lat="47.27294" lon="-2.35106">
        <ele>97</ele>
        <time>2020-12-10T08:29:56.000Z</time>
      </trkpt>
      <trkpt lat="47.27296" lon="-2.35106">
        <ele>97.400001525879</ele>
        <time>2020-12-10T08:29:57.000Z</time>
      </trkpt>
      <trkpt lat="47.27297" lon="-2.35106">
        <ele>97.800003051758</ele>
        <time>2020-12-10T08:29:58.000Z</time>
      </trkpt>
      <trkpt lat="47.27299" lon="-2.35108">
        <ele>98.199996948242</ele>
        <time>2020-12-10T08:29:59.000Z</time>
      </trkpt>
      <trkpt lat="47.27305" lon="-2.35116">
        <ele>98.199996948242</ele>
        <time>2020-12-10T08:30:02.000Z</time>
      </trkpt>
      <trkpt lat="47.27309" lon="-2.35126">
        <ele>98.199996948242</ele>
        <time>2020-12-10T08:30:04.000Z</time>
      </trkpt>
      <trkpt lat="47.27311" lon="-2.35132">
        <ele>98.199996948242</ele>
        <time>2020-12-10T08:30:05.000Z</time>
      </trkpt>
      <trkpt lat="47.27318" lon="-2.35159">
        <ele>98.199996948242</ele>
        <time>2020-12-10T08:30:09.000Z</time>
      </trkpt>
      <trkpt lat="47.27328" lon="-2.3521">
        <ele>98.199996948242</ele>
        <time>2020-12-10T08:30:16.000Z</time>
      </trkpt>
      <trkpt lat="47.27342" lon="-2.35271">
        <ele>98.199996948242</ele>
        <time>2020-12-10T08:30:24.000Z</time>
      </trkpt>
      <trkpt lat="47.27344" lon="-2.35277">
        <ele>98.199996948242</ele>
        <time>2020-12-10T08:30:25.000Z</time>
      </trkpt>
      <trkpt lat="47.27351" lon="-2.35306">
        <ele>98.199996948242</ele>
        <time>2020-12-10T08:30:29.000Z</time>
      </trkpt>
      <trkpt lat="47.27367" lon="-2.35373">
        <ele>98.199996948242</ele>
        <time>2020-12-10T08:30:37.000Z</time>
      </trkpt>
      <trkpt lat="47.27383" lon="-2.35442">
        <ele>98.199996948242</ele>
        <time>2020-12-10T08:30:45.000Z</time>
      </trkpt>
      <trkpt lat="47.27393" lon="-2.35494">
        <ele>97.599998474121</ele>
        <time>2020-12-10T08:30:51.000Z</time>
      </trkpt>
      <trkpt lat="47.27395" lon="-2.35503">
        <ele>96.599998474121</ele>
        <time>2020-12-10T08:30:52.000Z</time>
      </trkpt>
      <trkpt lat="47.27397" lon="-2.35511">
        <ele>96.199996948242</ele>
        <time>2020-12-10T08:30:53.000Z</time>
      </trkpt>
      <trkpt lat="47.27398" lon="-2.3552">
        <ele>95.800003051758</ele>
        <time>2020-12-10T08:30:54.000Z</time>
      </trkpt>
      <trkpt lat="47.27407" lon="-2.35582">
        <ele>95.800003051758</ele>
        <time>2020-12-10T08:31:01.000Z</time>
      </trkpt>
      <trkpt lat="47.27411" lon="-2.35608">
        <ele>95.400001525879</ele>
        <time>2020-12-10T08:31:04.000Z</time>
      </trkpt>
      <trkpt lat="47.27412" lon="-2.35617">
        <ele>95</ele>
        <time>2020-12-10T08:31:05.000Z</time>
      </trkpt>
      <trkpt lat="47.27414" lon="-2.35626">
        <ele>94.599998474121</ele>
        <time>2020-12-10T08:31:06.000Z</time>
      </trkpt>
      <trkpt lat="47.27415" lon="-2.35634">
        <ele>94.199996948242</ele>
        <time>2020-12-10T08:31:07.000Z</time>
      </trkpt>
      <trkpt lat="47.27416" lon="-2.35643">
        <ele>93.800003051758</ele>
        <time>2020-12-10T08:31:08.000Z</time>
      </trkpt>
      <trkpt lat="47.27418" lon="-2.35652">
        <ele>93.800003051758</ele>
        <time>2020-12-10T08:31:09.000Z</time>
      </trkpt>
      <trkpt lat="47.27429" lon="-2.35671">
        <ele>93.800003051758</ele>
        <time>2020-12-10T08:31:12.000Z</time>
      </trkpt>
      <trkpt lat="47.27445" lon="-2.35681">
        <ele>93.800003051758</ele>
        <time>2020-12-10T08:31:15.000Z</time>
      </trkpt>
      <trkpt lat="47.27451" lon="-2.35682">
        <ele>93.800003051758</ele>
        <time>2020-12-10T08:31:16.000Z</time>
      </trkpt>
      <trkpt lat="47.27483" lon="-2.35688">
        <ele>93.800003051758</ele>
        <time>2020-12-10T08:31:22.000Z</time>
      </trkpt>
      <trkpt lat="47.27525" lon="-2.35694">
        <ele>93.800003051758</ele>
        <time>2020-12-10T08:31:30.000Z</time>
      </trkpt>
      <trkpt lat="47.27535" lon="-2.35695">
        <ele>93.800003051758</ele>
        <time>2020-12-10T08:31:32.000Z</time>
      </trkpt>
      <trkpt lat="47.2755" lon="-2.35696">
        <ele>93.800003051758</ele>
        <time>2020-12-10T08:31:35.000Z</time>
      </trkpt>
      <trkpt lat="47.27584" lon="-2.35704">
        <ele>93.800003051758</ele>
        <time>2020-12-10T08:31:42.000Z</time>
      </trkpt>
      <trkpt lat="47.27622" lon="-2.35714">
        <ele>94.199996948242</ele>
        <time>2020-12-10T08:31:50.000Z</time>
      </trkpt>
      <trkpt lat="47.27627" lon="-2.35716">
        <ele>94.599998474121</ele>
        <time>2020-12-10T08:31:51.000Z</time>
      </trkpt>
      <trkpt lat="47.27631" lon="-2.35717">
        <ele>95</ele>
        <time>2020-12-10T08:31:52.000Z</time>
      </trkpt>
      <trkpt lat="47.27636" lon="-2.35717">
        <ele>95.400001525879</ele>
        <time>2020-12-10T08:31:53.000Z</time>
      </trkpt>
      <trkpt lat="47.2764" lon="-2.35718">
        <ele>95.800003051758</ele>
        <time>2020-12-10T08:31:54.000Z</time>
      </trkpt>
      <trkpt lat="47.27649" lon="-2.35719">
        <ele>95.800003051758</ele>
        <time>2020-12-10T08:31:56.000Z</time>
      </trkpt>
      <trkpt lat="47.27674" lon="-2.35728">
        <ele>95.800003051758</ele>
        <time>2020-12-10T08:32:02.000Z</time>
      </trkpt>
      <trkpt lat="47.27678" lon="-2.35729">
        <ele>95.800003051758</ele>
        <time>2020-12-10T08:32:03.000Z</time>
      </trkpt>
      <trkpt lat="47.2769" lon="-2.35729">
        <ele>96.199996948242</ele>
        <time>2020-12-10T08:32:06.000Z</time>
      </trkpt>
      <trkpt lat="47.27695" lon="-2.35728">
        <ele>96.599998474121</ele>
        <time>2020-12-10T08:32:07.000Z</time>
      </trkpt>
      <trkpt lat="47.27699" lon="-2.35725">
        <ele>97</ele>
        <time>2020-12-10T08:32:08.000Z</time>
      </trkpt>
      <trkpt lat="47.27702" lon="-2.35723">
        <ele>97.400001525879</ele>
        <time>2020-12-10T08:32:09.000Z</time>
      </trkpt>
      <trkpt lat="47.27706" lon="-2.3572">
        <ele>98</ele>
        <time>2020-12-10T08:32:10.000Z</time>
      </trkpt>
      <trkpt lat="47.2772" lon="-2.35705">
        <ele>98</ele>
        <time>2020-12-10T08:32:14.000Z</time>
      </trkpt>
      <trkpt lat="47.27732" lon="-2.35689">
        <ele>98.400001525879</ele>
        <time>2020-12-10T08:32:18.000Z</time>
      </trkpt>
      <trkpt lat="47.27735" lon="-2.35684">
        <ele>98.800003051758</ele>
        <time>2020-12-10T08:32:19.000Z</time>
      </trkpt>
      <trkpt lat="47.27738" lon="-2.3568">
        <ele>99.199996948242</ele>
        <time>2020-12-10T08:32:20.000Z</time>
      </trkpt>
      <trkpt lat="47.2774" lon="-2.35675">
        <ele>99.599998474121</ele>
        <time>2020-12-10T08:32:21.000Z</time>
      </trkpt>
      <trkpt lat="47.27743" lon="-2.3567">
        <ele>100</ele>
        <time>2020-12-10T08:32:22.000Z</time>
      </trkpt>
      <trkpt lat="47.27765" lon="-2.35638">
        <ele>100</ele>
        <time>2020-12-10T08:32:29.000Z</time>
      </trkpt>
      <trkpt lat="47.2778" lon="-2.35624">
        <ele>100</ele>
        <time>2020-12-10T08:32:33.000Z</time>
      </trkpt>
      <trkpt lat="47.27789" lon="-2.35619">
        <ele>100</ele>
        <time>2020-12-10T08:32:35.000Z</time>
      </trkpt>
      <trkpt lat="47.27797" lon="-2.35614">
        <ele>100.40000152588</ele>
        <time>2020-12-10T08:32:37.000Z</time>
      </trkpt>
      <trkpt lat="47.27801" lon="-2.35612">
        <ele>100.80000305176</ele>
        <time>2020-12-10T08:32:38.000Z</time>
      </trkpt>
      <trkpt lat="47.27805" lon="-2.35611">
        <ele>101.40000152588</ele>
        <time>2020-12-10T08:32:39.000Z</time>
      </trkpt>
      <trkpt lat="47.27809" lon="-2.35609">
        <ele>101.80000305176</ele>
        <time>2020-12-10T08:32:40.000Z</time>
      </trkpt>
      <trkpt lat="47.27814" lon="-2.35609">
        <ele>102.19999694824</ele>
        <time>2020-12-10T08:32:41.000Z</time>
      </trkpt>
      <trkpt lat="47.27841" lon="-2.35603">
        <ele>102.19999694824</ele>
        <time>2020-12-10T08:32:47.000Z</time>
      </trkpt>
      <trkpt lat="47.27868" lon="-2.35596">
        <ele>102.59999847412</ele>
        <time>2020-12-10T08:32:54.000Z</time>
      </trkpt>
      <trkpt lat="47.27872" lon="-2.35594">
        <ele>103</ele>
        <time>2020-12-10T08:32:55.000Z</time>
      </trkpt>
      <trkpt lat="47.27875" lon="-2.35593">
        <ele>104</ele>
        <time>2020-12-10T08:32:56.000Z</time>
      </trkpt>
      <trkpt lat="47.27879" lon="-2.35593">
        <ele>104.40000152588</ele>
        <time>2020-12-10T08:32:57.000Z</time>
      </trkpt>
      <trkpt lat="47.27897" lon="-2.35589">
        <ele>104.40000152588</ele>
        <time>2020-12-10T08:33:02.000Z</time>
      </trkpt>
      <trkpt lat="47.27912" lon="-2.35585">
        <ele>104.80000305176</ele>
        <time>2020-12-10T08:33:06.000Z</time>
      </trkpt>
      <trkpt lat="47.27916" lon="-2.35584">
        <ele>105.19999694824</ele>
        <time>2020-12-10T08:33:07.000Z</time>
      </trkpt>
      <trkpt lat="47.27919" lon="-2.35583">
        <ele>105.59999847412</ele>
        <time>2020-12-10T08:33:08.000Z</time>
      </trkpt>
      <trkpt lat="47.27923" lon="-2.35582">
        <ele>106</ele>
        <time>2020-12-10T08:33:09.000Z</time>
      </trkpt>
      <trkpt lat="47.27927" lon="-2.35582">
        <ele>106.40000152588</ele>
        <time>2020-12-10T08:33:10.000Z</time>
      </trkpt>
      <trkpt lat="47.2795" lon="-2.35576">
        <ele>106.40000152588</ele>
        <time>2020-12-10T08:33:16.000Z</time>
      </trkpt>
      <trkpt lat="47.27954" lon="-2.35577">
        <ele>106.40000152588</ele>
        <time>2020-12-10T08:33:17.000Z</time>
      </trkpt>
      <trkpt lat="47.27965" lon="-2.35582">
        <ele>106.40000152588</ele>
        <time>2020-12-10T08:33:20.000Z</time>
      </trkpt>
      <trkpt lat="47.2798" lon="-2.35578">
        <ele>106.80000305176</ele>
        <time>2020-12-10T08:33:24.000Z</time>
      </trkpt>
      <trkpt lat="47.27984" lon="-2.35576">
        <ele>107.19999694824</ele>
        <time>2020-12-10T08:33:25.000Z</time>
      </trkpt>
      <trkpt lat="47.27988" lon="-2.35575">
        <ele>107.59999847412</ele>
        <time>2020-12-10T08:33:26.000Z</time>
      </trkpt>
      <trkpt lat="47.27991" lon="-2.35574">
        <ele>108</ele>
        <time>2020-12-10T08:33:27.000Z</time>
      </trkpt>
      <trkpt lat="47.27995" lon="-2.35572">
        <ele>108.40000152588</ele>
        <time>2020-12-10T08:33:28.000Z</time>
      </trkpt>
      <trkpt lat="47.28014" lon="-2.35565">
        <ele>108.40000152588</ele>
        <time>2020-12-10T08:33:33.000Z</time>
      </trkpt>
      <trkpt lat="47.28031" lon="-2.35569">
        <ele>108.40000152588</ele>
        <time>2020-12-10T08:33:38.000Z</time>
      </trkpt>
      <trkpt lat="47.28054" lon="-2.3558">
        <ele>108.40000152588</ele>
        <time>2020-12-10T08:33:45.000Z</time>
      </trkpt>
      <trkpt lat="47.28061" lon="-2.35581">
        <ele>108.80000305176</ele>
        <time>2020-12-10T08:33:47.000Z</time>
      </trkpt>
      <trkpt lat="47.28064" lon="-2.35583">
        <ele>109.19999694824</ele>
        <time>2020-12-10T08:33:48.000Z</time>
      </trkpt>
      <trkpt lat="47.28067" lon="-2.35585">
        <ele>109.59999847412</ele>
        <time>2020-12-10T08:33:49.000Z</time>
      </trkpt>
      <trkpt lat="47.2807" lon="-2.35587">
        <ele>110</ele>
        <time>2020-12-10T08:33:50.000Z</time>
      </trkpt>
      <trkpt lat="47.28072" lon="-2.3559">
        <ele>110.40000152588</ele>
        <time>2020-12-10T08:33:51.000Z</time>
      </trkpt>
      <trkpt lat="47.28085" lon="-2.35604">
        <ele>110.40000152588</ele>
        <time>2020-12-10T08:33:57.000Z</time>
      </trkpt>
      <trkpt lat="47.2809" lon="-2.35611">
        <ele>110.40000152588</ele>
        <time>2020-12-10T08:34:03.000Z</time>
      </trkpt>
      <trkpt lat="47.2809" lon="-2.35612">
        <ele>110.40000152588</ele>
        <time>2020-12-10T08:34:05.000Z</time>
      </trkpt>
      <trkpt lat="47.28088" lon="-2.35613">
        <ele>114.59999847412</ele>
        <time>2020-12-10T08:37:12.000Z</time>
      </trkpt>
      <trkpt lat="47.28086" lon="-2.35611">
        <ele>114.59999847412</ele>
        <time>2020-12-10T08:37:14.000Z</time>
      </trkpt>
      <trkpt lat="47.2808" lon="-2.35607">
        <ele>114.59999847412</ele>
        <time>2020-12-10T08:37:18.000Z</time>
      </trkpt>
      <trkpt lat="47.28078" lon="-2.35612">
        <ele>114.59999847412</ele>
        <time>2020-12-10T08:37:20.000Z</time>
      </trkpt>
      <trkpt lat="47.28079" lon="-2.3563">
        <ele>114.59999847412</ele>
        <time>2020-12-10T08:37:24.000Z</time>
      </trkpt>
      <trkpt lat="47.28081" lon="-2.35642">
        <ele>115</ele>
        <time>2020-12-10T08:37:27.000Z</time>
      </trkpt>
      <trkpt lat="47.28082" lon="-2.35645">
        <ele>115.40000152588</ele>
        <time>2020-12-10T08:37:28.000Z</time>
      </trkpt>
      <trkpt lat="47.28082" lon="-2.35648">
        <ele>115.80000305176</ele>
        <time>2020-12-10T08:37:29.000Z</time>
      </trkpt>
      <trkpt lat="47.28082" lon="-2.35651">
        <ele>116.19999694824</ele>
        <time>2020-12-10T08:37:30.000Z</time>
      </trkpt>
      <trkpt lat="47.28083" lon="-2.35654">
        <ele>116.59999847412</ele>
        <time>2020-12-10T08:37:31.000Z</time>
      </trkpt>
      <trkpt lat="47.28083" lon="-2.35657">
        <ele>117</ele>
        <time>2020-12-10T08:37:32.000Z</time>
      </trkpt>
      <trkpt lat="47.28083" lon="-2.3566">
        <ele>117.59999847412</ele>
        <time>2020-12-10T08:37:33.000Z</time>
      </trkpt>
      <trkpt lat="47.28084" lon="-2.35664">
        <ele>118</ele>
        <time>2020-12-10T08:37:34.000Z</time>
      </trkpt>
      <trkpt lat="47.28086" lon="-2.35668">
        <ele>118.40000152588</ele>
        <time>2020-12-10T08:37:35.000Z</time>
      </trkpt>
      <trkpt lat="47.28087" lon="-2.35671">
        <ele>118.80000305176</ele>
        <time>2020-12-10T08:37:36.000Z</time>
      </trkpt>
      <trkpt lat="47.28089" lon="-2.35682">
        <ele>118.80000305176</ele>
        <time>2020-12-10T08:37:41.000Z</time>
      </trkpt>
      <trkpt lat="47.28091" lon="-2.3569">
        <ele>119.19999694824</ele>
        <time>2020-12-10T08:37:47.000Z</time>
      </trkpt>
      <trkpt lat="47.28095" lon="-2.35688">
        <ele>120.80000305176</ele>
        <time>2020-12-10T08:38:34.000Z</time>
      </trkpt>
      <trkpt lat="47.28096" lon="-2.35687">
        <ele>121.19999694824</ele>
        <time>2020-12-10T08:38:35.000Z</time>
      </trkpt>
      <trkpt lat="47.28097" lon="-2.35685">
        <ele>121.59999847412</ele>
        <time>2020-12-10T08:38:36.000Z</time>
      </trkpt>
      <trkpt lat="47.28099" lon="-2.35683">
        <ele>122</ele>
        <time>2020-12-10T08:38:37.000Z</time>
      </trkpt>
      <trkpt lat="47.28101" lon="-2.35682">
        <ele>122.40000152588</ele>
        <time>2020-12-10T08:38:38.000Z</time>
      </trkpt>
      <trkpt lat="47.28102" lon="-2.35681">
        <ele>123</ele>
        <time>2020-12-10T08:38:39.000Z</time>
      </trkpt>
      <trkpt lat="47.28108" lon="-2.3568">
        <ele>123.80000305176</ele>
        <time>2020-12-10T08:38:41.000Z</time>
      </trkpt>
      <trkpt lat="47.2811" lon="-2.3568">
        <ele>124.19999694824</ele>
        <time>2020-12-10T08:38:42.000Z</time>
      </trkpt>
      <trkpt lat="47.28113" lon="-2.35679">
        <ele>124.59999847412</ele>
        <time>2020-12-10T08:38:43.000Z</time>
      </trkpt>
      <trkpt lat="47.28115" lon="-2.35678">
        <ele>125.19999694824</ele>
        <time>2020-12-10T08:38:44.000Z</time>
      </trkpt>
      <trkpt lat="47.28117" lon="-2.35677">
        <ele>125.59999847412</ele>
        <time>2020-12-10T08:38:45.000Z</time>
      </trkpt>
      <trkpt lat="47.28119" lon="-2.35676">
        <ele>126.19999694824</ele>
        <time>2020-12-10T08:38:46.000Z</time>
      </trkpt>
      <trkpt lat="47.28121" lon="-2.35674">
        <ele>126.59999847412</ele>
        <time>2020-12-10T08:38:47.000Z</time>
      </trkpt>
      <trkpt lat="47.28123" lon="-2.35673">
        <ele>127.19999694824</ele>
        <time>2020-12-10T08:38:48.000Z</time>
      </trkpt>
      <trkpt lat="47.28127" lon="-2.35671">
        <ele>127.19999694824</ele>
        <time>2020-12-10T08:38:50.000Z</time>
      </trkpt>
      <trkpt lat="47.28133" lon="-2.35669">
        <ele>127.59999847412</ele>
        <time>2020-12-10T08:38:52.000Z</time>
      </trkpt>
      <trkpt lat="47.28135" lon="-2.35668">
        <ele>128</ele>
        <time>2020-12-10T08:38:53.000Z</time>
      </trkpt>
      <trkpt lat="47.28138" lon="-2.35667">
        <ele>128.39999389648</ele>
        <time>2020-12-10T08:38:54.000Z</time>
      </trkpt>
      <trkpt lat="47.2814" lon="-2.35667">
        <ele>129</ele>
        <time>2020-12-10T08:38:55.000Z</time>
      </trkpt>
      <trkpt lat="47.28143" lon="-2.35666">
        <ele>129.39999389648</ele>
        <time>2020-12-10T08:38:56.000Z</time>
      </trkpt>
      <trkpt lat="47.28155" lon="-2.35673">
        <ele>129.39999389648</ele>
        <time>2020-12-10T08:39:01.000Z</time>
      </trkpt>
      <trkpt lat="47.28161" lon="-2.35676">
        <ele>129</ele>
        <time>2020-12-10T08:39:04.000Z</time>
      </trkpt>
      <trkpt lat="47.28162" lon="-2.35673">
        <ele>128.60000610352</ele>
        <time>2020-12-10T08:39:05.000Z</time>
      </trkpt>
      <trkpt lat="47.28163" lon="-2.35673">
        <ele>127.80000305176</ele>
        <time>2020-12-10T08:39:06.000Z</time>
      </trkpt>
      <trkpt lat="47.28164" lon="-2.35674">
        <ele>127.19999694824</ele>
        <time>2020-12-10T08:39:07.000Z</time>
      </trkpt>
      <trkpt lat="47.28167" lon="-2.35676">
        <ele>127.19999694824</ele>
        <time>2020-12-10T08:39:09.000Z</time>
      </trkpt>
      <trkpt lat="47.28169" lon="-2.35678">
        <ele>127.19999694824</ele>
        <time>2020-12-10T08:39:11.000Z</time>
      </trkpt>
      <trkpt lat="47.28171" lon="-2.35681">
        <ele>126.80000305176</ele>
        <time>2020-12-10T08:39:12.000Z</time>
      </trkpt>
      <trkpt lat="47.28173" lon="-2.35684">
        <ele>126.40000152588</ele>
        <time>2020-12-10T08:39:13.000Z</time>
      </trkpt>
      <trkpt lat="47.28175" lon="-2.35687">
        <ele>125.80000305176</ele>
        <time>2020-12-10T08:39:14.000Z</time>
      </trkpt>
      <trkpt lat="47.28177" lon="-2.3569">
        <ele>125.40000152588</ele>
        <time>2020-12-10T08:39:15.000Z</time>
      </trkpt>
      <trkpt lat="47.28178" lon="-2.35692">
        <ele>124.80000305176</ele>
        <time>2020-12-10T08:39:16.000Z</time>
      </trkpt>
      <trkpt lat="47.28179" lon="-2.35695">
        <ele>124.19999694824</ele>
        <time>2020-12-10T08:39:17.000Z</time>
      </trkpt>
      <trkpt lat="47.28181" lon="-2.35697">
        <ele>123.80000305176</ele>
        <time>2020-12-10T08:39:18.000Z</time>
      </trkpt>
      <trkpt lat="47.28182" lon="-2.357">
        <ele>123.19999694824</ele>
        <time>2020-12-10T08:39:19.000Z</time>
      </trkpt>
      <trkpt lat="47.28185" lon="-2.35701">
        <ele>122.80000305176</ele>
        <time>2020-12-10T08:39:20.000Z</time>
      </trkpt>
      <trkpt lat="47.28187" lon="-2.35701">
        <ele>122.40000152588</ele>
        <time>2020-12-10T08:39:21.000Z</time>
      </trkpt>
      <trkpt lat="47.2819" lon="-2.35701">
        <ele>122</ele>
        <time>2020-12-10T08:39:22.000Z</time>
      </trkpt>
      <trkpt lat="47.28192" lon="-2.357">
        <ele>121.59999847412</ele>
        <time>2020-12-10T08:39:23.000Z</time>
      </trkpt>
      <trkpt lat="47.28194" lon="-2.357">
        <ele>121</ele>
        <time>2020-12-10T08:39:24.000Z</time>
      </trkpt>
      <trkpt lat="47.28196" lon="-2.35698">
        <ele>120.59999847412</ele>
        <time>2020-12-10T08:39:25.000Z</time>
      </trkpt>
      <trkpt lat="47.28199" lon="-2.35698">
        <ele>120.59999847412</ele>
        <time>2020-12-10T08:39:26.000Z</time>
      </trkpt>
      <trkpt lat="47.28206" lon="-2.35697">
        <ele>120.59999847412</ele>
        <time>2020-12-10T08:39:29.000Z</time>
      </trkpt>
      <trkpt lat="47.28215" lon="-2.35697">
        <ele>120.59999847412</ele>
        <time>2020-12-10T08:39:33.000Z</time>
      </trkpt>
      <trkpt lat="47.28219" lon="-2.35709">
        <ele>120.59999847412</ele>
        <time>2020-12-10T08:39:38.000Z</time>
      </trkpt>
      <trkpt lat="47.28216" lon="-2.35725">
        <ele>120.59999847412</ele>
        <time>2020-12-10T08:39:45.000Z</time>
      </trkpt>
      <trkpt lat="47.28209" lon="-2.35739">
        <ele>120.59999847412</ele>
        <time>2020-12-10T08:39:53.000Z</time>
      </trkpt>
      <trkpt lat="47.28208" lon="-2.35746">
        <ele>121.40000152588</ele>
        <time>2020-12-10T08:39:56.000Z</time>
      </trkpt>
      <trkpt lat="47.28208" lon="-2.35749">
        <ele>122</ele>
        <time>2020-12-10T08:39:57.000Z</time>
      </trkpt>
      <trkpt lat="47.28208" lon="-2.35754">
        <ele>122.40000152588</ele>
        <time>2020-12-10T08:39:58.000Z</time>
      </trkpt>
      <trkpt lat="47.28209" lon="-2.35758">
        <ele>122.80000305176</ele>
        <time>2020-12-10T08:39:59.000Z</time>
      </trkpt>
      <trkpt lat="47.28208" lon="-2.35766">
        <ele>122.80000305176</ele>
        <time>2020-12-10T08:40:01.000Z</time>
      </trkpt>
      <trkpt lat="47.28209" lon="-2.35778">
        <ele>123.19999694824</ele>
        <time>2020-12-10T08:40:06.000Z</time>
      </trkpt>
      <trkpt lat="47.28209" lon="-2.3578">
        <ele>123.59999847412</ele>
        <time>2020-12-10T08:40:07.000Z</time>
      </trkpt>
      <trkpt lat="47.28209" lon="-2.35782">
        <ele>124</ele>
        <time>2020-12-10T08:40:08.000Z</time>
      </trkpt>
      <trkpt lat="47.28217" lon="-2.35787">
        <ele>124.80000305176</ele>
        <time>2020-12-10T08:40:20.000Z</time>
      </trkpt>
      <trkpt lat="47.2822" lon="-2.35782">
        <ele>124.80000305176</ele>
        <time>2020-12-10T08:40:22.000Z</time>
      </trkpt>
      <trkpt lat="47.28224" lon="-2.35778">
        <ele>124.40000152588</ele>
        <time>2020-12-10T08:40:24.000Z</time>
      </trkpt>
      <trkpt lat="47.28225" lon="-2.35776">
        <ele>124</ele>
        <time>2020-12-10T08:40:25.000Z</time>
      </trkpt>
      <trkpt lat="47.28227" lon="-2.35775">
        <ele>123.59999847412</ele>
        <time>2020-12-10T08:40:26.000Z</time>
      </trkpt>
      <trkpt lat="47.28229" lon="-2.35773">
        <ele>123.19999694824</ele>
        <time>2020-12-10T08:40:27.000Z</time>
      </trkpt>
      <trkpt lat="47.28232" lon="-2.35773">
        <ele>122.80000305176</ele>
        <time>2020-12-10T08:40:28.000Z</time>
      </trkpt>
      <trkpt lat="47.28236" lon="-2.35774">
        <ele>122.80000305176</ele>
        <time>2020-12-10T08:40:30.000Z</time>
      </trkpt>
      <trkpt lat="47.28239" lon="-2.35777">
        <ele>122.80000305176</ele>
        <time>2020-12-10T08:40:31.000Z</time>
      </trkpt>
      <trkpt lat="47.28251" lon="-2.35786">
        <ele>122.80000305176</ele>
        <time>2020-12-10T08:40:36.000Z</time>
      </trkpt>
      <trkpt lat="47.28262" lon="-2.35801">
        <ele>122.80000305176</ele>
        <time>2020-12-10T08:40:42.000Z</time>
      </trkpt>
      <trkpt lat="47.28268" lon="-2.3582">
        <ele>122.80000305176</ele>
        <time>2020-12-10T08:40:47.000Z</time>
      </trkpt>
      <trkpt lat="47.28265" lon="-2.3583">
        <ele>122.80000305176</ele>
        <time>2020-12-10T08:40:51.000Z</time>
      </trkpt>
      <trkpt lat="47.28263" lon="-2.35833">
        <ele>122.80000305176</ele>
        <time>2020-12-10T08:40:52.000Z</time>
      </trkpt>
      <trkpt lat="47.28256" lon="-2.35844">
        <ele>122.80000305176</ele>
        <time>2020-12-10T08:40:58.000Z</time>
      </trkpt>
      <trkpt lat="47.28256" lon="-2.35845">
        <ele>122.80000305176</ele>
        <time>2020-12-10T08:40:59.000Z</time>
      </trkpt>
      <trkpt lat="47.28234" lon="-2.35871">
        <ele>124.80000305176</ele>
        <time>2020-12-10T08:41:56.000Z</time>
      </trkpt>
      <trkpt lat="47.28227" lon="-2.35872">
        <ele>124.80000305176</ele>
        <time>2020-12-10T08:41:59.000Z</time>
      </trkpt>
      <trkpt lat="47.28224" lon="-2.35871">
        <ele>124.40000152588</ele>
        <time>2020-12-10T08:42:01.000Z</time>
      </trkpt>
      <trkpt lat="47.28221" lon="-2.3587">
        <ele>124</ele>
        <time>2020-12-10T08:42:02.000Z</time>
      </trkpt>
      <trkpt lat="47.2822" lon="-2.35869">
        <ele>123.40000152588</ele>
        <time>2020-12-10T08:42:03.000Z</time>
      </trkpt>
      <trkpt lat="47.28217" lon="-2.35868">
        <ele>123</ele>
        <time>2020-12-10T08:42:04.000Z</time>
      </trkpt>
      <trkpt lat="47.28214" lon="-2.35867">
        <ele>122.40000152588</ele>
        <time>2020-12-10T08:42:05.000Z</time>
      </trkpt>
      <trkpt lat="47.28211" lon="-2.35868">
        <ele>122.40000152588</ele>
        <time>2020-12-10T08:42:06.000Z</time>
      </trkpt>
      <trkpt lat="47.28191" lon="-2.35874">
        <ele>122.40000152588</ele>
        <time>2020-12-10T08:42:12.000Z</time>
      </trkpt>
      <trkpt lat="47.28186" lon="-2.35887">
        <ele>122.40000152588</ele>
        <time>2020-12-10T08:42:16.000Z</time>
      </trkpt>
      <trkpt lat="47.28185" lon="-2.35893">
        <ele>122.40000152588</ele>
        <time>2020-12-10T08:42:18.000Z</time>
      </trkpt>
      <trkpt lat="47.28185" lon="-2.35901">
        <ele>122</ele>
        <time>2020-12-10T08:42:20.000Z</time>
      </trkpt>
      <trkpt lat="47.28184" lon="-2.35905">
        <ele>121.59999847412</ele>
        <time>2020-12-10T08:42:21.000Z</time>
      </trkpt>
      <trkpt lat="47.28184" lon="-2.35911">
        <ele>121.19999694824</ele>
        <time>2020-12-10T08:42:22.000Z</time>
      </trkpt>
      <trkpt lat="47.28182" lon="-2.35916">
        <ele>120.40000152588</ele>
        <time>2020-12-10T08:42:23.000Z</time>
      </trkpt>
      <trkpt lat="47.28182" lon="-2.35933">
        <ele>120.40000152588</ele>
        <time>2020-12-10T08:42:26.000Z</time>
      </trkpt>
      <trkpt lat="47.28182" lon="-2.35944">
        <ele>120.40000152588</ele>
        <time>2020-12-10T08:42:30.000Z</time>
      </trkpt>
      <trkpt lat="47.28185" lon="-2.35958">
        <ele>120.40000152588</ele>
        <time>2020-12-10T08:42:36.000Z</time>
      </trkpt>
      <trkpt lat="47.28187" lon="-2.35972">
        <ele>120</ele>
        <time>2020-12-10T08:42:39.000Z</time>
      </trkpt>
      <trkpt lat="47.28189" lon="-2.35975">
        <ele>119.59999847412</ele>
        <time>2020-12-10T08:42:40.000Z</time>
      </trkpt>
      <trkpt lat="47.28191" lon="-2.35979">
        <ele>119.19999694824</ele>
        <time>2020-12-10T08:42:41.000Z</time>
      </trkpt>
      <trkpt lat="47.28195" lon="-2.35986">
        <ele>118.80000305176</ele>
        <time>2020-12-10T08:42:42.000Z</time>
      </trkpt>
      <trkpt lat="47.28197" lon="-2.35992">
        <ele>118.40000152588</ele>
        <time>2020-12-10T08:42:43.000Z</time>
      </trkpt>
      <trkpt lat="47.28209" lon="-2.36012">
        <ele>118.40000152588</ele>
        <time>2020-12-10T08:42:46.000Z</time>
      </trkpt>
      <trkpt lat="47.2822" lon="-2.36025">
        <ele>118.40000152588</ele>
        <time>2020-12-10T08:42:50.000Z</time>
      </trkpt>
      <trkpt lat="47.28232" lon="-2.36027">
        <ele>118.40000152588</ele>
        <time>2020-12-10T08:42:54.000Z</time>
      </trkpt>
      <trkpt lat="47.28234" lon="-2.36024">
        <ele>118.40000152588</ele>
        <time>2020-12-10T08:42:56.000Z</time>
      </trkpt>
      <trkpt lat="47.28236" lon="-2.3602">
        <ele>118.40000152588</ele>
        <time>2020-12-10T08:42:58.000Z</time>
      </trkpt>
      <trkpt lat="47.28238" lon="-2.3602">
        <ele>118.40000152588</ele>
        <time>2020-12-10T08:42:59.000Z</time>
      </trkpt>
      <trkpt lat="47.28246" lon="-2.36017">
        <ele>118.40000152588</ele>
        <time>2020-12-10T08:43:03.000Z</time>
      </trkpt>
      <trkpt lat="47.28259" lon="-2.36007">
        <ele>118.40000152588</ele>
        <time>2020-12-10T08:43:09.000Z</time>
      </trkpt>
      <trkpt lat="47.28265" lon="-2.35999">
        <ele>118.40000152588</ele>
        <time>2020-12-10T08:43:12.000Z</time>
      </trkpt>
      <trkpt lat="47.28268" lon="-2.35998">
        <ele>118.80000305176</ele>
        <time>2020-12-10T08:43:13.000Z</time>
      </trkpt>
      <trkpt lat="47.28271" lon="-2.35995">
        <ele>119.19999694824</ele>
        <time>2020-12-10T08:43:14.000Z</time>
      </trkpt>
      <trkpt lat="47.28273" lon="-2.35993">
        <ele>119.59999847412</ele>
        <time>2020-12-10T08:43:15.000Z</time>
      </trkpt>
      <trkpt lat="47.28275" lon="-2.3599">
        <ele>120.19999694824</ele>
        <time>2020-12-10T08:43:16.000Z</time>
      </trkpt>
      <trkpt lat="47.28276" lon="-2.35985">
        <ele>120.59999847412</ele>
        <time>2020-12-10T08:43:17.000Z</time>
      </trkpt>
      <trkpt lat="47.28277" lon="-2.35982">
        <ele>120.59999847412</ele>
        <time>2020-12-10T08:43:18.000Z</time>
      </trkpt>
      <trkpt lat="47.28277" lon="-2.35979">
        <ele>120.59999847412</ele>
        <time>2020-12-10T08:43:19.000Z</time>
      </trkpt>
      <trkpt lat="47.28274" lon="-2.35966">
        <ele>120.59999847412</ele>
        <time>2020-12-10T08:43:23.000Z</time>
      </trkpt>
      <trkpt lat="47.28268" lon="-2.35941">
        <ele>121</ele>
        <time>2020-12-10T08:43:30.000Z</time>
      </trkpt>
      <trkpt lat="47.28267" lon="-2.35937">
        <ele>121.40000152588</ele>
        <time>2020-12-10T08:43:31.000Z</time>
      </trkpt>
      <trkpt lat="47.28265" lon="-2.35933">
        <ele>121.80000305176</ele>
        <time>2020-12-10T08:43:32.000Z</time>
      </trkpt>
      <trkpt lat="47.28263" lon="-2.35928">
        <ele>122.19999694824</ele>
        <time>2020-12-10T08:43:33.000Z</time>
      </trkpt>
      <trkpt lat="47.28261" lon="-2.35924">
        <ele>122.59999847412</ele>
        <time>2020-12-10T08:43:34.000Z</time>
      </trkpt>
      <trkpt lat="47.28259" lon="-2.35921">
        <ele>122.59999847412</ele>
        <time>2020-12-10T08:43:35.000Z</time>
      </trkpt>
      <trkpt lat="47.28257" lon="-2.35907">
        <ele>122.59999847412</ele>
        <time>2020-12-10T08:43:40.000Z</time>
      </trkpt>
      <trkpt lat="47.2826" lon="-2.35903">
        <ele>122.59999847412</ele>
        <time>2020-12-10T08:43:42.000Z</time>
      </trkpt>
      <trkpt lat="47.28263" lon="-2.35898">
        <ele>122.59999847412</ele>
        <time>2020-12-10T08:43:44.000Z</time>
      </trkpt>
      <trkpt lat="47.28278" lon="-2.35876">
        <ele>122.59999847412</ele>
        <time>2020-12-10T08:43:51.000Z</time>
      </trkpt>
      <trkpt lat="47.28293" lon="-2.35859">
        <ele>123</ele>
        <time>2020-12-10T08:43:56.000Z</time>
      </trkpt>
      <trkpt lat="47.28296" lon="-2.35857">
        <ele>123.40000152588</ele>
        <time>2020-12-10T08:43:57.000Z</time>
      </trkpt>
      <trkpt lat="47.283" lon="-2.35854">
        <ele>123.80000305176</ele>
        <time>2020-12-10T08:43:58.000Z</time>
      </trkpt>
      <trkpt lat="47.28302" lon="-2.35853">
        <ele>124.40000152588</ele>
        <time>2020-12-10T08:43:59.000Z</time>
      </trkpt>
      <trkpt lat="47.28305" lon="-2.35851">
        <ele>124.80000305176</ele>
        <time>2020-12-10T08:44:00.000Z</time>
      </trkpt>
      <trkpt lat="47.28306" lon="-2.3585">
        <ele>124.80000305176</ele>
        <time>2020-12-10T08:44:01.000Z</time>
      </trkpt>
      <trkpt lat="47.2831" lon="-2.35851">
        <ele>124.80000305176</ele>
        <time>2020-12-10T08:44:02.000Z</time>
      </trkpt>
      <trkpt lat="47.28316" lon="-2.35847">
        <ele>124.80000305176</ele>
        <time>2020-12-10T08:44:04.000Z</time>
      </trkpt>
      <trkpt lat="47.28321" lon="-2.35842">
        <ele>125.19999694824</ele>
        <time>2020-12-10T08:44:06.000Z</time>
      </trkpt>
      <trkpt lat="47.28322" lon="-2.3584">
        <ele>125.59999847412</ele>
        <time>2020-12-10T08:44:07.000Z</time>
      </trkpt>
      <trkpt lat="47.28325" lon="-2.35839">
        <ele>126</ele>
        <time>2020-12-10T08:44:08.000Z</time>
      </trkpt>
      <trkpt lat="47.28327" lon="-2.35837">
        <ele>126.40000152588</ele>
        <time>2020-12-10T08:44:09.000Z</time>
      </trkpt>
      <trkpt lat="47.28329" lon="-2.35835">
        <ele>126.80000305176</ele>
        <time>2020-12-10T08:44:10.000Z</time>
      </trkpt>
      <trkpt lat="47.28337" lon="-2.35836">
        <ele>126.80000305176</ele>
        <time>2020-12-10T08:44:14.000Z</time>
      </trkpt>
      <trkpt lat="47.28348" lon="-2.35845">
        <ele>126.80000305176</ele>
        <time>2020-12-10T08:44:19.000Z</time>
      </trkpt>
      <trkpt lat="47.2835" lon="-2.35845">
        <ele>126.80000305176</ele>
        <time>2020-12-10T08:44:20.000Z</time>
      </trkpt>
      <trkpt lat="47.28369" lon="-2.3585">
        <ele>126.80000305176</ele>
        <time>2020-12-10T08:44:26.000Z</time>
      </trkpt>
      <trkpt lat="47.28377" lon="-2.35851">
        <ele>126.80000305176</ele>
        <time>2020-12-10T08:44:29.000Z</time>
      </trkpt>
      <trkpt lat="47.28381" lon="-2.35849">
        <ele>126.80000305176</ele>
        <time>2020-12-10T08:44:31.000Z</time>
      </trkpt>
      <trkpt lat="47.28399" lon="-2.35849">
        <ele>126.80000305176</ele>
        <time>2020-12-10T08:44:37.000Z</time>
      </trkpt>
      <trkpt lat="47.28405" lon="-2.35845">
        <ele>126.80000305176</ele>
        <time>2020-12-10T08:44:39.000Z</time>
      </trkpt>
      <trkpt lat="47.28411" lon="-2.35842">
        <ele>126.80000305176</ele>
        <time>2020-12-10T08:44:41.000Z</time>
      </trkpt>
      <trkpt lat="47.28418" lon="-2.35842">
        <ele>126.80000305176</ele>
        <time>2020-12-10T08:44:44.000Z</time>
      </trkpt>
      <trkpt lat="47.28421" lon="-2.35841">
        <ele>126.80000305176</ele>
        <time>2020-12-10T08:44:45.000Z</time>
      </trkpt>
      <trkpt lat="47.28441" lon="-2.35835">
        <ele>126.80000305176</ele>
        <time>2020-12-10T08:44:52.000Z</time>
      </trkpt>
      <trkpt lat="47.28454" lon="-2.35832">
        <ele>126.80000305176</ele>
        <time>2020-12-10T08:44:57.000Z</time>
      </trkpt>
      <trkpt lat="47.28463" lon="-2.3583">
        <ele>126.80000305176</ele>
        <time>2020-12-10T08:45:00.000Z</time>
      </trkpt>
      <trkpt lat="47.28468" lon="-2.35825">
        <ele>126.80000305176</ele>
        <time>2020-12-10T08:45:02.000Z</time>
      </trkpt>
      <trkpt lat="47.28472" lon="-2.35818">
        <ele>127.19999694824</ele>
        <time>2020-12-10T08:45:06.000Z</time>
      </trkpt>
      <trkpt lat="47.28473" lon="-2.35818">
        <ele>127.59999847412</ele>
        <time>2020-12-10T08:45:07.000Z</time>
      </trkpt>
      <trkpt lat="47.28474" lon="-2.35817">
        <ele>128</ele>
        <time>2020-12-10T08:45:08.000Z</time>
      </trkpt>
      <trkpt lat="47.28478" lon="-2.35815">
        <ele>128.80000305176</ele>
        <time>2020-12-10T08:45:09.000Z</time>
      </trkpt>
      <trkpt lat="47.28483" lon="-2.3581">
        <ele>128.80000305176</ele>
        <time>2020-12-10T08:45:14.000Z</time>
      </trkpt>
      <trkpt lat="47.28482" lon="-2.35802">
        <ele>128.80000305176</ele>
        <time>2020-12-10T08:45:20.000Z</time>
      </trkpt>
      <trkpt lat="47.28482" lon="-2.35795">
        <ele>128.80000305176</ele>
        <time>2020-12-10T08:45:35.000Z</time>
      </trkpt>
      <trkpt lat="47.2848" lon="-2.3577">
        <ele>128.80000305176</ele>
        <time>2020-12-10T08:45:41.000Z</time>
      </trkpt>
      <trkpt lat="47.28481" lon="-2.35767">
        <ele>128.80000305176</ele>
        <time>2020-12-10T08:45:42.000Z</time>
      </trkpt>
      <trkpt lat="47.28483" lon="-2.35757">
        <ele>128.80000305176</ele>
        <time>2020-12-10T08:45:45.000Z</time>
      </trkpt>
      <trkpt lat="47.2849" lon="-2.3574">
        <ele>128.80000305176</ele>
        <time>2020-12-10T08:45:50.000Z</time>
      </trkpt>
      <trkpt lat="47.28492" lon="-2.35736">
        <ele>128.80000305176</ele>
        <time>2020-12-10T08:45:51.000Z</time>
      </trkpt>
      <trkpt lat="47.28502" lon="-2.3572">
        <ele>128.80000305176</ele>
        <time>2020-12-10T08:45:56.000Z</time>
      </trkpt>
      <trkpt lat="47.28503" lon="-2.35716">
        <ele>128.80000305176</ele>
        <time>2020-12-10T08:45:57.000Z</time>
      </trkpt>
      <trkpt lat="47.28502" lon="-2.3571">
        <ele>128.80000305176</ele>
        <time>2020-12-10T08:45:59.000Z</time>
      </trkpt>
      <trkpt lat="47.28496" lon="-2.35698">
        <ele>128.80000305176</ele>
        <time>2020-12-10T08:46:03.000Z</time>
      </trkpt>
      <trkpt lat="47.28491" lon="-2.35686">
        <ele>128.80000305176</ele>
        <time>2020-12-10T08:46:06.000Z</time>
      </trkpt>
      <trkpt lat="47.28482" lon="-2.3567">
        <ele>128.80000305176</ele>
        <time>2020-12-10T08:46:10.000Z</time>
      </trkpt>
      <trkpt lat="47.28464" lon="-2.35646">
        <ele>128.80000305176</ele>
        <time>2020-12-10T08:46:18.000Z</time>
      </trkpt>
      <trkpt lat="47.28454" lon="-2.35641">
        <ele>128.80000305176</ele>
        <time>2020-12-10T08:46:22.000Z</time>
      </trkpt>
      <trkpt lat="47.28453" lon="-2.35643">
        <ele>128.80000305176</ele>
        <time>2020-12-10T08:46:23.000Z</time>
      </trkpt>
      <trkpt lat="47.2844" lon="-2.35661">
        <ele>128.80000305176</ele>
        <time>2020-12-10T08:46:28.000Z</time>
      </trkpt>
      <trkpt lat="47.28424" lon="-2.35688">
        <ele>128.80000305176</ele>
        <time>2020-12-10T08:46:34.000Z</time>
      </trkpt>
      <trkpt lat="47.28422" lon="-2.35687">
        <ele>128.80000305176</ele>
        <time>2020-12-10T08:46:35.000Z</time>
      </trkpt>
      <trkpt lat="47.28416" lon="-2.35684">
        <ele>128.80000305176</ele>
        <time>2020-12-10T08:46:37.000Z</time>
      </trkpt>
      <trkpt lat="47.28414" lon="-2.35673">
        <ele>128.80000305176</ele>
        <time>2020-12-10T08:46:40.000Z</time>
      </trkpt>
      <trkpt lat="47.28412" lon="-2.35658">
        <ele>128.80000305176</ele>
        <time>2020-12-10T08:46:42.000Z</time>
      </trkpt>
      <trkpt lat="47.28406" lon="-2.3563">
        <ele>128.80000305176</ele>
        <time>2020-12-10T08:46:47.000Z</time>
      </trkpt>
      <trkpt lat="47.28393" lon="-2.35619">
        <ele>128.80000305176</ele>
        <time>2020-12-10T08:46:51.000Z</time>
      </trkpt>
      <trkpt lat="47.28389" lon="-2.35612">
        <ele>128.80000305176</ele>
        <time>2020-12-10T08:46:53.000Z</time>
      </trkpt>
      <trkpt lat="47.28389" lon="-2.35603">
        <ele>128.80000305176</ele>
        <time>2020-12-10T08:46:55.000Z</time>
      </trkpt>
      <trkpt lat="47.2839" lon="-2.35587">
        <ele>128.39999389648</ele>
        <time>2020-12-10T08:46:58.000Z</time>
      </trkpt>
      <trkpt lat="47.28391" lon="-2.35581">
        <ele>128</ele>
        <time>2020-12-10T08:46:59.000Z</time>
      </trkpt>
      <trkpt lat="47.28391" lon="-2.35576">
        <ele>127.59999847412</ele>
        <time>2020-12-10T08:47:00.000Z</time>
      </trkpt>
      <trkpt lat="47.28392" lon="-2.3557">
        <ele>127.19999694824</ele>
        <time>2020-12-10T08:47:01.000Z</time>
      </trkpt>
      <trkpt lat="47.28392" lon="-2.35565">
        <ele>126.80000305176</ele>
        <time>2020-12-10T08:47:02.000Z</time>
      </trkpt>
      <trkpt lat="47.284" lon="-2.35534">
        <ele>126.80000305176</ele>
        <time>2020-12-10T08:47:08.000Z</time>
      </trkpt>
      <trkpt lat="47.28408" lon="-2.35513">
        <ele>126.80000305176</ele>
        <time>2020-12-10T08:47:12.000Z</time>
      </trkpt>
      <trkpt lat="47.28412" lon="-2.35483">
        <ele>126.80000305176</ele>
        <time>2020-12-10T08:47:18.000Z</time>
      </trkpt>
      <trkpt lat="47.28411" lon="-2.35474">
        <ele>127.19999694824</ele>
        <time>2020-12-10T08:47:20.000Z</time>
      </trkpt>
      <trkpt lat="47.28411" lon="-2.35471">
        <ele>127.59999847412</ele>
        <time>2020-12-10T08:47:21.000Z</time>
      </trkpt>
      <trkpt lat="47.28409" lon="-2.35466">
        <ele>128</ele>
        <time>2020-12-10T08:47:22.000Z</time>
      </trkpt>
      <trkpt lat="47.28408" lon="-2.35462">
        <ele>128.39999389648</ele>
        <time>2020-12-10T08:47:23.000Z</time>
      </trkpt>
      <trkpt lat="47.28408" lon="-2.35458">
        <ele>128.80000305176</ele>
        <time>2020-12-10T08:47:24.000Z</time>
      </trkpt>
      <trkpt lat="47.28406" lon="-2.35437">
        <ele>129.19999694824</ele>
        <time>2020-12-10T08:47:29.000Z</time>
      </trkpt>
      <trkpt lat="47.28407" lon="-2.35434">
        <ele>129.60000610352</ele>
        <time>2020-12-10T08:47:30.000Z</time>
      </trkpt>
      <trkpt lat="47.28408" lon="-2.35434">
        <ele>130</ele>
        <time>2020-12-10T08:47:31.000Z</time>
      </trkpt>
      <trkpt lat="47.28409" lon="-2.35434">
        <ele>130.60000610352</ele>
        <time>2020-12-10T08:47:32.000Z</time>
      </trkpt>
      <trkpt lat="47.2841" lon="-2.35433">
        <ele>131</ele>
        <time>2020-12-10T08:47:33.000Z</time>
      </trkpt>
      <trkpt lat="47.28413" lon="-2.35432">
        <ele>131</ele>
        <time>2020-12-10T08:47:35.000Z</time>
      </trkpt>
      <trkpt lat="47.2842" lon="-2.35418">
        <ele>131</ele>
        <time>2020-12-10T08:47:40.000Z</time>
      </trkpt>
      <trkpt lat="47.28424" lon="-2.35416">
        <ele>131</ele>
        <time>2020-12-10T08:47:42.000Z</time>
      </trkpt>
      <trkpt lat="47.28429" lon="-2.35413">
        <ele>131.80000305176</ele>
        <time>2020-12-10T08:47:45.000Z</time>
      </trkpt>
      <trkpt lat="47.2843" lon="-2.35412">
        <ele>132.19999694824</ele>
        <time>2020-12-10T08:47:46.000Z</time>
      </trkpt>
      <trkpt lat="47.28432" lon="-2.35411">
        <ele>132.60000610352</ele>
        <time>2020-12-10T08:47:47.000Z</time>
      </trkpt>
      <trkpt lat="47.28434" lon="-2.3541">
        <ele>133</ele>
        <time>2020-12-10T08:47:48.000Z</time>
      </trkpt>
      <trkpt lat="47.28443" lon="-2.35412">
        <ele>133</ele>
        <time>2020-12-10T08:47:53.000Z</time>
      </trkpt>
      <trkpt lat="47.28449" lon="-2.354">
        <ele>133</ele>
        <time>2020-12-10T08:47:58.000Z</time>
      </trkpt>
      <trkpt lat="47.28452" lon="-2.35394">
        <ele>132.60000610352</ele>
        <time>2020-12-10T08:47:59.000Z</time>
      </trkpt>
      <trkpt lat="47.28453" lon="-2.35389">
        <ele>132</ele>
        <time>2020-12-10T08:48:00.000Z</time>
      </trkpt>
      <trkpt lat="47.28455" lon="-2.35384">
        <ele>131.60000610352</ele>
        <time>2020-12-10T08:48:01.000Z</time>
      </trkpt>
      <trkpt lat="47.28456" lon="-2.3538">
        <ele>131.19999694824</ele>
        <time>2020-12-10T08:48:02.000Z</time>
      </trkpt>
      <trkpt lat="47.28457" lon="-2.35376">
        <ele>130.80000305176</ele>
        <time>2020-12-10T08:48:03.000Z</time>
      </trkpt>
      <trkpt lat="47.28458" lon="-2.35371">
        <ele>130.39999389648</ele>
        <time>2020-12-10T08:48:04.000Z</time>
      </trkpt>
      <trkpt lat="47.28458" lon="-2.35367">
        <ele>130</ele>
        <time>2020-12-10T08:48:05.000Z</time>
      </trkpt>
      <trkpt lat="47.28459" lon="-2.35363">
        <ele>129.39999389648</ele>
        <time>2020-12-10T08:48:06.000Z</time>
      </trkpt>
      <trkpt lat="47.2846" lon="-2.35359">
        <ele>129</ele>
        <time>2020-12-10T08:48:07.000Z</time>
      </trkpt>
      <trkpt lat="47.28461" lon="-2.35356">
        <ele>128.39999389648</ele>
        <time>2020-12-10T08:48:08.000Z</time>
      </trkpt>
      <trkpt lat="47.28461" lon="-2.35353">
        <ele>127.40000152588</ele>
        <time>2020-12-10T08:48:09.000Z</time>
      </trkpt>
      <trkpt lat="47.28463" lon="-2.35352">
        <ele>126.80000305176</ele>
        <time>2020-12-10T08:48:10.000Z</time>
      </trkpt>
      <trkpt lat="47.28465" lon="-2.35352">
        <ele>126.19999694824</ele>
        <time>2020-12-10T08:48:11.000Z</time>
      </trkpt>
      <trkpt lat="47.2847" lon="-2.35355">
        <ele>125.80000305176</ele>
        <time>2020-12-10T08:48:13.000Z</time>
      </trkpt>
      <trkpt lat="47.28473" lon="-2.35357">
        <ele>125.40000152588</ele>
        <time>2020-12-10T08:48:14.000Z</time>
      </trkpt>
      <trkpt lat="47.28476" lon="-2.3536">
        <ele>125</ele>
        <time>2020-12-10T08:48:15.000Z</time>
      </trkpt>
      <trkpt lat="47.28479" lon="-2.35364">
        <ele>124.59999847412</ele>
        <time>2020-12-10T08:48:16.000Z</time>
      </trkpt>
      <trkpt lat="47.28481" lon="-2.35368">
        <ele>124</ele>
        <time>2020-12-10T08:48:17.000Z</time>
      </trkpt>
      <trkpt lat="47.28484" lon="-2.35377">
        <ele>124</ele>
        <time>2020-12-10T08:48:19.000Z</time>
      </trkpt>
      <trkpt lat="47.2849" lon="-2.35406">
        <ele>124</ele>
        <time>2020-12-10T08:48:25.000Z</time>
      </trkpt>
      <trkpt lat="47.28493" lon="-2.35421">
        <ele>124.59999847412</ele>
        <time>2020-12-10T08:48:29.000Z</time>
      </trkpt>
      <trkpt lat="47.28494" lon="-2.35423">
        <ele>125</ele>
        <time>2020-12-10T08:48:30.000Z</time>
      </trkpt>
      <trkpt lat="47.28494" lon="-2.35425">
        <ele>125.40000152588</ele>
        <time>2020-12-10T08:48:31.000Z</time>
      </trkpt>
      <trkpt lat="47.28494" lon="-2.35427">
        <ele>125.80000305176</ele>
        <time>2020-12-10T08:48:32.000Z</time>
      </trkpt>
      <trkpt lat="47.28493" lon="-2.35429">
        <ele>126.19999694824</ele>
        <time>2020-12-10T08:48:33.000Z</time>
      </trkpt>
      <trkpt lat="47.28492" lon="-2.35433">
        <ele>126.80000305176</ele>
        <time>2020-12-10T08:48:35.000Z</time>
      </trkpt>
      <trkpt lat="47.2849" lon="-2.35434">
        <ele>127.19999694824</ele>
        <time>2020-12-10T08:48:36.000Z</time>
      </trkpt>
      <trkpt lat="47.28489" lon="-2.35436">
        <ele>127.59999847412</ele>
        <time>2020-12-10T08:48:37.000Z</time>
      </trkpt>
      <trkpt lat="47.28487" lon="-2.35437">
        <ele>128</ele>
        <time>2020-12-10T08:48:38.000Z</time>
      </trkpt>
      <trkpt lat="47.28486" lon="-2.35438">
        <ele>128.39999389648</ele>
        <time>2020-12-10T08:48:39.000Z</time>
      </trkpt>
      <trkpt lat="47.28484" lon="-2.35439">
        <ele>128.39999389648</ele>
        <time>2020-12-10T08:48:40.000Z</time>
      </trkpt>
      <trkpt lat="47.28478" lon="-2.35439">
        <ele>128.80000305176</ele>
        <time>2020-12-10T08:48:43.000Z</time>
      </trkpt>
      <trkpt lat="47.28476" lon="-2.35438">
        <ele>129.39999389648</ele>
        <time>2020-12-10T08:48:44.000Z</time>
      </trkpt>
      <trkpt lat="47.28475" lon="-2.35438">
        <ele>129.80000305176</ele>
        <time>2020-12-10T08:48:45.000Z</time>
      </trkpt>
      <trkpt lat="47.28473" lon="-2.35437">
        <ele>130.19999694824</ele>
        <time>2020-12-10T08:48:46.000Z</time>
      </trkpt>
      <trkpt lat="47.28472" lon="-2.35436">
        <ele>130.60000610352</ele>
        <time>2020-12-10T08:48:47.000Z</time>
      </trkpt>
      <trkpt lat="47.2847" lon="-2.35435">
        <ele>130.60000610352</ele>
        <time>2020-12-10T08:48:48.000Z</time>
      </trkpt>
      <trkpt lat="47.28469" lon="-2.35433">
        <ele>130.60000610352</ele>
        <time>2020-12-10T08:48:49.000Z</time>
      </trkpt>
      <trkpt lat="47.28466" lon="-2.3543">
        <ele>131</ele>
        <time>2020-12-10T08:48:51.000Z</time>
      </trkpt>
      <trkpt lat="47.28464" lon="-2.35428">
        <ele>131.39999389648</ele>
        <time>2020-12-10T08:48:52.000Z</time>
      </trkpt>
      <trkpt lat="47.28462" lon="-2.35428">
        <ele>131.80000305176</ele>
        <time>2020-12-10T08:48:53.000Z</time>
      </trkpt>
      <trkpt lat="47.2846" lon="-2.35428">
        <ele>132.19999694824</ele>
        <time>2020-12-10T08:48:54.000Z</time>
      </trkpt>
      <trkpt lat="47.28458" lon="-2.35429">
        <ele>132.60000610352</ele>
        <time>2020-12-10T08:48:55.000Z</time>
      </trkpt>
      <trkpt lat="47.28451" lon="-2.35435">
        <ele>132.60000610352</ele>
        <time>2020-12-10T08:49:00.000Z</time>
      </trkpt>
      <trkpt lat="47.2845" lon="-2.35442">
        <ele>132.60000610352</ele>
        <time>2020-12-10T08:49:05.000Z</time>
      </trkpt>
      <trkpt lat="47.28451" lon="-2.35442">
        <ele>133</ele>
        <time>2020-12-10T08:49:06.000Z</time>
      </trkpt>
      <trkpt lat="47.28451" lon="-2.35443">
        <ele>133.39999389648</ele>
        <time>2020-12-10T08:49:07.000Z</time>
      </trkpt>
      <trkpt lat="47.28452" lon="-2.35444">
        <ele>134</ele>
        <time>2020-12-10T08:49:08.000Z</time>
      </trkpt>
      <trkpt lat="47.28453" lon="-2.35446">
        <ele>134.39999389648</ele>
        <time>2020-12-10T08:49:09.000Z</time>
      </trkpt>
      <trkpt lat="47.28453" lon="-2.35447">
        <ele>134.80000305176</ele>
        <time>2020-12-10T08:49:10.000Z</time>
      </trkpt>
      <trkpt lat="47.28455" lon="-2.35454">
        <ele>134.80000305176</ele>
        <time>2020-12-10T08:49:13.000Z</time>
      </trkpt>
      <trkpt lat="47.28456" lon="-2.35458">
        <ele>135.19999694824</ele>
        <time>2020-12-10T08:49:15.000Z</time>
      </trkpt>
      <trkpt lat="47.28456" lon="-2.3546">
        <ele>135.60000610352</ele>
        <time>2020-12-10T08:49:16.000Z</time>
      </trkpt>
      <trkpt lat="47.28455" lon="-2.35462">
        <ele>136</ele>
        <time>2020-12-10T08:49:17.000Z</time>
      </trkpt>
      <trkpt lat="47.28455" lon="-2.35465">
        <ele>136.60000610352</ele>
        <time>2020-12-10T08:49:18.000Z</time>
      </trkpt>
      <trkpt lat="47.28455" lon="-2.35467">
        <ele>137</ele>
        <time>2020-12-10T08:49:19.000Z</time>
      </trkpt>
      <trkpt lat="47.28456" lon="-2.3547">
        <ele>137</ele>
        <time>2020-12-10T08:49:20.000Z</time>
      </trkpt>
      <trkpt lat="47.28465" lon="-2.35485">
        <ele>137.39999389648</ele>
        <time>2020-12-10T08:49:26.000Z</time>
      </trkpt>
      <trkpt lat="47.28466" lon="-2.35487">
        <ele>137.80000305176</ele>
        <time>2020-12-10T08:49:27.000Z</time>
      </trkpt>
      <trkpt lat="47.28467" lon="-2.35489">
        <ele>138.19999694824</ele>
        <time>2020-12-10T08:49:28.000Z</time>
      </trkpt>
      <trkpt lat="47.28468" lon="-2.35491">
        <ele>138.80000305176</ele>
        <time>2020-12-10T08:49:29.000Z</time>
      </trkpt>
      <trkpt lat="47.28469" lon="-2.35493">
        <ele>139.19999694824</ele>
        <time>2020-12-10T08:49:30.000Z</time>
      </trkpt>
      <trkpt lat="47.28471" lon="-2.35499">
        <ele>139.60000610352</ele>
        <time>2020-12-10T08:49:33.000Z</time>
      </trkpt>
      <trkpt lat="47.28472" lon="-2.355">
        <ele>140</ele>
        <time>2020-12-10T08:49:34.000Z</time>
      </trkpt>
      <trkpt lat="47.28474" lon="-2.35502">
        <ele>140.39999389648</ele>
        <time>2020-12-10T08:49:35.000Z</time>
      </trkpt>
      <trkpt lat="47.28475" lon="-2.35504">
        <ele>140.80000305176</ele>
        <time>2020-12-10T08:49:36.000Z</time>
      </trkpt>
      <trkpt lat="47.28475" lon="-2.35507">
        <ele>141.19999694824</ele>
        <time>2020-12-10T08:49:37.000Z</time>
      </trkpt>
      <trkpt lat="47.28479" lon="-2.35516">
        <ele>141.19999694824</ele>
        <time>2020-12-10T08:49:40.000Z</time>
      </trkpt>
      <trkpt lat="47.28484" lon="-2.3554">
        <ele>141.19999694824</ele>
        <time>2020-12-10T08:49:46.000Z</time>
      </trkpt>
      <trkpt lat="47.28492" lon="-2.35558">
        <ele>141.19999694824</ele>
        <time>2020-12-10T08:49:50.000Z</time>
      </trkpt>
      <trkpt lat="47.28501" lon="-2.35588">
        <ele>141.19999694824</ele>
        <time>2020-12-10T08:49:56.000Z</time>
      </trkpt>
      <trkpt lat="47.28503" lon="-2.35598">
        <ele>140.80000305176</ele>
        <time>2020-12-10T08:49:58.000Z</time>
      </trkpt>
      <trkpt lat="47.28505" lon="-2.35602">
        <ele>140.39999389648</ele>
        <time>2020-12-10T08:49:59.000Z</time>
      </trkpt>
      <trkpt lat="47.28507" lon="-2.35604">
        <ele>140</ele>
        <time>2020-12-10T08:50:00.000Z</time>
      </trkpt>
      <trkpt lat="47.28509" lon="-2.35604">
        <ele>139.39999389648</ele>
        <time>2020-12-10T08:50:01.000Z</time>
      </trkpt>
      <trkpt lat="47.28511" lon="-2.35604">
        <ele>139</ele>
        <time>2020-12-10T08:50:02.000Z</time>
      </trkpt>
      <trkpt lat="47.28517" lon="-2.35605">
        <ele>139</ele>
        <time>2020-12-10T08:50:04.000Z</time>
      </trkpt>
      <trkpt lat="47.28533" lon="-2.35609">
        <ele>139</ele>
        <time>2020-12-10T08:50:09.000Z</time>
      </trkpt>
      <trkpt lat="47.28535" lon="-2.35608">
        <ele>139</ele>
        <time>2020-12-10T08:50:10.000Z</time>
      </trkpt>
      <trkpt lat="47.28543" lon="-2.35608">
        <ele>138.19999694824</ele>
        <time>2020-12-10T08:50:13.000Z</time>
      </trkpt>
      <trkpt lat="47.28546" lon="-2.3561">
        <ele>137.80000305176</ele>
        <time>2020-12-10T08:50:14.000Z</time>
      </trkpt>
      <trkpt lat="47.28548" lon="-2.35612">
        <ele>137.39999389648</ele>
        <time>2020-12-10T08:50:15.000Z</time>
      </trkpt>
      <trkpt lat="47.28549" lon="-2.35615">
        <ele>137</ele>
        <time>2020-12-10T08:50:16.000Z</time>
      </trkpt>
      <trkpt lat="47.2855" lon="-2.35618">
        <ele>137</ele>
        <time>2020-12-10T08:50:17.000Z</time>
      </trkpt>
      <trkpt lat="47.28549" lon="-2.35621">
        <ele>137</ele>
        <time>2020-12-10T08:50:18.000Z</time>
      </trkpt>
      <trkpt lat="47.28547" lon="-2.35633">
        <ele>136.60000610352</ele>
        <time>2020-12-10T08:50:21.000Z</time>
      </trkpt>
      <trkpt lat="47.28546" lon="-2.35639">
        <ele>136</ele>
        <time>2020-12-10T08:50:22.000Z</time>
      </trkpt>
      <trkpt lat="47.28546" lon="-2.35645">
        <ele>135.39999389648</ele>
        <time>2020-12-10T08:50:23.000Z</time>
      </trkpt>
      <trkpt lat="47.28545" lon="-2.35652">
        <ele>135</ele>
        <time>2020-12-10T08:50:24.000Z</time>
      </trkpt>
      <trkpt lat="47.28545" lon="-2.35659">
        <ele>134.39999389648</ele>
        <time>2020-12-10T08:50:25.000Z</time>
      </trkpt>
      <trkpt lat="47.28545" lon="-2.35667">
        <ele>134</ele>
        <time>2020-12-10T08:50:26.000Z</time>
      </trkpt>
      <trkpt lat="47.28544" lon="-2.35673">
        <ele>133.39999389648</ele>
        <time>2020-12-10T08:50:27.000Z</time>
      </trkpt>
      <trkpt lat="47.28543" lon="-2.35679">
        <ele>132.80000305176</ele>
        <time>2020-12-10T08:50:28.000Z</time>
      </trkpt>
      <trkpt lat="47.28542" lon="-2.35685">
        <ele>132.39999389648</ele>
        <time>2020-12-10T08:50:29.000Z</time>
      </trkpt>
      <trkpt lat="47.28541" lon="-2.35709">
        <ele>132.39999389648</ele>
        <time>2020-12-10T08:50:34.000Z</time>
      </trkpt>
      <trkpt lat="47.28539" lon="-2.35715">
        <ele>132.39999389648</ele>
        <time>2020-12-10T08:50:38.000Z</time>
      </trkpt>
      <trkpt lat="47.28535" lon="-2.35725">
        <ele>130.39999389648</ele>
        <time>2020-12-10T08:51:25.000Z</time>
      </trkpt>
      <trkpt lat="47.28541" lon="-2.35738">
        <ele>130.39999389648</ele>
        <time>2020-12-10T08:51:31.000Z</time>
      </trkpt>
      <trkpt lat="47.28548" lon="-2.35759">
        <ele>130.39999389648</ele>
        <time>2020-12-10T08:51:37.000Z</time>
      </trkpt>
      <trkpt lat="47.28553" lon="-2.35786">
        <ele>130.39999389648</ele>
        <time>2020-12-10T08:51:44.000Z</time>
      </trkpt>
      <trkpt lat="47.2856" lon="-2.35805">
        <ele>130.39999389648</ele>
        <time>2020-12-10T08:51:50.000Z</time>
      </trkpt>
      <trkpt lat="47.2856" lon="-2.35808">
        <ele>130.39999389648</ele>
        <time>2020-12-10T08:51:51.000Z</time>
      </trkpt>
      <trkpt lat="47.2856" lon="-2.35811">
        <ele>130.80000305176</ele>
        <time>2020-12-10T08:51:52.000Z</time>
      </trkpt>
      <trkpt lat="47.2856" lon="-2.35814">
        <ele>131.19999694824</ele>
        <time>2020-12-10T08:51:53.000Z</time>
      </trkpt>
      <trkpt lat="47.28561" lon="-2.35818">
        <ele>131.60000610352</ele>
        <time>2020-12-10T08:51:54.000Z</time>
      </trkpt>
      <trkpt lat="47.28562" lon="-2.35821">
        <ele>132</ele>
        <time>2020-12-10T08:51:55.000Z</time>
      </trkpt>
      <trkpt lat="47.28563" lon="-2.35826">
        <ele>132.39999389648</ele>
        <time>2020-12-10T08:51:56.000Z</time>
      </trkpt>
      <trkpt lat="47.28563" lon="-2.3583">
        <ele>132.39999389648</ele>
        <time>2020-12-10T08:51:57.000Z</time>
      </trkpt>
      <trkpt lat="47.28566" lon="-2.35844">
        <ele>132.39999389648</ele>
        <time>2020-12-10T08:52:00.000Z</time>
      </trkpt>
      <trkpt lat="47.28577" lon="-2.3587">
        <ele>132.80000305176</ele>
        <time>2020-12-10T08:52:06.000Z</time>
      </trkpt>
      <trkpt lat="47.28578" lon="-2.35875">
        <ele>133.39999389648</ele>
        <time>2020-12-10T08:52:07.000Z</time>
      </trkpt>
      <trkpt lat="47.2858" lon="-2.3588">
        <ele>133.80000305176</ele>
        <time>2020-12-10T08:52:08.000Z</time>
      </trkpt>
      <trkpt lat="47.28582" lon="-2.35886">
        <ele>134.19999694824</ele>
        <time>2020-12-10T08:52:09.000Z</time>
      </trkpt>
      <trkpt lat="47.28584" lon="-2.3589">
        <ele>134.80000305176</ele>
        <time>2020-12-10T08:52:10.000Z</time>
      </trkpt>
      <trkpt lat="47.28592" lon="-2.35916">
        <ele>134.80000305176</ele>
        <time>2020-12-10T08:52:15.000Z</time>
      </trkpt>
      <trkpt lat="47.28599" lon="-2.35944">
        <ele>134.80000305176</ele>
        <time>2020-12-10T08:52:21.000Z</time>
      </trkpt>
      <trkpt lat="47.2861" lon="-2.3598">
        <ele>134.80000305176</ele>
        <time>2020-12-10T08:52:28.000Z</time>
      </trkpt>
      <trkpt lat="47.28625" lon="-2.36014">
        <ele>134.80000305176</ele>
        <time>2020-12-10T08:52:35.000Z</time>
      </trkpt>
      <trkpt lat="47.2863" lon="-2.36024">
        <ele>135.19999694824</ele>
        <time>2020-12-10T08:52:37.000Z</time>
      </trkpt>
      <trkpt lat="47.28632" lon="-2.36029">
        <ele>135.60000610352</ele>
        <time>2020-12-10T08:52:38.000Z</time>
      </trkpt>
      <trkpt lat="47.28634" lon="-2.36034">
        <ele>136</ele>
        <time>2020-12-10T08:52:39.000Z</time>
      </trkpt>
      <trkpt lat="47.28636" lon="-2.3604">
        <ele>136.39999389648</ele>
        <time>2020-12-10T08:52:40.000Z</time>
      </trkpt>
      <trkpt lat="47.28638" lon="-2.36045">
        <ele>136.80000305176</ele>
        <time>2020-12-10T08:52:41.000Z</time>
      </trkpt>
      <trkpt lat="47.2864" lon="-2.36051">
        <ele>136.80000305176</ele>
        <time>2020-12-10T08:52:42.000Z</time>
      </trkpt>
      <trkpt lat="47.28641" lon="-2.36057">
        <ele>136.80000305176</ele>
        <time>2020-12-10T08:52:43.000Z</time>
      </trkpt>
      <trkpt lat="47.28645" lon="-2.36069">
        <ele>136.80000305176</ele>
        <time>2020-12-10T08:52:45.000Z</time>
      </trkpt>
      <trkpt lat="47.2865" lon="-2.36082">
        <ele>136.80000305176</ele>
        <time>2020-12-10T08:52:48.000Z</time>
      </trkpt>
      <trkpt lat="47.28652" lon="-2.36087">
        <ele>137.19999694824</ele>
        <time>2020-12-10T08:52:49.000Z</time>
      </trkpt>
      <trkpt lat="47.28655" lon="-2.36092">
        <ele>137.60000610352</ele>
        <time>2020-12-10T08:52:50.000Z</time>
      </trkpt>
      <trkpt lat="47.28657" lon="-2.36097">
        <ele>138</ele>
        <time>2020-12-10T08:52:51.000Z</time>
      </trkpt>
      <trkpt lat="47.2866" lon="-2.36103">
        <ele>138.39999389648</ele>
        <time>2020-12-10T08:52:52.000Z</time>
      </trkpt>
      <trkpt lat="47.28662" lon="-2.36108">
        <ele>138.80000305176</ele>
        <time>2020-12-10T08:52:53.000Z</time>
      </trkpt>
      <trkpt lat="47.2867" lon="-2.36135">
        <ele>138.80000305176</ele>
        <time>2020-12-10T08:52:58.000Z</time>
      </trkpt>
      <trkpt lat="47.28675" lon="-2.36155">
        <ele>138.80000305176</ele>
        <time>2020-12-10T08:53:03.000Z</time>
      </trkpt>
      <trkpt lat="47.28679" lon="-2.36164">
        <ele>138.80000305176</ele>
        <time>2020-12-10T08:53:10.000Z</time>
      </trkpt>
      <trkpt lat="47.28684" lon="-2.36174">
        <ele>138.80000305176</ele>
        <time>2020-12-10T08:53:16.000Z</time>
      </trkpt>
      <trkpt lat="47.28692" lon="-2.36193">
        <ele>138.80000305176</ele>
        <time>2020-12-10T08:53:21.000Z</time>
      </trkpt>
      <trkpt lat="47.28702" lon="-2.36222">
        <ele>138.80000305176</ele>
        <time>2020-12-10T08:53:27.000Z</time>
      </trkpt>
      <trkpt lat="47.28717" lon="-2.3624">
        <ele>138.80000305176</ele>
        <time>2020-12-10T08:53:33.000Z</time>
      </trkpt>
      <trkpt lat="47.2873" lon="-2.36251">
        <ele>138.80000305176</ele>
        <time>2020-12-10T08:53:37.000Z</time>
      </trkpt>
      <trkpt lat="47.28744" lon="-2.36269">
        <ele>138.80000305176</ele>
        <time>2020-12-10T08:53:42.000Z</time>
      </trkpt>
      <trkpt lat="47.28753" lon="-2.36279">
        <ele>139.19999694824</ele>
        <time>2020-12-10T08:53:47.000Z</time>
      </trkpt>
      <trkpt lat="47.28754" lon="-2.36281">
        <ele>139.60000610352</ele>
        <time>2020-12-10T08:53:48.000Z</time>
      </trkpt>
      <trkpt lat="47.28754" lon="-2.36283">
        <ele>140</ele>
        <time>2020-12-10T08:53:49.000Z</time>
      </trkpt>
      <trkpt lat="47.28755" lon="-2.36285">
        <ele>140.60000610352</ele>
        <time>2020-12-10T08:53:50.000Z</time>
      </trkpt>
      <trkpt lat="47.28755" lon="-2.36287">
        <ele>141</ele>
        <time>2020-12-10T08:53:51.000Z</time>
      </trkpt>
      <trkpt lat="47.28756" lon="-2.36292">
        <ele>141</ele>
        <time>2020-12-10T08:53:54.000Z</time>
      </trkpt>
      <trkpt lat="47.28757" lon="-2.36303">
        <ele>141.39999389648</ele>
        <time>2020-12-10T08:53:59.000Z</time>
      </trkpt>
      <trkpt lat="47.28757" lon="-2.36305">
        <ele>141.80000305176</ele>
        <time>2020-12-10T08:54:00.000Z</time>
      </trkpt>
      <trkpt lat="47.28757" lon="-2.36307">
        <ele>142.19999694824</ele>
        <time>2020-12-10T08:54:01.000Z</time>
      </trkpt>
      <trkpt lat="47.28757" lon="-2.3631">
        <ele>142.60000610352</ele>
        <time>2020-12-10T08:54:02.000Z</time>
      </trkpt>
      <trkpt lat="47.28757" lon="-2.36314">
        <ele>143</ele>
        <time>2020-12-10T08:54:03.000Z</time>
      </trkpt>
      <trkpt lat="47.28757" lon="-2.3632">
        <ele>143</ele>
        <time>2020-12-10T08:54:05.000Z</time>
      </trkpt>
      <trkpt lat="47.28758" lon="-2.36333">
        <ele>143.39999389648</ele>
        <time>2020-12-10T08:54:09.000Z</time>
      </trkpt>
      <trkpt lat="47.28758" lon="-2.36336">
        <ele>143.80000305176</ele>
        <time>2020-12-10T08:54:10.000Z</time>
      </trkpt>
      <trkpt lat="47.28758" lon="-2.36339">
        <ele>144.19999694824</ele>
        <time>2020-12-10T08:54:11.000Z</time>
      </trkpt>
      <trkpt lat="47.28758" lon="-2.36343">
        <ele>144.80000305176</ele>
        <time>2020-12-10T08:54:12.000Z</time>
      </trkpt>
      <trkpt lat="47.28757" lon="-2.36347">
        <ele>145.19999694824</ele>
        <time>2020-12-10T08:54:13.000Z</time>
      </trkpt>
      <trkpt lat="47.28752" lon="-2.36366">
        <ele>145.19999694824</ele>
        <time>2020-12-10T08:54:18.000Z</time>
      </trkpt>
      <trkpt lat="47.28748" lon="-2.36388">
        <ele>145.19999694824</ele>
        <time>2020-12-10T08:54:25.000Z</time>
      </trkpt>
      <trkpt lat="47.28747" lon="-2.3639">
        <ele>145.19999694824</ele>
        <time>2020-12-10T08:54:26.000Z</time>
      </trkpt>
      <trkpt lat="47.28743" lon="-2.36387">
        <ele>145.19999694824</ele>
        <time>2020-12-10T08:54:30.000Z</time>
      </trkpt>
      <trkpt lat="47.28737" lon="-2.36384">
        <ele>145.19999694824</ele>
        <time>2020-12-10T08:54:32.000Z</time>
      </trkpt>
      <trkpt lat="47.28723" lon="-2.36388">
        <ele>145.19999694824</ele>
        <time>2020-12-10T08:54:37.000Z</time>
      </trkpt>
      <trkpt lat="47.28713" lon="-2.36393">
        <ele>145.19999694824</ele>
        <time>2020-12-10T08:54:40.000Z</time>
      </trkpt>
      <trkpt lat="47.28703" lon="-2.36397">
        <ele>145.19999694824</ele>
        <time>2020-12-10T08:54:43.000Z</time>
      </trkpt>
      <trkpt lat="47.28699" lon="-2.36399">
        <ele>145.60000610352</ele>
        <time>2020-12-10T08:54:44.000Z</time>
      </trkpt>
      <trkpt lat="47.28697" lon="-2.36402">
        <ele>146.39999389648</ele>
        <time>2020-12-10T08:54:45.000Z</time>
      </trkpt>
      <trkpt lat="47.28696" lon="-2.36405">
        <ele>147</ele>
        <time>2020-12-10T08:54:46.000Z</time>
      </trkpt>
      <trkpt lat="47.28695" lon="-2.36409">
        <ele>147.39999389648</ele>
        <time>2020-12-10T08:54:47.000Z</time>
      </trkpt>
      <trkpt lat="47.28694" lon="-2.36412">
        <ele>147.39999389648</ele>
        <time>2020-12-10T08:54:48.000Z</time>
      </trkpt>
      <trkpt lat="47.28696" lon="-2.36437">
        <ele>147.39999389648</ele>
        <time>2020-12-10T08:54:54.000Z</time>
      </trkpt>
      <trkpt lat="47.28699" lon="-2.36468">
        <ele>147.39999389648</ele>
        <time>2020-12-10T08:55:01.000Z</time>
      </trkpt>
      <trkpt lat="47.28696" lon="-2.36498">
        <ele>147.39999389648</ele>
        <time>2020-12-10T08:55:07.000Z</time>
      </trkpt>
      <trkpt lat="47.28691" lon="-2.36512">
        <ele>147.80000305176</ele>
        <time>2020-12-10T08:55:10.000Z</time>
      </trkpt>
      <trkpt lat="47.28689" lon="-2.36515">
        <ele>148.19999694824</ele>
        <time>2020-12-10T08:55:11.000Z</time>
      </trkpt>
      <trkpt lat="47.28688" lon="-2.36517">
        <ele>148.60000610352</ele>
        <time>2020-12-10T08:55:12.000Z</time>
      </trkpt>
      <trkpt lat="47.28686" lon="-2.36519">
        <ele>149</ele>
        <time>2020-12-10T08:55:13.000Z</time>
      </trkpt>
      <trkpt lat="47.28684" lon="-2.36521">
        <ele>149.60000610352</ele>
        <time>2020-12-10T08:55:14.000Z</time>
      </trkpt>
      <trkpt lat="47.2868" lon="-2.36525">
        <ele>150</ele>
        <time>2020-12-10T08:55:17.000Z</time>
      </trkpt>
      <trkpt lat="47.28678" lon="-2.36527">
        <ele>150.39999389648</ele>
        <time>2020-12-10T08:55:18.000Z</time>
      </trkpt>
      <trkpt lat="47.28677" lon="-2.36528">
        <ele>150.80000305176</ele>
        <time>2020-12-10T08:55:19.000Z</time>
      </trkpt>
      <trkpt lat="47.28676" lon="-2.36528">
        <ele>151.19999694824</ele>
        <time>2020-12-10T08:55:20.000Z</time>
      </trkpt>
      <trkpt lat="47.28664" lon="-2.36506">
        <ele>153.80000305176</ele>
        <time>2020-12-10T08:55:44.000Z</time>
      </trkpt>
      <trkpt lat="47.28664" lon="-2.36501">
        <ele>153.80000305176</ele>
        <time>2020-12-10T08:55:46.000Z</time>
      </trkpt>
      <trkpt lat="47.28662" lon="-2.36488">
        <ele>154.19999694824</ele>
        <time>2020-12-10T08:55:51.000Z</time>
      </trkpt>
      <trkpt lat="47.28661" lon="-2.36485">
        <ele>154.60000610352</ele>
        <time>2020-12-10T08:55:52.000Z</time>
      </trkpt>
      <trkpt lat="47.28661" lon="-2.36481">
        <ele>155</ele>
        <time>2020-12-10T08:55:53.000Z</time>
      </trkpt>
      <trkpt lat="47.28661" lon="-2.36477">
        <ele>155.39999389648</ele>
        <time>2020-12-10T08:55:54.000Z</time>
      </trkpt>
      <trkpt lat="47.28661" lon="-2.36474">
        <ele>155.80000305176</ele>
        <time>2020-12-10T08:55:55.000Z</time>
      </trkpt>
      <trkpt lat="47.28661" lon="-2.36461">
        <ele>155.80000305176</ele>
        <time>2020-12-10T08:55:59.000Z</time>
      </trkpt>
      <trkpt lat="47.28661" lon="-2.36446">
        <ele>155.80000305176</ele>
        <time>2020-12-10T08:56:03.000Z</time>
      </trkpt>
      <trkpt lat="47.28657" lon="-2.36437">
        <ele>155.80000305176</ele>
        <time>2020-12-10T08:56:05.000Z</time>
      </trkpt>
      <trkpt lat="47.28648" lon="-2.36422">
        <ele>155.80000305176</ele>
        <time>2020-12-10T08:56:11.000Z</time>
      </trkpt>
      <trkpt lat="47.28644" lon="-2.36417">
        <ele>155.80000305176</ele>
        <time>2020-12-10T08:56:14.000Z</time>
      </trkpt>
      <trkpt lat="47.2864" lon="-2.36419">
        <ele>155.80000305176</ele>
        <time>2020-12-10T08:56:21.000Z</time>
      </trkpt>
      <trkpt lat="47.28639" lon="-2.36422">
        <ele>155.80000305176</ele>
        <time>2020-12-10T08:56:22.000Z</time>
      </trkpt>
      <trkpt lat="47.28628" lon="-2.36443">
        <ele>155.39999389648</ele>
        <time>2020-12-10T08:56:27.000Z</time>
      </trkpt>
      <trkpt lat="47.28625" lon="-2.36447">
        <ele>155</ele>
        <time>2020-12-10T08:56:28.000Z</time>
      </trkpt>
      <trkpt lat="47.28621" lon="-2.36452">
        <ele>154.39999389648</ele>
        <time>2020-12-10T08:56:29.000Z</time>
      </trkpt>
      <trkpt lat="47.28617" lon="-2.36456">
        <ele>154</ele>
        <time>2020-12-10T08:56:30.000Z</time>
      </trkpt>
      <trkpt lat="47.28614" lon="-2.3646">
        <ele>153.60000610352</ele>
        <time>2020-12-10T08:56:31.000Z</time>
      </trkpt>
      <trkpt lat="47.28609" lon="-2.36464">
        <ele>153</ele>
        <time>2020-12-10T08:56:32.000Z</time>
      </trkpt>
      <trkpt lat="47.28604" lon="-2.36467">
        <ele>152.60000610352</ele>
        <time>2020-12-10T08:56:33.000Z</time>
      </trkpt>
      <trkpt lat="47.28599" lon="-2.36469">
        <ele>151.80000305176</ele>
        <time>2020-12-10T08:56:34.000Z</time>
      </trkpt>
      <trkpt lat="47.28594" lon="-2.36471">
        <ele>151</ele>
        <time>2020-12-10T08:56:35.000Z</time>
      </trkpt>
      <trkpt lat="47.28589" lon="-2.36472">
        <ele>150.39999389648</ele>
        <time>2020-12-10T08:56:36.000Z</time>
      </trkpt>
      <trkpt lat="47.28587" lon="-2.36474">
        <ele>149.60000610352</ele>
        <time>2020-12-10T08:56:37.000Z</time>
      </trkpt>
      <trkpt lat="47.28585" lon="-2.36477">
        <ele>149</ele>
        <time>2020-12-10T08:56:38.000Z</time>
      </trkpt>
      <trkpt lat="47.28585" lon="-2.36484">
        <ele>149</ele>
        <time>2020-12-10T08:56:40.000Z</time>
      </trkpt>
      <trkpt lat="47.28589" lon="-2.36495">
        <ele>148.39999389648</ele>
        <time>2020-12-10T08:56:42.000Z</time>
      </trkpt>
      <trkpt lat="47.28591" lon="-2.36502">
        <ele>148</ele>
        <time>2020-12-10T08:56:43.000Z</time>
      </trkpt>
      <trkpt lat="47.28595" lon="-2.36509">
        <ele>147.60000610352</ele>
        <time>2020-12-10T08:56:44.000Z</time>
      </trkpt>
      <trkpt lat="47.28599" lon="-2.36516">
        <ele>147.19999694824</ele>
        <time>2020-12-10T08:56:45.000Z</time>
      </trkpt>
      <trkpt lat="47.28603" lon="-2.36523">
        <ele>146.60000610352</ele>
        <time>2020-12-10T08:56:46.000Z</time>
      </trkpt>
      <trkpt lat="47.28607" lon="-2.36532">
        <ele>146</ele>
        <time>2020-12-10T08:56:47.000Z</time>
      </trkpt>
      <trkpt lat="47.28612" lon="-2.3654">
        <ele>144.60000610352</ele>
        <time>2020-12-10T08:56:48.000Z</time>
      </trkpt>
      <trkpt lat="47.28616" lon="-2.36549">
        <ele>144</ele>
        <time>2020-12-10T08:56:49.000Z</time>
      </trkpt>
      <trkpt lat="47.28621" lon="-2.36557">
        <ele>143.19999694824</ele>
        <time>2020-12-10T08:56:50.000Z</time>
      </trkpt>
      <trkpt lat="47.28624" lon="-2.36565">
        <ele>142.60000610352</ele>
        <time>2020-12-10T08:56:51.000Z</time>
      </trkpt>
      <trkpt lat="47.28627" lon="-2.36571">
        <ele>142</ele>
        <time>2020-12-10T08:56:52.000Z</time>
      </trkpt>
      <trkpt lat="47.2863" lon="-2.36577">
        <ele>141.39999389648</ele>
        <time>2020-12-10T08:56:53.000Z</time>
      </trkpt>
      <trkpt lat="47.28632" lon="-2.36582">
        <ele>140.80000305176</ele>
        <time>2020-12-10T08:56:54.000Z</time>
      </trkpt>
      <trkpt lat="47.28634" lon="-2.36586">
        <ele>140.19999694824</ele>
        <time>2020-12-10T08:56:55.000Z</time>
      </trkpt>
      <trkpt lat="47.28636" lon="-2.36588">
        <ele>139.60000610352</ele>
        <time>2020-12-10T08:56:56.000Z</time>
      </trkpt>
      <trkpt lat="47.28638" lon="-2.36591">
        <ele>139.60000610352</ele>
        <time>2020-12-10T08:56:57.000Z</time>
      </trkpt>
      <trkpt lat="47.28645" lon="-2.36604">
        <ele>139.60000610352</ele>
        <time>2020-12-10T08:57:03.000Z</time>
      </trkpt>
      <trkpt lat="47.28645" lon="-2.36613">
        <ele>139.60000610352</ele>
        <time>2020-12-10T08:57:07.000Z</time>
      </trkpt>
      <trkpt lat="47.28644" lon="-2.36614">
        <ele>139.60000610352</ele>
        <time>2020-12-10T08:57:08.000Z</time>
      </trkpt>
      <trkpt lat="47.28632" lon="-2.36625">
        <ele>139.60000610352</ele>
        <time>2020-12-10T08:57:14.000Z</time>
      </trkpt>
      <trkpt lat="47.28626" lon="-2.36629">
        <ele>139.19999694824</ele>
        <time>2020-12-10T08:57:16.000Z</time>
      </trkpt>
      <trkpt lat="47.28623" lon="-2.36631">
        <ele>138.80000305176</ele>
        <time>2020-12-10T08:57:17.000Z</time>
      </trkpt>
      <trkpt lat="47.2862" lon="-2.36633">
        <ele>138.39999389648</ele>
        <time>2020-12-10T08:57:18.000Z</time>
      </trkpt>
      <trkpt lat="47.28617" lon="-2.36635">
        <ele>137.80000305176</ele>
        <time>2020-12-10T08:57:19.000Z</time>
      </trkpt>
      <trkpt lat="47.28614" lon="-2.36637">
        <ele>137.19999694824</ele>
        <time>2020-12-10T08:57:20.000Z</time>
      </trkpt>
      <trkpt lat="47.28612" lon="-2.36638">
        <ele>136.60000610352</ele>
        <time>2020-12-10T08:57:21.000Z</time>
      </trkpt>
      <trkpt lat="47.28609" lon="-2.3664">
        <ele>135.80000305176</ele>
        <time>2020-12-10T08:57:22.000Z</time>
      </trkpt>
      <trkpt lat="47.28607" lon="-2.36642">
        <ele>135.19999694824</ele>
        <time>2020-12-10T08:57:23.000Z</time>
      </trkpt>
      <trkpt lat="47.28606" lon="-2.36643">
        <ele>134.60000610352</ele>
        <time>2020-12-10T08:57:24.000Z</time>
      </trkpt>
      <trkpt lat="47.28604" lon="-2.36645">
        <ele>133.80000305176</ele>
        <time>2020-12-10T08:57:25.000Z</time>
      </trkpt>
      <trkpt lat="47.28602" lon="-2.36649">
        <ele>133.19999694824</ele>
        <time>2020-12-10T08:57:26.000Z</time>
      </trkpt>
      <trkpt lat="47.286" lon="-2.36651">
        <ele>133.19999694824</ele>
        <time>2020-12-10T08:57:27.000Z</time>
      </trkpt>
      <trkpt lat="47.28592" lon="-2.36657">
        <ele>132.80000305176</ele>
        <time>2020-12-10T08:57:30.000Z</time>
      </trkpt>
      <trkpt lat="47.2859" lon="-2.36659">
        <ele>132.39999389648</ele>
        <time>2020-12-10T08:57:31.000Z</time>
      </trkpt>
      <trkpt lat="47.28591" lon="-2.36661">
        <ele>132</ele>
        <time>2020-12-10T08:57:32.000Z</time>
      </trkpt>
      <trkpt lat="47.28592" lon="-2.36663">
        <ele>131.60000610352</ele>
        <time>2020-12-10T08:57:33.000Z</time>
      </trkpt>
      <trkpt lat="47.28594" lon="-2.36663">
        <ele>131</ele>
        <time>2020-12-10T08:57:34.000Z</time>
      </trkpt>
      <trkpt lat="47.28599" lon="-2.36664">
        <ele>131</ele>
        <time>2020-12-10T08:57:36.000Z</time>
      </trkpt>
      <trkpt lat="47.28613" lon="-2.36662">
        <ele>131</ele>
        <time>2020-12-10T08:57:41.000Z</time>
      </trkpt>
      <trkpt lat="47.28636" lon="-2.36652">
        <ele>131.39999389648</ele>
        <time>2020-12-10T08:57:48.000Z</time>
      </trkpt>
      <trkpt lat="47.28639" lon="-2.3665">
        <ele>131.80000305176</ele>
        <time>2020-12-10T08:57:49.000Z</time>
      </trkpt>
      <trkpt lat="47.28643" lon="-2.36648">
        <ele>132.19999694824</ele>
        <time>2020-12-10T08:57:50.000Z</time>
      </trkpt>
      <trkpt lat="47.28646" lon="-2.36646">
        <ele>132.80000305176</ele>
        <time>2020-12-10T08:57:51.000Z</time>
      </trkpt>
      <trkpt lat="47.2865" lon="-2.36644">
        <ele>133.19999694824</ele>
        <time>2020-12-10T08:57:52.000Z</time>
      </trkpt>
      <trkpt lat="47.28658" lon="-2.36636">
        <ele>133.60000610352</ele>
        <time>2020-12-10T08:57:55.000Z</time>
      </trkpt>
      <trkpt lat="47.28661" lon="-2.36633">
        <ele>134</ele>
        <time>2020-12-10T08:57:56.000Z</time>
      </trkpt>
      <trkpt lat="47.28665" lon="-2.3663">
        <ele>134.39999389648</ele>
        <time>2020-12-10T08:57:57.000Z</time>
      </trkpt>
      <trkpt lat="47.28668" lon="-2.36627">
        <ele>134.80000305176</ele>
        <time>2020-12-10T08:57:58.000Z</time>
      </trkpt>
      <trkpt lat="47.28671" lon="-2.36624">
        <ele>135.19999694824</ele>
        <time>2020-12-10T08:57:59.000Z</time>
      </trkpt>
      <trkpt lat="47.28681" lon="-2.36615">
        <ele>135.19999694824</ele>
        <time>2020-12-10T08:58:02.000Z</time>
      </trkpt>
      <trkpt lat="47.28684" lon="-2.36611">
        <ele>136</ele>
        <time>2020-12-10T08:58:03.000Z</time>
      </trkpt>
      <trkpt lat="47.28688" lon="-2.36609">
        <ele>136.39999389648</ele>
        <time>2020-12-10T08:58:04.000Z</time>
      </trkpt>
      <trkpt lat="47.28691" lon="-2.36607">
        <ele>136.80000305176</ele>
        <time>2020-12-10T08:58:05.000Z</time>
      </trkpt>
      <trkpt lat="47.28695" lon="-2.36604">
        <ele>137.19999694824</ele>
        <time>2020-12-10T08:58:06.000Z</time>
      </trkpt>
      <trkpt lat="47.28702" lon="-2.36599">
        <ele>137.19999694824</ele>
        <time>2020-12-10T08:58:08.000Z</time>
      </trkpt>
      <trkpt lat="47.28715" lon="-2.3658">
        <ele>137.60000610352</ele>
        <time>2020-12-10T08:58:13.000Z</time>
      </trkpt>
      <trkpt lat="47.28717" lon="-2.36575">
        <ele>138</ele>
        <time>2020-12-10T08:58:14.000Z</time>
      </trkpt>
      <trkpt lat="47.28719" lon="-2.36569">
        <ele>138.39999389648</ele>
        <time>2020-12-10T08:58:15.000Z</time>
      </trkpt>
      <trkpt lat="47.28721" lon="-2.36564">
        <ele>138.80000305176</ele>
        <time>2020-12-10T08:58:16.000Z</time>
      </trkpt>
      <trkpt lat="47.28724" lon="-2.36558">
        <ele>139.19999694824</ele>
        <time>2020-12-10T08:58:17.000Z</time>
      </trkpt>
      <trkpt lat="47.28727" lon="-2.36553">
        <ele>139.19999694824</ele>
        <time>2020-12-10T08:58:18.000Z</time>
      </trkpt>
      <trkpt lat="47.28746" lon="-2.36514">
        <ele>139.19999694824</ele>
        <time>2020-12-10T08:58:25.000Z</time>
      </trkpt>
      <trkpt lat="47.28759" lon="-2.36481">
        <ele>139.19999694824</ele>
        <time>2020-12-10T08:58:31.000Z</time>
      </trkpt>
      <trkpt lat="47.28761" lon="-2.36476">
        <ele>139.19999694824</ele>
        <time>2020-12-10T08:58:32.000Z</time>
      </trkpt>
      <trkpt lat="47.28769" lon="-2.36465">
        <ele>139.19999694824</ele>
        <time>2020-12-10T08:58:35.000Z</time>
      </trkpt>
      <trkpt lat="47.28777" lon="-2.36457">
        <ele>139.19999694824</ele>
        <time>2020-12-10T08:58:38.000Z</time>
      </trkpt>
      <trkpt lat="47.2878" lon="-2.36454">
        <ele>139.60000610352</ele>
        <time>2020-12-10T08:58:39.000Z</time>
      </trkpt>
      <trkpt lat="47.28783" lon="-2.36451">
        <ele>140</ele>
        <time>2020-12-10T08:58:40.000Z</time>
      </trkpt>
      <trkpt lat="47.28785" lon="-2.36448">
        <ele>140.39999389648</ele>
        <time>2020-12-10T08:58:41.000Z</time>
      </trkpt>
      <trkpt lat="47.28788" lon="-2.36444">
        <ele>141</ele>
        <time>2020-12-10T08:58:42.000Z</time>
      </trkpt>
      <trkpt lat="47.2879" lon="-2.36441">
        <ele>141.39999389648</ele>
        <time>2020-12-10T08:58:43.000Z</time>
      </trkpt>
      <trkpt lat="47.28792" lon="-2.36437">
        <ele>141.39999389648</ele>
        <time>2020-12-10T08:58:44.000Z</time>
      </trkpt>
      <trkpt lat="47.28808" lon="-2.36417">
        <ele>141.39999389648</ele>
        <time>2020-12-10T08:58:51.000Z</time>
      </trkpt>
      <trkpt lat="47.28827" lon="-2.36406">
        <ele>141.39999389648</ele>
        <time>2020-12-10T08:58:57.000Z</time>
      </trkpt>
      <trkpt lat="47.2883" lon="-2.36406">
        <ele>141.80000305176</ele>
        <time>2020-12-10T08:58:58.000Z</time>
      </trkpt>
      <trkpt lat="47.28833" lon="-2.36406">
        <ele>142.19999694824</ele>
        <time>2020-12-10T08:58:59.000Z</time>
      </trkpt>
      <trkpt lat="47.28836" lon="-2.36408">
        <ele>142.60000610352</ele>
        <time>2020-12-10T08:59:00.000Z</time>
      </trkpt>
      <trkpt lat="47.28839" lon="-2.36411">
        <ele>143</ele>
        <time>2020-12-10T08:59:01.000Z</time>
      </trkpt>
      <trkpt lat="47.28841" lon="-2.36415">
        <ele>143.39999389648</ele>
        <time>2020-12-10T08:59:02.000Z</time>
      </trkpt>
      <trkpt lat="47.28844" lon="-2.36419">
        <ele>143.39999389648</ele>
        <time>2020-12-10T08:59:03.000Z</time>
      </trkpt>
      <trkpt lat="47.28853" lon="-2.36439">
        <ele>142.80000305176</ele>
        <time>2020-12-10T08:59:07.000Z</time>
      </trkpt>
      <trkpt lat="47.28855" lon="-2.36448">
        <ele>142.39999389648</ele>
        <time>2020-12-10T08:59:08.000Z</time>
      </trkpt>
      <trkpt lat="47.28858" lon="-2.36458">
        <ele>141.80000305176</ele>
        <time>2020-12-10T08:59:09.000Z</time>
      </trkpt>
      <trkpt lat="47.2886" lon="-2.36466">
        <ele>141.39999389648</ele>
        <time>2020-12-10T08:59:10.000Z</time>
      </trkpt>
      <trkpt lat="47.28862" lon="-2.36475">
        <ele>140.80000305176</ele>
        <time>2020-12-10T08:59:11.000Z</time>
      </trkpt>
      <trkpt lat="47.28866" lon="-2.36484">
        <ele>140.19999694824</ele>
        <time>2020-12-10T08:59:12.000Z</time>
      </trkpt>
      <trkpt lat="47.28871" lon="-2.36494">
        <ele>139.60000610352</ele>
        <time>2020-12-10T08:59:13.000Z</time>
      </trkpt>
      <trkpt lat="47.28874" lon="-2.36503">
        <ele>139</ele>
        <time>2020-12-10T08:59:14.000Z</time>
      </trkpt>
      <trkpt lat="47.28876" lon="-2.36513">
        <ele>138.39999389648</ele>
        <time>2020-12-10T08:59:15.000Z</time>
      </trkpt>
      <trkpt lat="47.28877" lon="-2.36522">
        <ele>137.80000305176</ele>
        <time>2020-12-10T08:59:16.000Z</time>
      </trkpt>
      <trkpt lat="47.28877" lon="-2.36531">
        <ele>136.80000305176</ele>
        <time>2020-12-10T08:59:17.000Z</time>
      </trkpt>
      <trkpt lat="47.28878" lon="-2.36539">
        <ele>136.39999389648</ele>
        <time>2020-12-10T08:59:18.000Z</time>
      </trkpt>
      <trkpt lat="47.28878" lon="-2.36545">
        <ele>135.80000305176</ele>
        <time>2020-12-10T08:59:19.000Z</time>
      </trkpt>
      <trkpt lat="47.28878" lon="-2.36552">
        <ele>135.19999694824</ele>
        <time>2020-12-10T08:59:20.000Z</time>
      </trkpt>
      <trkpt lat="47.28877" lon="-2.36559">
        <ele>134.60000610352</ele>
        <time>2020-12-10T08:59:21.000Z</time>
      </trkpt>
      <trkpt lat="47.28875" lon="-2.36566">
        <ele>134</ele>
        <time>2020-12-10T08:59:22.000Z</time>
      </trkpt>
      <trkpt lat="47.28873" lon="-2.36573">
        <ele>133.19999694824</ele>
        <time>2020-12-10T08:59:23.000Z</time>
      </trkpt>
      <trkpt lat="47.28861" lon="-2.36601">
        <ele>133.19999694824</ele>
        <time>2020-12-10T08:59:27.000Z</time>
      </trkpt>
      <trkpt lat="47.28857" lon="-2.36608">
        <ele>133.19999694824</ele>
        <time>2020-12-10T08:59:28.000Z</time>
      </trkpt>
      <trkpt lat="47.2885" lon="-2.36619">
        <ele>133.19999694824</ele>
        <time>2020-12-10T08:59:30.000Z</time>
      </trkpt>
      <trkpt lat="47.28847" lon="-2.36625">
        <ele>133.19999694824</ele>
        <time>2020-12-10T08:59:31.000Z</time>
      </trkpt>
      <trkpt lat="47.28835" lon="-2.36648">
        <ele>133.19999694824</ele>
        <time>2020-12-10T08:59:35.000Z</time>
      </trkpt>
      <trkpt lat="47.28832" lon="-2.36656">
        <ele>133.19999694824</ele>
        <time>2020-12-10T08:59:36.000Z</time>
      </trkpt>
      <trkpt lat="47.28824" lon="-2.36684">
        <ele>132.80000305176</ele>
        <time>2020-12-10T08:59:39.000Z</time>
      </trkpt>
      <trkpt lat="47.28821" lon="-2.36696">
        <ele>132.39999389648</ele>
        <time>2020-12-10T08:59:40.000Z</time>
      </trkpt>
      <trkpt lat="47.28819" lon="-2.36708">
        <ele>132</ele>
        <time>2020-12-10T08:59:41.000Z</time>
      </trkpt>
      <trkpt lat="47.28816" lon="-2.3672">
        <ele>130.60000610352</ele>
        <time>2020-12-10T08:59:42.000Z</time>
      </trkpt>
      <trkpt lat="47.28813" lon="-2.36733">
        <ele>129.80000305176</ele>
        <time>2020-12-10T08:59:43.000Z</time>
      </trkpt>
      <trkpt lat="47.28811" lon="-2.36745">
        <ele>129.19999694824</ele>
        <time>2020-12-10T08:59:44.000Z</time>
      </trkpt>
      <trkpt lat="47.28809" lon="-2.36757">
        <ele>128.39999389648</ele>
        <time>2020-12-10T08:59:45.000Z</time>
      </trkpt>
      <trkpt lat="47.28807" lon="-2.3677">
        <ele>128</ele>
        <time>2020-12-10T08:59:46.000Z</time>
      </trkpt>
      <trkpt lat="47.28805" lon="-2.36782">
        <ele>127.59999847412</ele>
        <time>2020-12-10T08:59:47.000Z</time>
      </trkpt>
      <trkpt lat="47.28802" lon="-2.36793">
        <ele>127</ele>
        <time>2020-12-10T08:59:48.000Z</time>
      </trkpt>
      <trkpt lat="47.28799" lon="-2.36806">
        <ele>126.59999847412</ele>
        <time>2020-12-10T08:59:49.000Z</time>
      </trkpt>
      <trkpt lat="47.28796" lon="-2.36819">
        <ele>126.19999694824</ele>
        <time>2020-12-10T08:59:50.000Z</time>
      </trkpt>
      <trkpt lat="47.28793" lon="-2.36833">
        <ele>125.59999847412</ele>
        <time>2020-12-10T08:59:51.000Z</time>
      </trkpt>
      <trkpt lat="47.28791" lon="-2.36846">
        <ele>125.19999694824</ele>
        <time>2020-12-10T08:59:52.000Z</time>
      </trkpt>
      <trkpt lat="47.28789" lon="-2.36859">
        <ele>124.80000305176</ele>
        <time>2020-12-10T08:59:53.000Z</time>
      </trkpt>
      <trkpt lat="47.28788" lon="-2.3687">
        <ele>124</ele>
        <time>2020-12-10T08:59:54.000Z</time>
      </trkpt>
      <trkpt lat="47.28785" lon="-2.36881">
        <ele>123.40000152588</ele>
        <time>2020-12-10T08:59:55.000Z</time>
      </trkpt>
      <trkpt lat="47.28783" lon="-2.3689">
        <ele>122.40000152588</ele>
        <time>2020-12-10T08:59:56.000Z</time>
      </trkpt>
      <trkpt lat="47.28782" lon="-2.36899">
        <ele>121.59999847412</ele>
        <time>2020-12-10T08:59:57.000Z</time>
      </trkpt>
      <trkpt lat="47.2878" lon="-2.36907">
        <ele>120.59999847412</ele>
        <time>2020-12-10T08:59:58.000Z</time>
      </trkpt>
      <trkpt lat="47.28782" lon="-2.3691">
        <ele>119.59999847412</ele>
        <time>2020-12-10T08:59:59.000Z</time>
      </trkpt>
      <trkpt lat="47.28785" lon="-2.36912">
        <ele>119</ele>
        <time>2020-12-10T09:00:00.000Z</time>
      </trkpt>
      <trkpt lat="47.28788" lon="-2.36912">
        <ele>118.40000152588</ele>
        <time>2020-12-10T09:00:01.000Z</time>
      </trkpt>
      <trkpt lat="47.2879" lon="-2.3691">
        <ele>117.59999847412</ele>
        <time>2020-12-10T09:00:02.000Z</time>
      </trkpt>
      <trkpt lat="47.28791" lon="-2.36907">
        <ele>117</ele>
        <time>2020-12-10T09:00:03.000Z</time>
      </trkpt>
      <trkpt lat="47.28792" lon="-2.36905">
        <ele>116.40000152588</ele>
        <time>2020-12-10T09:00:04.000Z</time>
      </trkpt>
      <trkpt lat="47.28792" lon="-2.36896">
        <ele>116.40000152588</ele>
        <time>2020-12-10T09:00:06.000Z</time>
      </trkpt>
      <trkpt lat="47.28796" lon="-2.36868">
        <ele>116.40000152588</ele>
        <time>2020-12-10T09:00:11.000Z</time>
      </trkpt>
      <trkpt lat="47.28809" lon="-2.36829">
        <ele>116.40000152588</ele>
        <time>2020-12-10T09:00:18.000Z</time>
      </trkpt>
      <trkpt lat="47.2882" lon="-2.36824">
        <ele>116.40000152588</ele>
        <time>2020-12-10T09:00:21.000Z</time>
      </trkpt>
      <trkpt lat="47.28828" lon="-2.36836">
        <ele>116.40000152588</ele>
        <time>2020-12-10T09:00:24.000Z</time>
      </trkpt>
      <trkpt lat="47.2883" lon="-2.36841">
        <ele>116.40000152588</ele>
        <time>2020-12-10T09:00:25.000Z</time>
      </trkpt>
      <trkpt lat="47.28831" lon="-2.36849">
        <ele>116.80000305176</ele>
        <time>2020-12-10T09:00:27.000Z</time>
      </trkpt>
      <trkpt lat="47.28832" lon="-2.36852">
        <ele>117.19999694824</ele>
        <time>2020-12-10T09:00:28.000Z</time>
      </trkpt>
      <trkpt lat="47.28832" lon="-2.36855">
        <ele>117.59999847412</ele>
        <time>2020-12-10T09:00:29.000Z</time>
      </trkpt>
      <trkpt lat="47.28832" lon="-2.36857">
        <ele>118</ele>
        <time>2020-12-10T09:00:30.000Z</time>
      </trkpt>
      <trkpt lat="47.28832" lon="-2.3686">
        <ele>118.80000305176</ele>
        <time>2020-12-10T09:00:31.000Z</time>
      </trkpt>
      <trkpt lat="47.28833" lon="-2.36863">
        <ele>119.40000152588</ele>
        <time>2020-12-10T09:00:32.000Z</time>
      </trkpt>
      <trkpt lat="47.28834" lon="-2.36866">
        <ele>119.80000305176</ele>
        <time>2020-12-10T09:00:33.000Z</time>
      </trkpt>
      <trkpt lat="47.28835" lon="-2.36869">
        <ele>120.19999694824</ele>
        <time>2020-12-10T09:00:34.000Z</time>
      </trkpt>
      <trkpt lat="47.28837" lon="-2.36871">
        <ele>120.59999847412</ele>
        <time>2020-12-10T09:00:35.000Z</time>
      </trkpt>
      <trkpt lat="47.28841" lon="-2.36876">
        <ele>121.19999694824</ele>
        <time>2020-12-10T09:00:37.000Z</time>
      </trkpt>
      <trkpt lat="47.28843" lon="-2.36877">
        <ele>121.59999847412</ele>
        <time>2020-12-10T09:00:38.000Z</time>
      </trkpt>
      <trkpt lat="47.28844" lon="-2.36878">
        <ele>122.19999694824</ele>
        <time>2020-12-10T09:00:39.000Z</time>
      </trkpt>
      <trkpt lat="47.28846" lon="-2.36877">
        <ele>122.59999847412</ele>
        <time>2020-12-10T09:00:40.000Z</time>
      </trkpt>
      <trkpt lat="47.28847" lon="-2.36875">
        <ele>123.19999694824</ele>
        <time>2020-12-10T09:00:41.000Z</time>
      </trkpt>
      <trkpt lat="47.28848" lon="-2.36872">
        <ele>123.59999847412</ele>
        <time>2020-12-10T09:00:42.000Z</time>
      </trkpt>
      <trkpt lat="47.28849" lon="-2.36869">
        <ele>124.19999694824</ele>
        <time>2020-12-10T09:00:43.000Z</time>
      </trkpt>
      <trkpt lat="47.2885" lon="-2.36865">
        <ele>124.59999847412</ele>
        <time>2020-12-10T09:00:44.000Z</time>
      </trkpt>
      <trkpt lat="47.28851" lon="-2.36861">
        <ele>125</ele>
        <time>2020-12-10T09:00:45.000Z</time>
      </trkpt>
      <trkpt lat="47.28852" lon="-2.36856">
        <ele>125.59999847412</ele>
        <time>2020-12-10T09:00:46.000Z</time>
      </trkpt>
      <trkpt lat="47.28856" lon="-2.36828">
        <ele>125.59999847412</ele>
        <time>2020-12-10T09:00:52.000Z</time>
      </trkpt>
      <trkpt lat="47.28864" lon="-2.36798">
        <ele>126</ele>
        <time>2020-12-10T09:00:59.000Z</time>
      </trkpt>
      <trkpt lat="47.28866" lon="-2.36794">
        <ele>126.40000152588</ele>
        <time>2020-12-10T09:01:00.000Z</time>
      </trkpt>
      <trkpt lat="47.28868" lon="-2.3679">
        <ele>126.80000305176</ele>
        <time>2020-12-10T09:01:01.000Z</time>
      </trkpt>
      <trkpt lat="47.2887" lon="-2.36786">
        <ele>127.19999694824</ele>
        <time>2020-12-10T09:01:02.000Z</time>
      </trkpt>
      <trkpt lat="47.28871" lon="-2.36782">
        <ele>127.59999847412</ele>
        <time>2020-12-10T09:01:03.000Z</time>
      </trkpt>
      <trkpt lat="47.28879" lon="-2.36777">
        <ele>127.59999847412</ele>
        <time>2020-12-10T09:01:06.000Z</time>
      </trkpt>
      <trkpt lat="47.28897" lon="-2.36778">
        <ele>128</ele>
        <time>2020-12-10T09:01:13.000Z</time>
      </trkpt>
      <trkpt lat="47.289" lon="-2.36779">
        <ele>128.39999389648</ele>
        <time>2020-12-10T09:01:14.000Z</time>
      </trkpt>
      <trkpt lat="47.28903" lon="-2.36781">
        <ele>128.80000305176</ele>
        <time>2020-12-10T09:01:15.000Z</time>
      </trkpt>
      <trkpt lat="47.28906" lon="-2.36782">
        <ele>129.19999694824</ele>
        <time>2020-12-10T09:01:16.000Z</time>
      </trkpt>
      <trkpt lat="47.28908" lon="-2.36784">
        <ele>129.60000610352</ele>
        <time>2020-12-10T09:01:17.000Z</time>
      </trkpt>
      <trkpt lat="47.2891" lon="-2.36785">
        <ele>129.60000610352</ele>
        <time>2020-12-10T09:01:18.000Z</time>
      </trkpt>
      <trkpt lat="47.28919" lon="-2.36796">
        <ele>130</ele>
        <time>2020-12-10T09:01:23.000Z</time>
      </trkpt>
      <trkpt lat="47.28922" lon="-2.36798">
        <ele>130.39999389648</ele>
        <time>2020-12-10T09:01:24.000Z</time>
      </trkpt>
      <trkpt lat="47.28924" lon="-2.368">
        <ele>130.80000305176</ele>
        <time>2020-12-10T09:01:25.000Z</time>
      </trkpt>
      <trkpt lat="47.28927" lon="-2.36803">
        <ele>131.19999694824</ele>
        <time>2020-12-10T09:01:26.000Z</time>
      </trkpt>
      <trkpt lat="47.2893" lon="-2.36805">
        <ele>131.80000305176</ele>
        <time>2020-12-10T09:01:27.000Z</time>
      </trkpt>
      <trkpt lat="47.28942" lon="-2.36817">
        <ele>132.19999694824</ele>
        <time>2020-12-10T09:01:31.000Z</time>
      </trkpt>
      <trkpt lat="47.28945" lon="-2.3682">
        <ele>132.60000610352</ele>
        <time>2020-12-10T09:01:32.000Z</time>
      </trkpt>
      <trkpt lat="47.28948" lon="-2.36823">
        <ele>133</ele>
        <time>2020-12-10T09:01:33.000Z</time>
      </trkpt>
      <trkpt lat="47.28951" lon="-2.36826">
        <ele>133.39999389648</ele>
        <time>2020-12-10T09:01:34.000Z</time>
      </trkpt>
      <trkpt lat="47.28955" lon="-2.36829">
        <ele>133.80000305176</ele>
        <time>2020-12-10T09:01:35.000Z</time>
      </trkpt>
      <trkpt lat="47.28964" lon="-2.36839">
        <ele>133.80000305176</ele>
        <time>2020-12-10T09:01:38.000Z</time>
      </trkpt>
      <trkpt lat="47.28986" lon="-2.36864">
        <ele>133.80000305176</ele>
        <time>2020-12-10T09:01:45.000Z</time>
      </trkpt>
      <trkpt lat="47.29007" lon="-2.3688">
        <ele>133.80000305176</ele>
        <time>2020-12-10T09:01:51.000Z</time>
      </trkpt>
      <trkpt lat="47.29026" lon="-2.36896">
        <ele>133.80000305176</ele>
        <time>2020-12-10T09:01:57.000Z</time>
      </trkpt>
      <trkpt lat="47.29032" lon="-2.36901">
        <ele>134.19999694824</ele>
        <time>2020-12-10T09:01:59.000Z</time>
      </trkpt>
      <trkpt lat="47.29034" lon="-2.36904">
        <ele>134.60000610352</ele>
        <time>2020-12-10T09:02:00.000Z</time>
      </trkpt>
      <trkpt lat="47.29037" lon="-2.36906">
        <ele>135</ele>
        <time>2020-12-10T09:02:01.000Z</time>
      </trkpt>
      <trkpt lat="47.29039" lon="-2.36908">
        <ele>135.60000610352</ele>
        <time>2020-12-10T09:02:02.000Z</time>
      </trkpt>
      <trkpt lat="47.29041" lon="-2.3691">
        <ele>136</ele>
        <time>2020-12-10T09:02:03.000Z</time>
      </trkpt>
      <trkpt lat="47.29043" lon="-2.36912">
        <ele>136</ele>
        <time>2020-12-10T09:02:04.000Z</time>
      </trkpt>
      <trkpt lat="47.2905" lon="-2.36924">
        <ele>136</ele>
        <time>2020-12-10T09:02:09.000Z</time>
      </trkpt>
      <trkpt lat="47.29053" lon="-2.36928">
        <ele>136.39999389648</ele>
        <time>2020-12-10T09:02:11.000Z</time>
      </trkpt>
      <trkpt lat="47.29054" lon="-2.3693">
        <ele>136.80000305176</ele>
        <time>2020-12-10T09:02:12.000Z</time>
      </trkpt>
      <trkpt lat="47.29057" lon="-2.36932">
        <ele>137.19999694824</ele>
        <time>2020-12-10T09:02:13.000Z</time>
      </trkpt>
      <trkpt lat="47.29059" lon="-2.36934">
        <ele>137.60000610352</ele>
        <time>2020-12-10T09:02:14.000Z</time>
      </trkpt>
      <trkpt lat="47.29062" lon="-2.36935">
        <ele>138</ele>
        <time>2020-12-10T09:02:15.000Z</time>
      </trkpt>
      <trkpt lat="47.29075" lon="-2.36942">
        <ele>138</ele>
        <time>2020-12-10T09:02:19.000Z</time>
      </trkpt>
      <trkpt lat="47.29097" lon="-2.36948">
        <ele>138</ele>
        <time>2020-12-10T09:02:25.000Z</time>
      </trkpt>
      <trkpt lat="47.29116" lon="-2.36951">
        <ele>138</ele>
        <time>2020-12-10T09:02:31.000Z</time>
      </trkpt>
      <trkpt lat="47.29129" lon="-2.36953">
        <ele>138</ele>
        <time>2020-12-10T09:02:35.000Z</time>
      </trkpt>
      <trkpt lat="47.29145" lon="-2.36975">
        <ele>138</ele>
        <time>2020-12-10T09:02:40.000Z</time>
      </trkpt>
      <trkpt lat="47.29167" lon="-2.37004">
        <ele>138.39999389648</ele>
        <time>2020-12-10T09:02:46.000Z</time>
      </trkpt>
      <trkpt lat="47.2917" lon="-2.37009">
        <ele>139</ele>
        <time>2020-12-10T09:02:47.000Z</time>
      </trkpt>
      <trkpt lat="47.29174" lon="-2.37014">
        <ele>139.39999389648</ele>
        <time>2020-12-10T09:02:48.000Z</time>
      </trkpt>
      <trkpt lat="47.29178" lon="-2.37019">
        <ele>139.80000305176</ele>
        <time>2020-12-10T09:02:49.000Z</time>
      </trkpt>
      <trkpt lat="47.29181" lon="-2.37023">
        <ele>140.19999694824</ele>
        <time>2020-12-10T09:02:50.000Z</time>
      </trkpt>
      <trkpt lat="47.292" lon="-2.37046">
        <ele>140.19999694824</ele>
        <time>2020-12-10T09:02:55.000Z</time>
      </trkpt>
      <trkpt lat="47.29227" lon="-2.37078">
        <ele>140.19999694824</ele>
        <time>2020-12-10T09:03:02.000Z</time>
      </trkpt>
      <trkpt lat="47.2926" lon="-2.37114">
        <ele>140.19999694824</ele>
        <time>2020-12-10T09:03:10.000Z</time>
      </trkpt>
      <trkpt lat="47.29298" lon="-2.37158">
        <ele>140.19999694824</ele>
        <time>2020-12-10T09:03:19.000Z</time>
      </trkpt>
      <trkpt lat="47.29336" lon="-2.37193">
        <ele>140.19999694824</ele>
        <time>2020-12-10T09:03:27.000Z</time>
      </trkpt>
      <trkpt lat="47.29371" lon="-2.37212">
        <ele>140.19999694824</ele>
        <time>2020-12-10T09:03:33.000Z</time>
      </trkpt>
      <trkpt lat="47.29414" lon="-2.37232">
        <ele>140.19999694824</ele>
        <time>2020-12-10T09:03:40.000Z</time>
      </trkpt>
      <trkpt lat="47.29432" lon="-2.37253">
        <ele>140.19999694824</ele>
        <time>2020-12-10T09:03:44.000Z</time>
      </trkpt>
      <trkpt lat="47.29457" lon="-2.37277">
        <ele>140.19999694824</ele>
        <time>2020-12-10T09:03:50.000Z</time>
      </trkpt>
      <trkpt lat="47.29465" lon="-2.37283">
        <ele>140.19999694824</ele>
        <time>2020-12-10T09:03:52.000Z</time>
      </trkpt>
      <trkpt lat="47.29478" lon="-2.37286">
        <ele>140.19999694824</ele>
        <time>2020-12-10T09:03:55.000Z</time>
      </trkpt>
      <trkpt lat="47.29487" lon="-2.37287">
        <ele>140.60000610352</ele>
        <time>2020-12-10T09:03:57.000Z</time>
      </trkpt>
      <trkpt lat="47.29492" lon="-2.37287">
        <ele>141</ele>
        <time>2020-12-10T09:03:58.000Z</time>
      </trkpt>
      <trkpt lat="47.29497" lon="-2.37286">
        <ele>141.39999389648</ele>
        <time>2020-12-10T09:03:59.000Z</time>
      </trkpt>
      <trkpt lat="47.29501" lon="-2.37285">
        <ele>141.80000305176</ele>
        <time>2020-12-10T09:04:00.000Z</time>
      </trkpt>
      <trkpt lat="47.29506" lon="-2.37284">
        <ele>142.19999694824</ele>
        <time>2020-12-10T09:04:01.000Z</time>
      </trkpt>
      <trkpt lat="47.29518" lon="-2.37282">
        <ele>142.19999694824</ele>
        <time>2020-12-10T09:04:04.000Z</time>
      </trkpt>
      <trkpt lat="47.29527" lon="-2.37278">
        <ele>142.19999694824</ele>
        <time>2020-12-10T09:04:06.000Z</time>
      </trkpt>
      <trkpt lat="47.29543" lon="-2.3727">
        <ele>142.19999694824</ele>
        <time>2020-12-10T09:04:10.000Z</time>
      </trkpt>
      <trkpt lat="47.2955" lon="-2.37266">
        <ele>142.80000305176</ele>
        <time>2020-12-10T09:04:12.000Z</time>
      </trkpt>
      <trkpt lat="47.29554" lon="-2.37264">
        <ele>143.60000610352</ele>
        <time>2020-12-10T09:04:13.000Z</time>
      </trkpt>
      <trkpt lat="47.29558" lon="-2.37263">
        <ele>144</ele>
        <time>2020-12-10T09:04:14.000Z</time>
      </trkpt>
      <trkpt lat="47.29562" lon="-2.3726">
        <ele>144.39999389648</ele>
        <time>2020-12-10T09:04:15.000Z</time>
      </trkpt>
      <trkpt lat="47.29579" lon="-2.37251">
        <ele>144.39999389648</ele>
        <time>2020-12-10T09:04:19.000Z</time>
      </trkpt>
      <trkpt lat="47.29583" lon="-2.37249">
        <ele>144.39999389648</ele>
        <time>2020-12-10T09:04:20.000Z</time>
      </trkpt>
      <trkpt lat="47.29601" lon="-2.37239">
        <ele>144.80000305176</ele>
        <time>2020-12-10T09:04:24.000Z</time>
      </trkpt>
      <trkpt lat="47.29605" lon="-2.37237">
        <ele>145.19999694824</ele>
        <time>2020-12-10T09:04:25.000Z</time>
      </trkpt>
      <trkpt lat="47.2961" lon="-2.37234">
        <ele>145.60000610352</ele>
        <time>2020-12-10T09:04:26.000Z</time>
      </trkpt>
      <trkpt lat="47.29614" lon="-2.37231">
        <ele>146</ele>
        <time>2020-12-10T09:04:27.000Z</time>
      </trkpt>
      <trkpt lat="47.29618" lon="-2.37229">
        <ele>146.39999389648</ele>
        <time>2020-12-10T09:04:28.000Z</time>
      </trkpt>
      <trkpt lat="47.29644" lon="-2.37216">
        <ele>146.39999389648</ele>
        <time>2020-12-10T09:04:34.000Z</time>
      </trkpt>
      <trkpt lat="47.29652" lon="-2.37212">
        <ele>146.80000305176</ele>
        <time>2020-12-10T09:04:36.000Z</time>
      </trkpt>
      <trkpt lat="47.29657" lon="-2.3721">
        <ele>147.39999389648</ele>
        <time>2020-12-10T09:04:37.000Z</time>
      </trkpt>
      <trkpt lat="47.29662" lon="-2.37209">
        <ele>148.19999694824</ele>
        <time>2020-12-10T09:04:38.000Z</time>
      </trkpt>
      <trkpt lat="47.29666" lon="-2.37207">
        <ele>148.60000610352</ele>
        <time>2020-12-10T09:04:39.000Z</time>
      </trkpt>
      <trkpt lat="47.29674" lon="-2.37204">
        <ele>148.60000610352</ele>
        <time>2020-12-10T09:04:41.000Z</time>
      </trkpt>
      <trkpt lat="47.29711" lon="-2.3719">
        <ele>148.60000610352</ele>
        <time>2020-12-10T09:04:49.000Z</time>
      </trkpt>
      <trkpt lat="47.29724" lon="-2.37186">
        <ele>148.60000610352</ele>
        <time>2020-12-10T09:04:52.000Z</time>
      </trkpt>
      <trkpt lat="47.2974" lon="-2.37183">
        <ele>148.60000610352</ele>
        <time>2020-12-10T09:04:56.000Z</time>
      </trkpt>
      <trkpt lat="47.29757" lon="-2.37181">
        <ele>149</ele>
        <time>2020-12-10T09:05:00.000Z</time>
      </trkpt>
      <trkpt lat="47.29761" lon="-2.37179">
        <ele>149.39999389648</ele>
        <time>2020-12-10T09:05:01.000Z</time>
      </trkpt>
      <trkpt lat="47.29765" lon="-2.37177">
        <ele>149.80000305176</ele>
        <time>2020-12-10T09:05:02.000Z</time>
      </trkpt>
      <trkpt lat="47.2977" lon="-2.37175">
        <ele>150.60000610352</ele>
        <time>2020-12-10T09:05:03.000Z</time>
      </trkpt>
      <trkpt lat="47.29774" lon="-2.37172">
        <ele>150.60000610352</ele>
        <time>2020-12-10T09:05:04.000Z</time>
      </trkpt>
      <trkpt lat="47.2979" lon="-2.37157">
        <ele>150.60000610352</ele>
        <time>2020-12-10T09:05:08.000Z</time>
      </trkpt>
      <trkpt lat="47.29802" lon="-2.37129">
        <ele>150.60000610352</ele>
        <time>2020-12-10T09:05:13.000Z</time>
      </trkpt>
      <trkpt lat="47.29805" lon="-2.37115">
        <ele>150.60000610352</ele>
        <time>2020-12-10T09:05:15.000Z</time>
      </trkpt>
      <trkpt lat="47.29808" lon="-2.37087">
        <ele>150.60000610352</ele>
        <time>2020-12-10T09:05:19.000Z</time>
      </trkpt>
      <trkpt lat="47.29813" lon="-2.37058">
        <ele>150.60000610352</ele>
        <time>2020-12-10T09:05:23.000Z</time>
      </trkpt>
      <trkpt lat="47.29819" lon="-2.37044">
        <ele>150.60000610352</ele>
        <time>2020-12-10T09:05:25.000Z</time>
      </trkpt>
      <trkpt lat="47.29841" lon="-2.3701">
        <ele>150.60000610352</ele>
        <time>2020-12-10T09:05:31.000Z</time>
      </trkpt>
      <trkpt lat="47.29863" lon="-2.36982">
        <ele>150.60000610352</ele>
        <time>2020-12-10T09:05:37.000Z</time>
      </trkpt>
      <trkpt lat="47.29868" lon="-2.36974">
        <ele>150.60000610352</ele>
        <time>2020-12-10T09:05:39.000Z</time>
      </trkpt>
      <trkpt lat="47.29871" lon="-2.3696">
        <ele>150.60000610352</ele>
        <time>2020-12-10T09:05:43.000Z</time>
      </trkpt>
      <trkpt lat="47.29873" lon="-2.36957">
        <ele>150.60000610352</ele>
        <time>2020-12-10T09:05:44.000Z</time>
      </trkpt>
      <trkpt lat="47.2988" lon="-2.36951">
        <ele>150.60000610352</ele>
        <time>2020-12-10T09:05:46.000Z</time>
      </trkpt>
      <trkpt lat="47.29893" lon="-2.3695">
        <ele>150.60000610352</ele>
        <time>2020-12-10T09:05:49.000Z</time>
      </trkpt>
      <trkpt lat="47.29907" lon="-2.3694">
        <ele>150.60000610352</ele>
        <time>2020-12-10T09:05:52.000Z</time>
      </trkpt>
      <trkpt lat="47.29912" lon="-2.36935">
        <ele>150.60000610352</ele>
        <time>2020-12-10T09:05:53.000Z</time>
      </trkpt>
      <trkpt lat="47.2994" lon="-2.36898">
        <ele>150.60000610352</ele>
        <time>2020-12-10T09:06:00.000Z</time>
      </trkpt>
      <trkpt lat="47.29972" lon="-2.36863">
        <ele>150.60000610352</ele>
        <time>2020-12-10T09:06:07.000Z</time>
      </trkpt>
      <trkpt lat="47.30005" lon="-2.36826">
        <ele>150.60000610352</ele>
        <time>2020-12-10T09:06:15.000Z</time>
      </trkpt>
      <trkpt lat="47.3003" lon="-2.36795">
        <ele>150.60000610352</ele>
        <time>2020-12-10T09:06:22.000Z</time>
      </trkpt>
      <trkpt lat="47.30068" lon="-2.3675">
        <ele>150.60000610352</ele>
        <time>2020-12-10T09:06:32.000Z</time>
      </trkpt>
      <trkpt lat="47.30106" lon="-2.36713">
        <ele>150.60000610352</ele>
        <time>2020-12-10T09:06:40.000Z</time>
      </trkpt>
      <trkpt lat="47.30136" lon="-2.36687">
        <ele>150.19999694824</ele>
        <time>2020-12-10T09:06:45.000Z</time>
      </trkpt>
      <trkpt lat="47.30142" lon="-2.36683">
        <ele>149.80000305176</ele>
        <time>2020-12-10T09:06:46.000Z</time>
      </trkpt>
      <trkpt lat="47.30148" lon="-2.36679">
        <ele>149.19999694824</ele>
        <time>2020-12-10T09:06:47.000Z</time>
      </trkpt>
      <trkpt lat="47.30153" lon="-2.36677">
        <ele>148.80000305176</ele>
        <time>2020-12-10T09:06:48.000Z</time>
      </trkpt>
      <trkpt lat="47.30157" lon="-2.36678">
        <ele>148.39999389648</ele>
        <time>2020-12-10T09:06:49.000Z</time>
      </trkpt>
      <trkpt lat="47.30167" lon="-2.3669">
        <ele>148.39999389648</ele>
        <time>2020-12-10T09:06:52.000Z</time>
      </trkpt>
      <trkpt lat="47.30169" lon="-2.36696">
        <ele>148.39999389648</ele>
        <time>2020-12-10T09:06:53.000Z</time>
      </trkpt>
      <trkpt lat="47.30174" lon="-2.36708">
        <ele>148.80000305176</ele>
        <time>2020-12-10T09:06:55.000Z</time>
      </trkpt>
      <trkpt lat="47.30176" lon="-2.36714">
        <ele>149.19999694824</ele>
        <time>2020-12-10T09:06:56.000Z</time>
      </trkpt>
      <trkpt lat="47.30178" lon="-2.3672">
        <ele>149.60000610352</ele>
        <time>2020-12-10T09:06:57.000Z</time>
      </trkpt>
      <trkpt lat="47.30179" lon="-2.36726">
        <ele>150</ele>
        <time>2020-12-10T09:06:58.000Z</time>
      </trkpt>
      <trkpt lat="47.30181" lon="-2.36732">
        <ele>150.39999389648</ele>
        <time>2020-12-10T09:06:59.000Z</time>
      </trkpt>
      <trkpt lat="47.30187" lon="-2.36755">
        <ele>150.80000305176</ele>
        <time>2020-12-10T09:07:03.000Z</time>
      </trkpt>
      <trkpt lat="47.30189" lon="-2.3676">
        <ele>151.19999694824</ele>
        <time>2020-12-10T09:07:04.000Z</time>
      </trkpt>
      <trkpt lat="47.30191" lon="-2.36766">
        <ele>151.60000610352</ele>
        <time>2020-12-10T09:07:05.000Z</time>
      </trkpt>
      <trkpt lat="47.30193" lon="-2.36771">
        <ele>152</ele>
        <time>2020-12-10T09:07:06.000Z</time>
      </trkpt>
      <trkpt lat="47.30195" lon="-2.36776">
        <ele>152.39999389648</ele>
        <time>2020-12-10T09:07:07.000Z</time>
      </trkpt>
      <trkpt lat="47.30197" lon="-2.36782">
        <ele>152.39999389648</ele>
        <time>2020-12-10T09:07:08.000Z</time>
      </trkpt>
      <trkpt lat="47.30214" lon="-2.36826">
        <ele>153</ele>
        <time>2020-12-10T09:07:16.000Z</time>
      </trkpt>
      <trkpt lat="47.30216" lon="-2.36831">
        <ele>153.39999389648</ele>
        <time>2020-12-10T09:07:17.000Z</time>
      </trkpt>
      <trkpt lat="47.30218" lon="-2.36836">
        <ele>153.80000305176</ele>
        <time>2020-12-10T09:07:18.000Z</time>
      </trkpt>
      <trkpt lat="47.3022" lon="-2.36841">
        <ele>154.19999694824</ele>
        <time>2020-12-10T09:07:19.000Z</time>
      </trkpt>
      <trkpt lat="47.30222" lon="-2.36846">
        <ele>154.80000305176</ele>
        <time>2020-12-10T09:07:20.000Z</time>
      </trkpt>
      <trkpt lat="47.30234" lon="-2.36877">
        <ele>154.80000305176</ele>
        <time>2020-12-10T09:07:26.000Z</time>
      </trkpt>
      <trkpt lat="47.30238" lon="-2.36887">
        <ele>155.19999694824</ele>
        <time>2020-12-10T09:07:28.000Z</time>
      </trkpt>
      <trkpt lat="47.3024" lon="-2.36892">
        <ele>155.60000610352</ele>
        <time>2020-12-10T09:07:29.000Z</time>
      </trkpt>
      <trkpt lat="47.30242" lon="-2.36896">
        <ele>156</ele>
        <time>2020-12-10T09:07:30.000Z</time>
      </trkpt>
      <trkpt lat="47.30244" lon="-2.36901">
        <ele>156.39999389648</ele>
        <time>2020-12-10T09:07:31.000Z</time>
      </trkpt>
      <trkpt lat="47.30246" lon="-2.36906">
        <ele>156.80000305176</ele>
        <time>2020-12-10T09:07:32.000Z</time>
      </trkpt>
      <trkpt lat="47.3025" lon="-2.36915">
        <ele>156.80000305176</ele>
        <time>2020-12-10T09:07:34.000Z</time>
      </trkpt>
      <trkpt lat="47.30255" lon="-2.36929">
        <ele>157.39999389648</ele>
        <time>2020-12-10T09:07:37.000Z</time>
      </trkpt>
      <trkpt lat="47.30257" lon="-2.36933">
        <ele>157.80000305176</ele>
        <time>2020-12-10T09:07:38.000Z</time>
      </trkpt>
      <trkpt lat="47.30259" lon="-2.36937">
        <ele>158.19999694824</ele>
        <time>2020-12-10T09:07:39.000Z</time>
      </trkpt>
      <trkpt lat="47.30261" lon="-2.36941">
        <ele>158.60000610352</ele>
        <time>2020-12-10T09:07:40.000Z</time>
      </trkpt>
      <trkpt lat="47.30263" lon="-2.36946">
        <ele>159.19999694824</ele>
        <time>2020-12-10T09:07:41.000Z</time>
      </trkpt>
      <trkpt lat="47.30265" lon="-2.3695">
        <ele>159.19999694824</ele>
        <time>2020-12-10T09:07:42.000Z</time>
      </trkpt>
      <trkpt lat="47.30271" lon="-2.36968">
        <ele>159.60000610352</ele>
        <time>2020-12-10T09:07:46.000Z</time>
      </trkpt>
      <trkpt lat="47.30273" lon="-2.36973">
        <ele>160</ele>
        <time>2020-12-10T09:07:47.000Z</time>
      </trkpt>
      <trkpt lat="47.30275" lon="-2.36977">
        <ele>160.39999389648</ele>
        <time>2020-12-10T09:07:48.000Z</time>
      </trkpt>
      <trkpt lat="47.30276" lon="-2.36981">
        <ele>160.80000305176</ele>
        <time>2020-12-10T09:07:49.000Z</time>
      </trkpt>
      <trkpt lat="47.30278" lon="-2.36986">
        <ele>161.19999694824</ele>
        <time>2020-12-10T09:07:50.000Z</time>
      </trkpt>
      <trkpt lat="47.3028" lon="-2.3699">
        <ele>161.60000610352</ele>
        <time>2020-12-10T09:07:51.000Z</time>
      </trkpt>
      <trkpt lat="47.30281" lon="-2.36993">
        <ele>162</ele>
        <time>2020-12-10T09:07:52.000Z</time>
      </trkpt>
      <trkpt lat="47.30283" lon="-2.36997">
        <ele>162.60000610352</ele>
        <time>2020-12-10T09:07:53.000Z</time>
      </trkpt>
      <trkpt lat="47.30284" lon="-2.37001">
        <ele>163</ele>
        <time>2020-12-10T09:07:54.000Z</time>
      </trkpt>
      <trkpt lat="47.30286" lon="-2.37006">
        <ele>163.39999389648</ele>
        <time>2020-12-10T09:07:55.000Z</time>
      </trkpt>
      <trkpt lat="47.30288" lon="-2.37011">
        <ele>163.39999389648</ele>
        <time>2020-12-10T09:07:56.000Z</time>
      </trkpt>
      <trkpt lat="47.30302" lon="-2.37048">
        <ele>163.39999389648</ele>
        <time>2020-12-10T09:08:03.000Z</time>
      </trkpt>
      <trkpt lat="47.30319" lon="-2.37099">
        <ele>163.39999389648</ele>
        <time>2020-12-10T09:08:11.000Z</time>
      </trkpt>
      <trkpt lat="47.30337" lon="-2.37155">
        <ele>163.39999389648</ele>
        <time>2020-12-10T09:08:19.000Z</time>
      </trkpt>
      <trkpt lat="47.30354" lon="-2.37213">
        <ele>163.39999389648</ele>
        <time>2020-12-10T09:08:27.000Z</time>
      </trkpt>
      <trkpt lat="47.30367" lon="-2.37258">
        <ele>163</ele>
        <time>2020-12-10T09:08:33.000Z</time>
      </trkpt>
      <trkpt lat="47.30369" lon="-2.37266">
        <ele>162.60000610352</ele>
        <time>2020-12-10T09:08:34.000Z</time>
      </trkpt>
      <trkpt lat="47.30372" lon="-2.37274">
        <ele>162.19999694824</ele>
        <time>2020-12-10T09:08:35.000Z</time>
      </trkpt>
      <trkpt lat="47.30374" lon="-2.37281">
        <ele>161.80000305176</ele>
        <time>2020-12-10T09:08:36.000Z</time>
      </trkpt>
      <trkpt lat="47.30377" lon="-2.37289">
        <ele>161.39999389648</ele>
        <time>2020-12-10T09:08:37.000Z</time>
      </trkpt>
      <trkpt lat="47.30387" lon="-2.37322">
        <ele>161.39999389648</ele>
        <time>2020-12-10T09:08:41.000Z</time>
      </trkpt>
      <trkpt lat="47.30391" lon="-2.3734">
        <ele>161</ele>
        <time>2020-12-10T09:08:43.000Z</time>
      </trkpt>
      <trkpt lat="47.30394" lon="-2.37348">
        <ele>160.60000610352</ele>
        <time>2020-12-10T09:08:44.000Z</time>
      </trkpt>
      <trkpt lat="47.30396" lon="-2.37357">
        <ele>160.19999694824</ele>
        <time>2020-12-10T09:08:45.000Z</time>
      </trkpt>
      <trkpt lat="47.30399" lon="-2.37365">
        <ele>159.39999389648</ele>
        <time>2020-12-10T09:08:46.000Z</time>
      </trkpt>
      <trkpt lat="47.30408" lon="-2.37392">
        <ele>159.39999389648</ele>
        <time>2020-12-10T09:08:49.000Z</time>
      </trkpt>
      <trkpt lat="47.3041" lon="-2.37401">
        <ele>159</ele>
        <time>2020-12-10T09:08:50.000Z</time>
      </trkpt>
      <trkpt lat="47.30413" lon="-2.37409">
        <ele>158.60000610352</ele>
        <time>2020-12-10T09:08:51.000Z</time>
      </trkpt>
      <trkpt lat="47.30416" lon="-2.37418">
        <ele>158.19999694824</ele>
        <time>2020-12-10T09:08:52.000Z</time>
      </trkpt>
      <trkpt lat="47.30418" lon="-2.37426">
        <ele>157.80000305176</ele>
        <time>2020-12-10T09:08:53.000Z</time>
      </trkpt>
      <trkpt lat="47.30421" lon="-2.37434">
        <ele>157.19999694824</ele>
        <time>2020-12-10T09:08:54.000Z</time>
      </trkpt>
      <trkpt lat="47.30423" lon="-2.37443">
        <ele>157.19999694824</ele>
        <time>2020-12-10T09:08:55.000Z</time>
      </trkpt>
      <trkpt lat="47.30439" lon="-2.37497">
        <ele>156.80000305176</ele>
        <time>2020-12-10T09:09:01.000Z</time>
      </trkpt>
      <trkpt lat="47.30441" lon="-2.37506">
        <ele>156.39999389648</ele>
        <time>2020-12-10T09:09:02.000Z</time>
      </trkpt>
      <trkpt lat="47.30444" lon="-2.37516">
        <ele>156</ele>
        <time>2020-12-10T09:09:03.000Z</time>
      </trkpt>
      <trkpt lat="47.30446" lon="-2.37524">
        <ele>155.39999389648</ele>
        <time>2020-12-10T09:09:04.000Z</time>
      </trkpt>
      <trkpt lat="47.30449" lon="-2.37533">
        <ele>155</ele>
        <time>2020-12-10T09:09:05.000Z</time>
      </trkpt>
      <trkpt lat="47.30461" lon="-2.37577">
        <ele>155</ele>
        <time>2020-12-10T09:09:10.000Z</time>
      </trkpt>
      <trkpt lat="47.30478" lon="-2.37636">
        <ele>155</ele>
        <time>2020-12-10T09:09:17.000Z</time>
      </trkpt>
      <trkpt lat="47.30482" lon="-2.37653">
        <ele>155</ele>
        <time>2020-12-10T09:09:19.000Z</time>
      </trkpt>
      <trkpt lat="47.30491" lon="-2.37683">
        <ele>155</ele>
        <time>2020-12-10T09:09:23.000Z</time>
      </trkpt>
      <trkpt lat="47.30509" lon="-2.37748">
        <ele>155</ele>
        <time>2020-12-10T09:09:32.000Z</time>
      </trkpt>
      <trkpt lat="47.30527" lon="-2.37814">
        <ele>155</ele>
        <time>2020-12-10T09:09:41.000Z</time>
      </trkpt>
      <trkpt lat="47.30545" lon="-2.37876">
        <ele>155</ele>
        <time>2020-12-10T09:09:50.000Z</time>
      </trkpt>
      <trkpt lat="47.30558" lon="-2.37912">
        <ele>155</ele>
        <time>2020-12-10T09:09:56.000Z</time>
      </trkpt>
      <trkpt lat="47.30561" lon="-2.37918">
        <ele>155</ele>
        <time>2020-12-10T09:09:57.000Z</time>
      </trkpt>
      <trkpt lat="47.30565" lon="-2.37923">
        <ele>155</ele>
        <time>2020-12-10T09:09:58.000Z</time>
      </trkpt>
      <trkpt lat="47.30581" lon="-2.37944">
        <ele>155</ele>
        <time>2020-12-10T09:10:02.000Z</time>
      </trkpt>
      <trkpt lat="47.30586" lon="-2.37966">
        <ele>155</ele>
        <time>2020-12-10T09:10:05.000Z</time>
      </trkpt>
      <trkpt lat="47.30583" lon="-2.3799">
        <ele>155</ele>
        <time>2020-12-10T09:10:08.000Z</time>
      </trkpt>
      <trkpt lat="47.30582" lon="-2.37998">
        <ele>155</ele>
        <time>2020-12-10T09:10:09.000Z</time>
      </trkpt>
      <trkpt lat="47.30582" lon="-2.38014">
        <ele>155</ele>
        <time>2020-12-10T09:10:11.000Z</time>
      </trkpt>
      <trkpt lat="47.30587" lon="-2.38035">
        <ele>155</ele>
        <time>2020-12-10T09:10:14.000Z</time>
      </trkpt>
      <trkpt lat="47.30604" lon="-2.38093">
        <ele>155</ele>
        <time>2020-12-10T09:10:22.000Z</time>
      </trkpt>
      <trkpt lat="47.30621" lon="-2.38152">
        <ele>155</ele>
        <time>2020-12-10T09:10:30.000Z</time>
      </trkpt>
      <trkpt lat="47.30635" lon="-2.38205">
        <ele>155</ele>
        <time>2020-12-10T09:10:37.000Z</time>
      </trkpt>
      <trkpt lat="47.30649" lon="-2.38258">
        <ele>155</ele>
        <time>2020-12-10T09:10:44.000Z</time>
      </trkpt>
      <trkpt lat="47.3066" lon="-2.38303">
        <ele>155</ele>
        <time>2020-12-10T09:10:50.000Z</time>
      </trkpt>
      <trkpt lat="47.30669" lon="-2.38355">
        <ele>155</ele>
        <time>2020-12-10T09:10:57.000Z</time>
      </trkpt>
      <trkpt lat="47.30681" lon="-2.384">
        <ele>155</ele>
        <time>2020-12-10T09:11:03.000Z</time>
      </trkpt>
      <trkpt lat="47.30683" lon="-2.38408">
        <ele>155.39999389648</ele>
        <time>2020-12-10T09:11:04.000Z</time>
      </trkpt>
      <trkpt lat="47.30685" lon="-2.38415">
        <ele>155.80000305176</ele>
        <time>2020-12-10T09:11:05.000Z</time>
      </trkpt>
      <trkpt lat="47.30688" lon="-2.38423">
        <ele>156.19999694824</ele>
        <time>2020-12-10T09:11:06.000Z</time>
      </trkpt>
      <trkpt lat="47.3069" lon="-2.3843">
        <ele>156.80000305176</ele>
        <time>2020-12-10T09:11:07.000Z</time>
      </trkpt>
      <trkpt lat="47.30692" lon="-2.38439">
        <ele>157.19999694824</ele>
        <time>2020-12-10T09:11:08.000Z</time>
      </trkpt>
      <trkpt lat="47.30698" lon="-2.38462">
        <ele>157.19999694824</ele>
        <time>2020-12-10T09:11:11.000Z</time>
      </trkpt>
      <trkpt lat="47.30711" lon="-2.38505">
        <ele>157.19999694824</ele>
        <time>2020-12-10T09:11:17.000Z</time>
      </trkpt>
      <trkpt lat="47.30729" lon="-2.38565">
        <ele>157.19999694824</ele>
        <time>2020-12-10T09:11:25.000Z</time>
      </trkpt>
      <trkpt lat="47.30744" lon="-2.38617">
        <ele>157.19999694824</ele>
        <time>2020-12-10T09:11:32.000Z</time>
      </trkpt>
      <trkpt lat="47.3076" lon="-2.38668">
        <ele>157.19999694824</ele>
        <time>2020-12-10T09:11:39.000Z</time>
      </trkpt>
      <trkpt lat="47.30771" lon="-2.38709">
        <ele>157.19999694824</ele>
        <time>2020-12-10T09:11:45.000Z</time>
      </trkpt>
      <trkpt lat="47.30785" lon="-2.38747">
        <ele>157.19999694824</ele>
        <time>2020-12-10T09:11:51.000Z</time>
      </trkpt>
      <trkpt lat="47.30788" lon="-2.38752">
        <ele>157.19999694824</ele>
        <time>2020-12-10T09:11:52.000Z</time>
      </trkpt>
      <trkpt lat="47.30798" lon="-2.38764">
        <ele>157.19999694824</ele>
        <time>2020-12-10T09:11:55.000Z</time>
      </trkpt>
      <trkpt lat="47.30809" lon="-2.38776">
        <ele>157.19999694824</ele>
        <time>2020-12-10T09:11:58.000Z</time>
      </trkpt>
      <trkpt lat="47.30814" lon="-2.38778">
        <ele>157.19999694824</ele>
        <time>2020-12-10T09:11:59.000Z</time>
      </trkpt>
      <trkpt lat="47.30829" lon="-2.38783">
        <ele>157.19999694824</ele>
        <time>2020-12-10T09:12:02.000Z</time>
      </trkpt>
      <trkpt lat="47.30867" lon="-2.38794">
        <ele>157.19999694824</ele>
        <time>2020-12-10T09:12:09.000Z</time>
      </trkpt>
      <trkpt lat="47.30873" lon="-2.38798">
        <ele>157.19999694824</ele>
        <time>2020-12-10T09:12:10.000Z</time>
      </trkpt>
      <trkpt lat="47.30884" lon="-2.38814">
        <ele>157.19999694824</ele>
        <time>2020-12-10T09:12:13.000Z</time>
      </trkpt>
      <trkpt lat="47.30886" lon="-2.38822">
        <ele>156.80000305176</ele>
        <time>2020-12-10T09:12:15.000Z</time>
      </trkpt>
      <trkpt lat="47.30886" lon="-2.38824">
        <ele>156.19999694824</ele>
        <time>2020-12-10T09:12:16.000Z</time>
      </trkpt>
      <trkpt lat="47.30887" lon="-2.38827">
        <ele>155.80000305176</ele>
        <time>2020-12-10T09:12:17.000Z</time>
      </trkpt>
      <trkpt lat="47.30887" lon="-2.38829">
        <ele>155.39999389648</ele>
        <time>2020-12-10T09:12:18.000Z</time>
      </trkpt>
      <trkpt lat="47.30888" lon="-2.3883">
        <ele>155</ele>
        <time>2020-12-10T09:12:19.000Z</time>
      </trkpt>
      <trkpt lat="47.30892" lon="-2.38834">
        <ele>155</ele>
        <time>2020-12-10T09:12:21.000Z</time>
      </trkpt>
      <trkpt lat="47.30904" lon="-2.38855">
        <ele>155</ele>
        <time>2020-12-10T09:12:27.000Z</time>
      </trkpt>
      <trkpt lat="47.3091" lon="-2.38879">
        <ele>155</ele>
        <time>2020-12-10T09:12:31.000Z</time>
      </trkpt>
      <trkpt lat="47.30925" lon="-2.389">
        <ele>155</ele>
        <time>2020-12-10T09:12:35.000Z</time>
      </trkpt>
      <trkpt lat="47.3093" lon="-2.38921">
        <ele>155</ele>
        <time>2020-12-10T09:12:38.000Z</time>
      </trkpt>
      <trkpt lat="47.30925" lon="-2.38943">
        <ele>155</ele>
        <time>2020-12-10T09:12:41.000Z</time>
      </trkpt>
      <trkpt lat="47.30914" lon="-2.38963">
        <ele>155</ele>
        <time>2020-12-10T09:12:44.000Z</time>
      </trkpt>
      <trkpt lat="47.30911" lon="-2.38971">
        <ele>155</ele>
        <time>2020-12-10T09:12:45.000Z</time>
      </trkpt>
      <trkpt lat="47.30905" lon="-2.38987">
        <ele>155</ele>
        <time>2020-12-10T09:12:47.000Z</time>
      </trkpt>
      <trkpt lat="47.30903" lon="-2.39004">
        <ele>155</ele>
        <time>2020-12-10T09:12:49.000Z</time>
      </trkpt>
      <trkpt lat="47.30902" lon="-2.39012">
        <ele>155</ele>
        <time>2020-12-10T09:12:50.000Z</time>
      </trkpt>
      <trkpt lat="47.309" lon="-2.39053">
        <ele>155</ele>
        <time>2020-12-10T09:12:55.000Z</time>
      </trkpt>
      <trkpt lat="47.30902" lon="-2.39086">
        <ele>155</ele>
        <time>2020-12-10T09:12:59.000Z</time>
      </trkpt>
      <trkpt lat="47.30906" lon="-2.39101">
        <ele>155</ele>
        <time>2020-12-10T09:13:01.000Z</time>
      </trkpt>
      <trkpt lat="47.3092" lon="-2.39146">
        <ele>155</ele>
        <time>2020-12-10T09:13:07.000Z</time>
      </trkpt>
      <trkpt lat="47.30944" lon="-2.39204">
        <ele>155</ele>
        <time>2020-12-10T09:13:15.000Z</time>
      </trkpt>
      <trkpt lat="47.30967" lon="-2.39254">
        <ele>155</ele>
        <time>2020-12-10T09:13:22.000Z</time>
      </trkpt>
      <trkpt lat="47.3099" lon="-2.39313">
        <ele>155</ele>
        <time>2020-12-10T09:13:30.000Z</time>
      </trkpt>
      <trkpt lat="47.31013" lon="-2.39384">
        <ele>155</ele>
        <time>2020-12-10T09:13:39.000Z</time>
      </trkpt>
      <trkpt lat="47.31036" lon="-2.39454">
        <ele>155</ele>
        <time>2020-12-10T09:13:47.000Z</time>
      </trkpt>
      <trkpt lat="47.31055" lon="-2.39516">
        <ele>155</ele>
        <time>2020-12-10T09:13:54.000Z</time>
      </trkpt>
      <trkpt lat="47.31069" lon="-2.39552">
        <ele>155</ele>
        <time>2020-12-10T09:13:59.000Z</time>
      </trkpt>
      <trkpt lat="47.31084" lon="-2.39596">
        <ele>155</ele>
        <time>2020-12-10T09:14:05.000Z</time>
      </trkpt>
      <trkpt lat="47.31101" lon="-2.39643">
        <ele>155</ele>
        <time>2020-12-10T09:14:11.000Z</time>
      </trkpt>
      <trkpt lat="47.31118" lon="-2.39693">
        <ele>155</ele>
        <time>2020-12-10T09:14:17.000Z</time>
      </trkpt>
      <trkpt lat="47.31142" lon="-2.39761">
        <ele>155</ele>
        <time>2020-12-10T09:14:25.000Z</time>
      </trkpt>
      <trkpt lat="47.31145" lon="-2.39769">
        <ele>154.60000610352</ele>
        <time>2020-12-10T09:14:26.000Z</time>
      </trkpt>
      <trkpt lat="47.31148" lon="-2.39777">
        <ele>154.19999694824</ele>
        <time>2020-12-10T09:14:27.000Z</time>
      </trkpt>
      <trkpt lat="47.31152" lon="-2.39786">
        <ele>153.80000305176</ele>
        <time>2020-12-10T09:14:28.000Z</time>
      </trkpt>
      <trkpt lat="47.31154" lon="-2.39794">
        <ele>153.39999389648</ele>
        <time>2020-12-10T09:14:29.000Z</time>
      </trkpt>
      <trkpt lat="47.31157" lon="-2.39804">
        <ele>153</ele>
        <time>2020-12-10T09:14:30.000Z</time>
      </trkpt>
      <trkpt lat="47.31162" lon="-2.39821">
        <ele>153</ele>
        <time>2020-12-10T09:14:32.000Z</time>
      </trkpt>
      <trkpt lat="47.31176" lon="-2.39848">
        <ele>153</ele>
        <time>2020-12-10T09:14:36.000Z</time>
      </trkpt>
      <trkpt lat="47.31179" lon="-2.39855">
        <ele>153</ele>
        <time>2020-12-10T09:14:37.000Z</time>
      </trkpt>
      <trkpt lat="47.31182" lon="-2.39877">
        <ele>153</ele>
        <time>2020-12-10T09:14:40.000Z</time>
      </trkpt>
      <trkpt lat="47.31183" lon="-2.3988">
        <ele>153</ele>
        <time>2020-12-10T09:14:41.000Z</time>
      </trkpt>
      <trkpt lat="47.31188" lon="-2.39895">
        <ele>153</ele>
        <time>2020-12-10T09:14:45.000Z</time>
      </trkpt>
      <trkpt lat="47.31192" lon="-2.39905">
        <ele>153</ele>
        <time>2020-12-10T09:14:47.000Z</time>
      </trkpt>
      <trkpt lat="47.31194" lon="-2.39909">
        <ele>152.60000610352</ele>
        <time>2020-12-10T09:14:48.000Z</time>
      </trkpt>
      <trkpt lat="47.31195" lon="-2.39913">
        <ele>152</ele>
        <time>2020-12-10T09:14:49.000Z</time>
      </trkpt>
      <trkpt lat="47.31197" lon="-2.39915">
        <ele>151.60000610352</ele>
        <time>2020-12-10T09:14:50.000Z</time>
      </trkpt>
      <trkpt lat="47.31198" lon="-2.39919">
        <ele>151.19999694824</ele>
        <time>2020-12-10T09:14:51.000Z</time>
      </trkpt>
      <trkpt lat="47.312" lon="-2.39924">
        <ele>150.60000610352</ele>
        <time>2020-12-10T09:14:52.000Z</time>
      </trkpt>
      <trkpt lat="47.31202" lon="-2.39929">
        <ele>150.60000610352</ele>
        <time>2020-12-10T09:14:53.000Z</time>
      </trkpt>
      <trkpt lat="47.31215" lon="-2.39966">
        <ele>150.60000610352</ele>
        <time>2020-12-10T09:15:00.000Z</time>
      </trkpt>
      <trkpt lat="47.31217" lon="-2.39972">
        <ele>150.19999694824</ele>
        <time>2020-12-10T09:15:01.000Z</time>
      </trkpt>
      <trkpt lat="47.31218" lon="-2.39978">
        <ele>149.80000305176</ele>
        <time>2020-12-10T09:15:02.000Z</time>
      </trkpt>
      <trkpt lat="47.3122" lon="-2.39984">
        <ele>149.39999389648</ele>
        <time>2020-12-10T09:15:03.000Z</time>
      </trkpt>
      <trkpt lat="47.31222" lon="-2.39988">
        <ele>149</ele>
        <time>2020-12-10T09:15:04.000Z</time>
      </trkpt>
      <trkpt lat="47.31224" lon="-2.39993">
        <ele>148.60000610352</ele>
        <time>2020-12-10T09:15:05.000Z</time>
      </trkpt>
      <trkpt lat="47.31228" lon="-2.40004">
        <ele>148.19999694824</ele>
        <time>2020-12-10T09:15:07.000Z</time>
      </trkpt>
      <trkpt lat="47.31229" lon="-2.40009">
        <ele>147.80000305176</ele>
        <time>2020-12-10T09:15:08.000Z</time>
      </trkpt>
      <trkpt lat="47.3123" lon="-2.40014">
        <ele>147.39999389648</ele>
        <time>2020-12-10T09:15:09.000Z</time>
      </trkpt>
      <trkpt lat="47.31231" lon="-2.40019">
        <ele>147</ele>
        <time>2020-12-10T09:15:10.000Z</time>
      </trkpt>
      <trkpt lat="47.31233" lon="-2.40024">
        <ele>146.60000610352</ele>
        <time>2020-12-10T09:15:11.000Z</time>
      </trkpt>
      <trkpt lat="47.31237" lon="-2.40039">
        <ele>146.60000610352</ele>
        <time>2020-12-10T09:15:15.000Z</time>
      </trkpt>
      <trkpt lat="47.31239" lon="-2.4004">
        <ele>146.60000610352</ele>
        <time>2020-12-10T09:15:16.000Z</time>
      </trkpt>
      <trkpt lat="47.31247" lon="-2.40044">
        <ele>146.60000610352</ele>
        <time>2020-12-10T09:15:21.000Z</time>
      </trkpt>
      <trkpt lat="47.31252" lon="-2.4005">
        <ele>146.60000610352</ele>
        <time>2020-12-10T09:15:25.000Z</time>
      </trkpt>
      <trkpt lat="47.31255" lon="-2.40049">
        <ele>146.60000610352</ele>
        <time>2020-12-10T09:15:26.000Z</time>
      </trkpt>
      <trkpt lat="47.3126" lon="-2.4005">
        <ele>146.60000610352</ele>
        <time>2020-12-10T09:15:27.000Z</time>
      </trkpt>
      <trkpt lat="47.3129" lon="-2.40058">
        <ele>146.60000610352</ele>
        <time>2020-12-10T09:15:34.000Z</time>
      </trkpt>
      <trkpt lat="47.31314" lon="-2.40068">
        <ele>146.60000610352</ele>
        <time>2020-12-10T09:15:40.000Z</time>
      </trkpt>
      <trkpt lat="47.31337" lon="-2.40082">
        <ele>146.60000610352</ele>
        <time>2020-12-10T09:15:45.000Z</time>
      </trkpt>
      <trkpt lat="47.31363" lon="-2.40097">
        <ele>146.60000610352</ele>
        <time>2020-12-10T09:15:51.000Z</time>
      </trkpt>
      <trkpt lat="47.31376" lon="-2.40107">
        <ele>146.60000610352</ele>
        <time>2020-12-10T09:15:55.000Z</time>
      </trkpt>
      <trkpt lat="47.31397" lon="-2.40117">
        <ele>146.60000610352</ele>
        <time>2020-12-10T09:16:01.000Z</time>
      </trkpt>
      <trkpt lat="47.31418" lon="-2.40131">
        <ele>146.60000610352</ele>
        <time>2020-12-10T09:16:07.000Z</time>
      </trkpt>
      <trkpt lat="47.31441" lon="-2.40148">
        <ele>147</ele>
        <time>2020-12-10T09:16:14.000Z</time>
      </trkpt>
      <trkpt lat="47.31445" lon="-2.40151">
        <ele>147.39999389648</ele>
        <time>2020-12-10T09:16:15.000Z</time>
      </trkpt>
      <trkpt lat="47.31448" lon="-2.40154">
        <ele>147.80000305176</ele>
        <time>2020-12-10T09:16:16.000Z</time>
      </trkpt>
      <trkpt lat="47.31452" lon="-2.40157">
        <ele>148.19999694824</ele>
        <time>2020-12-10T09:16:17.000Z</time>
      </trkpt>
      <trkpt lat="47.31455" lon="-2.4016">
        <ele>148.60000610352</ele>
        <time>2020-12-10T09:16:18.000Z</time>
      </trkpt>
      <trkpt lat="47.3146" lon="-2.40165">
        <ele>148.60000610352</ele>
        <time>2020-12-10T09:16:20.000Z</time>
      </trkpt>
      <trkpt lat="47.31473" lon="-2.40177">
        <ele>148.60000610352</ele>
        <time>2020-12-10T09:16:24.000Z</time>
      </trkpt>
      <trkpt lat="47.31488" lon="-2.40187">
        <ele>148.60000610352</ele>
        <time>2020-12-10T09:16:29.000Z</time>
      </trkpt>
      <trkpt lat="47.31508" lon="-2.40197">
        <ele>148.60000610352</ele>
        <time>2020-12-10T09:16:35.000Z</time>
      </trkpt>
      <trkpt lat="47.31527" lon="-2.40209">
        <ele>148.60000610352</ele>
        <time>2020-12-10T09:16:41.000Z</time>
      </trkpt>
      <trkpt lat="47.31539" lon="-2.40218">
        <ele>149</ele>
        <time>2020-12-10T09:16:45.000Z</time>
      </trkpt>
      <trkpt lat="47.31542" lon="-2.4022">
        <ele>149.39999389648</ele>
        <time>2020-12-10T09:16:46.000Z</time>
      </trkpt>
      <trkpt lat="47.31545" lon="-2.40223">
        <ele>149.80000305176</ele>
        <time>2020-12-10T09:16:47.000Z</time>
      </trkpt>
      <trkpt lat="47.31548" lon="-2.40225">
        <ele>150.19999694824</ele>
        <time>2020-12-10T09:16:48.000Z</time>
      </trkpt>
      <trkpt lat="47.31551" lon="-2.40227">
        <ele>150.60000610352</ele>
        <time>2020-12-10T09:16:49.000Z</time>
      </trkpt>
      <trkpt lat="47.31557" lon="-2.40233">
        <ele>150.60000610352</ele>
        <time>2020-12-10T09:16:51.000Z</time>
      </trkpt>
      <trkpt lat="47.31579" lon="-2.40251">
        <ele>150.60000610352</ele>
        <time>2020-12-10T09:16:57.000Z</time>
      </trkpt>
      <trkpt lat="47.31601" lon="-2.40268">
        <ele>150.60000610352</ele>
        <time>2020-12-10T09:17:03.000Z</time>
      </trkpt>
      <trkpt lat="47.31615" lon="-2.4028">
        <ele>150.60000610352</ele>
        <time>2020-12-10T09:17:07.000Z</time>
      </trkpt>
      <trkpt lat="47.31622" lon="-2.40286">
        <ele>151</ele>
        <time>2020-12-10T09:17:09.000Z</time>
      </trkpt>
      <trkpt lat="47.31625" lon="-2.40289">
        <ele>151.39999389648</ele>
        <time>2020-12-10T09:17:10.000Z</time>
      </trkpt>
      <trkpt lat="47.31629" lon="-2.40291">
        <ele>152</ele>
        <time>2020-12-10T09:17:11.000Z</time>
      </trkpt>
      <trkpt lat="47.31633" lon="-2.40293">
        <ele>152.39999389648</ele>
        <time>2020-12-10T09:17:12.000Z</time>
      </trkpt>
      <trkpt lat="47.31636" lon="-2.40296">
        <ele>152.80000305176</ele>
        <time>2020-12-10T09:17:13.000Z</time>
      </trkpt>
      <trkpt lat="47.31639" lon="-2.40298">
        <ele>152.80000305176</ele>
        <time>2020-12-10T09:17:14.000Z</time>
      </trkpt>
      <trkpt lat="47.31654" lon="-2.40309">
        <ele>152.80000305176</ele>
        <time>2020-12-10T09:17:19.000Z</time>
      </trkpt>
      <trkpt lat="47.31667" lon="-2.40322">
        <ele>152.80000305176</ele>
        <time>2020-12-10T09:17:24.000Z</time>
      </trkpt>
      <trkpt lat="47.31687" lon="-2.40336">
        <ele>152.80000305176</ele>
        <time>2020-12-10T09:17:30.000Z</time>
      </trkpt>
      <trkpt lat="47.31696" lon="-2.40344">
        <ele>153.19999694824</ele>
        <time>2020-12-10T09:17:33.000Z</time>
      </trkpt>
      <trkpt lat="47.317" lon="-2.40347">
        <ele>153.60000610352</ele>
        <time>2020-12-10T09:17:34.000Z</time>
      </trkpt>
      <trkpt lat="47.31703" lon="-2.4035">
        <ele>154</ele>
        <time>2020-12-10T09:17:35.000Z</time>
      </trkpt>
      <trkpt lat="47.31707" lon="-2.40353">
        <ele>154.39999389648</ele>
        <time>2020-12-10T09:17:36.000Z</time>
      </trkpt>
      <trkpt lat="47.3171" lon="-2.40356">
        <ele>154.80000305176</ele>
        <time>2020-12-10T09:17:37.000Z</time>
      </trkpt>
      <trkpt lat="47.3173" lon="-2.40372">
        <ele>154.80000305176</ele>
        <time>2020-12-10T09:17:43.000Z</time>
      </trkpt>
      <trkpt lat="47.31754" lon="-2.4039">
        <ele>154.80000305176</ele>
        <time>2020-12-10T09:17:50.000Z</time>
      </trkpt>
      <trkpt lat="47.31777" lon="-2.40408">
        <ele>154.80000305176</ele>
        <time>2020-12-10T09:17:56.000Z</time>
      </trkpt>
      <trkpt lat="47.31803" lon="-2.40426">
        <ele>154.80000305176</ele>
        <time>2020-12-10T09:18:02.000Z</time>
      </trkpt>
      <trkpt lat="47.31828" lon="-2.40444">
        <ele>155.19999694824</ele>
        <time>2020-12-10T09:18:08.000Z</time>
      </trkpt>
      <trkpt lat="47.31832" lon="-2.40447">
        <ele>155.60000610352</ele>
        <time>2020-12-10T09:18:09.000Z</time>
      </trkpt>
      <trkpt lat="47.31837" lon="-2.40451">
        <ele>156</ele>
        <time>2020-12-10T09:18:10.000Z</time>
      </trkpt>
      <trkpt lat="47.3184" lon="-2.40454">
        <ele>156.39999389648</ele>
        <time>2020-12-10T09:18:11.000Z</time>
      </trkpt>
      <trkpt lat="47.31844" lon="-2.40457">
        <ele>157</ele>
        <time>2020-12-10T09:18:12.000Z</time>
      </trkpt>
      <trkpt lat="47.31857" lon="-2.40469">
        <ele>157</ele>
        <time>2020-12-10T09:18:16.000Z</time>
      </trkpt>
      <trkpt lat="47.31862" lon="-2.4047">
        <ele>157</ele>
        <time>2020-12-10T09:18:17.000Z</time>
      </trkpt>
      <trkpt lat="47.31877" lon="-2.40482">
        <ele>157</ele>
        <time>2020-12-10T09:18:21.000Z</time>
      </trkpt>
      <trkpt lat="47.31904" lon="-2.40502">
        <ele>157</ele>
        <time>2020-12-10T09:18:27.000Z</time>
      </trkpt>
      <trkpt lat="47.31908" lon="-2.40504">
        <ele>157</ele>
        <time>2020-12-10T09:18:28.000Z</time>
      </trkpt>
      <trkpt lat="47.31912" lon="-2.40507">
        <ele>157.39999389648</ele>
        <time>2020-12-10T09:18:29.000Z</time>
      </trkpt>
      <trkpt lat="47.31915" lon="-2.40512">
        <ele>157.80000305176</ele>
        <time>2020-12-10T09:18:30.000Z</time>
      </trkpt>
      <trkpt lat="47.3192" lon="-2.40515">
        <ele>158.19999694824</ele>
        <time>2020-12-10T09:18:31.000Z</time>
      </trkpt>
      <trkpt lat="47.31924" lon="-2.40517">
        <ele>158.60000610352</ele>
        <time>2020-12-10T09:18:32.000Z</time>
      </trkpt>
      <trkpt lat="47.31927" lon="-2.4052">
        <ele>159</ele>
        <time>2020-12-10T09:18:33.000Z</time>
      </trkpt>
      <trkpt lat="47.31932" lon="-2.40523">
        <ele>159</ele>
        <time>2020-12-10T09:18:34.000Z</time>
      </trkpt>
      <trkpt lat="47.3194" lon="-2.4053">
        <ele>159</ele>
        <time>2020-12-10T09:18:36.000Z</time>
      </trkpt>
      <trkpt lat="47.31947" lon="-2.40535">
        <ele>159</ele>
        <time>2020-12-10T09:18:38.000Z</time>
      </trkpt>
      <trkpt lat="47.31968" lon="-2.4055">
        <ele>159</ele>
        <time>2020-12-10T09:18:44.000Z</time>
      </trkpt>
      <trkpt lat="47.31992" lon="-2.40569">
        <ele>159</ele>
        <time>2020-12-10T09:18:50.000Z</time>
      </trkpt>
      <trkpt lat="47.32026" lon="-2.40595">
        <ele>159</ele>
        <time>2020-12-10T09:18:58.000Z</time>
      </trkpt>
      <trkpt lat="47.32034" lon="-2.40602">
        <ele>159.39999389648</ele>
        <time>2020-12-10T09:19:00.000Z</time>
      </trkpt>
      <trkpt lat="47.32038" lon="-2.40606">
        <ele>159.80000305176</ele>
        <time>2020-12-10T09:19:01.000Z</time>
      </trkpt>
      <trkpt lat="47.32042" lon="-2.4061">
        <ele>160.19999694824</ele>
        <time>2020-12-10T09:19:02.000Z</time>
      </trkpt>
      <trkpt lat="47.32047" lon="-2.40614">
        <ele>160.60000610352</ele>
        <time>2020-12-10T09:19:03.000Z</time>
      </trkpt>
      <trkpt lat="47.32053" lon="-2.40616">
        <ele>161</ele>
        <time>2020-12-10T09:19:04.000Z</time>
      </trkpt>
      <trkpt lat="47.32057" lon="-2.40621">
        <ele>161</ele>
        <time>2020-12-10T09:19:05.000Z</time>
      </trkpt>
      <trkpt lat="47.32086" lon="-2.40651">
        <ele>161</ele>
        <time>2020-12-10T09:19:12.000Z</time>
      </trkpt>
      <trkpt lat="47.3212" lon="-2.40689">
        <ele>161.39999389648</ele>
        <time>2020-12-10T09:19:21.000Z</time>
      </trkpt>
      <trkpt lat="47.32123" lon="-2.40694">
        <ele>161.80000305176</ele>
        <time>2020-12-10T09:19:22.000Z</time>
      </trkpt>
      <trkpt lat="47.32126" lon="-2.40698">
        <ele>162.39999389648</ele>
        <time>2020-12-10T09:19:23.000Z</time>
      </trkpt>
      <trkpt lat="47.3213" lon="-2.40701">
        <ele>162.80000305176</ele>
        <time>2020-12-10T09:19:24.000Z</time>
      </trkpt>
      <trkpt lat="47.32133" lon="-2.40706">
        <ele>163.19999694824</ele>
        <time>2020-12-10T09:19:25.000Z</time>
      </trkpt>
      <trkpt lat="47.32136" lon="-2.4071">
        <ele>163.19999694824</ele>
        <time>2020-12-10T09:19:26.000Z</time>
      </trkpt>
      <trkpt lat="47.32162" lon="-2.40741">
        <ele>163.19999694824</ele>
        <time>2020-12-10T09:19:33.000Z</time>
      </trkpt>
      <trkpt lat="47.32186" lon="-2.40774">
        <ele>163.19999694824</ele>
        <time>2020-12-10T09:19:40.000Z</time>
      </trkpt>
      <trkpt lat="47.32196" lon="-2.40788">
        <ele>163.19999694824</ele>
        <time>2020-12-10T09:19:45.000Z</time>
      </trkpt>
      <trkpt lat="47.32209" lon="-2.40804">
        <ele>163.19999694824</ele>
        <time>2020-12-10T09:19:50.000Z</time>
      </trkpt>
      <trkpt lat="47.3222" lon="-2.40818">
        <ele>163.19999694824</ele>
        <time>2020-12-10T09:19:54.000Z</time>
      </trkpt>
      <trkpt lat="47.32233" lon="-2.40838">
        <ele>163.19999694824</ele>
        <time>2020-12-10T09:19:58.000Z</time>
      </trkpt>
      <trkpt lat="47.32236" lon="-2.40843">
        <ele>163.19999694824</ele>
        <time>2020-12-10T09:19:59.000Z</time>
      </trkpt>
      <trkpt lat="47.32259" lon="-2.40881">
        <ele>163.19999694824</ele>
        <time>2020-12-10T09:20:06.000Z</time>
      </trkpt>
      <trkpt lat="47.32276" lon="-2.40914">
        <ele>163.19999694824</ele>
        <time>2020-12-10T09:20:12.000Z</time>
      </trkpt>
      <trkpt lat="47.32284" lon="-2.4093">
        <ele>163.60000610352</ele>
        <time>2020-12-10T09:20:15.000Z</time>
      </trkpt>
      <trkpt lat="47.32287" lon="-2.40936">
        <ele>164</ele>
        <time>2020-12-10T09:20:16.000Z</time>
      </trkpt>
      <trkpt lat="47.3229" lon="-2.40941">
        <ele>164.39999389648</ele>
        <time>2020-12-10T09:20:17.000Z</time>
      </trkpt>
      <trkpt lat="47.32293" lon="-2.40946">
        <ele>165.19999694824</ele>
        <time>2020-12-10T09:20:18.000Z</time>
      </trkpt>
      <trkpt lat="47.323" lon="-2.40957">
        <ele>165.19999694824</ele>
        <time>2020-12-10T09:20:20.000Z</time>
      </trkpt>
      <trkpt lat="47.32319" lon="-2.40994">
        <ele>165.19999694824</ele>
        <time>2020-12-10T09:20:27.000Z</time>
      </trkpt>
      <trkpt lat="47.32334" lon="-2.41019">
        <ele>165.19999694824</ele>
        <time>2020-12-10T09:20:32.000Z</time>
      </trkpt>
      <trkpt lat="47.32339" lon="-2.41029">
        <ele>165.19999694824</ele>
        <time>2020-12-10T09:20:34.000Z</time>
      </trkpt>
      <trkpt lat="47.32363" lon="-2.41075">
        <ele>165.19999694824</ele>
        <time>2020-12-10T09:20:44.000Z</time>
      </trkpt>
      <trkpt lat="47.32367" lon="-2.41079">
        <ele>165.19999694824</ele>
        <time>2020-12-10T09:20:46.000Z</time>
      </trkpt>
      <trkpt lat="47.32371" lon="-2.41086">
        <ele>165.19999694824</ele>
        <time>2020-12-10T09:20:48.000Z</time>
      </trkpt>
      <trkpt lat="47.32386" lon="-2.41116">
        <ele>165.19999694824</ele>
        <time>2020-12-10T09:20:54.000Z</time>
      </trkpt>
      <trkpt lat="47.32406" lon="-2.41148">
        <ele>165.19999694824</ele>
        <time>2020-12-10T09:21:02.000Z</time>
      </trkpt>
      <trkpt lat="47.32419" lon="-2.41176">
        <ele>165.19999694824</ele>
        <time>2020-12-10T09:21:08.000Z</time>
      </trkpt>
      <trkpt lat="47.32422" lon="-2.41181">
        <ele>165.19999694824</ele>
        <time>2020-12-10T09:21:09.000Z</time>
      </trkpt>
      <trkpt lat="47.32428" lon="-2.4119">
        <ele>165.19999694824</ele>
        <time>2020-12-10T09:21:11.000Z</time>
      </trkpt>
      <trkpt lat="47.32433" lon="-2.41197">
        <ele>165.19999694824</ele>
        <time>2020-12-10T09:21:13.000Z</time>
      </trkpt>
      <trkpt lat="47.32435" lon="-2.41203">
        <ele>165.60000610352</ele>
        <time>2020-12-10T09:21:14.000Z</time>
      </trkpt>
      <trkpt lat="47.32438" lon="-2.41209">
        <ele>166</ele>
        <time>2020-12-10T09:21:15.000Z</time>
      </trkpt>
      <trkpt lat="47.3244" lon="-2.41214">
        <ele>166.39999389648</ele>
        <time>2020-12-10T09:21:16.000Z</time>
      </trkpt>
      <trkpt lat="47.32443" lon="-2.4122">
        <ele>166.80000305176</ele>
        <time>2020-12-10T09:21:17.000Z</time>
      </trkpt>
      <trkpt lat="47.32446" lon="-2.41225">
        <ele>167.19999694824</ele>
        <time>2020-12-10T09:21:18.000Z</time>
      </trkpt>
      <trkpt lat="47.32466" lon="-2.41266">
        <ele>167.19999694824</ele>
        <time>2020-12-10T09:21:26.000Z</time>
      </trkpt>
      <trkpt lat="47.32487" lon="-2.41307">
        <ele>167.19999694824</ele>
        <time>2020-12-10T09:21:34.000Z</time>
      </trkpt>
      <trkpt lat="47.32504" lon="-2.41339">
        <ele>167.19999694824</ele>
        <time>2020-12-10T09:21:40.000Z</time>
      </trkpt>
      <trkpt lat="47.32526" lon="-2.41381">
        <ele>167.19999694824</ele>
        <time>2020-12-10T09:21:47.000Z</time>
      </trkpt>
      <trkpt lat="47.32549" lon="-2.41424">
        <ele>167.19999694824</ele>
        <time>2020-12-10T09:21:55.000Z</time>
      </trkpt>
      <trkpt lat="47.32554" lon="-2.41434">
        <ele>166.39999389648</ele>
        <time>2020-12-10T09:21:57.000Z</time>
      </trkpt>
      <trkpt lat="47.32556" lon="-2.41439">
        <ele>166</ele>
        <time>2020-12-10T09:21:58.000Z</time>
      </trkpt>
      <trkpt lat="47.32559" lon="-2.41445">
        <ele>165.60000610352</ele>
        <time>2020-12-10T09:21:59.000Z</time>
      </trkpt>
      <trkpt lat="47.3256" lon="-2.4145">
        <ele>165</ele>
        <time>2020-12-10T09:22:00.000Z</time>
      </trkpt>
      <trkpt lat="47.32566" lon="-2.41457">
        <ele>165</ele>
        <time>2020-12-10T09:22:02.000Z</time>
      </trkpt>
      <trkpt lat="47.32572" lon="-2.4148">
        <ele>165</ele>
        <time>2020-12-10T09:22:07.000Z</time>
      </trkpt>
      <trkpt lat="47.32572" lon="-2.41495">
        <ele>165</ele>
        <time>2020-12-10T09:22:10.000Z</time>
      </trkpt>
      <trkpt lat="47.32574" lon="-2.41508">
        <ele>165</ele>
        <time>2020-12-10T09:22:12.000Z</time>
      </trkpt>
      <trkpt lat="47.32585" lon="-2.41518">
        <ele>165</ele>
        <time>2020-12-10T09:22:15.000Z</time>
      </trkpt>
      <trkpt lat="47.32611" lon="-2.41522">
        <ele>165</ele>
        <time>2020-12-10T09:22:20.000Z</time>
      </trkpt>
      <trkpt lat="47.32659" lon="-2.41532">
        <ele>165</ele>
        <time>2020-12-10T09:22:30.000Z</time>
      </trkpt>
      <trkpt lat="47.32677" lon="-2.41536">
        <ele>164.60000610352</ele>
        <time>2020-12-10T09:22:34.000Z</time>
      </trkpt>
      <trkpt lat="47.32682" lon="-2.41537">
        <ele>164.19999694824</ele>
        <time>2020-12-10T09:22:35.000Z</time>
      </trkpt>
      <trkpt lat="47.32686" lon="-2.41538">
        <ele>163.80000305176</ele>
        <time>2020-12-10T09:22:36.000Z</time>
      </trkpt>
      <trkpt lat="47.32691" lon="-2.4154">
        <ele>163.39999389648</ele>
        <time>2020-12-10T09:22:37.000Z</time>
      </trkpt>
      <trkpt lat="47.32696" lon="-2.41541">
        <ele>163</ele>
        <time>2020-12-10T09:22:38.000Z</time>
      </trkpt>
      <trkpt lat="47.32699" lon="-2.41543">
        <ele>163</ele>
        <time>2020-12-10T09:22:39.000Z</time>
      </trkpt>
      <trkpt lat="47.32702" lon="-2.41548">
        <ele>163</ele>
        <time>2020-12-10T09:22:41.000Z</time>
      </trkpt>
      <trkpt lat="47.32703" lon="-2.41553">
        <ele>162.60000610352</ele>
        <time>2020-12-10T09:22:42.000Z</time>
      </trkpt>
      <trkpt lat="47.32702" lon="-2.41557">
        <ele>162.19999694824</ele>
        <time>2020-12-10T09:22:43.000Z</time>
      </trkpt>
      <trkpt lat="47.32702" lon="-2.41563">
        <ele>161.80000305176</ele>
        <time>2020-12-10T09:22:44.000Z</time>
      </trkpt>
      <trkpt lat="47.32701" lon="-2.41568">
        <ele>161.39999389648</ele>
        <time>2020-12-10T09:22:45.000Z</time>
      </trkpt>
      <trkpt lat="47.327" lon="-2.41572">
        <ele>161</ele>
        <time>2020-12-10T09:22:46.000Z</time>
      </trkpt>
      <trkpt lat="47.32703" lon="-2.4158">
        <ele>161</ele>
        <time>2020-12-10T09:22:49.000Z</time>
      </trkpt>
      <trkpt lat="47.32704" lon="-2.41582">
        <ele>161</ele>
        <time>2020-12-10T09:22:50.000Z</time>
      </trkpt>
      <trkpt lat="47.32705" lon="-2.41599">
        <ele>161</ele>
        <time>2020-12-10T09:22:54.000Z</time>
      </trkpt>
      <trkpt lat="47.32712" lon="-2.41613">
        <ele>161</ele>
        <time>2020-12-10T09:22:58.000Z</time>
      </trkpt>
      <trkpt lat="47.32716" lon="-2.41624">
        <ele>161</ele>
        <time>2020-12-10T09:23:01.000Z</time>
      </trkpt>
      <trkpt lat="47.32715" lon="-2.41627">
        <ele>161</ele>
        <time>2020-12-10T09:23:02.000Z</time>
      </trkpt>
      <trkpt lat="47.32711" lon="-2.41628">
        <ele>161</ele>
        <time>2020-12-10T09:23:04.000Z</time>
      </trkpt>
      <trkpt lat="47.32706" lon="-2.41627">
        <ele>161</ele>
        <time>2020-12-10T09:23:06.000Z</time>
      </trkpt>
      <trkpt lat="47.327" lon="-2.41626">
        <ele>161</ele>
        <time>2020-12-10T09:23:08.000Z</time>
      </trkpt>
      <trkpt lat="47.3269" lon="-2.41627">
        <ele>161</ele>
        <time>2020-12-10T09:23:11.000Z</time>
      </trkpt>
      <trkpt lat="47.32678" lon="-2.41625">
        <ele>161</ele>
        <time>2020-12-10T09:23:14.000Z</time>
      </trkpt>
      <trkpt lat="47.32666" lon="-2.41621">
        <ele>161</ele>
        <time>2020-12-10T09:23:17.000Z</time>
      </trkpt>
      <trkpt lat="47.32662" lon="-2.41619">
        <ele>161</ele>
        <time>2020-12-10T09:23:18.000Z</time>
      </trkpt>
      <trkpt lat="47.32654" lon="-2.41615">
        <ele>161</ele>
        <time>2020-12-10T09:23:20.000Z</time>
      </trkpt>
      <trkpt lat="47.32641" lon="-2.41612">
        <ele>161</ele>
        <time>2020-12-10T09:23:23.000Z</time>
      </trkpt>
      <trkpt lat="47.3263" lon="-2.41608">
        <ele>161.39999389648</ele>
        <time>2020-12-10T09:23:26.000Z</time>
      </trkpt>
      <trkpt lat="47.32626" lon="-2.41607">
        <ele>161.80000305176</ele>
        <time>2020-12-10T09:23:27.000Z</time>
      </trkpt>
      <trkpt lat="47.32622" lon="-2.41605">
        <ele>162.19999694824</ele>
        <time>2020-12-10T09:23:28.000Z</time>
      </trkpt>
      <trkpt lat="47.32618" lon="-2.41603">
        <ele>162.60000610352</ele>
        <time>2020-12-10T09:23:29.000Z</time>
      </trkpt>
      <trkpt lat="47.32614" lon="-2.41602">
        <ele>163</ele>
        <time>2020-12-10T09:23:30.000Z</time>
      </trkpt>
      <trkpt lat="47.3261" lon="-2.41602">
        <ele>163</ele>
        <time>2020-12-10T09:23:31.000Z</time>
      </trkpt>
      <trkpt lat="47.3259" lon="-2.41606">
        <ele>163.39999389648</ele>
        <time>2020-12-10T09:23:36.000Z</time>
      </trkpt>
      <trkpt lat="47.32586" lon="-2.41604">
        <ele>163.80000305176</ele>
        <time>2020-12-10T09:23:37.000Z</time>
      </trkpt>
      <trkpt lat="47.32582" lon="-2.41602">
        <ele>164.19999694824</ele>
        <time>2020-12-10T09:23:38.000Z</time>
      </trkpt>
      <trkpt lat="47.32578" lon="-2.41599">
        <ele>164.60000610352</ele>
        <time>2020-12-10T09:23:39.000Z</time>
      </trkpt>
      <trkpt lat="47.32575" lon="-2.41596">
        <ele>165</ele>
        <time>2020-12-10T09:23:40.000Z</time>
      </trkpt>
      <trkpt lat="47.32568" lon="-2.41589">
        <ele>165</ele>
        <time>2020-12-10T09:23:42.000Z</time>
      </trkpt>
      <trkpt lat="47.32546" lon="-2.41575">
        <ele>165</ele>
        <time>2020-12-10T09:23:48.000Z</time>
      </trkpt>
      <trkpt lat="47.32523" lon="-2.41581">
        <ele>165</ele>
        <time>2020-12-10T09:23:54.000Z</time>
      </trkpt>
      <trkpt lat="47.3251" lon="-2.41586">
        <ele>165</ele>
        <time>2020-12-10T09:23:57.000Z</time>
      </trkpt>
      <trkpt lat="47.32496" lon="-2.41586">
        <ele>165</ele>
        <time>2020-12-10T09:24:00.000Z</time>
      </trkpt>
      <trkpt lat="47.32487" lon="-2.41583">
        <ele>165</ele>
        <time>2020-12-10T09:24:02.000Z</time>
      </trkpt>
      <trkpt lat="47.32468" lon="-2.41575">
        <ele>165</ele>
        <time>2020-12-10T09:24:06.000Z</time>
      </trkpt>
      <trkpt lat="47.3245" lon="-2.41567">
        <ele>165</ele>
        <time>2020-12-10T09:24:10.000Z</time>
      </trkpt>
      <trkpt lat="47.32441" lon="-2.41565">
        <ele>165</ele>
        <time>2020-12-10T09:24:12.000Z</time>
      </trkpt>
      <trkpt lat="47.32436" lon="-2.41564">
        <ele>165</ele>
        <time>2020-12-10T09:24:13.000Z</time>
      </trkpt>
      <trkpt lat="47.32418" lon="-2.41564">
        <ele>165</ele>
        <time>2020-12-10T09:24:17.000Z</time>
      </trkpt>
      <trkpt lat="47.32409" lon="-2.41565">
        <ele>165</ele>
        <time>2020-12-10T09:24:19.000Z</time>
      </trkpt>
      <trkpt lat="47.32399" lon="-2.41563">
        <ele>165</ele>
        <time>2020-12-10T09:24:21.000Z</time>
      </trkpt>
      <trkpt lat="47.32389" lon="-2.41557">
        <ele>165</ele>
        <time>2020-12-10T09:24:23.000Z</time>
      </trkpt>
      <trkpt lat="47.32374" lon="-2.41549">
        <ele>165</ele>
        <time>2020-12-10T09:24:26.000Z</time>
      </trkpt>
      <trkpt lat="47.32364" lon="-2.41545">
        <ele>165</ele>
        <time>2020-12-10T09:24:28.000Z</time>
      </trkpt>
      <trkpt lat="47.32359" lon="-2.41545">
        <ele>165</ele>
        <time>2020-12-10T09:24:29.000Z</time>
      </trkpt>
      <trkpt lat="47.32339" lon="-2.41551">
        <ele>165</ele>
        <time>2020-12-10T09:24:33.000Z</time>
      </trkpt>
      <trkpt lat="47.32321" lon="-2.41574">
        <ele>165</ele>
        <time>2020-12-10T09:24:38.000Z</time>
      </trkpt>
      <trkpt lat="47.32313" lon="-2.41603">
        <ele>165</ele>
        <time>2020-12-10T09:24:42.000Z</time>
      </trkpt>
      <trkpt lat="47.32311" lon="-2.41611">
        <ele>165</ele>
        <time>2020-12-10T09:24:43.000Z</time>
      </trkpt>
      <trkpt lat="47.32299" lon="-2.41643">
        <ele>165</ele>
        <time>2020-12-10T09:24:48.000Z</time>
      </trkpt>
      <trkpt lat="47.32296" lon="-2.41667">
        <ele>165</ele>
        <time>2020-12-10T09:24:52.000Z</time>
      </trkpt>
      <trkpt lat="47.32297" lon="-2.41674">
        <ele>165</ele>
        <time>2020-12-10T09:24:53.000Z</time>
      </trkpt>
      <trkpt lat="47.32296" lon="-2.41704">
        <ele>165</ele>
        <time>2020-12-10T09:24:57.000Z</time>
      </trkpt>
      <trkpt lat="47.32295" lon="-2.41713">
        <ele>165</ele>
        <time>2020-12-10T09:24:58.000Z</time>
      </trkpt>
      <trkpt lat="47.32287" lon="-2.41735">
        <ele>165</ele>
        <time>2020-12-10T09:25:01.000Z</time>
      </trkpt>
      <trkpt lat="47.32284" lon="-2.41741">
        <ele>165</ele>
        <time>2020-12-10T09:25:02.000Z</time>
      </trkpt>
      <trkpt lat="47.32282" lon="-2.41746">
        <ele>165</ele>
        <time>2020-12-10T09:25:03.000Z</time>
      </trkpt>
      <trkpt lat="47.3228" lon="-2.41757">
        <ele>165</ele>
        <time>2020-12-10T09:25:05.000Z</time>
      </trkpt>
      <trkpt lat="47.32283" lon="-2.41773">
        <ele>164.60000610352</ele>
        <time>2020-12-10T09:25:08.000Z</time>
      </trkpt>
      <trkpt lat="47.32285" lon="-2.41778">
        <ele>164.19999694824</ele>
        <time>2020-12-10T09:25:09.000Z</time>
      </trkpt>
      <trkpt lat="47.32288" lon="-2.41782">
        <ele>163.80000305176</ele>
        <time>2020-12-10T09:25:10.000Z</time>
      </trkpt>
      <trkpt lat="47.3229" lon="-2.41786">
        <ele>163.39999389648</ele>
        <time>2020-12-10T09:25:11.000Z</time>
      </trkpt>
      <trkpt lat="47.32292" lon="-2.4179">
        <ele>163</ele>
        <time>2020-12-10T09:25:12.000Z</time>
      </trkpt>
      <trkpt lat="47.32297" lon="-2.41804">
        <ele>163</ele>
        <time>2020-12-10T09:25:15.000Z</time>
      </trkpt>
      <trkpt lat="47.32298" lon="-2.41813">
        <ele>163</ele>
        <time>2020-12-10T09:25:17.000Z</time>
      </trkpt>
      <trkpt lat="47.32297" lon="-2.41817">
        <ele>163</ele>
        <time>2020-12-10T09:25:18.000Z</time>
      </trkpt>
      <trkpt lat="47.32285" lon="-2.41832">
        <ele>163</ele>
        <time>2020-12-10T09:25:22.000Z</time>
      </trkpt>
      <trkpt lat="47.32283" lon="-2.41836">
        <ele>163</ele>
        <time>2020-12-10T09:25:23.000Z</time>
      </trkpt>
      <trkpt lat="47.32262" lon="-2.41866">
        <ele>163</ele>
        <time>2020-12-10T09:25:30.000Z</time>
      </trkpt>
      <trkpt lat="47.32254" lon="-2.41879">
        <ele>163</ele>
        <time>2020-12-10T09:25:34.000Z</time>
      </trkpt>
      <trkpt lat="47.32261" lon="-2.41893">
        <ele>163</ele>
        <time>2020-12-10T09:25:38.000Z</time>
      </trkpt>
      <trkpt lat="47.32278" lon="-2.41918">
        <ele>163</ele>
        <time>2020-12-10T09:25:44.000Z</time>
      </trkpt>
      <trkpt lat="47.3229" lon="-2.41941">
        <ele>163</ele>
        <time>2020-12-10T09:25:50.000Z</time>
      </trkpt>
      <trkpt lat="47.32292" lon="-2.41949">
        <ele>163</ele>
        <time>2020-12-10T09:25:52.000Z</time>
      </trkpt>
      <trkpt lat="47.32291" lon="-2.41955">
        <ele>163</ele>
        <time>2020-12-10T09:25:54.000Z</time>
      </trkpt>
      <trkpt lat="47.32291" lon="-2.4196">
        <ele>163</ele>
        <time>2020-12-10T09:25:57.000Z</time>
      </trkpt>
      <trkpt lat="47.3229" lon="-2.41966">
        <ele>163</ele>
        <time>2020-12-10T09:26:00.000Z</time>
      </trkpt>
      <trkpt lat="47.3229" lon="-2.41968">
        <ele>163</ele>
        <time>2020-12-10T09:26:01.000Z</time>
      </trkpt>
      <trkpt lat="47.32294" lon="-2.41973">
        <ele>163</ele>
        <time>2020-12-10T09:26:03.000Z</time>
      </trkpt>
      <trkpt lat="47.32303" lon="-2.41985">
        <ele>163</ele>
        <time>2020-12-10T09:26:08.000Z</time>
      </trkpt>
      <trkpt lat="47.32315" lon="-2.4199">
        <ele>163</ele>
        <time>2020-12-10T09:26:12.000Z</time>
      </trkpt>
      <trkpt lat="47.32318" lon="-2.41991">
        <ele>163</ele>
        <time>2020-12-10T09:26:13.000Z</time>
      </trkpt>
      <trkpt lat="47.32334" lon="-2.42003">
        <ele>163</ele>
        <time>2020-12-10T09:26:18.000Z</time>
      </trkpt>
      <trkpt lat="47.3235" lon="-2.4202">
        <ele>163</ele>
        <time>2020-12-10T09:26:23.000Z</time>
      </trkpt>
      <trkpt lat="47.32369" lon="-2.4204">
        <ele>163.39999389648</ele>
        <time>2020-12-10T09:26:29.000Z</time>
      </trkpt>
      <trkpt lat="47.32372" lon="-2.42043">
        <ele>163.80000305176</ele>
        <time>2020-12-10T09:26:30.000Z</time>
      </trkpt>
      <trkpt lat="47.32375" lon="-2.42046">
        <ele>164.19999694824</ele>
        <time>2020-12-10T09:26:31.000Z</time>
      </trkpt>
      <trkpt lat="47.32378" lon="-2.42049">
        <ele>164.60000610352</ele>
        <time>2020-12-10T09:26:32.000Z</time>
      </trkpt>
      <trkpt lat="47.32381" lon="-2.42052">
        <ele>165</ele>
        <time>2020-12-10T09:26:33.000Z</time>
      </trkpt>
      <trkpt lat="47.3239" lon="-2.42062">
        <ele>165</ele>
        <time>2020-12-10T09:26:36.000Z</time>
      </trkpt>
      <trkpt lat="47.32413" lon="-2.42088">
        <ele>165</ele>
        <time>2020-12-10T09:26:44.000Z</time>
      </trkpt>
      <trkpt lat="47.3242" lon="-2.42094">
        <ele>165.39999389648</ele>
        <time>2020-12-10T09:26:46.000Z</time>
      </trkpt>
      <trkpt lat="47.32422" lon="-2.42097">
        <ele>165.80000305176</ele>
        <time>2020-12-10T09:26:47.000Z</time>
      </trkpt>
      <trkpt lat="47.32424" lon="-2.421">
        <ele>166.19999694824</ele>
        <time>2020-12-10T09:26:48.000Z</time>
      </trkpt>
      <trkpt lat="47.32426" lon="-2.42103">
        <ele>166.60000610352</ele>
        <time>2020-12-10T09:26:49.000Z</time>
      </trkpt>
      <trkpt lat="47.32429" lon="-2.42106">
        <ele>167</ele>
        <time>2020-12-10T09:26:50.000Z</time>
      </trkpt>
      <trkpt lat="47.32431" lon="-2.42108">
        <ele>167</ele>
        <time>2020-12-10T09:26:51.000Z</time>
      </trkpt>
      <trkpt lat="47.32437" lon="-2.42116">
        <ele>167</ele>
        <time>2020-12-10T09:26:54.000Z</time>
      </trkpt>
      <trkpt lat="47.32437" lon="-2.4212">
        <ele>167</ele>
        <time>2020-12-10T09:26:56.000Z</time>
      </trkpt>
      <trkpt lat="47.32439" lon="-2.42126">
        <ele>167</ele>
        <time>2020-12-10T09:27:02.000Z</time>
      </trkpt>
      <trkpt lat="47.32432" lon="-2.42143">
        <ele>167</ele>
        <time>2020-12-10T09:27:06.000Z</time>
      </trkpt>
      <trkpt lat="47.32425" lon="-2.42158">
        <ele>167</ele>
        <time>2020-12-10T09:27:09.000Z</time>
      </trkpt>
      <trkpt lat="47.32415" lon="-2.42172">
        <ele>167</ele>
        <time>2020-12-10T09:27:12.000Z</time>
      </trkpt>
      <trkpt lat="47.32388" lon="-2.42201">
        <ele>167</ele>
        <time>2020-12-10T09:27:18.000Z</time>
      </trkpt>
      <trkpt lat="47.32356" lon="-2.42236">
        <ele>167</ele>
        <time>2020-12-10T09:27:25.000Z</time>
      </trkpt>
      <trkpt lat="47.32352" lon="-2.42243">
        <ele>167</ele>
        <time>2020-12-10T09:27:26.000Z</time>
      </trkpt>
      <trkpt lat="47.32342" lon="-2.42263">
        <ele>167</ele>
        <time>2020-12-10T09:27:29.000Z</time>
      </trkpt>
      <trkpt lat="47.32338" lon="-2.4227">
        <ele>167</ele>
        <time>2020-12-10T09:27:30.000Z</time>
      </trkpt>
      <trkpt lat="47.3232" lon="-2.42304">
        <ele>167</ele>
        <time>2020-12-10T09:27:35.000Z</time>
      </trkpt>
      <trkpt lat="47.3232" lon="-2.42331">
        <ele>167</ele>
        <time>2020-12-10T09:27:38.000Z</time>
      </trkpt>
      <trkpt lat="47.32321" lon="-2.42339">
        <ele>167</ele>
        <time>2020-12-10T09:27:39.000Z</time>
      </trkpt>
      <trkpt lat="47.32328" lon="-2.42411">
        <ele>167</ele>
        <time>2020-12-10T09:27:47.000Z</time>
      </trkpt>
      <trkpt lat="47.32337" lon="-2.42465">
        <ele>167</ele>
        <time>2020-12-10T09:27:53.000Z</time>
      </trkpt>
      <trkpt lat="47.32338" lon="-2.42474">
        <ele>166.60000610352</ele>
        <time>2020-12-10T09:27:54.000Z</time>
      </trkpt>
      <trkpt lat="47.3234" lon="-2.42483">
        <ele>166.19999694824</ele>
        <time>2020-12-10T09:27:55.000Z</time>
      </trkpt>
      <trkpt lat="47.32341" lon="-2.42493">
        <ele>165.80000305176</ele>
        <time>2020-12-10T09:27:56.000Z</time>
      </trkpt>
      <trkpt lat="47.32343" lon="-2.42502">
        <ele>165.39999389648</ele>
        <time>2020-12-10T09:27:57.000Z</time>
      </trkpt>
      <trkpt lat="47.32345" lon="-2.42512">
        <ele>165</ele>
        <time>2020-12-10T09:27:58.000Z</time>
      </trkpt>
      <trkpt lat="47.32348" lon="-2.42531">
        <ele>165</ele>
        <time>2020-12-10T09:28:00.000Z</time>
      </trkpt>
      <trkpt lat="47.32352" lon="-2.4255">
        <ele>164.60000610352</ele>
        <time>2020-12-10T09:28:02.000Z</time>
      </trkpt>
      <trkpt lat="47.32354" lon="-2.42559">
        <ele>164.19999694824</ele>
        <time>2020-12-10T09:28:03.000Z</time>
      </trkpt>
      <trkpt lat="47.32357" lon="-2.42567">
        <ele>163.80000305176</ele>
        <time>2020-12-10T09:28:04.000Z</time>
      </trkpt>
      <trkpt lat="47.32359" lon="-2.42574">
        <ele>163.39999389648</ele>
        <time>2020-12-10T09:28:05.000Z</time>
      </trkpt>
      <trkpt lat="47.32361" lon="-2.42582">
        <ele>163</ele>
        <time>2020-12-10T09:28:06.000Z</time>
      </trkpt>
      <trkpt lat="47.32362" lon="-2.42597">
        <ele>162.60000610352</ele>
        <time>2020-12-10T09:28:08.000Z</time>
      </trkpt>
      <trkpt lat="47.32362" lon="-2.42606">
        <ele>162.19999694824</ele>
        <time>2020-12-10T09:28:09.000Z</time>
      </trkpt>
      <trkpt lat="47.32362" lon="-2.42614">
        <ele>161.80000305176</ele>
        <time>2020-12-10T09:28:10.000Z</time>
      </trkpt>
      <trkpt lat="47.32362" lon="-2.42624">
        <ele>161.19999694824</ele>
        <time>2020-12-10T09:28:11.000Z</time>
      </trkpt>
      <trkpt lat="47.32362" lon="-2.42633">
        <ele>160.80000305176</ele>
        <time>2020-12-10T09:28:12.000Z</time>
      </trkpt>
      <trkpt lat="47.32365" lon="-2.42662">
        <ele>160.80000305176</ele>
        <time>2020-12-10T09:28:15.000Z</time>
      </trkpt>
      <trkpt lat="47.32378" lon="-2.42712">
        <ele>160.80000305176</ele>
        <time>2020-12-10T09:28:20.000Z</time>
      </trkpt>
      <trkpt lat="47.3239" lon="-2.42752">
        <ele>160.39999389648</ele>
        <time>2020-12-10T09:28:24.000Z</time>
      </trkpt>
      <trkpt lat="47.32392" lon="-2.42761">
        <ele>160</ele>
        <time>2020-12-10T09:28:25.000Z</time>
      </trkpt>
      <trkpt lat="47.32394" lon="-2.42771">
        <ele>159.60000610352</ele>
        <time>2020-12-10T09:28:26.000Z</time>
      </trkpt>
      <trkpt lat="47.32395" lon="-2.42781">
        <ele>159.19999694824</ele>
        <time>2020-12-10T09:28:27.000Z</time>
      </trkpt>
      <trkpt lat="47.32396" lon="-2.42791">
        <ele>158.80000305176</ele>
        <time>2020-12-10T09:28:28.000Z</time>
      </trkpt>
      <trkpt lat="47.32398" lon="-2.42811">
        <ele>158.39999389648</ele>
        <time>2020-12-10T09:28:30.000Z</time>
      </trkpt>
      <trkpt lat="47.324" lon="-2.42821">
        <ele>158</ele>
        <time>2020-12-10T09:28:31.000Z</time>
      </trkpt>
      <trkpt lat="47.324" lon="-2.42832">
        <ele>157.39999389648</ele>
        <time>2020-12-10T09:28:32.000Z</time>
      </trkpt>
      <trkpt lat="47.32401" lon="-2.42842">
        <ele>156.60000610352</ele>
        <time>2020-12-10T09:28:33.000Z</time>
      </trkpt>
      <trkpt lat="47.32401" lon="-2.42867">
        <ele>156.19999694824</ele>
        <time>2020-12-10T09:28:36.000Z</time>
      </trkpt>
      <trkpt lat="47.32402" lon="-2.42872">
        <ele>155.80000305176</ele>
        <time>2020-12-10T09:28:37.000Z</time>
      </trkpt>
      <trkpt lat="47.32403" lon="-2.42878">
        <ele>155.39999389648</ele>
        <time>2020-12-10T09:28:38.000Z</time>
      </trkpt>
      <trkpt lat="47.32404" lon="-2.42884">
        <ele>155</ele>
        <time>2020-12-10T09:28:39.000Z</time>
      </trkpt>
      <trkpt lat="47.32403" lon="-2.4289">
        <ele>154.39999389648</ele>
        <time>2020-12-10T09:28:40.000Z</time>
      </trkpt>
      <trkpt lat="47.32401" lon="-2.42895">
        <ele>154.39999389648</ele>
        <time>2020-12-10T09:28:41.000Z</time>
      </trkpt>
      <trkpt lat="47.32388" lon="-2.429">
        <ele>154.39999389648</ele>
        <time>2020-12-10T09:28:44.000Z</time>
      </trkpt>
      <trkpt lat="47.32383" lon="-2.42899">
        <ele>154.39999389648</ele>
        <time>2020-12-10T09:28:45.000Z</time>
      </trkpt>
      <trkpt lat="47.32367" lon="-2.42898">
        <ele>154.39999389648</ele>
        <time>2020-12-10T09:28:49.000Z</time>
      </trkpt>
      <trkpt lat="47.32363" lon="-2.42899">
        <ele>154.39999389648</ele>
        <time>2020-12-10T09:28:51.000Z</time>
      </trkpt>
      <trkpt lat="47.3236" lon="-2.42905">
        <ele>154.39999389648</ele>
        <time>2020-12-10T09:28:53.000Z</time>
      </trkpt>
      <trkpt lat="47.32361" lon="-2.4292">
        <ele>154.39999389648</ele>
        <time>2020-12-10T09:28:56.000Z</time>
      </trkpt>
      <trkpt lat="47.32361" lon="-2.42931">
        <ele>154.39999389648</ele>
        <time>2020-12-10T09:28:58.000Z</time>
      </trkpt>
      <trkpt lat="47.32361" lon="-2.42936">
        <ele>154</ele>
        <time>2020-12-10T09:28:59.000Z</time>
      </trkpt>
      <trkpt lat="47.32361" lon="-2.42942">
        <ele>153.60000610352</ele>
        <time>2020-12-10T09:29:00.000Z</time>
      </trkpt>
      <trkpt lat="47.32361" lon="-2.42948">
        <ele>153</ele>
        <time>2020-12-10T09:29:01.000Z</time>
      </trkpt>
      <trkpt lat="47.32361" lon="-2.42954">
        <ele>152.60000610352</ele>
        <time>2020-12-10T09:29:02.000Z</time>
      </trkpt>
      <trkpt lat="47.32362" lon="-2.42961">
        <ele>152.19999694824</ele>
        <time>2020-12-10T09:29:03.000Z</time>
      </trkpt>
      <trkpt lat="47.32362" lon="-2.42968">
        <ele>152.19999694824</ele>
        <time>2020-12-10T09:29:04.000Z</time>
      </trkpt>
      <trkpt lat="47.32357" lon="-2.43002">
        <ele>152.19999694824</ele>
        <time>2020-12-10T09:29:08.000Z</time>
      </trkpt>
      <trkpt lat="47.32355" lon="-2.4301">
        <ele>152.19999694824</ele>
        <time>2020-12-10T09:29:09.000Z</time>
      </trkpt>
      <trkpt lat="47.32352" lon="-2.43018">
        <ele>152.19999694824</ele>
        <time>2020-12-10T09:29:10.000Z</time>
      </trkpt>
      <trkpt lat="47.32346" lon="-2.43031">
        <ele>151.80000305176</ele>
        <time>2020-12-10T09:29:12.000Z</time>
      </trkpt>
      <trkpt lat="47.32343" lon="-2.43038">
        <ele>151.19999694824</ele>
        <time>2020-12-10T09:29:13.000Z</time>
      </trkpt>
      <trkpt lat="47.3234" lon="-2.43044">
        <ele>150.80000305176</ele>
        <time>2020-12-10T09:29:14.000Z</time>
      </trkpt>
      <trkpt lat="47.32337" lon="-2.43049">
        <ele>150.39999389648</ele>
        <time>2020-12-10T09:29:15.000Z</time>
      </trkpt>
      <trkpt lat="47.32335" lon="-2.43055">
        <ele>150</ele>
        <time>2020-12-10T09:29:16.000Z</time>
      </trkpt>
      <trkpt lat="47.32331" lon="-2.43067">
        <ele>150</ele>
        <time>2020-12-10T09:29:18.000Z</time>
      </trkpt>
      <trkpt lat="47.32325" lon="-2.43083">
        <ele>150</ele>
        <time>2020-12-10T09:29:21.000Z</time>
      </trkpt>
      <trkpt lat="47.32319" lon="-2.43094">
        <ele>150</ele>
        <time>2020-12-10T09:29:23.000Z</time>
      </trkpt>
      <trkpt lat="47.32301" lon="-2.43112">
        <ele>149.60000610352</ele>
        <time>2020-12-10T09:29:27.000Z</time>
      </trkpt>
      <trkpt lat="47.32295" lon="-2.43116">
        <ele>149</ele>
        <time>2020-12-10T09:29:28.000Z</time>
      </trkpt>
      <trkpt lat="47.32289" lon="-2.43119">
        <ele>148.60000610352</ele>
        <time>2020-12-10T09:29:29.000Z</time>
      </trkpt>
      <trkpt lat="47.32284" lon="-2.43122">
        <ele>148.19999694824</ele>
        <time>2020-12-10T09:29:30.000Z</time>
      </trkpt>
      <trkpt lat="47.32278" lon="-2.43124">
        <ele>147.80000305176</ele>
        <time>2020-12-10T09:29:31.000Z</time>
      </trkpt>
      <trkpt lat="47.32272" lon="-2.43127">
        <ele>147.80000305176</ele>
        <time>2020-12-10T09:29:32.000Z</time>
      </trkpt>
      <trkpt lat="47.32256" lon="-2.43132">
        <ele>147.80000305176</ele>
        <time>2020-12-10T09:29:35.000Z</time>
      </trkpt>
      <trkpt lat="47.32241" lon="-2.4314">
        <ele>147.80000305176</ele>
        <time>2020-12-10T09:29:38.000Z</time>
      </trkpt>
      <trkpt lat="47.32204" lon="-2.43152">
        <ele>147.80000305176</ele>
        <time>2020-12-10T09:29:45.000Z</time>
      </trkpt>
      <trkpt lat="47.32173" lon="-2.43168">
        <ele>147.80000305176</ele>
        <time>2020-12-10T09:29:51.000Z</time>
      </trkpt>
      <trkpt lat="47.32168" lon="-2.4317">
        <ele>147.39999389648</ele>
        <time>2020-12-10T09:29:52.000Z</time>
      </trkpt>
      <trkpt lat="47.32162" lon="-2.43173">
        <ele>147</ele>
        <time>2020-12-10T09:29:53.000Z</time>
      </trkpt>
      <trkpt lat="47.32157" lon="-2.43175">
        <ele>146.60000610352</ele>
        <time>2020-12-10T09:29:54.000Z</time>
      </trkpt>
      <trkpt lat="47.32151" lon="-2.43178">
        <ele>146.19999694824</ele>
        <time>2020-12-10T09:29:55.000Z</time>
      </trkpt>
      <trkpt lat="47.32146" lon="-2.43181">
        <ele>145.80000305176</ele>
        <time>2020-12-10T09:29:56.000Z</time>
      </trkpt>
      <trkpt lat="47.3213" lon="-2.43188">
        <ele>145.80000305176</ele>
        <time>2020-12-10T09:29:59.000Z</time>
      </trkpt>
      <trkpt lat="47.32108" lon="-2.432">
        <ele>145.80000305176</ele>
        <time>2020-12-10T09:30:03.000Z</time>
      </trkpt>
      <trkpt lat="47.32097" lon="-2.43204">
        <ele>145.80000305176</ele>
        <time>2020-12-10T09:30:05.000Z</time>
      </trkpt>
      <trkpt lat="47.32091" lon="-2.43206">
        <ele>145.39999389648</ele>
        <time>2020-12-10T09:30:06.000Z</time>
      </trkpt>
      <trkpt lat="47.32086" lon="-2.43209">
        <ele>144.80000305176</ele>
        <time>2020-12-10T09:30:07.000Z</time>
      </trkpt>
      <trkpt lat="47.3208" lon="-2.43212">
        <ele>144.39999389648</ele>
        <time>2020-12-10T09:30:08.000Z</time>
      </trkpt>
      <trkpt lat="47.32075" lon="-2.43215">
        <ele>144</ele>
        <time>2020-12-10T09:30:09.000Z</time>
      </trkpt>
      <trkpt lat="47.32069" lon="-2.43218">
        <ele>143.60000610352</ele>
        <time>2020-12-10T09:30:10.000Z</time>
      </trkpt>
      <trkpt lat="47.32054" lon="-2.43227">
        <ele>143.60000610352</ele>
        <time>2020-12-10T09:30:13.000Z</time>
      </trkpt>
      <trkpt lat="47.32048" lon="-2.43232">
        <ele>143.19999694824</ele>
        <time>2020-12-10T09:30:14.000Z</time>
      </trkpt>
      <trkpt lat="47.32043" lon="-2.43236">
        <ele>142.80000305176</ele>
        <time>2020-12-10T09:30:15.000Z</time>
      </trkpt>
      <trkpt lat="47.32038" lon="-2.4324">
        <ele>142.39999389648</ele>
        <time>2020-12-10T09:30:16.000Z</time>
      </trkpt>
      <trkpt lat="47.32033" lon="-2.43243">
        <ele>142</ele>
        <time>2020-12-10T09:30:17.000Z</time>
      </trkpt>
      <trkpt lat="47.32027" lon="-2.43247">
        <ele>141.39999389648</ele>
        <time>2020-12-10T09:30:18.000Z</time>
      </trkpt>
      <trkpt lat="47.32011" lon="-2.4326">
        <ele>141.39999389648</ele>
        <time>2020-12-10T09:30:21.000Z</time>
      </trkpt>
      <trkpt lat="47.31987" lon="-2.43275">
        <ele>141</ele>
        <time>2020-12-10T09:30:25.000Z</time>
      </trkpt>
      <trkpt lat="47.31982" lon="-2.43278">
        <ele>140.60000610352</ele>
        <time>2020-12-10T09:30:26.000Z</time>
      </trkpt>
      <trkpt lat="47.31979" lon="-2.43282">
        <ele>140.19999694824</ele>
        <time>2020-12-10T09:30:27.000Z</time>
      </trkpt>
      <trkpt lat="47.31977" lon="-2.43288">
        <ele>139.80000305176</ele>
        <time>2020-12-10T09:30:28.000Z</time>
      </trkpt>
      <trkpt lat="47.31976" lon="-2.43296">
        <ele>139.39999389648</ele>
        <time>2020-12-10T09:30:29.000Z</time>
      </trkpt>
      <trkpt lat="47.31975" lon="-2.43303">
        <ele>139.39999389648</ele>
        <time>2020-12-10T09:30:30.000Z</time>
      </trkpt>
      <trkpt lat="47.31973" lon="-2.43328">
        <ele>139.39999389648</ele>
        <time>2020-12-10T09:30:33.000Z</time>
      </trkpt>
      <trkpt lat="47.31968" lon="-2.43353">
        <ele>139.39999389648</ele>
        <time>2020-12-10T09:30:36.000Z</time>
      </trkpt>
      <trkpt lat="47.31966" lon="-2.43361">
        <ele>138.60000610352</ele>
        <time>2020-12-10T09:30:37.000Z</time>
      </trkpt>
      <trkpt lat="47.31964" lon="-2.4337">
        <ele>138.19999694824</ele>
        <time>2020-12-10T09:30:38.000Z</time>
      </trkpt>
      <trkpt lat="47.31962" lon="-2.43378">
        <ele>137.80000305176</ele>
        <time>2020-12-10T09:30:39.000Z</time>
      </trkpt>
      <trkpt lat="47.31959" lon="-2.43387">
        <ele>137.39999389648</ele>
        <time>2020-12-10T09:30:40.000Z</time>
      </trkpt>
      <trkpt lat="47.31952" lon="-2.43406">
        <ele>137.39999389648</ele>
        <time>2020-12-10T09:30:42.000Z</time>
      </trkpt>
      <trkpt lat="47.31938" lon="-2.43447">
        <ele>136.80000305176</ele>
        <time>2020-12-10T09:30:46.000Z</time>
      </trkpt>
      <trkpt lat="47.31934" lon="-2.43458">
        <ele>136.39999389648</ele>
        <time>2020-12-10T09:30:47.000Z</time>
      </trkpt>
      <trkpt lat="47.3193" lon="-2.43469">
        <ele>135.80000305176</ele>
        <time>2020-12-10T09:30:48.000Z</time>
      </trkpt>
      <trkpt lat="47.31927" lon="-2.43481">
        <ele>135.39999389648</ele>
        <time>2020-12-10T09:30:49.000Z</time>
      </trkpt>
      <trkpt lat="47.31925" lon="-2.43492">
        <ele>135</ele>
        <time>2020-12-10T09:30:50.000Z</time>
      </trkpt>
      <trkpt lat="47.31923" lon="-2.43503">
        <ele>134.39999389648</ele>
        <time>2020-12-10T09:30:51.000Z</time>
      </trkpt>
      <trkpt lat="47.31923" lon="-2.43514">
        <ele>134</ele>
        <time>2020-12-10T09:30:52.000Z</time>
      </trkpt>
      <trkpt lat="47.31923" lon="-2.43525">
        <ele>133.60000610352</ele>
        <time>2020-12-10T09:30:53.000Z</time>
      </trkpt>
      <trkpt lat="47.31924" lon="-2.43535">
        <ele>133.19999694824</ele>
        <time>2020-12-10T09:30:54.000Z</time>
      </trkpt>
      <trkpt lat="47.31925" lon="-2.43544">
        <ele>132.80000305176</ele>
        <time>2020-12-10T09:30:55.000Z</time>
      </trkpt>
      <trkpt lat="47.31927" lon="-2.43561">
        <ele>132.80000305176</ele>
        <time>2020-12-10T09:30:57.000Z</time>
      </trkpt>
      <trkpt lat="47.31928" lon="-2.43569">
        <ele>132.80000305176</ele>
        <time>2020-12-10T09:30:58.000Z</time>
      </trkpt>
      <trkpt lat="47.31925" lon="-2.43587">
        <ele>132.19999694824</ele>
        <time>2020-12-10T09:31:00.000Z</time>
      </trkpt>
      <trkpt lat="47.31922" lon="-2.43595">
        <ele>131.39999389648</ele>
        <time>2020-12-10T09:31:01.000Z</time>
      </trkpt>
      <trkpt lat="47.31916" lon="-2.43603">
        <ele>130.80000305176</ele>
        <time>2020-12-10T09:31:02.000Z</time>
      </trkpt>
      <trkpt lat="47.3191" lon="-2.43609">
        <ele>130.39999389648</ele>
        <time>2020-12-10T09:31:03.000Z</time>
      </trkpt>
      <trkpt lat="47.31903" lon="-2.43614">
        <ele>130.39999389648</ele>
        <time>2020-12-10T09:31:04.000Z</time>
      </trkpt>
      <trkpt lat="47.31892" lon="-2.43627">
        <ele>130</ele>
        <time>2020-12-10T09:31:06.000Z</time>
      </trkpt>
      <trkpt lat="47.31889" lon="-2.43634">
        <ele>129.39999389648</ele>
        <time>2020-12-10T09:31:07.000Z</time>
      </trkpt>
      <trkpt lat="47.31888" lon="-2.43643">
        <ele>129</ele>
        <time>2020-12-10T09:31:08.000Z</time>
      </trkpt>
      <trkpt lat="47.3189" lon="-2.43651">
        <ele>128.39999389648</ele>
        <time>2020-12-10T09:31:09.000Z</time>
      </trkpt>
      <trkpt lat="47.31893" lon="-2.43657">
        <ele>128</ele>
        <time>2020-12-10T09:31:10.000Z</time>
      </trkpt>
      <trkpt lat="47.31899" lon="-2.43669">
        <ele>128</ele>
        <time>2020-12-10T09:31:12.000Z</time>
      </trkpt>
      <trkpt lat="47.31906" lon="-2.43683">
        <ele>127.40000152588</ele>
        <time>2020-12-10T09:31:14.000Z</time>
      </trkpt>
      <trkpt lat="47.31909" lon="-2.4369">
        <ele>127</ele>
        <time>2020-12-10T09:31:15.000Z</time>
      </trkpt>
      <trkpt lat="47.31913" lon="-2.43698">
        <ele>126.40000152588</ele>
        <time>2020-12-10T09:31:16.000Z</time>
      </trkpt>
      <trkpt lat="47.31916" lon="-2.43706">
        <ele>125.80000305176</ele>
        <time>2020-12-10T09:31:17.000Z</time>
      </trkpt>
      <trkpt lat="47.31919" lon="-2.43713">
        <ele>125.40000152588</ele>
        <time>2020-12-10T09:31:18.000Z</time>
      </trkpt>
      <trkpt lat="47.31933" lon="-2.43749">
        <ele>125.40000152588</ele>
        <time>2020-12-10T09:31:23.000Z</time>
      </trkpt>
      <trkpt lat="47.31952" lon="-2.43796">
        <ele>125.40000152588</ele>
        <time>2020-12-10T09:31:30.000Z</time>
      </trkpt>
      <trkpt lat="47.31955" lon="-2.43803">
        <ele>125.40000152588</ele>
        <time>2020-12-10T09:31:31.000Z</time>
      </trkpt>
      <trkpt lat="47.31964" lon="-2.43819">
        <ele>125.80000305176</ele>
        <time>2020-12-10T09:31:34.000Z</time>
      </trkpt>
      <trkpt lat="47.31968" lon="-2.43824">
        <ele>126.19999694824</ele>
        <time>2020-12-10T09:31:35.000Z</time>
      </trkpt>
      <trkpt lat="47.31971" lon="-2.43829">
        <ele>126.59999847412</ele>
        <time>2020-12-10T09:31:36.000Z</time>
      </trkpt>
      <trkpt lat="47.31975" lon="-2.43834">
        <ele>127</ele>
        <time>2020-12-10T09:31:37.000Z</time>
      </trkpt>
      <trkpt lat="47.31979" lon="-2.43837">
        <ele>127.40000152588</ele>
        <time>2020-12-10T09:31:38.000Z</time>
      </trkpt>
      <trkpt lat="47.31987" lon="-2.43838">
        <ele>127.40000152588</ele>
        <time>2020-12-10T09:31:40.000Z</time>
      </trkpt>
      <trkpt lat="47.32002" lon="-2.43825">
        <ele>127.40000152588</ele>
        <time>2020-12-10T09:31:44.000Z</time>
      </trkpt>
      <trkpt lat="47.32005" lon="-2.43822">
        <ele>127.80000305176</ele>
        <time>2020-12-10T09:31:45.000Z</time>
      </trkpt>
      <trkpt lat="47.32008" lon="-2.43818">
        <ele>128.19999694824</ele>
        <time>2020-12-10T09:31:46.000Z</time>
      </trkpt>
      <trkpt lat="47.32012" lon="-2.43815">
        <ele>128.60000610352</ele>
        <time>2020-12-10T09:31:47.000Z</time>
      </trkpt>
      <trkpt lat="47.32015" lon="-2.43812">
        <ele>129</ele>
        <time>2020-12-10T09:31:48.000Z</time>
      </trkpt>
      <trkpt lat="47.32018" lon="-2.43809">
        <ele>129.39999389648</ele>
        <time>2020-12-10T09:31:49.000Z</time>
      </trkpt>
      <trkpt lat="47.32023" lon="-2.43805">
        <ele>130</ele>
        <time>2020-12-10T09:31:51.000Z</time>
      </trkpt>
      <trkpt lat="47.32026" lon="-2.43803">
        <ele>130.39999389648</ele>
        <time>2020-12-10T09:31:52.000Z</time>
      </trkpt>
      <trkpt lat="47.32029" lon="-2.43801">
        <ele>130.80000305176</ele>
        <time>2020-12-10T09:31:53.000Z</time>
      </trkpt>
      <trkpt lat="47.32032" lon="-2.438">
        <ele>131.19999694824</ele>
        <time>2020-12-10T09:31:54.000Z</time>
      </trkpt>
      <trkpt lat="47.32035" lon="-2.43801">
        <ele>131.80000305176</ele>
        <time>2020-12-10T09:31:55.000Z</time>
      </trkpt>
      <trkpt lat="47.32037" lon="-2.43803">
        <ele>131.80000305176</ele>
        <time>2020-12-10T09:31:56.000Z</time>
      </trkpt>
      <trkpt lat="47.32041" lon="-2.4381">
        <ele>132.19999694824</ele>
        <time>2020-12-10T09:31:58.000Z</time>
      </trkpt>
      <trkpt lat="47.32044" lon="-2.43814">
        <ele>132.60000610352</ele>
        <time>2020-12-10T09:31:59.000Z</time>
      </trkpt>
      <trkpt lat="47.32046" lon="-2.43818">
        <ele>133</ele>
        <time>2020-12-10T09:32:00.000Z</time>
      </trkpt>
      <trkpt lat="47.32048" lon="-2.43823">
        <ele>133.39999389648</ele>
        <time>2020-12-10T09:32:01.000Z</time>
      </trkpt>
      <trkpt lat="47.3205" lon="-2.43828">
        <ele>133.80000305176</ele>
        <time>2020-12-10T09:32:02.000Z</time>
      </trkpt>
      <trkpt lat="47.32062" lon="-2.43852">
        <ele>134.19999694824</ele>
        <time>2020-12-10T09:32:07.000Z</time>
      </trkpt>
      <trkpt lat="47.32065" lon="-2.43857">
        <ele>134.60000610352</ele>
        <time>2020-12-10T09:32:08.000Z</time>
      </trkpt>
      <trkpt lat="47.32067" lon="-2.43862">
        <ele>135</ele>
        <time>2020-12-10T09:32:09.000Z</time>
      </trkpt>
      <trkpt lat="47.32069" lon="-2.43867">
        <ele>135.39999389648</ele>
        <time>2020-12-10T09:32:10.000Z</time>
      </trkpt>
      <trkpt lat="47.32072" lon="-2.43872">
        <ele>135.80000305176</ele>
        <time>2020-12-10T09:32:11.000Z</time>
      </trkpt>
      <trkpt lat="47.32086" lon="-2.43891">
        <ele>135.80000305176</ele>
        <time>2020-12-10T09:32:16.000Z</time>
      </trkpt>
      <trkpt lat="47.3211" lon="-2.43907">
        <ele>135.80000305176</ele>
        <time>2020-12-10T09:32:23.000Z</time>
      </trkpt>
      <trkpt lat="47.32128" lon="-2.43919">
        <ele>136.19999694824</ele>
        <time>2020-12-10T09:32:29.000Z</time>
      </trkpt>
      <trkpt lat="47.32131" lon="-2.43922">
        <ele>136.60000610352</ele>
        <time>2020-12-10T09:32:30.000Z</time>
      </trkpt>
      <trkpt lat="47.32134" lon="-2.43925">
        <ele>137</ele>
        <time>2020-12-10T09:32:31.000Z</time>
      </trkpt>
      <trkpt lat="47.32136" lon="-2.43928">
        <ele>137.39999389648</ele>
        <time>2020-12-10T09:32:32.000Z</time>
      </trkpt>
      <trkpt lat="47.32139" lon="-2.43931">
        <ele>137.80000305176</ele>
        <time>2020-12-10T09:32:33.000Z</time>
      </trkpt>
      <trkpt lat="47.32144" lon="-2.43938">
        <ele>138.19999694824</ele>
        <time>2020-12-10T09:32:35.000Z</time>
      </trkpt>
      <trkpt lat="47.32146" lon="-2.43941">
        <ele>138.60000610352</ele>
        <time>2020-12-10T09:32:36.000Z</time>
      </trkpt>
      <trkpt lat="47.32148" lon="-2.43945">
        <ele>139</ele>
        <time>2020-12-10T09:32:37.000Z</time>
      </trkpt>
      <trkpt lat="47.3215" lon="-2.43948">
        <ele>139.39999389648</ele>
        <time>2020-12-10T09:32:38.000Z</time>
      </trkpt>
      <trkpt lat="47.32152" lon="-2.43951">
        <ele>139.80000305176</ele>
        <time>2020-12-10T09:32:39.000Z</time>
      </trkpt>
      <trkpt lat="47.32164" lon="-2.43969">
        <ele>139.80000305176</ele>
        <time>2020-12-10T09:32:44.000Z</time>
      </trkpt>
      <trkpt lat="47.32172" lon="-2.43979">
        <ele>140.19999694824</ele>
        <time>2020-12-10T09:32:47.000Z</time>
      </trkpt>
      <trkpt lat="47.32174" lon="-2.43983">
        <ele>140.60000610352</ele>
        <time>2020-12-10T09:32:48.000Z</time>
      </trkpt>
      <trkpt lat="47.32177" lon="-2.43986">
        <ele>141</ele>
        <time>2020-12-10T09:32:49.000Z</time>
      </trkpt>
      <trkpt lat="47.32179" lon="-2.43989">
        <ele>141.39999389648</ele>
        <time>2020-12-10T09:32:50.000Z</time>
      </trkpt>
      <trkpt lat="47.32182" lon="-2.43992">
        <ele>141.80000305176</ele>
        <time>2020-12-10T09:32:51.000Z</time>
      </trkpt>
      <trkpt lat="47.32184" lon="-2.43996">
        <ele>141.80000305176</ele>
        <time>2020-12-10T09:32:52.000Z</time>
      </trkpt>
      <trkpt lat="47.32207" lon="-2.44029">
        <ele>141.80000305176</ele>
        <time>2020-12-10T09:33:01.000Z</time>
      </trkpt>
      <trkpt lat="47.32217" lon="-2.44042">
        <ele>142.80000305176</ele>
        <time>2020-12-10T09:33:05.000Z</time>
      </trkpt>
      <trkpt lat="47.32219" lon="-2.44045">
        <ele>143.19999694824</ele>
        <time>2020-12-10T09:33:06.000Z</time>
      </trkpt>
      <trkpt lat="47.3222" lon="-2.44048">
        <ele>143.60000610352</ele>
        <time>2020-12-10T09:33:07.000Z</time>
      </trkpt>
      <trkpt lat="47.3222" lon="-2.44052">
        <ele>144</ele>
        <time>2020-12-10T09:33:08.000Z</time>
      </trkpt>
      <trkpt lat="47.32216" lon="-2.44059">
        <ele>144</ele>
        <time>2020-12-10T09:33:10.000Z</time>
      </trkpt>
      <trkpt lat="47.32209" lon="-2.44065">
        <ele>144</ele>
        <time>2020-12-10T09:33:12.000Z</time>
      </trkpt>
      <trkpt lat="47.32195" lon="-2.44076">
        <ele>144</ele>
        <time>2020-12-10T09:33:15.000Z</time>
      </trkpt>
      <trkpt lat="47.3218" lon="-2.4409">
        <ele>143.60000610352</ele>
        <time>2020-12-10T09:33:18.000Z</time>
      </trkpt>
      <trkpt lat="47.32174" lon="-2.44096">
        <ele>143.19999694824</ele>
        <time>2020-12-10T09:33:19.000Z</time>
      </trkpt>
      <trkpt lat="47.32169" lon="-2.44101">
        <ele>142.80000305176</ele>
        <time>2020-12-10T09:33:20.000Z</time>
      </trkpt>
      <trkpt lat="47.32163" lon="-2.44107">
        <ele>142.39999389648</ele>
        <time>2020-12-10T09:33:21.000Z</time>
      </trkpt>
      <trkpt lat="47.32158" lon="-2.44113">
        <ele>142</ele>
        <time>2020-12-10T09:33:22.000Z</time>
      </trkpt>
      <trkpt lat="47.32148" lon="-2.44126">
        <ele>141.60000610352</ele>
        <time>2020-12-10T09:33:24.000Z</time>
      </trkpt>
      <trkpt lat="47.32143" lon="-2.44132">
        <ele>141.19999694824</ele>
        <time>2020-12-10T09:33:25.000Z</time>
      </trkpt>
      <trkpt lat="47.32138" lon="-2.44139">
        <ele>140.80000305176</ele>
        <time>2020-12-10T09:33:26.000Z</time>
      </trkpt>
      <trkpt lat="47.32133" lon="-2.44145">
        <ele>140.39999389648</ele>
        <time>2020-12-10T09:33:27.000Z</time>
      </trkpt>
      <trkpt lat="47.32128" lon="-2.44152">
        <ele>140</ele>
        <time>2020-12-10T09:33:28.000Z</time>
      </trkpt>
      <trkpt lat="47.32122" lon="-2.44159">
        <ele>139.60000610352</ele>
        <time>2020-12-10T09:33:29.000Z</time>
      </trkpt>
      <trkpt lat="47.32116" lon="-2.44167">
        <ele>138.80000305176</ele>
        <time>2020-12-10T09:33:30.000Z</time>
      </trkpt>
      <trkpt lat="47.3211" lon="-2.44174">
        <ele>138.39999389648</ele>
        <time>2020-12-10T09:33:31.000Z</time>
      </trkpt>
      <trkpt lat="47.32104" lon="-2.44183">
        <ele>138</ele>
        <time>2020-12-10T09:33:32.000Z</time>
      </trkpt>
      <trkpt lat="47.32084" lon="-2.44207">
        <ele>137.39999389648</ele>
        <time>2020-12-10T09:33:35.000Z</time>
      </trkpt>
      <trkpt lat="47.32078" lon="-2.44215">
        <ele>136.80000305176</ele>
        <time>2020-12-10T09:33:36.000Z</time>
      </trkpt>
      <trkpt lat="47.32071" lon="-2.44224">
        <ele>136.39999389648</ele>
        <time>2020-12-10T09:33:37.000Z</time>
      </trkpt>
      <trkpt lat="47.32064" lon="-2.44233">
        <ele>135.80000305176</ele>
        <time>2020-12-10T09:33:38.000Z</time>
      </trkpt>
      <trkpt lat="47.32057" lon="-2.44241">
        <ele>135.19999694824</ele>
        <time>2020-12-10T09:33:39.000Z</time>
      </trkpt>
      <trkpt lat="47.32051" lon="-2.44251">
        <ele>134.80000305176</ele>
        <time>2020-12-10T09:33:40.000Z</time>
      </trkpt>
      <trkpt lat="47.32044" lon="-2.44261">
        <ele>134.19999694824</ele>
        <time>2020-12-10T09:33:41.000Z</time>
      </trkpt>
      <trkpt lat="47.32037" lon="-2.44271">
        <ele>133.60000610352</ele>
        <time>2020-12-10T09:33:42.000Z</time>
      </trkpt>
      <trkpt lat="47.3203" lon="-2.44282">
        <ele>133.19999694824</ele>
        <time>2020-12-10T09:33:43.000Z</time>
      </trkpt>
      <trkpt lat="47.32023" lon="-2.44292">
        <ele>132.60000610352</ele>
        <time>2020-12-10T09:33:44.000Z</time>
      </trkpt>
      <trkpt lat="47.32017" lon="-2.44303">
        <ele>132.19999694824</ele>
        <time>2020-12-10T09:33:45.000Z</time>
      </trkpt>
      <trkpt lat="47.3201" lon="-2.44314">
        <ele>131.39999389648</ele>
        <time>2020-12-10T09:33:46.000Z</time>
      </trkpt>
      <trkpt lat="47.32004" lon="-2.44325">
        <ele>130.80000305176</ele>
        <time>2020-12-10T09:33:47.000Z</time>
      </trkpt>
      <trkpt lat="47.31997" lon="-2.44335">
        <ele>130.19999694824</ele>
        <time>2020-12-10T09:33:48.000Z</time>
      </trkpt>
      <trkpt lat="47.3199" lon="-2.44345">
        <ele>129.60000610352</ele>
        <time>2020-12-10T09:33:49.000Z</time>
      </trkpt>
      <trkpt lat="47.31983" lon="-2.44355">
        <ele>129</ele>
        <time>2020-12-10T09:33:50.000Z</time>
      </trkpt>
      <trkpt lat="47.31976" lon="-2.44365">
        <ele>128.39999389648</ele>
        <time>2020-12-10T09:33:51.000Z</time>
      </trkpt>
      <trkpt lat="47.31971" lon="-2.44375">
        <ele>127.80000305176</ele>
        <time>2020-12-10T09:33:52.000Z</time>
      </trkpt>
      <trkpt lat="47.31966" lon="-2.44386">
        <ele>127.19999694824</ele>
        <time>2020-12-10T09:33:53.000Z</time>
      </trkpt>
      <trkpt lat="47.31961" lon="-2.44397">
        <ele>126.59999847412</ele>
        <time>2020-12-10T09:33:54.000Z</time>
      </trkpt>
      <trkpt lat="47.31958" lon="-2.44408">
        <ele>125.40000152588</ele>
        <time>2020-12-10T09:33:55.000Z</time>
      </trkpt>
      <trkpt lat="47.31955" lon="-2.44419">
        <ele>124.59999847412</ele>
        <time>2020-12-10T09:33:56.000Z</time>
      </trkpt>
      <trkpt lat="47.31945" lon="-2.44446">
        <ele>124.19999694824</ele>
        <time>2020-12-10T09:33:59.000Z</time>
      </trkpt>
      <trkpt lat="47.31942" lon="-2.44455">
        <ele>123.59999847412</ele>
        <time>2020-12-10T09:34:00.000Z</time>
      </trkpt>
      <trkpt lat="47.31938" lon="-2.44463">
        <ele>123.19999694824</ele>
        <time>2020-12-10T09:34:01.000Z</time>
      </trkpt>
      <trkpt lat="47.31935" lon="-2.44472">
        <ele>122.59999847412</ele>
        <time>2020-12-10T09:34:02.000Z</time>
      </trkpt>
      <trkpt lat="47.31932" lon="-2.4448">
        <ele>122.19999694824</ele>
        <time>2020-12-10T09:34:03.000Z</time>
      </trkpt>
      <trkpt lat="47.31916" lon="-2.44517">
        <ele>122.19999694824</ele>
        <time>2020-12-10T09:34:08.000Z</time>
      </trkpt>
      <trkpt lat="47.31904" lon="-2.44551">
        <ele>122.19999694824</ele>
        <time>2020-12-10T09:34:13.000Z</time>
      </trkpt>
      <trkpt lat="47.31904" lon="-2.44558">
        <ele>122.19999694824</ele>
        <time>2020-12-10T09:34:14.000Z</time>
      </trkpt>
      <trkpt lat="47.3191" lon="-2.44575">
        <ele>122.19999694824</ele>
        <time>2020-12-10T09:34:17.000Z</time>
      </trkpt>
      <trkpt lat="47.31921" lon="-2.44587">
        <ele>122.19999694824</ele>
        <time>2020-12-10T09:34:20.000Z</time>
      </trkpt>
      <trkpt lat="47.31925" lon="-2.44592">
        <ele>122.19999694824</ele>
        <time>2020-12-10T09:34:21.000Z</time>
      </trkpt>
      <trkpt lat="47.31943" lon="-2.44613">
        <ele>122.19999694824</ele>
        <time>2020-12-10T09:34:26.000Z</time>
      </trkpt>
      <trkpt lat="47.31951" lon="-2.44622">
        <ele>122.19999694824</ele>
        <time>2020-12-10T09:34:28.000Z</time>
      </trkpt>
      <trkpt lat="47.3198" lon="-2.44656">
        <ele>122.19999694824</ele>
        <time>2020-12-10T09:34:36.000Z</time>
      </trkpt>
      <trkpt lat="47.3199" lon="-2.44668">
        <ele>122.19999694824</ele>
        <time>2020-12-10T09:34:39.000Z</time>
      </trkpt>
      <trkpt lat="47.32" lon="-2.4468">
        <ele>122.19999694824</ele>
        <time>2020-12-10T09:34:42.000Z</time>
      </trkpt>
      <trkpt lat="47.32003" lon="-2.44685">
        <ele>122.59999847412</ele>
        <time>2020-12-10T09:34:43.000Z</time>
      </trkpt>
      <trkpt lat="47.32006" lon="-2.44689">
        <ele>123.59999847412</ele>
        <time>2020-12-10T09:34:44.000Z</time>
      </trkpt>
      <trkpt lat="47.32009" lon="-2.44694">
        <ele>124</ele>
        <time>2020-12-10T09:34:45.000Z</time>
      </trkpt>
      <trkpt lat="47.32012" lon="-2.44698">
        <ele>124.40000152588</ele>
        <time>2020-12-10T09:34:46.000Z</time>
      </trkpt>
      <trkpt lat="47.32021" lon="-2.4471">
        <ele>124.40000152588</ele>
        <time>2020-12-10T09:34:49.000Z</time>
      </trkpt>
      <trkpt lat="47.32045" lon="-2.44745">
        <ele>124.40000152588</ele>
        <time>2020-12-10T09:34:57.000Z</time>
      </trkpt>
      <trkpt lat="47.32067" lon="-2.44783">
        <ele>124.40000152588</ele>
        <time>2020-12-10T09:35:05.000Z</time>
      </trkpt>
      <trkpt lat="47.3207" lon="-2.44788">
        <ele>124.40000152588</ele>
        <time>2020-12-10T09:35:06.000Z</time>
      </trkpt>
      <trkpt lat="47.32084" lon="-2.44823">
        <ele>124.40000152588</ele>
        <time>2020-12-10T09:35:12.000Z</time>
      </trkpt>
      <trkpt lat="47.32103" lon="-2.44867">
        <ele>124.40000152588</ele>
        <time>2020-12-10T09:35:20.000Z</time>
      </trkpt>
      <trkpt lat="47.32122" lon="-2.4491">
        <ele>124.40000152588</ele>
        <time>2020-12-10T09:35:28.000Z</time>
      </trkpt>
      <trkpt lat="47.32132" lon="-2.44931">
        <ele>124.40000152588</ele>
        <time>2020-12-10T09:35:32.000Z</time>
      </trkpt>
      <trkpt lat="47.32135" lon="-2.44935">
        <ele>124.80000305176</ele>
        <time>2020-12-10T09:35:33.000Z</time>
      </trkpt>
      <trkpt lat="47.32139" lon="-2.44939">
        <ele>125.80000305176</ele>
        <time>2020-12-10T09:35:34.000Z</time>
      </trkpt>
      <trkpt lat="47.32142" lon="-2.44942">
        <ele>126.19999694824</ele>
        <time>2020-12-10T09:35:35.000Z</time>
      </trkpt>
      <trkpt lat="47.32145" lon="-2.44946">
        <ele>126.59999847412</ele>
        <time>2020-12-10T09:35:36.000Z</time>
      </trkpt>
      <trkpt lat="47.32158" lon="-2.44953">
        <ele>126.59999847412</ele>
        <time>2020-12-10T09:35:40.000Z</time>
      </trkpt>
      <trkpt lat="47.3218" lon="-2.44972">
        <ele>126.59999847412</ele>
        <time>2020-12-10T09:35:47.000Z</time>
      </trkpt>
      <trkpt lat="47.32196" lon="-2.44992">
        <ele>127</ele>
        <time>2020-12-10T09:35:53.000Z</time>
      </trkpt>
      <trkpt lat="47.32198" lon="-2.44996">
        <ele>127.40000152588</ele>
        <time>2020-12-10T09:35:54.000Z</time>
      </trkpt>
      <trkpt lat="47.322" lon="-2.45001">
        <ele>127.80000305176</ele>
        <time>2020-12-10T09:35:55.000Z</time>
      </trkpt>
      <trkpt lat="47.32202" lon="-2.45005">
        <ele>128.19999694824</ele>
        <time>2020-12-10T09:35:56.000Z</time>
      </trkpt>
      <trkpt lat="47.32204" lon="-2.4501">
        <ele>128.60000610352</ele>
        <time>2020-12-10T09:35:57.000Z</time>
      </trkpt>
      <trkpt lat="47.32208" lon="-2.45019">
        <ele>128.60000610352</ele>
        <time>2020-12-10T09:35:59.000Z</time>
      </trkpt>
      <trkpt lat="47.32219" lon="-2.45042">
        <ele>128.60000610352</ele>
        <time>2020-12-10T09:36:04.000Z</time>
      </trkpt>
      <trkpt lat="47.32224" lon="-2.45053">
        <ele>128.60000610352</ele>
        <time>2020-12-10T09:36:06.000Z</time>
      </trkpt>
      <trkpt lat="47.32243" lon="-2.45095">
        <ele>128.60000610352</ele>
        <time>2020-12-10T09:36:14.000Z</time>
      </trkpt>
      <trkpt lat="47.32259" lon="-2.45142">
        <ele>128.60000610352</ele>
        <time>2020-12-10T09:36:21.000Z</time>
      </trkpt>
      <trkpt lat="47.32272" lon="-2.45193">
        <ele>128.60000610352</ele>
        <time>2020-12-10T09:36:27.000Z</time>
      </trkpt>
      <trkpt lat="47.3228" lon="-2.45214">
        <ele>128.19999694824</ele>
        <time>2020-12-10T09:36:29.000Z</time>
      </trkpt>
      <trkpt lat="47.32285" lon="-2.45223">
        <ele>127.80000305176</ele>
        <time>2020-12-10T09:36:30.000Z</time>
      </trkpt>
      <trkpt lat="47.32289" lon="-2.45232">
        <ele>127.40000152588</ele>
        <time>2020-12-10T09:36:31.000Z</time>
      </trkpt>
      <trkpt lat="47.32292" lon="-2.45239">
        <ele>126.80000305176</ele>
        <time>2020-12-10T09:36:32.000Z</time>
      </trkpt>
      <trkpt lat="47.32296" lon="-2.45246">
        <ele>126.19999694824</ele>
        <time>2020-12-10T09:36:33.000Z</time>
      </trkpt>
      <trkpt lat="47.32299" lon="-2.45254">
        <ele>125.59999847412</ele>
        <time>2020-12-10T09:36:34.000Z</time>
      </trkpt>
      <trkpt lat="47.32301" lon="-2.45261">
        <ele>125</ele>
        <time>2020-12-10T09:36:35.000Z</time>
      </trkpt>
      <trkpt lat="47.32304" lon="-2.45267">
        <ele>124.40000152588</ele>
        <time>2020-12-10T09:36:36.000Z</time>
      </trkpt>
      <trkpt lat="47.32308" lon="-2.45281">
        <ele>124.40000152588</ele>
        <time>2020-12-10T09:36:39.000Z</time>
      </trkpt>
      <trkpt lat="47.32315" lon="-2.45311">
        <ele>124.80000305176</ele>
        <time>2020-12-10T09:36:45.000Z</time>
      </trkpt>
      <trkpt lat="47.32315" lon="-2.45315">
        <ele>125.19999694824</ele>
        <time>2020-12-10T09:36:46.000Z</time>
      </trkpt>
      <trkpt lat="47.32316" lon="-2.45319">
        <ele>125.59999847412</ele>
        <time>2020-12-10T09:36:47.000Z</time>
      </trkpt>
      <trkpt lat="47.32316" lon="-2.45323">
        <ele>126.40000152588</ele>
        <time>2020-12-10T09:36:48.000Z</time>
      </trkpt>
      <trkpt lat="47.32317" lon="-2.45352">
        <ele>126.40000152588</ele>
        <time>2020-12-10T09:36:53.000Z</time>
      </trkpt>
      <trkpt lat="47.3232" lon="-2.45389">
        <ele>126.40000152588</ele>
        <time>2020-12-10T09:36:58.000Z</time>
      </trkpt>
      <trkpt lat="47.32318" lon="-2.45401">
        <ele>126</ele>
        <time>2020-12-10T09:37:00.000Z</time>
      </trkpt>
      <trkpt lat="47.32316" lon="-2.45408">
        <ele>125.40000152588</ele>
        <time>2020-12-10T09:37:01.000Z</time>
      </trkpt>
      <trkpt lat="47.32316" lon="-2.45416">
        <ele>125</ele>
        <time>2020-12-10T09:37:02.000Z</time>
      </trkpt>
      <trkpt lat="47.32317" lon="-2.45424">
        <ele>124.40000152588</ele>
        <time>2020-12-10T09:37:03.000Z</time>
      </trkpt>
      <trkpt lat="47.3232" lon="-2.45431">
        <ele>124</ele>
        <time>2020-12-10T09:37:04.000Z</time>
      </trkpt>
      <trkpt lat="47.32323" lon="-2.45438">
        <ele>124</ele>
        <time>2020-12-10T09:37:05.000Z</time>
      </trkpt>
      <trkpt lat="47.32344" lon="-2.45473">
        <ele>124</ele>
        <time>2020-12-10T09:37:11.000Z</time>
      </trkpt>
      <trkpt lat="47.3236" lon="-2.455">
        <ele>124</ele>
        <time>2020-12-10T09:37:16.000Z</time>
      </trkpt>
      <trkpt lat="47.32363" lon="-2.45504">
        <ele>124</ele>
        <time>2020-12-10T09:37:17.000Z</time>
      </trkpt>
      <trkpt lat="47.3238" lon="-2.45533">
        <ele>124</ele>
        <time>2020-12-10T09:37:23.000Z</time>
      </trkpt>
      <trkpt lat="47.32383" lon="-2.45538">
        <ele>124</ele>
        <time>2020-12-10T09:37:24.000Z</time>
      </trkpt>
      <trkpt lat="47.32391" lon="-2.45555">
        <ele>124</ele>
        <time>2020-12-10T09:37:27.000Z</time>
      </trkpt>
      <trkpt lat="47.32401" lon="-2.45567">
        <ele>124</ele>
        <time>2020-12-10T09:37:30.000Z</time>
      </trkpt>
      <trkpt lat="47.32414" lon="-2.45581">
        <ele>124</ele>
        <time>2020-12-10T09:37:34.000Z</time>
      </trkpt>
      <trkpt lat="47.32418" lon="-2.45608">
        <ele>124</ele>
        <time>2020-12-10T09:37:38.000Z</time>
      </trkpt>
      <trkpt lat="47.32429" lon="-2.45632">
        <ele>124</ele>
        <time>2020-12-10T09:37:42.000Z</time>
      </trkpt>
      <trkpt lat="47.32432" lon="-2.45638">
        <ele>124</ele>
        <time>2020-12-10T09:37:43.000Z</time>
      </trkpt>
      <trkpt lat="47.3246" lon="-2.4568">
        <ele>124</ele>
        <time>2020-12-10T09:37:50.000Z</time>
      </trkpt>
      <trkpt lat="47.32494" lon="-2.45737">
        <ele>124</ele>
        <time>2020-12-10T09:37:59.000Z</time>
      </trkpt>
      <trkpt lat="47.3252" lon="-2.45785">
        <ele>124</ele>
        <time>2020-12-10T09:38:07.000Z</time>
      </trkpt>
      <trkpt lat="47.32533" lon="-2.45805">
        <ele>124</ele>
        <time>2020-12-10T09:38:11.000Z</time>
      </trkpt>
      <trkpt lat="47.32539" lon="-2.45815">
        <ele>124</ele>
        <time>2020-12-10T09:38:13.000Z</time>
      </trkpt>
      <trkpt lat="47.32548" lon="-2.45827">
        <ele>124</ele>
        <time>2020-12-10T09:38:16.000Z</time>
      </trkpt>
      <trkpt lat="47.32555" lon="-2.45834">
        <ele>124</ele>
        <time>2020-12-10T09:38:18.000Z</time>
      </trkpt>
      <trkpt lat="47.32557" lon="-2.45839">
        <ele>124</ele>
        <time>2020-12-10T09:38:19.000Z</time>
      </trkpt>
      <trkpt lat="47.32568" lon="-2.4586">
        <ele>124</ele>
        <time>2020-12-10T09:38:23.000Z</time>
      </trkpt>
      <trkpt lat="47.32574" lon="-2.4587">
        <ele>124</ele>
        <time>2020-12-10T09:38:25.000Z</time>
      </trkpt>
      <trkpt lat="47.32593" lon="-2.45895">
        <ele>124</ele>
        <time>2020-12-10T09:38:31.000Z</time>
      </trkpt>
      <trkpt lat="47.32607" lon="-2.45912">
        <ele>124</ele>
        <time>2020-12-10T09:38:35.000Z</time>
      </trkpt>
      <trkpt lat="47.32617" lon="-2.45928">
        <ele>124</ele>
        <time>2020-12-10T09:38:38.000Z</time>
      </trkpt>
      <trkpt lat="47.32632" lon="-2.45953">
        <ele>124</ele>
        <time>2020-12-10T09:38:43.000Z</time>
      </trkpt>
      <trkpt lat="47.32639" lon="-2.45962">
        <ele>124</ele>
        <time>2020-12-10T09:38:45.000Z</time>
      </trkpt>
      <trkpt lat="47.32647" lon="-2.45969">
        <ele>124</ele>
        <time>2020-12-10T09:38:47.000Z</time>
      </trkpt>
      <trkpt lat="47.32662" lon="-2.45983">
        <ele>124</ele>
        <time>2020-12-10T09:38:51.000Z</time>
      </trkpt>
      <trkpt lat="47.32672" lon="-2.45992">
        <ele>124</ele>
        <time>2020-12-10T09:38:56.000Z</time>
      </trkpt>
      <trkpt lat="47.32678" lon="-2.45997">
        <ele>124</ele>
        <time>2020-12-10T09:39:02.000Z</time>
      </trkpt>
      <trkpt lat="47.32682" lon="-2.46001">
        <ele>124</ele>
        <time>2020-12-10T09:39:06.000Z</time>
      </trkpt>
      <trkpt lat="47.32684" lon="-2.46005">
        <ele>124</ele>
        <time>2020-12-10T09:39:08.000Z</time>
      </trkpt>
      <trkpt lat="47.32691" lon="-2.46019">
        <ele>124</ele>
        <time>2020-12-10T09:39:14.000Z</time>
      </trkpt>
      <trkpt lat="47.327" lon="-2.46031">
        <ele>124</ele>
        <time>2020-12-10T09:39:20.000Z</time>
      </trkpt>
      <trkpt lat="47.32708" lon="-2.46042">
        <ele>124</ele>
        <time>2020-12-10T09:39:25.000Z</time>
      </trkpt>
      <trkpt lat="47.32713" lon="-2.4605">
        <ele>124</ele>
        <time>2020-12-10T09:39:30.000Z</time>
      </trkpt>
      <trkpt lat="47.32719" lon="-2.46056">
        <ele>124</ele>
        <time>2020-12-10T09:39:34.000Z</time>
      </trkpt>
      <trkpt lat="47.32722" lon="-2.46061">
        <ele>124</ele>
        <time>2020-12-10T09:39:36.000Z</time>
      </trkpt>
      <trkpt lat="47.32728" lon="-2.46067">
        <ele>124</ele>
        <time>2020-12-10T09:39:39.000Z</time>
      </trkpt>
      <trkpt lat="47.32733" lon="-2.46073">
        <ele>124</ele>
        <time>2020-12-10T09:39:42.000Z</time>
      </trkpt>
      <trkpt lat="47.32745" lon="-2.46086">
        <ele>124</ele>
        <time>2020-12-10T09:39:49.000Z</time>
      </trkpt>
      <trkpt lat="47.3275" lon="-2.46094">
        <ele>124.40000152588</ele>
        <time>2020-12-10T09:39:52.000Z</time>
      </trkpt>
      <trkpt lat="47.32751" lon="-2.46096">
        <ele>124.80000305176</ele>
        <time>2020-12-10T09:39:53.000Z</time>
      </trkpt>
      <trkpt lat="47.32753" lon="-2.46099">
        <ele>125.19999694824</ele>
        <time>2020-12-10T09:39:54.000Z</time>
      </trkpt>
      <trkpt lat="47.32754" lon="-2.46102">
        <ele>125.59999847412</ele>
        <time>2020-12-10T09:39:55.000Z</time>
      </trkpt>
      <trkpt lat="47.32755" lon="-2.46105">
        <ele>126</ele>
        <time>2020-12-10T09:39:56.000Z</time>
      </trkpt>
      <trkpt lat="47.32762" lon="-2.46118">
        <ele>126</ele>
        <time>2020-12-10T09:40:01.000Z</time>
      </trkpt>
      <trkpt lat="47.32765" lon="-2.46133">
        <ele>126.40000152588</ele>
        <time>2020-12-10T09:40:06.000Z</time>
      </trkpt>
      <trkpt lat="47.32766" lon="-2.46136">
        <ele>127.19999694824</ele>
        <time>2020-12-10T09:40:07.000Z</time>
      </trkpt>
      <trkpt lat="47.32766" lon="-2.46138">
        <ele>127.59999847412</ele>
        <time>2020-12-10T09:40:08.000Z</time>
      </trkpt>
      <trkpt lat="47.32767" lon="-2.46141">
        <ele>128</ele>
        <time>2020-12-10T09:40:09.000Z</time>
      </trkpt>
      <trkpt lat="47.32773" lon="-2.46154">
        <ele>128</ele>
        <time>2020-12-10T09:40:14.000Z</time>
      </trkpt>
      <trkpt lat="47.32788" lon="-2.46166">
        <ele>128</ele>
        <time>2020-12-10T09:40:20.000Z</time>
      </trkpt>
      <trkpt lat="47.328" lon="-2.46177">
        <ele>128.39999389648</ele>
        <time>2020-12-10T09:40:25.000Z</time>
      </trkpt>
      <trkpt lat="47.32803" lon="-2.46178">
        <ele>128.80000305176</ele>
        <time>2020-12-10T09:40:26.000Z</time>
      </trkpt>
      <trkpt lat="47.32806" lon="-2.4618">
        <ele>129.19999694824</ele>
        <time>2020-12-10T09:40:27.000Z</time>
      </trkpt>
      <trkpt lat="47.32809" lon="-2.46182">
        <ele>129.60000610352</ele>
        <time>2020-12-10T09:40:28.000Z</time>
      </trkpt>
      <trkpt lat="47.32812" lon="-2.46183">
        <ele>130</ele>
        <time>2020-12-10T09:40:29.000Z</time>
      </trkpt>
      <trkpt lat="47.32823" lon="-2.46185">
        <ele>130</ele>
        <time>2020-12-10T09:40:32.000Z</time>
      </trkpt>
      <trkpt lat="47.32837" lon="-2.46178">
        <ele>130</ele>
        <time>2020-12-10T09:40:37.000Z</time>
      </trkpt>
      <trkpt lat="47.32845" lon="-2.46174">
        <ele>130.39999389648</ele>
        <time>2020-12-10T09:40:40.000Z</time>
      </trkpt>
      <trkpt lat="47.32848" lon="-2.46173">
        <ele>131</ele>
        <time>2020-12-10T09:40:41.000Z</time>
      </trkpt>
      <trkpt lat="47.32851" lon="-2.46172">
        <ele>131.39999389648</ele>
        <time>2020-12-10T09:40:42.000Z</time>
      </trkpt>
      <trkpt lat="47.32854" lon="-2.46171">
        <ele>131.80000305176</ele>
        <time>2020-12-10T09:40:43.000Z</time>
      </trkpt>
      <trkpt lat="47.32857" lon="-2.4617">
        <ele>132.19999694824</ele>
        <time>2020-12-10T09:40:44.000Z</time>
      </trkpt>
      <trkpt lat="47.3286" lon="-2.46169">
        <ele>132.19999694824</ele>
        <time>2020-12-10T09:40:45.000Z</time>
      </trkpt>
      <trkpt lat="47.32868" lon="-2.46165">
        <ele>132.60000610352</ele>
        <time>2020-12-10T09:40:48.000Z</time>
      </trkpt>
      <trkpt lat="47.32871" lon="-2.46163">
        <ele>133.19999694824</ele>
        <time>2020-12-10T09:40:49.000Z</time>
      </trkpt>
      <trkpt lat="47.32873" lon="-2.46161">
        <ele>133.60000610352</ele>
        <time>2020-12-10T09:40:50.000Z</time>
      </trkpt>
      <trkpt lat="47.32876" lon="-2.4616">
        <ele>134</ele>
        <time>2020-12-10T09:40:51.000Z</time>
      </trkpt>
      <trkpt lat="47.32879" lon="-2.46159">
        <ele>134.39999389648</ele>
        <time>2020-12-10T09:40:52.000Z</time>
      </trkpt>
      <trkpt lat="47.3289" lon="-2.46153">
        <ele>134.80000305176</ele>
        <time>2020-12-10T09:40:57.000Z</time>
      </trkpt>
      <trkpt lat="47.32892" lon="-2.46151">
        <ele>135.19999694824</ele>
        <time>2020-12-10T09:40:58.000Z</time>
      </trkpt>
      <trkpt lat="47.32894" lon="-2.4615">
        <ele>135.60000610352</ele>
        <time>2020-12-10T09:40:59.000Z</time>
      </trkpt>
      <trkpt lat="47.32895" lon="-2.4615">
        <ele>136</ele>
        <time>2020-12-10T09:41:00.000Z</time>
      </trkpt>
      <trkpt lat="47.32896" lon="-2.4615">
        <ele>136.39999389648</ele>
        <time>2020-12-10T09:41:01.000Z</time>
      </trkpt>
      <trkpt lat="47.32902" lon="-2.46154">
        <ele>136.39999389648</ele>
        <time>2020-12-10T09:41:04.000Z</time>
      </trkpt>
      <trkpt lat="47.32903" lon="-2.46157">
        <ele>136.39999389648</ele>
        <time>2020-12-10T09:41:05.000Z</time>
      </trkpt>
      <trkpt lat="47.32906" lon="-2.46164">
        <ele>136.80000305176</ele>
        <time>2020-12-10T09:41:07.000Z</time>
      </trkpt>
      <trkpt lat="47.32908" lon="-2.46168">
        <ele>137.39999389648</ele>
        <time>2020-12-10T09:41:08.000Z</time>
      </trkpt>
      <trkpt lat="47.3291" lon="-2.46172">
        <ele>137.80000305176</ele>
        <time>2020-12-10T09:41:09.000Z</time>
      </trkpt>
      <trkpt lat="47.32911" lon="-2.46177">
        <ele>138.19999694824</ele>
        <time>2020-12-10T09:41:10.000Z</time>
      </trkpt>
      <trkpt lat="47.32913" lon="-2.46181">
        <ele>138.60000610352</ele>
        <time>2020-12-10T09:41:11.000Z</time>
      </trkpt>
      <trkpt lat="47.32924" lon="-2.46222">
        <ele>138.60000610352</ele>
        <time>2020-12-10T09:41:18.000Z</time>
      </trkpt>
      <trkpt lat="47.32941" lon="-2.46283">
        <ele>138.60000610352</ele>
        <time>2020-12-10T09:41:28.000Z</time>
      </trkpt>
      <trkpt lat="47.32956" lon="-2.46332">
        <ele>138.60000610352</ele>
        <time>2020-12-10T09:41:35.000Z</time>
      </trkpt>
      <trkpt lat="47.32963" lon="-2.46359">
        <ele>138</ele>
        <time>2020-12-10T09:41:38.000Z</time>
      </trkpt>
      <trkpt lat="47.32965" lon="-2.46369">
        <ele>137.60000610352</ele>
        <time>2020-12-10T09:41:39.000Z</time>
      </trkpt>
      <trkpt lat="47.32966" lon="-2.46381">
        <ele>137.19999694824</ele>
        <time>2020-12-10T09:41:40.000Z</time>
      </trkpt>
      <trkpt lat="47.32966" lon="-2.46393">
        <ele>136.80000305176</ele>
        <time>2020-12-10T09:41:41.000Z</time>
      </trkpt>
      <trkpt lat="47.32967" lon="-2.46405">
        <ele>136.39999389648</ele>
        <time>2020-12-10T09:41:42.000Z</time>
      </trkpt>
      <trkpt lat="47.32967" lon="-2.46418">
        <ele>136</ele>
        <time>2020-12-10T09:41:43.000Z</time>
      </trkpt>
      <trkpt lat="47.32967" lon="-2.46432">
        <ele>135.39999389648</ele>
        <time>2020-12-10T09:41:44.000Z</time>
      </trkpt>
      <trkpt lat="47.32966" lon="-2.46445">
        <ele>134</ele>
        <time>2020-12-10T09:41:45.000Z</time>
      </trkpt>
      <trkpt lat="47.32966" lon="-2.4646">
        <ele>133.19999694824</ele>
        <time>2020-12-10T09:41:46.000Z</time>
      </trkpt>
      <trkpt lat="47.32965" lon="-2.46475">
        <ele>132.60000610352</ele>
        <time>2020-12-10T09:41:47.000Z</time>
      </trkpt>
      <trkpt lat="47.32964" lon="-2.4649">
        <ele>132</ele>
        <time>2020-12-10T09:41:48.000Z</time>
      </trkpt>
      <trkpt lat="47.32963" lon="-2.46506">
        <ele>131.39999389648</ele>
        <time>2020-12-10T09:41:49.000Z</time>
      </trkpt>
      <trkpt lat="47.32963" lon="-2.46522">
        <ele>130.80000305176</ele>
        <time>2020-12-10T09:41:50.000Z</time>
      </trkpt>
      <trkpt lat="47.32961" lon="-2.46538">
        <ele>130.19999694824</ele>
        <time>2020-12-10T09:41:51.000Z</time>
      </trkpt>
      <trkpt lat="47.3296" lon="-2.46553">
        <ele>129.60000610352</ele>
        <time>2020-12-10T09:41:52.000Z</time>
      </trkpt>
      <trkpt lat="47.32959" lon="-2.46567">
        <ele>129</ele>
        <time>2020-12-10T09:41:53.000Z</time>
      </trkpt>
      <trkpt lat="47.32958" lon="-2.4658">
        <ele>128.39999389648</ele>
        <time>2020-12-10T09:41:54.000Z</time>
      </trkpt>
      <trkpt lat="47.32957" lon="-2.46592">
        <ele>127.80000305176</ele>
        <time>2020-12-10T09:41:55.000Z</time>
      </trkpt>
      <trkpt lat="47.32954" lon="-2.46628">
        <ele>127.19999694824</ele>
        <time>2020-12-10T09:41:58.000Z</time>
      </trkpt>
      <trkpt lat="47.32954" lon="-2.4664">
        <ele>126.80000305176</ele>
        <time>2020-12-10T09:41:59.000Z</time>
      </trkpt>
      <trkpt lat="47.32954" lon="-2.46651">
        <ele>126.19999694824</ele>
        <time>2020-12-10T09:42:00.000Z</time>
      </trkpt>
      <trkpt lat="47.32955" lon="-2.46663">
        <ele>125.80000305176</ele>
        <time>2020-12-10T09:42:01.000Z</time>
      </trkpt>
      <trkpt lat="47.32956" lon="-2.46674">
        <ele>125.19999694824</ele>
        <time>2020-12-10T09:42:02.000Z</time>
      </trkpt>
      <trkpt lat="47.32963" lon="-2.46705">
        <ele>125.19999694824</ele>
        <time>2020-12-10T09:42:05.000Z</time>
      </trkpt>
      <trkpt lat="47.32971" lon="-2.46764">
        <ele>124.80000305176</ele>
        <time>2020-12-10T09:42:11.000Z</time>
      </trkpt>
      <trkpt lat="47.32971" lon="-2.46775">
        <ele>124.40000152588</ele>
        <time>2020-12-10T09:42:12.000Z</time>
      </trkpt>
      <trkpt lat="47.3297" lon="-2.46785">
        <ele>124</ele>
        <time>2020-12-10T09:42:13.000Z</time>
      </trkpt>
      <trkpt lat="47.32969" lon="-2.46795">
        <ele>123.59999847412</ele>
        <time>2020-12-10T09:42:14.000Z</time>
      </trkpt>
      <trkpt lat="47.32969" lon="-2.46805">
        <ele>123.19999694824</ele>
        <time>2020-12-10T09:42:15.000Z</time>
      </trkpt>
      <trkpt lat="47.32968" lon="-2.46815">
        <ele>123.19999694824</ele>
        <time>2020-12-10T09:42:16.000Z</time>
      </trkpt>
      <trkpt lat="47.32958" lon="-2.46892">
        <ele>123.19999694824</ele>
        <time>2020-12-10T09:42:24.000Z</time>
      </trkpt>
      <trkpt lat="47.3295" lon="-2.4695">
        <ele>123.19999694824</ele>
        <time>2020-12-10T09:42:30.000Z</time>
      </trkpt>
      <trkpt lat="47.32941" lon="-2.47029">
        <ele>123.19999694824</ele>
        <time>2020-12-10T09:42:38.000Z</time>
      </trkpt>
      <trkpt lat="47.32943" lon="-2.47067">
        <ele>122.80000305176</ele>
        <time>2020-12-10T09:42:42.000Z</time>
      </trkpt>
      <trkpt lat="47.32943" lon="-2.47077">
        <ele>122.40000152588</ele>
        <time>2020-12-10T09:42:43.000Z</time>
      </trkpt>
      <trkpt lat="47.32945" lon="-2.47087">
        <ele>122</ele>
        <time>2020-12-10T09:42:44.000Z</time>
      </trkpt>
      <trkpt lat="47.32946" lon="-2.47097">
        <ele>121.59999847412</ele>
        <time>2020-12-10T09:42:45.000Z</time>
      </trkpt>
      <trkpt lat="47.32948" lon="-2.47106">
        <ele>121.19999694824</ele>
        <time>2020-12-10T09:42:46.000Z</time>
      </trkpt>
      <trkpt lat="47.32956" lon="-2.47141">
        <ele>121.19999694824</ele>
        <time>2020-12-10T09:42:50.000Z</time>
      </trkpt>
      <trkpt lat="47.32967" lon="-2.47199">
        <ele>121.19999694824</ele>
        <time>2020-12-10T09:42:57.000Z</time>
      </trkpt>
      <trkpt lat="47.32979" lon="-2.4725">
        <ele>121.19999694824</ele>
        <time>2020-12-10T09:43:04.000Z</time>
      </trkpt>
      <trkpt lat="47.32982" lon="-2.47261">
        <ele>120.80000305176</ele>
        <time>2020-12-10T09:43:06.000Z</time>
      </trkpt>
      <trkpt lat="47.32983" lon="-2.47267">
        <ele>120.40000152588</ele>
        <time>2020-12-10T09:43:07.000Z</time>
      </trkpt>
      <trkpt lat="47.32982" lon="-2.47272">
        <ele>120</ele>
        <time>2020-12-10T09:43:08.000Z</time>
      </trkpt>
      <trkpt lat="47.32979" lon="-2.47276">
        <ele>119.59999847412</ele>
        <time>2020-12-10T09:43:09.000Z</time>
      </trkpt>
      <trkpt lat="47.32976" lon="-2.4728">
        <ele>119.19999694824</ele>
        <time>2020-12-10T09:43:10.000Z</time>
      </trkpt>
      <trkpt lat="47.32972" lon="-2.47284">
        <ele>119.19999694824</ele>
        <time>2020-12-10T09:43:11.000Z</time>
      </trkpt>
      <trkpt lat="47.32945" lon="-2.47315">
        <ele>119.19999694824</ele>
        <time>2020-12-10T09:43:18.000Z</time>
      </trkpt>
      <trkpt lat="47.32914" lon="-2.47349">
        <ele>119.19999694824</ele>
        <time>2020-12-10T09:43:26.000Z</time>
      </trkpt>
      <trkpt lat="47.32904" lon="-2.4736">
        <ele>119.19999694824</ele>
        <time>2020-12-10T09:43:29.000Z</time>
      </trkpt>
      <trkpt lat="47.32897" lon="-2.47364">
        <ele>119.19999694824</ele>
        <time>2020-12-10T09:43:31.000Z</time>
      </trkpt>
      <trkpt lat="47.32895" lon="-2.47378">
        <ele>119.19999694824</ele>
        <time>2020-12-10T09:43:34.000Z</time>
      </trkpt>
      <trkpt lat="47.32897" lon="-2.47387">
        <ele>119.19999694824</ele>
        <time>2020-12-10T09:43:36.000Z</time>
      </trkpt>
      <trkpt lat="47.32899" lon="-2.47407">
        <ele>119.19999694824</ele>
        <time>2020-12-10T09:43:40.000Z</time>
      </trkpt>
      <trkpt lat="47.32902" lon="-2.47424">
        <ele>119.19999694824</ele>
        <time>2020-12-10T09:43:43.000Z</time>
      </trkpt>
      <trkpt lat="47.32905" lon="-2.47435">
        <ele>119.19999694824</ele>
        <time>2020-12-10T09:43:45.000Z</time>
      </trkpt>
      <trkpt lat="47.32908" lon="-2.47448">
        <ele>119.19999694824</ele>
        <time>2020-12-10T09:43:47.000Z</time>
      </trkpt>
      <trkpt lat="47.32916" lon="-2.4748">
        <ele>119.19999694824</ele>
        <time>2020-12-10T09:43:52.000Z</time>
      </trkpt>
      <trkpt lat="47.32923" lon="-2.47516">
        <ele>119.19999694824</ele>
        <time>2020-12-10T09:43:58.000Z</time>
      </trkpt>
      <trkpt lat="47.32925" lon="-2.47528">
        <ele>119.19999694824</ele>
        <time>2020-12-10T09:44:00.000Z</time>
      </trkpt>
      <trkpt lat="47.32925" lon="-2.47534">
        <ele>119.19999694824</ele>
        <time>2020-12-10T09:44:01.000Z</time>
      </trkpt>
      <trkpt lat="47.32922" lon="-2.4756">
        <ele>119.19999694824</ele>
        <time>2020-12-10T09:44:05.000Z</time>
      </trkpt>
      <trkpt lat="47.32921" lon="-2.47574">
        <ele>119.19999694824</ele>
        <time>2020-12-10T09:44:07.000Z</time>
      </trkpt>
      <trkpt lat="47.32922" lon="-2.47601">
        <ele>119.19999694824</ele>
        <time>2020-12-10T09:44:11.000Z</time>
      </trkpt>
      <trkpt lat="47.32931" lon="-2.47644">
        <ele>119.19999694824</ele>
        <time>2020-12-10T09:44:18.000Z</time>
      </trkpt>
      <trkpt lat="47.32943" lon="-2.47702">
        <ele>119.19999694824</ele>
        <time>2020-12-10T09:44:27.000Z</time>
      </trkpt>
      <trkpt lat="47.32945" lon="-2.47708">
        <ele>119.19999694824</ele>
        <time>2020-12-10T09:44:28.000Z</time>
      </trkpt>
      <trkpt lat="47.32957" lon="-2.47728">
        <ele>119.19999694824</ele>
        <time>2020-12-10T09:44:32.000Z</time>
      </trkpt>
      <trkpt lat="47.32981" lon="-2.47762">
        <ele>119.19999694824</ele>
        <time>2020-12-10T09:44:39.000Z</time>
      </trkpt>
      <trkpt lat="47.33017" lon="-2.47787">
        <ele>119.19999694824</ele>
        <time>2020-12-10T09:44:47.000Z</time>
      </trkpt>
      <trkpt lat="47.33051" lon="-2.47799">
        <ele>119.19999694824</ele>
        <time>2020-12-10T09:44:54.000Z</time>
      </trkpt>
      <trkpt lat="47.33084" lon="-2.47811">
        <ele>119.19999694824</ele>
        <time>2020-12-10T09:45:01.000Z</time>
      </trkpt>
      <trkpt lat="47.33116" lon="-2.47835">
        <ele>119.19999694824</ele>
        <time>2020-12-10T09:45:09.000Z</time>
      </trkpt>
      <trkpt lat="47.33123" lon="-2.47845">
        <ele>119.19999694824</ele>
        <time>2020-12-10T09:45:11.000Z</time>
      </trkpt>
      <trkpt lat="47.33133" lon="-2.47867">
        <ele>119.19999694824</ele>
        <time>2020-12-10T09:45:15.000Z</time>
      </trkpt>
      <trkpt lat="47.33143" lon="-2.479">
        <ele>119.19999694824</ele>
        <time>2020-12-10T09:45:21.000Z</time>
      </trkpt>
      <trkpt lat="47.33151" lon="-2.47943">
        <ele>119.19999694824</ele>
        <time>2020-12-10T09:45:29.000Z</time>
      </trkpt>
      <trkpt lat="47.33151" lon="-2.47978">
        <ele>119.19999694824</ele>
        <time>2020-12-10T09:45:35.000Z</time>
      </trkpt>
      <trkpt lat="47.33148" lon="-2.48031">
        <ele>119.19999694824</ele>
        <time>2020-12-10T09:45:43.000Z</time>
      </trkpt>
      <trkpt lat="47.33146" lon="-2.48099">
        <ele>119.19999694824</ele>
        <time>2020-12-10T09:45:53.000Z</time>
      </trkpt>
      <trkpt lat="47.33144" lon="-2.48168">
        <ele>119.19999694824</ele>
        <time>2020-12-10T09:46:03.000Z</time>
      </trkpt>
      <trkpt lat="47.33144" lon="-2.48221">
        <ele>119.19999694824</ele>
        <time>2020-12-10T09:46:11.000Z</time>
      </trkpt>
      <trkpt lat="47.33146" lon="-2.48276">
        <ele>119.19999694824</ele>
        <time>2020-12-10T09:46:19.000Z</time>
      </trkpt>
      <trkpt lat="47.33148" lon="-2.48319">
        <ele>119.19999694824</ele>
        <time>2020-12-10T09:46:26.000Z</time>
      </trkpt>
      <trkpt lat="47.3315" lon="-2.48343">
        <ele>119.19999694824</ele>
        <time>2020-12-10T09:46:30.000Z</time>
      </trkpt>
      <trkpt lat="47.33154" lon="-2.48356">
        <ele>119.19999694824</ele>
        <time>2020-12-10T09:46:32.000Z</time>
      </trkpt>
      <trkpt lat="47.33161" lon="-2.48374">
        <ele>119.19999694824</ele>
        <time>2020-12-10T09:46:35.000Z</time>
      </trkpt>
      <trkpt lat="47.33169" lon="-2.48391">
        <ele>119.19999694824</ele>
        <time>2020-12-10T09:46:38.000Z</time>
      </trkpt>
      <trkpt lat="47.33173" lon="-2.48403">
        <ele>119.19999694824</ele>
        <time>2020-12-10T09:46:40.000Z</time>
      </trkpt>
      <trkpt lat="47.33176" lon="-2.48422">
        <ele>119.19999694824</ele>
        <time>2020-12-10T09:46:43.000Z</time>
      </trkpt>
      <trkpt lat="47.33177" lon="-2.48429">
        <ele>119.19999694824</ele>
        <time>2020-12-10T09:46:44.000Z</time>
      </trkpt>
      <trkpt lat="47.33182" lon="-2.48488">
        <ele>119.19999694824</ele>
        <time>2020-12-10T09:46:52.000Z</time>
      </trkpt>
      <trkpt lat="47.33188" lon="-2.48559">
        <ele>119.19999694824</ele>
        <time>2020-12-10T09:47:02.000Z</time>
      </trkpt>
      <trkpt lat="47.33189" lon="-2.48611">
        <ele>119.19999694824</ele>
        <time>2020-12-10T09:47:10.000Z</time>
      </trkpt>
      <trkpt lat="47.33191" lon="-2.48664">
        <ele>119.19999694824</ele>
        <time>2020-12-10T09:47:18.000Z</time>
      </trkpt>
      <trkpt lat="47.33193" lon="-2.48676">
        <ele>119.19999694824</ele>
        <time>2020-12-10T09:47:20.000Z</time>
      </trkpt>
      <trkpt lat="47.33198" lon="-2.48697">
        <ele>119.19999694824</ele>
        <time>2020-12-10T09:47:24.000Z</time>
      </trkpt>
      <trkpt lat="47.33207" lon="-2.48726">
        <ele>119.19999694824</ele>
        <time>2020-12-10T09:47:30.000Z</time>
      </trkpt>
      <trkpt lat="47.33208" lon="-2.48732">
        <ele>119.19999694824</ele>
        <time>2020-12-10T09:47:31.000Z</time>
      </trkpt>
      <trkpt lat="47.33218" lon="-2.48783">
        <ele>119.19999694824</ele>
        <time>2020-12-10T09:47:39.000Z</time>
      </trkpt>
      <trkpt lat="47.33235" lon="-2.48833">
        <ele>119.19999694824</ele>
        <time>2020-12-10T09:47:47.000Z</time>
      </trkpt>
      <trkpt lat="47.33253" lon="-2.48893">
        <ele>119.19999694824</ele>
        <time>2020-12-10T09:47:56.000Z</time>
      </trkpt>
      <trkpt lat="47.33263" lon="-2.48944">
        <ele>119.19999694824</ele>
        <time>2020-12-10T09:48:04.000Z</time>
      </trkpt>
      <trkpt lat="47.33278" lon="-2.49004">
        <ele>119.19999694824</ele>
        <time>2020-12-10T09:48:13.000Z</time>
      </trkpt>
      <trkpt lat="47.33298" lon="-2.49062">
        <ele>119.19999694824</ele>
        <time>2020-12-10T09:48:22.000Z</time>
      </trkpt>
      <trkpt lat="47.3332" lon="-2.49096">
        <ele>119.59999847412</ele>
        <time>2020-12-10T09:48:29.000Z</time>
      </trkpt>
      <trkpt lat="47.33323" lon="-2.491">
        <ele>120</ele>
        <time>2020-12-10T09:48:30.000Z</time>
      </trkpt>
      <trkpt lat="47.33326" lon="-2.49105">
        <ele>120.40000152588</ele>
        <time>2020-12-10T09:48:31.000Z</time>
      </trkpt>
      <trkpt lat="47.33329" lon="-2.49109">
        <ele>120.80000305176</ele>
        <time>2020-12-10T09:48:32.000Z</time>
      </trkpt>
      <trkpt lat="47.33332" lon="-2.49113">
        <ele>121.19999694824</ele>
        <time>2020-12-10T09:48:33.000Z</time>
      </trkpt>
      <trkpt lat="47.3335" lon="-2.49143">
        <ele>121.19999694824</ele>
        <time>2020-12-10T09:48:39.000Z</time>
      </trkpt>
      <trkpt lat="47.33367" lon="-2.49176">
        <ele>120.80000305176</ele>
        <time>2020-12-10T09:48:45.000Z</time>
      </trkpt>
      <trkpt lat="47.33369" lon="-2.49182">
        <ele>119.80000305176</ele>
        <time>2020-12-10T09:48:46.000Z</time>
      </trkpt>
      <trkpt lat="47.33372" lon="-2.49189">
        <ele>119.19999694824</ele>
        <time>2020-12-10T09:48:47.000Z</time>
      </trkpt>
      <trkpt lat="47.33374" lon="-2.49196">
        <ele>118.80000305176</ele>
        <time>2020-12-10T09:48:48.000Z</time>
      </trkpt>
      <trkpt lat="47.3338" lon="-2.49217">
        <ele>118.80000305176</ele>
        <time>2020-12-10T09:48:51.000Z</time>
      </trkpt>
      <trkpt lat="47.33382" lon="-2.49231">
        <ele>118.80000305176</ele>
        <time>2020-12-10T09:48:53.000Z</time>
      </trkpt>
      <trkpt lat="47.33389" lon="-2.49277">
        <ele>118.80000305176</ele>
        <time>2020-12-10T09:49:00.000Z</time>
      </trkpt>
      <trkpt lat="47.33391" lon="-2.49283">
        <ele>118.80000305176</ele>
        <time>2020-12-10T09:49:01.000Z</time>
      </trkpt>
      <trkpt lat="47.33397" lon="-2.49296">
        <ele>118.80000305176</ele>
        <time>2020-12-10T09:49:03.000Z</time>
      </trkpt>
      <trkpt lat="47.33402" lon="-2.49308">
        <ele>118.80000305176</ele>
        <time>2020-12-10T09:49:05.000Z</time>
      </trkpt>
      <trkpt lat="47.33416" lon="-2.49349">
        <ele>118.80000305176</ele>
        <time>2020-12-10T09:49:11.000Z</time>
      </trkpt>
      <trkpt lat="47.33418" lon="-2.49357">
        <ele>118.80000305176</ele>
        <time>2020-12-10T09:49:12.000Z</time>
      </trkpt>
      <trkpt lat="47.33424" lon="-2.49396">
        <ele>118.80000305176</ele>
        <time>2020-12-10T09:49:17.000Z</time>
      </trkpt>
      <trkpt lat="47.3343" lon="-2.49448">
        <ele>118.80000305176</ele>
        <time>2020-12-10T09:49:24.000Z</time>
      </trkpt>
      <trkpt lat="47.33437" lon="-2.49504">
        <ele>118.80000305176</ele>
        <time>2020-12-10T09:49:32.000Z</time>
      </trkpt>
      <trkpt lat="47.33441" lon="-2.49545">
        <ele>118.80000305176</ele>
        <time>2020-12-10T09:49:38.000Z</time>
      </trkpt>
      <trkpt lat="47.33442" lon="-2.49551">
        <ele>118.80000305176</ele>
        <time>2020-12-10T09:49:39.000Z</time>
      </trkpt>
      <trkpt lat="47.33445" lon="-2.49572">
        <ele>118.80000305176</ele>
        <time>2020-12-10T09:49:42.000Z</time>
      </trkpt>
      <trkpt lat="47.33448" lon="-2.49592">
        <ele>118.80000305176</ele>
        <time>2020-12-10T09:49:45.000Z</time>
      </trkpt>
      <trkpt lat="47.33456" lon="-2.49644">
        <ele>118.80000305176</ele>
        <time>2020-12-10T09:49:53.000Z</time>
      </trkpt>
      <trkpt lat="47.33471" lon="-2.49686">
        <ele>118.80000305176</ele>
        <time>2020-12-10T09:50:00.000Z</time>
      </trkpt>
      <trkpt lat="47.33489" lon="-2.49732">
        <ele>118.80000305176</ele>
        <time>2020-12-10T09:50:08.000Z</time>
      </trkpt>
      <trkpt lat="47.33504" lon="-2.49767">
        <ele>119.19999694824</ele>
        <time>2020-12-10T09:50:14.000Z</time>
      </trkpt>
      <trkpt lat="47.33506" lon="-2.49773">
        <ele>119.59999847412</ele>
        <time>2020-12-10T09:50:15.000Z</time>
      </trkpt>
      <trkpt lat="47.33509" lon="-2.49778">
        <ele>120</ele>
        <time>2020-12-10T09:50:16.000Z</time>
      </trkpt>
      <trkpt lat="47.33511" lon="-2.49783">
        <ele>120.40000152588</ele>
        <time>2020-12-10T09:50:17.000Z</time>
      </trkpt>
      <trkpt lat="47.33513" lon="-2.49789">
        <ele>120.80000305176</ele>
        <time>2020-12-10T09:50:18.000Z</time>
      </trkpt>
      <trkpt lat="47.33531" lon="-2.49833">
        <ele>120.80000305176</ele>
        <time>2020-12-10T09:50:26.000Z</time>
      </trkpt>
      <trkpt lat="47.33547" lon="-2.4988">
        <ele>120.80000305176</ele>
        <time>2020-12-10T09:50:34.000Z</time>
      </trkpt>
      <trkpt lat="47.33565" lon="-2.4993">
        <ele>120.80000305176</ele>
        <time>2020-12-10T09:50:43.000Z</time>
      </trkpt>
      <trkpt lat="47.33583" lon="-2.49983">
        <ele>120.80000305176</ele>
        <time>2020-12-10T09:50:52.000Z</time>
      </trkpt>
      <trkpt lat="47.33603" lon="-2.50039">
        <ele>120.80000305176</ele>
        <time>2020-12-10T09:51:02.000Z</time>
      </trkpt>
      <trkpt lat="47.33616" lon="-2.5008">
        <ele>120.80000305176</ele>
        <time>2020-12-10T09:51:10.000Z</time>
      </trkpt>
      <trkpt lat="47.33625" lon="-2.50099">
        <ele>120.80000305176</ele>
        <time>2020-12-10T09:51:15.000Z</time>
      </trkpt>
      <trkpt lat="47.33624" lon="-2.50103">
        <ele>120.80000305176</ele>
        <time>2020-12-10T09:51:16.000Z</time>
      </trkpt>
      <trkpt lat="47.33622" lon="-2.50104">
        <ele>120.40000152588</ele>
        <time>2020-12-10T09:51:17.000Z</time>
      </trkpt>
      <trkpt lat="47.3362" lon="-2.50104">
        <ele>119.80000305176</ele>
        <time>2020-12-10T09:51:18.000Z</time>
      </trkpt>
      <trkpt lat="47.33618" lon="-2.50105">
        <ele>119.19999694824</ele>
        <time>2020-12-10T09:51:19.000Z</time>
      </trkpt>
      <trkpt lat="47.33616" lon="-2.50104">
        <ele>118.80000305176</ele>
        <time>2020-12-10T09:51:20.000Z</time>
      </trkpt>
      <trkpt lat="47.33616" lon="-2.50103">
        <ele>118.19999694824</ele>
        <time>2020-12-10T09:51:21.000Z</time>
      </trkpt>
      <trkpt lat="47.33615" lon="-2.50101">
        <ele>118.19999694824</ele>
        <time>2020-12-10T09:51:22.000Z</time>
      </trkpt>
      <trkpt lat="47.33609" lon="-2.50096">
        <ele>118.19999694824</ele>
        <time>2020-12-10T09:51:25.000Z</time>
      </trkpt>
      <trkpt lat="47.33602" lon="-2.5009">
        <ele>118.19999694824</ele>
        <time>2020-12-10T09:51:27.000Z</time>
      </trkpt>
      <trkpt lat="47.33584" lon="-2.50076">
        <ele>118.19999694824</ele>
        <time>2020-12-10T09:51:32.000Z</time>
      </trkpt>
      <trkpt lat="47.33581" lon="-2.50073">
        <ele>118.19999694824</ele>
        <time>2020-12-10T09:51:33.000Z</time>
      </trkpt>
      <trkpt lat="47.33566" lon="-2.50055">
        <ele>118.19999694824</ele>
        <time>2020-12-10T09:51:39.000Z</time>
      </trkpt>
      <trkpt lat="47.33562" lon="-2.50049">
        <ele>118.19999694824</ele>
        <time>2020-12-10T09:51:43.000Z</time>
      </trkpt>
      <trkpt lat="47.3356" lon="-2.50048">
        <ele>118.19999694824</ele>
        <time>2020-12-10T09:51:44.000Z</time>
      </trkpt>
      <trkpt lat="47.33556" lon="-2.50044">
        <ele>118.19999694824</ele>
        <time>2020-12-10T09:51:49.000Z</time>
      </trkpt>
      <trkpt lat="47.33559" lon="-2.50047">
        <ele>118.19999694824</ele>
        <time>2020-12-10T09:51:53.000Z</time>
      </trkpt>
      <trkpt lat="47.33558" lon="-2.5005">
        <ele>118.19999694824</ele>
        <time>2020-12-10T09:51:57.000Z</time>
      </trkpt>
      <trkpt lat="47.33554" lon="-2.50058">
        <ele>118.19999694824</ele>
        <time>2020-12-10T09:52:05.000Z</time>
      </trkpt>
      <trkpt lat="47.33552" lon="-2.50062">
        <ele>118.19999694824</ele>
        <time>2020-12-10T09:52:08.000Z</time>
      </trkpt>
      <trkpt lat="47.33547" lon="-2.50065">
        <ele>118.19999694824</ele>
        <time>2020-12-10T09:52:10.000Z</time>
      </trkpt>
      <trkpt lat="47.3353" lon="-2.50064">
        <ele>118.19999694824</ele>
        <time>2020-12-10T09:52:15.000Z</time>
      </trkpt>
      <trkpt lat="47.3351" lon="-2.50057">
        <ele>118.19999694824</ele>
        <time>2020-12-10T09:52:21.000Z</time>
      </trkpt>
      <trkpt lat="47.33491" lon="-2.50048">
        <ele>118.19999694824</ele>
        <time>2020-12-10T09:52:26.000Z</time>
      </trkpt>
      <trkpt lat="47.33486" lon="-2.50045">
        <ele>118.19999694824</ele>
        <time>2020-12-10T09:52:27.000Z</time>
      </trkpt>
      <trkpt lat="47.33453" lon="-2.50027">
        <ele>118.19999694824</ele>
        <time>2020-12-10T09:52:35.000Z</time>
      </trkpt>
      <trkpt lat="47.33432" lon="-2.50016">
        <ele>118.19999694824</ele>
        <time>2020-12-10T09:52:41.000Z</time>
      </trkpt>
      <trkpt lat="47.33424" lon="-2.50013">
        <ele>118.19999694824</ele>
        <time>2020-12-10T09:52:46.000Z</time>
      </trkpt>
      <trkpt lat="47.3342" lon="-2.50012">
        <ele>118.19999694824</ele>
        <time>2020-12-10T09:52:59.000Z</time>
      </trkpt>
      <trkpt lat="47.33414" lon="-2.5001">
        <ele>118.19999694824</ele>
        <time>2020-12-10T09:53:02.000Z</time>
      </trkpt>
      <trkpt lat="47.33393" lon="-2.50001">
        <ele>118.19999694824</ele>
        <time>2020-12-10T09:53:09.000Z</time>
      </trkpt>
      <trkpt lat="47.3337" lon="-2.49986">
        <ele>118.19999694824</ele>
        <time>2020-12-10T09:53:15.000Z</time>
      </trkpt>
      <trkpt lat="47.33365" lon="-2.49978">
        <ele>118.19999694824</ele>
        <time>2020-12-10T09:53:17.000Z</time>
      </trkpt>
      <trkpt lat="47.33357" lon="-2.49965">
        <ele>118.19999694824</ele>
        <time>2020-12-10T09:53:20.000Z</time>
      </trkpt>
      <trkpt lat="47.33351" lon="-2.49958">
        <ele>118.19999694824</ele>
        <time>2020-12-10T09:53:22.000Z</time>
      </trkpt>
      <trkpt lat="47.33346" lon="-2.49953">
        <ele>118.19999694824</ele>
        <time>2020-12-10T09:53:24.000Z</time>
      </trkpt>
      <trkpt lat="47.33333" lon="-2.49941">
        <ele>118.19999694824</ele>
        <time>2020-12-10T09:53:28.000Z</time>
      </trkpt>
      <trkpt lat="47.33322" lon="-2.49929">
        <ele>118.19999694824</ele>
        <time>2020-12-10T09:53:31.000Z</time>
      </trkpt>
      <trkpt lat="47.33315" lon="-2.49921">
        <ele>118.19999694824</ele>
        <time>2020-12-10T09:53:33.000Z</time>
      </trkpt>
      <trkpt lat="47.33292" lon="-2.49898">
        <ele>118.19999694824</ele>
        <time>2020-12-10T09:53:39.000Z</time>
      </trkpt>
      <trkpt lat="47.33269" lon="-2.49878">
        <ele>118.19999694824</ele>
        <time>2020-12-10T09:53:45.000Z</time>
      </trkpt>
      <trkpt lat="47.33245" lon="-2.4986">
        <ele>118.19999694824</ele>
        <time>2020-12-10T09:53:51.000Z</time>
      </trkpt>
      <trkpt lat="47.33227" lon="-2.49854">
        <ele>118.19999694824</ele>
        <time>2020-12-10T09:53:55.000Z</time>
      </trkpt>
      <trkpt lat="47.33222" lon="-2.49853">
        <ele>118.19999694824</ele>
        <time>2020-12-10T09:53:56.000Z</time>
      </trkpt>
      <trkpt lat="47.3321" lon="-2.49847">
        <ele>118.19999694824</ele>
        <time>2020-12-10T09:54:00.000Z</time>
      </trkpt>
      <trkpt lat="47.33202" lon="-2.49841">
        <ele>118.19999694824</ele>
        <time>2020-12-10T09:54:02.000Z</time>
      </trkpt>
      <trkpt lat="47.33187" lon="-2.49827">
        <ele>118.19999694824</ele>
        <time>2020-12-10T09:54:06.000Z</time>
      </trkpt>
      <trkpt lat="47.33162" lon="-2.49807">
        <ele>118.19999694824</ele>
        <time>2020-12-10T09:54:12.000Z</time>
      </trkpt>
      <trkpt lat="47.33137" lon="-2.49795">
        <ele>118.19999694824</ele>
        <time>2020-12-10T09:54:18.000Z</time>
      </trkpt>
      <trkpt lat="47.33109" lon="-2.49795">
        <ele>118.19999694824</ele>
        <time>2020-12-10T09:54:24.000Z</time>
      </trkpt>
      <trkpt lat="47.3309" lon="-2.49788">
        <ele>118.19999694824</ele>
        <time>2020-12-10T09:54:28.000Z</time>
      </trkpt>
      <trkpt lat="47.33082" lon="-2.49782">
        <ele>118.19999694824</ele>
        <time>2020-12-10T09:54:30.000Z</time>
      </trkpt>
      <trkpt lat="47.33065" lon="-2.49774">
        <ele>118.19999694824</ele>
        <time>2020-12-10T09:54:34.000Z</time>
      </trkpt>
      <trkpt lat="47.33058" lon="-2.49768">
        <ele>118.19999694824</ele>
        <time>2020-12-10T09:54:36.000Z</time>
      </trkpt>
      <trkpt lat="47.33049" lon="-2.49754">
        <ele>118.19999694824</ele>
        <time>2020-12-10T09:54:39.000Z</time>
      </trkpt>
      <trkpt lat="47.33046" lon="-2.49752">
        <ele>118.19999694824</ele>
        <time>2020-12-10T09:54:40.000Z</time>
      </trkpt>
      <trkpt lat="47.33033" lon="-2.49755">
        <ele>118.19999694824</ele>
        <time>2020-12-10T09:54:43.000Z</time>
      </trkpt>
      <trkpt lat="47.33029" lon="-2.49757">
        <ele>118.19999694824</ele>
        <time>2020-12-10T09:54:44.000Z</time>
      </trkpt>
      <trkpt lat="47.33009" lon="-2.49761">
        <ele>118.19999694824</ele>
        <time>2020-12-10T09:54:49.000Z</time>
      </trkpt>
      <trkpt lat="47.33006" lon="-2.49763">
        <ele>118.19999694824</ele>
        <time>2020-12-10T09:54:50.000Z</time>
      </trkpt>
      <trkpt lat="47.32989" lon="-2.49765">
        <ele>118.19999694824</ele>
        <time>2020-12-10T09:54:54.000Z</time>
      </trkpt>
      <trkpt lat="47.32972" lon="-2.49768">
        <ele>118.19999694824</ele>
        <time>2020-12-10T09:54:59.000Z</time>
      </trkpt>
      <trkpt lat="47.32957" lon="-2.4976">
        <ele>118.19999694824</ele>
        <time>2020-12-10T09:55:03.000Z</time>
      </trkpt>
      <trkpt lat="47.32946" lon="-2.4975">
        <ele>118.19999694824</ele>
        <time>2020-12-10T09:55:06.000Z</time>
      </trkpt>
      <trkpt lat="47.32937" lon="-2.49744">
        <ele>118.19999694824</ele>
        <time>2020-12-10T09:55:08.000Z</time>
      </trkpt>
      <trkpt lat="47.32929" lon="-2.49741">
        <ele>118.19999694824</ele>
        <time>2020-12-10T09:55:10.000Z</time>
      </trkpt>
      <trkpt lat="47.32915" lon="-2.49741">
        <ele>118.19999694824</ele>
        <time>2020-12-10T09:55:13.000Z</time>
      </trkpt>
      <trkpt lat="47.329" lon="-2.49746">
        <ele>118.19999694824</ele>
        <time>2020-12-10T09:55:16.000Z</time>
      </trkpt>
      <trkpt lat="47.32896" lon="-2.49749">
        <ele>118.19999694824</ele>
        <time>2020-12-10T09:55:17.000Z</time>
      </trkpt>
      <trkpt lat="47.32892" lon="-2.49752">
        <ele>118.19999694824</ele>
        <time>2020-12-10T09:55:18.000Z</time>
      </trkpt>
      <trkpt lat="47.32888" lon="-2.49756">
        <ele>118.19999694824</ele>
        <time>2020-12-10T09:55:19.000Z</time>
      </trkpt>
      <trkpt lat="47.32872" lon="-2.49768">
        <ele>118.19999694824</ele>
        <time>2020-12-10T09:55:23.000Z</time>
      </trkpt>
      <trkpt lat="47.32868" lon="-2.49769">
        <ele>118.19999694824</ele>
        <time>2020-12-10T09:55:24.000Z</time>
      </trkpt>
      <trkpt lat="47.32847" lon="-2.49769">
        <ele>118.19999694824</ele>
        <time>2020-12-10T09:55:29.000Z</time>
      </trkpt>
      <trkpt lat="47.32843" lon="-2.49767">
        <ele>118.19999694824</ele>
        <time>2020-12-10T09:55:30.000Z</time>
      </trkpt>
      <trkpt lat="47.32819" lon="-2.4976">
        <ele>118.19999694824</ele>
        <time>2020-12-10T09:55:35.000Z</time>
      </trkpt>
      <trkpt lat="47.32804" lon="-2.49757">
        <ele>118.19999694824</ele>
        <time>2020-12-10T09:55:38.000Z</time>
      </trkpt>
      <trkpt lat="47.3279" lon="-2.49755">
        <ele>118.19999694824</ele>
        <time>2020-12-10T09:55:41.000Z</time>
      </trkpt>
      <trkpt lat="47.32772" lon="-2.49748">
        <ele>118.19999694824</ele>
        <time>2020-12-10T09:55:45.000Z</time>
      </trkpt>
      <trkpt lat="47.32767" lon="-2.49746">
        <ele>118.19999694824</ele>
        <time>2020-12-10T09:55:46.000Z</time>
      </trkpt>
      <trkpt lat="47.32763" lon="-2.49745">
        <ele>118.19999694824</ele>
        <time>2020-12-10T09:55:47.000Z</time>
      </trkpt>
      <trkpt lat="47.32752" lon="-2.49741">
        <ele>118.19999694824</ele>
        <time>2020-12-10T09:55:49.000Z</time>
      </trkpt>
      <trkpt lat="47.32741" lon="-2.4974">
        <ele>118.19999694824</ele>
        <time>2020-12-10T09:55:51.000Z</time>
      </trkpt>
      <trkpt lat="47.32719" lon="-2.49736">
        <ele>118.19999694824</ele>
        <time>2020-12-10T09:55:56.000Z</time>
      </trkpt>
      <trkpt lat="47.32703" lon="-2.49727">
        <ele>118.19999694824</ele>
        <time>2020-12-10T09:56:00.000Z</time>
      </trkpt>
      <trkpt lat="47.32691" lon="-2.49719">
        <ele>118.59999847412</ele>
        <time>2020-12-10T09:56:03.000Z</time>
      </trkpt>
      <trkpt lat="47.32688" lon="-2.49717">
        <ele>119</ele>
        <time>2020-12-10T09:56:04.000Z</time>
      </trkpt>
      <trkpt lat="47.32684" lon="-2.49714">
        <ele>119.40000152588</ele>
        <time>2020-12-10T09:56:05.000Z</time>
      </trkpt>
      <trkpt lat="47.3268" lon="-2.49711">
        <ele>119.80000305176</ele>
        <time>2020-12-10T09:56:06.000Z</time>
      </trkpt>
      <trkpt lat="47.32676" lon="-2.49708">
        <ele>120.19999694824</ele>
        <time>2020-12-10T09:56:07.000Z</time>
      </trkpt>
      <trkpt lat="47.32658" lon="-2.49694">
        <ele>120.19999694824</ele>
        <time>2020-12-10T09:56:12.000Z</time>
      </trkpt>
      <trkpt lat="47.3265" lon="-2.49689">
        <ele>120.19999694824</ele>
        <time>2020-12-10T09:56:14.000Z</time>
      </trkpt>
      <trkpt lat="47.32636" lon="-2.49683">
        <ele>120.19999694824</ele>
        <time>2020-12-10T09:56:17.000Z</time>
      </trkpt>
      <trkpt lat="47.32622" lon="-2.49675">
        <ele>120.19999694824</ele>
        <time>2020-12-10T09:56:20.000Z</time>
      </trkpt>
      <trkpt lat="47.32606" lon="-2.4967">
        <ele>120.19999694824</ele>
        <time>2020-12-10T09:56:23.000Z</time>
      </trkpt>
      <trkpt lat="47.32585" lon="-2.49664">
        <ele>120.19999694824</ele>
        <time>2020-12-10T09:56:27.000Z</time>
      </trkpt>
      <trkpt lat="47.32564" lon="-2.49655">
        <ele>120.19999694824</ele>
        <time>2020-12-10T09:56:31.000Z</time>
      </trkpt>
      <trkpt lat="47.32545" lon="-2.49648">
        <ele>120.19999694824</ele>
        <time>2020-12-10T09:56:35.000Z</time>
      </trkpt>
      <trkpt lat="47.32541" lon="-2.49645">
        <ele>121</ele>
        <time>2020-12-10T09:56:36.000Z</time>
      </trkpt>
      <trkpt lat="47.32537" lon="-2.4964">
        <ele>121.59999847412</ele>
        <time>2020-12-10T09:56:37.000Z</time>
      </trkpt>
      <trkpt lat="47.32534" lon="-2.49634">
        <ele>122</ele>
        <time>2020-12-10T09:56:38.000Z</time>
      </trkpt>
      <trkpt lat="47.3253" lon="-2.49628">
        <ele>122.40000152588</ele>
        <time>2020-12-10T09:56:39.000Z</time>
      </trkpt>
      <trkpt lat="47.32524" lon="-2.49621">
        <ele>122.40000152588</ele>
        <time>2020-12-10T09:56:40.000Z</time>
      </trkpt>
      <trkpt lat="47.32519" lon="-2.49616">
        <ele>122.40000152588</ele>
        <time>2020-12-10T09:56:41.000Z</time>
      </trkpt>
      <trkpt lat="47.3251" lon="-2.49605">
        <ele>122.40000152588</ele>
        <time>2020-12-10T09:56:43.000Z</time>
      </trkpt>
      <trkpt lat="47.32505" lon="-2.49602">
        <ele>122.40000152588</ele>
        <time>2020-12-10T09:56:44.000Z</time>
      </trkpt>
      <trkpt lat="47.32493" lon="-2.49597">
        <ele>122.40000152588</ele>
        <time>2020-12-10T09:56:46.000Z</time>
      </trkpt>
      <trkpt lat="47.32482" lon="-2.49595">
        <ele>122.40000152588</ele>
        <time>2020-12-10T09:56:48.000Z</time>
      </trkpt>
      <trkpt lat="47.32476" lon="-2.49594">
        <ele>122.40000152588</ele>
        <time>2020-12-10T09:56:49.000Z</time>
      </trkpt>
      <trkpt lat="47.32465" lon="-2.49592">
        <ele>122.40000152588</ele>
        <time>2020-12-10T09:56:51.000Z</time>
      </trkpt>
      <trkpt lat="47.32454" lon="-2.49587">
        <ele>122.40000152588</ele>
        <time>2020-12-10T09:56:53.000Z</time>
      </trkpt>
      <trkpt lat="47.32445" lon="-2.49584">
        <ele>122.40000152588</ele>
        <time>2020-12-10T09:56:55.000Z</time>
      </trkpt>
      <trkpt lat="47.32441" lon="-2.49582">
        <ele>122.40000152588</ele>
        <time>2020-12-10T09:56:56.000Z</time>
      </trkpt>
      <trkpt lat="47.32431" lon="-2.4958">
        <ele>122.40000152588</ele>
        <time>2020-12-10T09:56:58.000Z</time>
      </trkpt>
      <trkpt lat="47.32421" lon="-2.49588">
        <ele>122.40000152588</ele>
        <time>2020-12-10T09:57:00.000Z</time>
      </trkpt>
      <trkpt lat="47.32409" lon="-2.49612">
        <ele>122.40000152588</ele>
        <time>2020-12-10T09:57:04.000Z</time>
      </trkpt>
      <trkpt lat="47.32407" lon="-2.49619">
        <ele>122.40000152588</ele>
        <time>2020-12-10T09:57:05.000Z</time>
      </trkpt>
      <trkpt lat="47.32405" lon="-2.49625">
        <ele>122.40000152588</ele>
        <time>2020-12-10T09:57:06.000Z</time>
      </trkpt>
      <trkpt lat="47.32401" lon="-2.4964">
        <ele>122.40000152588</ele>
        <time>2020-12-10T09:57:09.000Z</time>
      </trkpt>
      <trkpt lat="47.32399" lon="-2.49645">
        <ele>122.40000152588</ele>
        <time>2020-12-10T09:57:10.000Z</time>
      </trkpt>
      <trkpt lat="47.32395" lon="-2.49664">
        <ele>122.40000152588</ele>
        <time>2020-12-10T09:57:15.000Z</time>
      </trkpt>
      <trkpt lat="47.32393" lon="-2.49676">
        <ele>122.40000152588</ele>
        <time>2020-12-10T09:57:21.000Z</time>
      </trkpt>
      <trkpt lat="47.32392" lon="-2.49689">
        <ele>122.40000152588</ele>
        <time>2020-12-10T09:57:26.000Z</time>
      </trkpt>
      <trkpt lat="47.3239" lon="-2.49708">
        <ele>122.40000152588</ele>
        <time>2020-12-10T09:57:30.000Z</time>
      </trkpt>
      <trkpt lat="47.32381" lon="-2.49733">
        <ele>122.40000152588</ele>
        <time>2020-12-10T09:57:36.000Z</time>
      </trkpt>
      <trkpt lat="47.32376" lon="-2.49763">
        <ele>122.40000152588</ele>
        <time>2020-12-10T09:57:41.000Z</time>
      </trkpt>
      <trkpt lat="47.32373" lon="-2.49785">
        <ele>122.40000152588</ele>
        <time>2020-12-10T09:57:46.000Z</time>
      </trkpt>
      <trkpt lat="47.32373" lon="-2.49797">
        <ele>122.40000152588</ele>
        <time>2020-12-10T09:57:48.000Z</time>
      </trkpt>
      <trkpt lat="47.32377" lon="-2.49808">
        <ele>122.40000152588</ele>
        <time>2020-12-10T09:57:50.000Z</time>
      </trkpt>
      <trkpt lat="47.32378" lon="-2.4982">
        <ele>122.40000152588</ele>
        <time>2020-12-10T09:57:52.000Z</time>
      </trkpt>
      <trkpt lat="47.3238" lon="-2.49833">
        <ele>122.40000152588</ele>
        <time>2020-12-10T09:57:54.000Z</time>
      </trkpt>
      <trkpt lat="47.32388" lon="-2.49855">
        <ele>122.40000152588</ele>
        <time>2020-12-10T09:57:58.000Z</time>
      </trkpt>
      <trkpt lat="47.32395" lon="-2.4986">
        <ele>122.40000152588</ele>
        <time>2020-12-10T09:58:00.000Z</time>
      </trkpt>
      <trkpt lat="47.32403" lon="-2.4987">
        <ele>122.40000152588</ele>
        <time>2020-12-10T09:58:03.000Z</time>
      </trkpt>
      <trkpt lat="47.32406" lon="-2.49873">
        <ele>122.40000152588</ele>
        <time>2020-12-10T09:58:04.000Z</time>
      </trkpt>
      <trkpt lat="47.32421" lon="-2.49877">
        <ele>122.40000152588</ele>
        <time>2020-12-10T09:58:08.000Z</time>
      </trkpt>
      <trkpt lat="47.32437" lon="-2.49874">
        <ele>122.40000152588</ele>
        <time>2020-12-10T09:58:12.000Z</time>
      </trkpt>
      <trkpt lat="47.32452" lon="-2.4988">
        <ele>122.40000152588</ele>
        <time>2020-12-10T09:58:16.000Z</time>
      </trkpt>
      <trkpt lat="47.32456" lon="-2.49884">
        <ele>122.40000152588</ele>
        <time>2020-12-10T09:58:17.000Z</time>
      </trkpt>
      <trkpt lat="47.32463" lon="-2.49899">
        <ele>122.40000152588</ele>
        <time>2020-12-10T09:58:20.000Z</time>
      </trkpt>
      <trkpt lat="47.32463" lon="-2.49904">
        <ele>122.40000152588</ele>
        <time>2020-12-10T09:58:21.000Z</time>
      </trkpt>
      <trkpt lat="47.32459" lon="-2.49912">
        <ele>122.40000152588</ele>
        <time>2020-12-10T09:58:23.000Z</time>
      </trkpt>
      <trkpt lat="47.3245" lon="-2.49931">
        <ele>122.40000152588</ele>
        <time>2020-12-10T09:58:28.000Z</time>
      </trkpt>
      <trkpt lat="47.32437" lon="-2.49943">
        <ele>122.40000152588</ele>
        <time>2020-12-10T09:58:33.000Z</time>
      </trkpt>
      <trkpt lat="47.32414" lon="-2.49955">
        <ele>122.40000152588</ele>
        <time>2020-12-10T09:58:39.000Z</time>
      </trkpt>
      <trkpt lat="47.32396" lon="-2.49959">
        <ele>122.40000152588</ele>
        <time>2020-12-10T09:58:43.000Z</time>
      </trkpt>
      <trkpt lat="47.32392" lon="-2.49958">
        <ele>122.40000152588</ele>
        <time>2020-12-10T09:58:44.000Z</time>
      </trkpt>
      <trkpt lat="47.32387" lon="-2.49956">
        <ele>122.40000152588</ele>
        <time>2020-12-10T09:58:45.000Z</time>
      </trkpt>
      <trkpt lat="47.3237" lon="-2.49947">
        <ele>122.40000152588</ele>
        <time>2020-12-10T09:58:49.000Z</time>
      </trkpt>
      <trkpt lat="47.32364" lon="-2.49947">
        <ele>122.40000152588</ele>
        <time>2020-12-10T09:58:50.000Z</time>
      </trkpt>
      <trkpt lat="47.3235" lon="-2.49947">
        <ele>122.40000152588</ele>
        <time>2020-12-10T09:58:53.000Z</time>
      </trkpt>
      <trkpt lat="47.32329" lon="-2.49944">
        <ele>122.40000152588</ele>
        <time>2020-12-10T09:58:58.000Z</time>
      </trkpt>
      <trkpt lat="47.32325" lon="-2.49942">
        <ele>122.40000152588</ele>
        <time>2020-12-10T09:58:59.000Z</time>
      </trkpt>
      <trkpt lat="47.3231" lon="-2.4993">
        <ele>122.40000152588</ele>
        <time>2020-12-10T09:59:03.000Z</time>
      </trkpt>
      <trkpt lat="47.32303" lon="-2.49922">
        <ele>122.40000152588</ele>
        <time>2020-12-10T09:59:05.000Z</time>
      </trkpt>
      <trkpt lat="47.323" lon="-2.49917">
        <ele>122.40000152588</ele>
        <time>2020-12-10T09:59:06.000Z</time>
      </trkpt>
      <trkpt lat="47.32296" lon="-2.49897">
        <ele>122.40000152588</ele>
        <time>2020-12-10T09:59:10.000Z</time>
      </trkpt>
      <trkpt lat="47.32295" lon="-2.49858">
        <ele>122.40000152588</ele>
        <time>2020-12-10T09:59:16.000Z</time>
      </trkpt>
      <trkpt lat="47.32294" lon="-2.49811">
        <ele>122.40000152588</ele>
        <time>2020-12-10T09:59:22.000Z</time>
      </trkpt>
      <trkpt lat="47.32293" lon="-2.49803">
        <ele>122.40000152588</ele>
        <time>2020-12-10T09:59:23.000Z</time>
      </trkpt>
      <trkpt lat="47.3229" lon="-2.49758">
        <ele>122.40000152588</ele>
        <time>2020-12-10T09:59:28.000Z</time>
      </trkpt>
      <trkpt lat="47.32286" lon="-2.49722">
        <ele>122.40000152588</ele>
        <time>2020-12-10T09:59:32.000Z</time>
      </trkpt>
      <trkpt lat="47.32284" lon="-2.49713">
        <ele>122.40000152588</ele>
        <time>2020-12-10T09:59:33.000Z</time>
      </trkpt>
      <trkpt lat="47.32279" lon="-2.49692">
        <ele>122.40000152588</ele>
        <time>2020-12-10T09:59:36.000Z</time>
      </trkpt>
      <trkpt lat="47.32273" lon="-2.49654">
        <ele>122.40000152588</ele>
        <time>2020-12-10T09:59:41.000Z</time>
      </trkpt>
      <trkpt lat="47.32272" lon="-2.49647">
        <ele>122.40000152588</ele>
        <time>2020-12-10T09:59:42.000Z</time>
      </trkpt>
      <trkpt lat="47.3227" lon="-2.49615">
        <ele>122.40000152588</ele>
        <time>2020-12-10T09:59:46.000Z</time>
      </trkpt>
      <trkpt lat="47.3227" lon="-2.49608">
        <ele>122.40000152588</ele>
        <time>2020-12-10T09:59:47.000Z</time>
      </trkpt>
      <trkpt lat="47.32267" lon="-2.49566">
        <ele>122.40000152588</ele>
        <time>2020-12-10T09:59:53.000Z</time>
      </trkpt>
      <trkpt lat="47.32266" lon="-2.49527">
        <ele>122.40000152588</ele>
        <time>2020-12-10T09:59:59.000Z</time>
      </trkpt>
      <trkpt lat="47.32266" lon="-2.4952">
        <ele>122.40000152588</ele>
        <time>2020-12-10T10:00:00.000Z</time>
      </trkpt>
      <trkpt lat="47.32265" lon="-2.495">
        <ele>122.40000152588</ele>
        <time>2020-12-10T10:00:03.000Z</time>
      </trkpt>
      <trkpt lat="47.32263" lon="-2.49484">
        <ele>122.40000152588</ele>
        <time>2020-12-10T10:00:05.000Z</time>
      </trkpt>
      <trkpt lat="47.3226" lon="-2.49472">
        <ele>122.40000152588</ele>
        <time>2020-12-10T10:00:07.000Z</time>
      </trkpt>
      <trkpt lat="47.32248" lon="-2.4946">
        <ele>122.40000152588</ele>
        <time>2020-12-10T10:00:10.000Z</time>
      </trkpt>
      <trkpt lat="47.32235" lon="-2.49446">
        <ele>122.40000152588</ele>
        <time>2020-12-10T10:00:14.000Z</time>
      </trkpt>
      <trkpt lat="47.32233" lon="-2.49442">
        <ele>122.40000152588</ele>
        <time>2020-12-10T10:00:15.000Z</time>
      </trkpt>
      <trkpt lat="47.32213" lon="-2.49417">
        <ele>122.40000152588</ele>
        <time>2020-12-10T10:00:21.000Z</time>
      </trkpt>
      <trkpt lat="47.32195" lon="-2.49391">
        <ele>122.40000152588</ele>
        <time>2020-12-10T10:00:26.000Z</time>
      </trkpt>
      <trkpt lat="47.32192" lon="-2.49385">
        <ele>122.40000152588</ele>
        <time>2020-12-10T10:00:27.000Z</time>
      </trkpt>
      <trkpt lat="47.32181" lon="-2.49355">
        <ele>122.40000152588</ele>
        <time>2020-12-10T10:00:32.000Z</time>
      </trkpt>
      <trkpt lat="47.32176" lon="-2.49335">
        <ele>122.40000152588</ele>
        <time>2020-12-10T10:00:35.000Z</time>
      </trkpt>
      <trkpt lat="47.32171" lon="-2.49322">
        <ele>122.40000152588</ele>
        <time>2020-12-10T10:00:37.000Z</time>
      </trkpt>
      <trkpt lat="47.32169" lon="-2.49315">
        <ele>122.40000152588</ele>
        <time>2020-12-10T10:00:38.000Z</time>
      </trkpt>
      <trkpt lat="47.32159" lon="-2.49289">
        <ele>122.40000152588</ele>
        <time>2020-12-10T10:00:42.000Z</time>
      </trkpt>
      <trkpt lat="47.32152" lon="-2.49268">
        <ele>122.40000152588</ele>
        <time>2020-12-10T10:00:46.000Z</time>
      </trkpt>
      <trkpt lat="47.32143" lon="-2.49265">
        <ele>122.40000152588</ele>
        <time>2020-12-10T10:00:49.000Z</time>
      </trkpt>
      <trkpt lat="47.32138" lon="-2.49266">
        <ele>122.40000152588</ele>
        <time>2020-12-10T10:00:51.000Z</time>
      </trkpt>
      <trkpt lat="47.3213" lon="-2.49267">
        <ele>122.40000152588</ele>
        <time>2020-12-10T10:00:54.000Z</time>
      </trkpt>
      <trkpt lat="47.32113" lon="-2.49263">
        <ele>122.40000152588</ele>
        <time>2020-12-10T10:00:59.000Z</time>
      </trkpt>
      <trkpt lat="47.321" lon="-2.49258">
        <ele>122.40000152588</ele>
        <time>2020-12-10T10:01:04.000Z</time>
      </trkpt>
      <trkpt lat="47.32089" lon="-2.49251">
        <ele>122.40000152588</ele>
        <time>2020-12-10T10:01:10.000Z</time>
      </trkpt>
      <trkpt lat="47.32085" lon="-2.4925">
        <ele>122.40000152588</ele>
        <time>2020-12-10T10:01:13.000Z</time>
      </trkpt>
      <trkpt lat="47.3208" lon="-2.49243">
        <ele>122.40000152588</ele>
        <time>2020-12-10T10:01:16.000Z</time>
      </trkpt>
      <trkpt lat="47.32077" lon="-2.49239">
        <ele>122.40000152588</ele>
        <time>2020-12-10T10:01:18.000Z</time>
      </trkpt>
      <trkpt lat="47.32072" lon="-2.49233">
        <ele>122.40000152588</ele>
        <time>2020-12-10T10:01:21.000Z</time>
      </trkpt>
      <trkpt lat="47.32062" lon="-2.49226">
        <ele>122.40000152588</ele>
        <time>2020-12-10T10:01:27.000Z</time>
      </trkpt>
      <trkpt lat="47.32055" lon="-2.49221">
        <ele>122.40000152588</ele>
        <time>2020-12-10T10:01:33.000Z</time>
      </trkpt>
      <trkpt lat="47.32053" lon="-2.4922">
        <ele>122.40000152588</ele>
        <time>2020-12-10T10:01:34.000Z</time>
      </trkpt>
      <trkpt lat="47.32049" lon="-2.49215">
        <ele>122.40000152588</ele>
        <time>2020-12-10T10:01:38.000Z</time>
      </trkpt>
      <trkpt lat="47.32048" lon="-2.49212">
        <ele>122.40000152588</ele>
        <time>2020-12-10T10:01:40.000Z</time>
      </trkpt>
      <trkpt lat="47.32047" lon="-2.49206">
        <ele>122</ele>
        <time>2020-12-10T10:01:44.000Z</time>
      </trkpt>
      <trkpt lat="47.32047" lon="-2.49205">
        <ele>121.59999847412</ele>
        <time>2020-12-10T10:01:45.000Z</time>
      </trkpt>
      <trkpt lat="47.32048" lon="-2.49203">
        <ele>121.19999694824</ele>
        <time>2020-12-10T10:01:46.000Z</time>
      </trkpt>
      <trkpt lat="47.32049" lon="-2.49202">
        <ele>120.80000305176</ele>
        <time>2020-12-10T10:01:47.000Z</time>
      </trkpt>
      <trkpt lat="47.32049" lon="-2.492">
        <ele>120.40000152588</ele>
        <time>2020-12-10T10:01:48.000Z</time>
      </trkpt>
      <trkpt lat="47.3205" lon="-2.49198">
        <ele>120.40000152588</ele>
        <time>2020-12-10T10:01:49.000Z</time>
      </trkpt>
      <trkpt lat="47.32052" lon="-2.49189">
        <ele>120.40000152588</ele>
        <time>2020-12-10T10:01:52.000Z</time>
      </trkpt>
      <trkpt lat="47.32062" lon="-2.49167">
        <ele>120.40000152588</ele>
        <time>2020-12-10T10:01:59.000Z</time>
      </trkpt>
      <trkpt lat="47.32077" lon="-2.49143">
        <ele>120.40000152588</ele>
        <time>2020-12-10T10:02:05.000Z</time>
      </trkpt>
      <trkpt lat="47.3209" lon="-2.49125">
        <ele>120.40000152588</ele>
        <time>2020-12-10T10:02:11.000Z</time>
      </trkpt>
      <trkpt lat="47.32098" lon="-2.49114">
        <ele>120.40000152588</ele>
        <time>2020-12-10T10:02:15.000Z</time>
      </trkpt>
      <trkpt lat="47.321" lon="-2.49114">
        <ele>120.40000152588</ele>
        <time>2020-12-10T10:02:16.000Z</time>
      </trkpt>
      <trkpt lat="47.32117" lon="-2.49122">
        <ele>120.40000152588</ele>
        <time>2020-12-10T10:02:22.000Z</time>
      </trkpt>
      <trkpt lat="47.32133" lon="-2.49123">
        <ele>120.40000152588</ele>
        <time>2020-12-10T10:02:28.000Z</time>
      </trkpt>
      <trkpt lat="47.32137" lon="-2.49115">
        <ele>120.40000152588</ele>
        <time>2020-12-10T10:02:31.000Z</time>
      </trkpt>
      <trkpt lat="47.32144" lon="-2.49095">
        <ele>120.40000152588</ele>
        <time>2020-12-10T10:02:36.000Z</time>
      </trkpt>
      <trkpt lat="47.32145" lon="-2.49091">
        <ele>120.40000152588</ele>
        <time>2020-12-10T10:02:37.000Z</time>
      </trkpt>
      <trkpt lat="47.32149" lon="-2.49064">
        <ele>120.40000152588</ele>
        <time>2020-12-10T10:02:44.000Z</time>
      </trkpt>
      <trkpt lat="47.32147" lon="-2.49048">
        <ele>120.40000152588</ele>
        <time>2020-12-10T10:02:48.000Z</time>
      </trkpt>
      <trkpt lat="47.32146" lon="-2.49046">
        <ele>120.40000152588</ele>
        <time>2020-12-10T10:02:49.000Z</time>
      </trkpt>
      <trkpt lat="47.32142" lon="-2.49043">
        <ele>120.40000152588</ele>
        <time>2020-12-10T10:02:53.000Z</time>
      </trkpt>
      <trkpt lat="47.3214" lon="-2.49042">
        <ele>120.40000152588</ele>
        <time>2020-12-10T10:02:57.000Z</time>
      </trkpt>
      <trkpt lat="47.32133" lon="-2.4903">
        <ele>120.40000152588</ele>
        <time>2020-12-10T10:03:03.000Z</time>
      </trkpt>
      <trkpt lat="47.32133" lon="-2.4903">
        <ele>120.40000152588</ele>
        <time>2020-12-10T10:03:04.000Z</time>
      </trkpt>
      <trkpt lat="47.32134" lon="-2.49024">
        <ele>120.40000152588</ele>
        <time>2020-12-10T10:14:01.000Z</time>
      </trkpt>
      <trkpt lat="47.32136" lon="-2.49019">
        <ele>120.40000152588</ele>
        <time>2020-12-10T10:14:03.000Z</time>
      </trkpt>
      <trkpt lat="47.32138" lon="-2.49">
        <ele>120.40000152588</ele>
        <time>2020-12-10T10:14:08.000Z</time>
      </trkpt>
      <trkpt lat="47.32137" lon="-2.48972">
        <ele>120.40000152588</ele>
        <time>2020-12-10T10:14:13.000Z</time>
      </trkpt>
      <trkpt lat="47.32139" lon="-2.48943">
        <ele>120.40000152588</ele>
        <time>2020-12-10T10:14:18.000Z</time>
      </trkpt>
      <trkpt lat="47.32145" lon="-2.4891">
        <ele>120.40000152588</ele>
        <time>2020-12-10T10:14:24.000Z</time>
      </trkpt>
      <trkpt lat="47.3216" lon="-2.4888">
        <ele>120.40000152588</ele>
        <time>2020-12-10T10:14:32.000Z</time>
      </trkpt>
      <trkpt lat="47.3218" lon="-2.48843">
        <ele>120.40000152588</ele>
        <time>2020-12-10T10:14:40.000Z</time>
      </trkpt>
      <trkpt lat="47.32188" lon="-2.48829">
        <ele>120.80000305176</ele>
        <time>2020-12-10T10:14:43.000Z</time>
      </trkpt>
      <trkpt lat="47.3219" lon="-2.48825">
        <ele>121.59999847412</ele>
        <time>2020-12-10T10:14:44.000Z</time>
      </trkpt>
      <trkpt lat="47.32193" lon="-2.4882">
        <ele>122</ele>
        <time>2020-12-10T10:14:45.000Z</time>
      </trkpt>
      <trkpt lat="47.32196" lon="-2.48815">
        <ele>122.40000152588</ele>
        <time>2020-12-10T10:14:46.000Z</time>
      </trkpt>
      <trkpt lat="47.32206" lon="-2.48801">
        <ele>122.40000152588</ele>
        <time>2020-12-10T10:14:49.000Z</time>
      </trkpt>
      <trkpt lat="47.32212" lon="-2.48791">
        <ele>122.40000152588</ele>
        <time>2020-12-10T10:14:51.000Z</time>
      </trkpt>
      <trkpt lat="47.32219" lon="-2.48776">
        <ele>122.40000152588</ele>
        <time>2020-12-10T10:14:54.000Z</time>
      </trkpt>
      <trkpt lat="47.32232" lon="-2.48746">
        <ele>122.40000152588</ele>
        <time>2020-12-10T10:14:59.000Z</time>
      </trkpt>
      <trkpt lat="47.32234" lon="-2.48739">
        <ele>122.40000152588</ele>
        <time>2020-12-10T10:15:00.000Z</time>
      </trkpt>
      <trkpt lat="47.32245" lon="-2.48689">
        <ele>122.40000152588</ele>
        <time>2020-12-10T10:15:08.000Z</time>
      </trkpt>
      <trkpt lat="47.32258" lon="-2.48662">
        <ele>122.40000152588</ele>
        <time>2020-12-10T10:15:13.000Z</time>
      </trkpt>
      <trkpt lat="47.32262" lon="-2.48658">
        <ele>122.40000152588</ele>
        <time>2020-12-10T10:15:14.000Z</time>
      </trkpt>
      <trkpt lat="47.32269" lon="-2.4865">
        <ele>122.40000152588</ele>
        <time>2020-12-10T10:15:16.000Z</time>
      </trkpt>
      <trkpt lat="47.32281" lon="-2.4864">
        <ele>122.40000152588</ele>
        <time>2020-12-10T10:15:19.000Z</time>
      </trkpt>
      <trkpt lat="47.32324" lon="-2.48609">
        <ele>122.40000152588</ele>
        <time>2020-12-10T10:15:29.000Z</time>
      </trkpt>
      <trkpt lat="47.32362" lon="-2.48583">
        <ele>122.40000152588</ele>
        <time>2020-12-10T10:15:38.000Z</time>
      </trkpt>
      <trkpt lat="47.32371" lon="-2.48578">
        <ele>122.40000152588</ele>
        <time>2020-12-10T10:15:40.000Z</time>
      </trkpt>
      <trkpt lat="47.32393" lon="-2.48569">
        <ele>122.40000152588</ele>
        <time>2020-12-10T10:15:45.000Z</time>
      </trkpt>
      <trkpt lat="47.3241" lon="-2.48565">
        <ele>122.40000152588</ele>
        <time>2020-12-10T10:15:49.000Z</time>
      </trkpt>
      <trkpt lat="47.32418" lon="-2.48567">
        <ele>122.40000152588</ele>
        <time>2020-12-10T10:15:51.000Z</time>
      </trkpt>
      <trkpt lat="47.32443" lon="-2.48572">
        <ele>122.40000152588</ele>
        <time>2020-12-10T10:15:57.000Z</time>
      </trkpt>
      <trkpt lat="47.32475" lon="-2.48588">
        <ele>122.40000152588</ele>
        <time>2020-12-10T10:16:05.000Z</time>
      </trkpt>
      <trkpt lat="47.32504" lon="-2.48614">
        <ele>122.40000152588</ele>
        <time>2020-12-10T10:16:12.000Z</time>
      </trkpt>
      <trkpt lat="47.32542" lon="-2.48651">
        <ele>122.40000152588</ele>
        <time>2020-12-10T10:16:21.000Z</time>
      </trkpt>
      <trkpt lat="47.3255" lon="-2.48658">
        <ele>122.40000152588</ele>
        <time>2020-12-10T10:16:23.000Z</time>
      </trkpt>
      <trkpt lat="47.32568" lon="-2.48668">
        <ele>122.40000152588</ele>
        <time>2020-12-10T10:16:27.000Z</time>
      </trkpt>
      <trkpt lat="47.32582" lon="-2.48671">
        <ele>122.40000152588</ele>
        <time>2020-12-10T10:16:30.000Z</time>
      </trkpt>
      <trkpt lat="47.32595" lon="-2.48672">
        <ele>122.40000152588</ele>
        <time>2020-12-10T10:16:32.000Z</time>
      </trkpt>
      <trkpt lat="47.32625" lon="-2.48666">
        <ele>122.40000152588</ele>
        <time>2020-12-10T10:16:38.000Z</time>
      </trkpt>
      <trkpt lat="47.32667" lon="-2.48647">
        <ele>122.40000152588</ele>
        <time>2020-12-10T10:16:47.000Z</time>
      </trkpt>
      <trkpt lat="47.32702" lon="-2.4863">
        <ele>122.40000152588</ele>
        <time>2020-12-10T10:16:54.000Z</time>
      </trkpt>
      <trkpt lat="47.32749" lon="-2.48602">
        <ele>122.40000152588</ele>
        <time>2020-12-10T10:17:03.000Z</time>
      </trkpt>
      <trkpt lat="47.32786" lon="-2.48588">
        <ele>122.40000152588</ele>
        <time>2020-12-10T10:17:10.000Z</time>
      </trkpt>
      <trkpt lat="47.32823" lon="-2.48587">
        <ele>122.40000152588</ele>
        <time>2020-12-10T10:17:17.000Z</time>
      </trkpt>
      <trkpt lat="47.32866" lon="-2.48589">
        <ele>122.40000152588</ele>
        <time>2020-12-10T10:17:25.000Z</time>
      </trkpt>
      <trkpt lat="47.32883" lon="-2.48587">
        <ele>122.40000152588</ele>
        <time>2020-12-10T10:17:28.000Z</time>
      </trkpt>
      <trkpt lat="47.32893" lon="-2.48583">
        <ele>122.40000152588</ele>
        <time>2020-12-10T10:17:30.000Z</time>
      </trkpt>
      <trkpt lat="47.32911" lon="-2.48568">
        <ele>122.40000152588</ele>
        <time>2020-12-10T10:17:34.000Z</time>
      </trkpt>
      <trkpt lat="47.32915" lon="-2.48563">
        <ele>122.40000152588</ele>
        <time>2020-12-10T10:17:35.000Z</time>
      </trkpt>
      <trkpt lat="47.32919" lon="-2.48558">
        <ele>122.40000152588</ele>
        <time>2020-12-10T10:17:36.000Z</time>
      </trkpt>
      <trkpt lat="47.3293" lon="-2.48543">
        <ele>122.40000152588</ele>
        <time>2020-12-10T10:17:39.000Z</time>
      </trkpt>
      <trkpt lat="47.32939" lon="-2.48533">
        <ele>122.40000152588</ele>
        <time>2020-12-10T10:17:41.000Z</time>
      </trkpt>
      <trkpt lat="47.32975" lon="-2.48496">
        <ele>122.40000152588</ele>
        <time>2020-12-10T10:17:49.000Z</time>
      </trkpt>
      <trkpt lat="47.33019" lon="-2.48466">
        <ele>122.40000152588</ele>
        <time>2020-12-10T10:17:57.000Z</time>
      </trkpt>
      <trkpt lat="47.33074" lon="-2.48432">
        <ele>122.40000152588</ele>
        <time>2020-12-10T10:18:07.000Z</time>
      </trkpt>
      <trkpt lat="47.3312" lon="-2.484">
        <ele>122.40000152588</ele>
        <time>2020-12-10T10:18:16.000Z</time>
      </trkpt>
      <trkpt lat="47.33139" lon="-2.48373">
        <ele>122.40000152588</ele>
        <time>2020-12-10T10:18:21.000Z</time>
      </trkpt>
      <trkpt lat="47.33141" lon="-2.48366">
        <ele>122.40000152588</ele>
        <time>2020-12-10T10:18:22.000Z</time>
      </trkpt>
      <trkpt lat="47.33146" lon="-2.48343">
        <ele>122.40000152588</ele>
        <time>2020-12-10T10:18:26.000Z</time>
      </trkpt>
      <trkpt lat="47.33146" lon="-2.4832">
        <ele>122</ele>
        <time>2020-12-10T10:18:30.000Z</time>
      </trkpt>
      <trkpt lat="47.33146" lon="-2.48314">
        <ele>121.59999847412</ele>
        <time>2020-12-10T10:18:31.000Z</time>
      </trkpt>
      <trkpt lat="47.33146" lon="-2.48308">
        <ele>121.19999694824</ele>
        <time>2020-12-10T10:18:32.000Z</time>
      </trkpt>
      <trkpt lat="47.33146" lon="-2.48302">
        <ele>120.80000305176</ele>
        <time>2020-12-10T10:18:33.000Z</time>
      </trkpt>
      <trkpt lat="47.33146" lon="-2.48295">
        <ele>120.40000152588</ele>
        <time>2020-12-10T10:18:34.000Z</time>
      </trkpt>
      <trkpt lat="47.33144" lon="-2.48258">
        <ele>120.40000152588</ele>
        <time>2020-12-10T10:18:40.000Z</time>
      </trkpt>
      <trkpt lat="47.33143" lon="-2.48228">
        <ele>120.40000152588</ele>
        <time>2020-12-10T10:18:45.000Z</time>
      </trkpt>
      <trkpt lat="47.33142" lon="-2.48222">
        <ele>120.40000152588</ele>
        <time>2020-12-10T10:18:46.000Z</time>
      </trkpt>
      <trkpt lat="47.33142" lon="-2.48172">
        <ele>120.40000152588</ele>
        <time>2020-12-10T10:18:53.000Z</time>
      </trkpt>
      <trkpt lat="47.33143" lon="-2.48106">
        <ele>120.40000152588</ele>
        <time>2020-12-10T10:19:01.000Z</time>
      </trkpt>
      <trkpt lat="47.33146" lon="-2.48035">
        <ele>120.40000152588</ele>
        <time>2020-12-10T10:19:10.000Z</time>
      </trkpt>
      <trkpt lat="47.33149" lon="-2.47972">
        <ele>120.40000152588</ele>
        <time>2020-12-10T10:19:18.000Z</time>
      </trkpt>
      <trkpt lat="47.33152" lon="-2.4793">
        <ele>120.40000152588</ele>
        <time>2020-12-10T10:19:24.000Z</time>
      </trkpt>
      <trkpt lat="47.33154" lon="-2.47925">
        <ele>120.40000152588</ele>
        <time>2020-12-10T10:19:25.000Z</time>
      </trkpt>
      <trkpt lat="47.33175" lon="-2.47887">
        <ele>120.40000152588</ele>
        <time>2020-12-10T10:19:32.000Z</time>
      </trkpt>
      <trkpt lat="47.33198" lon="-2.47849">
        <ele>120.40000152588</ele>
        <time>2020-12-10T10:19:39.000Z</time>
      </trkpt>
      <trkpt lat="47.33205" lon="-2.47841">
        <ele>120.40000152588</ele>
        <time>2020-12-10T10:19:41.000Z</time>
      </trkpt>
      <trkpt lat="47.3322" lon="-2.47825">
        <ele>120.40000152588</ele>
        <time>2020-12-10T10:19:45.000Z</time>
      </trkpt>
      <trkpt lat="47.33245" lon="-2.47795">
        <ele>120.40000152588</ele>
        <time>2020-12-10T10:19:52.000Z</time>
      </trkpt>
      <trkpt lat="47.33273" lon="-2.47764">
        <ele>120.40000152588</ele>
        <time>2020-12-10T10:20:00.000Z</time>
      </trkpt>
      <trkpt lat="47.33289" lon="-2.47752">
        <ele>120.80000305176</ele>
        <time>2020-12-10T10:20:05.000Z</time>
      </trkpt>
      <trkpt lat="47.33292" lon="-2.47749">
        <ele>121.19999694824</ele>
        <time>2020-12-10T10:20:06.000Z</time>
      </trkpt>
      <trkpt lat="47.33296" lon="-2.47746">
        <ele>121.59999847412</ele>
        <time>2020-12-10T10:20:07.000Z</time>
      </trkpt>
      <trkpt lat="47.33299" lon="-2.47744">
        <ele>122</ele>
        <time>2020-12-10T10:20:08.000Z</time>
      </trkpt>
      <trkpt lat="47.33302" lon="-2.47742">
        <ele>122.40000152588</ele>
        <time>2020-12-10T10:20:09.000Z</time>
      </trkpt>
      <trkpt lat="47.33313" lon="-2.47735">
        <ele>122.40000152588</ele>
        <time>2020-12-10T10:20:13.000Z</time>
      </trkpt>
      <trkpt lat="47.33327" lon="-2.47724">
        <ele>122.40000152588</ele>
        <time>2020-12-10T10:20:19.000Z</time>
      </trkpt>
      <trkpt lat="47.33346" lon="-2.47708">
        <ele>122.40000152588</ele>
        <time>2020-12-10T10:20:27.000Z</time>
      </trkpt>
      <trkpt lat="47.33354" lon="-2.47701">
        <ele>122.40000152588</ele>
        <time>2020-12-10T10:20:32.000Z</time>
      </trkpt>
      <trkpt lat="47.33358" lon="-2.47697">
        <ele>122.80000305176</ele>
        <time>2020-12-10T10:20:34.000Z</time>
      </trkpt>
      <trkpt lat="47.3336" lon="-2.47696">
        <ele>123.19999694824</ele>
        <time>2020-12-10T10:20:35.000Z</time>
      </trkpt>
      <trkpt lat="47.33362" lon="-2.47694">
        <ele>123.59999847412</ele>
        <time>2020-12-10T10:20:36.000Z</time>
      </trkpt>
      <trkpt lat="47.33364" lon="-2.47692">
        <ele>124</ele>
        <time>2020-12-10T10:20:37.000Z</time>
      </trkpt>
      <trkpt lat="47.33366" lon="-2.4769">
        <ele>124.40000152588</ele>
        <time>2020-12-10T10:20:38.000Z</time>
      </trkpt>
      <trkpt lat="47.33369" lon="-2.47688">
        <ele>124.40000152588</ele>
        <time>2020-12-10T10:20:39.000Z</time>
      </trkpt>
      <trkpt lat="47.3338" lon="-2.47677">
        <ele>124.40000152588</ele>
        <time>2020-12-10T10:20:45.000Z</time>
      </trkpt>
      <trkpt lat="47.33391" lon="-2.47665">
        <ele>124.40000152588</ele>
        <time>2020-12-10T10:20:52.000Z</time>
      </trkpt>
      <trkpt lat="47.334" lon="-2.47655">
        <ele>124.40000152588</ele>
        <time>2020-12-10T10:20:57.000Z</time>
      </trkpt>
      <trkpt lat="47.33403" lon="-2.47653">
        <ele>124.80000305176</ele>
        <time>2020-12-10T10:21:00.000Z</time>
      </trkpt>
      <trkpt lat="47.33404" lon="-2.47652">
        <ele>125.19999694824</ele>
        <time>2020-12-10T10:21:01.000Z</time>
      </trkpt>
      <trkpt lat="47.33405" lon="-2.47651">
        <ele>125.59999847412</ele>
        <time>2020-12-10T10:21:02.000Z</time>
      </trkpt>
      <trkpt lat="47.33406" lon="-2.47651">
        <ele>126</ele>
        <time>2020-12-10T10:21:03.000Z</time>
      </trkpt>
      <trkpt lat="47.33407" lon="-2.4765">
        <ele>126.40000152588</ele>
        <time>2020-12-10T10:21:04.000Z</time>
      </trkpt>
      <trkpt lat="47.33408" lon="-2.47649">
        <ele>126.40000152588</ele>
        <time>2020-12-10T10:21:05.000Z</time>
      </trkpt>
      <trkpt lat="47.33412" lon="-2.47644">
        <ele>126.40000152588</ele>
        <time>2020-12-10T10:21:10.000Z</time>
      </trkpt>
      <trkpt lat="47.33415" lon="-2.47642">
        <ele>126.40000152588</ele>
        <time>2020-12-10T10:21:12.000Z</time>
      </trkpt>
      <trkpt lat="47.33417" lon="-2.47641">
        <ele>126.40000152588</ele>
        <time>2020-12-10T10:21:14.000Z</time>
      </trkpt>
      <trkpt lat="47.33448" lon="-2.47624">
        <ele>133.39999389648</ele>
        <time>2020-12-10T10:23:18.000Z</time>
      </trkpt>
      <trkpt lat="47.33449" lon="-2.47623">
        <ele>133.39999389648</ele>
        <time>2020-12-10T10:23:19.000Z</time>
      </trkpt>
      <trkpt lat="47.33453" lon="-2.4762">
        <ele>133.39999389648</ele>
        <time>2020-12-10T10:23:22.000Z</time>
      </trkpt>
      <trkpt lat="47.33457" lon="-2.47618">
        <ele>133.39999389648</ele>
        <time>2020-12-10T10:23:24.000Z</time>
      </trkpt>
      <trkpt lat="47.33473" lon="-2.47607">
        <ele>133.39999389648</ele>
        <time>2020-12-10T10:23:33.000Z</time>
      </trkpt>
      <trkpt lat="47.33476" lon="-2.47602">
        <ele>133.80000305176</ele>
        <time>2020-12-10T10:23:35.000Z</time>
      </trkpt>
      <trkpt lat="47.33477" lon="-2.47599">
        <ele>134.19999694824</ele>
        <time>2020-12-10T10:23:36.000Z</time>
      </trkpt>
      <trkpt lat="47.33477" lon="-2.47595">
        <ele>134.60000610352</ele>
        <time>2020-12-10T10:23:37.000Z</time>
      </trkpt>
      <trkpt lat="47.33476" lon="-2.47591">
        <ele>135</ele>
        <time>2020-12-10T10:23:38.000Z</time>
      </trkpt>
      <trkpt lat="47.33474" lon="-2.47587">
        <ele>135.39999389648</ele>
        <time>2020-12-10T10:23:39.000Z</time>
      </trkpt>
      <trkpt lat="47.33466" lon="-2.4757">
        <ele>135.39999389648</ele>
        <time>2020-12-10T10:23:43.000Z</time>
      </trkpt>
      <trkpt lat="47.33449" lon="-2.47533">
        <ele>135.39999389648</ele>
        <time>2020-12-10T10:23:51.000Z</time>
      </trkpt>
      <trkpt lat="47.33442" lon="-2.47519">
        <ele>135.80000305176</ele>
        <time>2020-12-10T10:23:54.000Z</time>
      </trkpt>
      <trkpt lat="47.3344" lon="-2.47514">
        <ele>136.19999694824</ele>
        <time>2020-12-10T10:23:55.000Z</time>
      </trkpt>
      <trkpt lat="47.33438" lon="-2.47509">
        <ele>136.60000610352</ele>
        <time>2020-12-10T10:23:56.000Z</time>
      </trkpt>
      <trkpt lat="47.33435" lon="-2.47504">
        <ele>137</ele>
        <time>2020-12-10T10:23:57.000Z</time>
      </trkpt>
      <trkpt lat="47.33433" lon="-2.47499">
        <ele>137.39999389648</ele>
        <time>2020-12-10T10:23:58.000Z</time>
      </trkpt>
      <trkpt lat="47.3342" lon="-2.47463">
        <ele>137.39999389648</ele>
        <time>2020-12-10T10:24:05.000Z</time>
      </trkpt>
      <trkpt lat="47.33417" lon="-2.47445">
        <ele>137.39999389648</ele>
        <time>2020-12-10T10:24:08.000Z</time>
      </trkpt>
      <trkpt lat="47.33413" lon="-2.47422">
        <ele>137.39999389648</ele>
        <time>2020-12-10T10:24:11.000Z</time>
      </trkpt>
      <trkpt lat="47.33408" lon="-2.474">
        <ele>137.39999389648</ele>
        <time>2020-12-10T10:24:14.000Z</time>
      </trkpt>
      <trkpt lat="47.33403" lon="-2.47387">
        <ele>137.39999389648</ele>
        <time>2020-12-10T10:24:16.000Z</time>
      </trkpt>
      <trkpt lat="47.33392" lon="-2.4734">
        <ele>137.39999389648</ele>
        <time>2020-12-10T10:24:23.000Z</time>
      </trkpt>
      <trkpt lat="47.33391" lon="-2.47332">
        <ele>137.39999389648</ele>
        <time>2020-12-10T10:24:24.000Z</time>
      </trkpt>
      <trkpt lat="47.33388" lon="-2.473">
        <ele>137.39999389648</ele>
        <time>2020-12-10T10:24:28.000Z</time>
      </trkpt>
      <trkpt lat="47.33382" lon="-2.47236">
        <ele>137.39999389648</ele>
        <time>2020-12-10T10:24:35.000Z</time>
      </trkpt>
      <trkpt lat="47.33372" lon="-2.47179">
        <ele>137.39999389648</ele>
        <time>2020-12-10T10:24:42.000Z</time>
      </trkpt>
      <trkpt lat="47.33362" lon="-2.4712">
        <ele>137.39999389648</ele>
        <time>2020-12-10T10:24:48.000Z</time>
      </trkpt>
      <trkpt lat="47.33352" lon="-2.47073">
        <ele>137</ele>
        <time>2020-12-10T10:24:52.000Z</time>
      </trkpt>
      <trkpt lat="47.3335" lon="-2.4706">
        <ele>136.60000610352</ele>
        <time>2020-12-10T10:24:53.000Z</time>
      </trkpt>
      <trkpt lat="47.33348" lon="-2.47047">
        <ele>136.19999694824</ele>
        <time>2020-12-10T10:24:54.000Z</time>
      </trkpt>
      <trkpt lat="47.33347" lon="-2.47034">
        <ele>135.80000305176</ele>
        <time>2020-12-10T10:24:55.000Z</time>
      </trkpt>
      <trkpt lat="47.33345" lon="-2.47022">
        <ele>135.39999389648</ele>
        <time>2020-12-10T10:24:56.000Z</time>
      </trkpt>
      <trkpt lat="47.33341" lon="-2.46998">
        <ele>135.39999389648</ele>
        <time>2020-12-10T10:24:58.000Z</time>
      </trkpt>
      <trkpt lat="47.33329" lon="-2.46949">
        <ele>135.39999389648</ele>
        <time>2020-12-10T10:25:03.000Z</time>
      </trkpt>
      <trkpt lat="47.33314" lon="-2.469">
        <ele>135.39999389648</ele>
        <time>2020-12-10T10:25:09.000Z</time>
      </trkpt>
      <trkpt lat="47.33308" lon="-2.46873">
        <ele>135.39999389648</ele>
        <time>2020-12-10T10:25:13.000Z</time>
      </trkpt>
      <trkpt lat="47.33305" lon="-2.46867">
        <ele>135.80000305176</ele>
        <time>2020-12-10T10:25:14.000Z</time>
      </trkpt>
      <trkpt lat="47.33303" lon="-2.46861">
        <ele>136.19999694824</ele>
        <time>2020-12-10T10:25:15.000Z</time>
      </trkpt>
      <trkpt lat="47.333" lon="-2.46855">
        <ele>136.60000610352</ele>
        <time>2020-12-10T10:25:16.000Z</time>
      </trkpt>
      <trkpt lat="47.33298" lon="-2.46849">
        <ele>137</ele>
        <time>2020-12-10T10:25:17.000Z</time>
      </trkpt>
      <trkpt lat="47.33295" lon="-2.46844">
        <ele>137.39999389648</ele>
        <time>2020-12-10T10:25:18.000Z</time>
      </trkpt>
      <trkpt lat="47.33294" lon="-2.46836">
        <ele>137.39999389648</ele>
        <time>2020-12-10T10:25:19.000Z</time>
      </trkpt>
      <trkpt lat="47.33288" lon="-2.46818">
        <ele>137.39999389648</ele>
        <time>2020-12-10T10:25:22.000Z</time>
      </trkpt>
      <trkpt lat="47.33284" lon="-2.46806">
        <ele>138</ele>
        <time>2020-12-10T10:25:24.000Z</time>
      </trkpt>
      <trkpt lat="47.33281" lon="-2.46801">
        <ele>138.39999389648</ele>
        <time>2020-12-10T10:25:25.000Z</time>
      </trkpt>
      <trkpt lat="47.33279" lon="-2.46797">
        <ele>138.80000305176</ele>
        <time>2020-12-10T10:25:26.000Z</time>
      </trkpt>
      <trkpt lat="47.33276" lon="-2.46792">
        <ele>139.19999694824</ele>
        <time>2020-12-10T10:25:27.000Z</time>
      </trkpt>
      <trkpt lat="47.33273" lon="-2.46788">
        <ele>139.60000610352</ele>
        <time>2020-12-10T10:25:28.000Z</time>
      </trkpt>
      <trkpt lat="47.33269" lon="-2.46785">
        <ele>139.60000610352</ele>
        <time>2020-12-10T10:25:29.000Z</time>
      </trkpt>
      <trkpt lat="47.33251" lon="-2.46783">
        <ele>139.60000610352</ele>
        <time>2020-12-10T10:25:33.000Z</time>
      </trkpt>
      <trkpt lat="47.33245" lon="-2.46784">
        <ele>139.60000610352</ele>
        <time>2020-12-10T10:25:34.000Z</time>
      </trkpt>
      <trkpt lat="47.33234" lon="-2.46789">
        <ele>139.60000610352</ele>
        <time>2020-12-10T10:25:36.000Z</time>
      </trkpt>
      <trkpt lat="47.33221" lon="-2.46791">
        <ele>139.60000610352</ele>
        <time>2020-12-10T10:25:38.000Z</time>
      </trkpt>
      <trkpt lat="47.33205" lon="-2.46779">
        <ele>139.60000610352</ele>
        <time>2020-12-10T10:25:41.000Z</time>
      </trkpt>
      <trkpt lat="47.33194" lon="-2.46768">
        <ele>139.60000610352</ele>
        <time>2020-12-10T10:25:43.000Z</time>
      </trkpt>
      <trkpt lat="47.33189" lon="-2.46762">
        <ele>139.19999694824</ele>
        <time>2020-12-10T10:25:44.000Z</time>
      </trkpt>
      <trkpt lat="47.33185" lon="-2.46757">
        <ele>138.80000305176</ele>
        <time>2020-12-10T10:25:45.000Z</time>
      </trkpt>
      <trkpt lat="47.3318" lon="-2.46751">
        <ele>138.39999389648</ele>
        <time>2020-12-10T10:25:46.000Z</time>
      </trkpt>
      <trkpt lat="47.33176" lon="-2.46745">
        <ele>138</ele>
        <time>2020-12-10T10:25:47.000Z</time>
      </trkpt>
      <trkpt lat="47.33171" lon="-2.46739">
        <ele>137.60000610352</ele>
        <time>2020-12-10T10:25:48.000Z</time>
      </trkpt>
      <trkpt lat="47.33153" lon="-2.46714">
        <ele>137.60000610352</ele>
        <time>2020-12-10T10:25:52.000Z</time>
      </trkpt>
      <trkpt lat="47.33134" lon="-2.46679">
        <ele>137</ele>
        <time>2020-12-10T10:25:57.000Z</time>
      </trkpt>
      <trkpt lat="47.3313" lon="-2.46671">
        <ele>136.60000610352</ele>
        <time>2020-12-10T10:25:58.000Z</time>
      </trkpt>
      <trkpt lat="47.33126" lon="-2.46665">
        <ele>136.19999694824</ele>
        <time>2020-12-10T10:25:59.000Z</time>
      </trkpt>
      <trkpt lat="47.33123" lon="-2.46658">
        <ele>135.80000305176</ele>
        <time>2020-12-10T10:26:00.000Z</time>
      </trkpt>
      <trkpt lat="47.33119" lon="-2.46651">
        <ele>135.39999389648</ele>
        <time>2020-12-10T10:26:01.000Z</time>
      </trkpt>
      <trkpt lat="47.33096" lon="-2.46602">
        <ele>135.39999389648</ele>
        <time>2020-12-10T10:26:08.000Z</time>
      </trkpt>
      <trkpt lat="47.33082" lon="-2.4655">
        <ele>135.39999389648</ele>
        <time>2020-12-10T10:26:15.000Z</time>
      </trkpt>
      <trkpt lat="47.33077" lon="-2.46531">
        <ele>135.39999389648</ele>
        <time>2020-12-10T10:26:18.000Z</time>
      </trkpt>
      <trkpt lat="47.33074" lon="-2.46528">
        <ele>135</ele>
        <time>2020-12-10T10:26:19.000Z</time>
      </trkpt>
      <trkpt lat="47.33071" lon="-2.46526">
        <ele>134.39999389648</ele>
        <time>2020-12-10T10:26:20.000Z</time>
      </trkpt>
      <trkpt lat="47.33066" lon="-2.46527">
        <ele>134</ele>
        <time>2020-12-10T10:26:21.000Z</time>
      </trkpt>
      <trkpt lat="47.33062" lon="-2.46529">
        <ele>133.60000610352</ele>
        <time>2020-12-10T10:26:22.000Z</time>
      </trkpt>
      <trkpt lat="47.33058" lon="-2.46531">
        <ele>133.19999694824</ele>
        <time>2020-12-10T10:26:23.000Z</time>
      </trkpt>
      <trkpt lat="47.33032" lon="-2.46538">
        <ele>133.19999694824</ele>
        <time>2020-12-10T10:26:28.000Z</time>
      </trkpt>
      <trkpt lat="47.33014" lon="-2.46542">
        <ele>133.19999694824</ele>
        <time>2020-12-10T10:26:31.000Z</time>
      </trkpt>
      <trkpt lat="47.33008" lon="-2.46545">
        <ele>133.19999694824</ele>
        <time>2020-12-10T10:26:32.000Z</time>
      </trkpt>
      <trkpt lat="47.32995" lon="-2.46551">
        <ele>132.80000305176</ele>
        <time>2020-12-10T10:26:34.000Z</time>
      </trkpt>
      <trkpt lat="47.32988" lon="-2.46554">
        <ele>132.39999389648</ele>
        <time>2020-12-10T10:26:35.000Z</time>
      </trkpt>
      <trkpt lat="47.32982" lon="-2.46557">
        <ele>131.80000305176</ele>
        <time>2020-12-10T10:26:36.000Z</time>
      </trkpt>
      <trkpt lat="47.32976" lon="-2.4656">
        <ele>131.39999389648</ele>
        <time>2020-12-10T10:26:37.000Z</time>
      </trkpt>
      <trkpt lat="47.32971" lon="-2.46562">
        <ele>130.60000610352</ele>
        <time>2020-12-10T10:26:38.000Z</time>
      </trkpt>
      <trkpt lat="47.32967" lon="-2.46563">
        <ele>130</ele>
        <time>2020-12-10T10:26:39.000Z</time>
      </trkpt>
      <trkpt lat="47.32964" lon="-2.46564">
        <ele>129.60000610352</ele>
        <time>2020-12-10T10:26:40.000Z</time>
      </trkpt>
      <trkpt lat="47.3296" lon="-2.46561">
        <ele>128.80000305176</ele>
        <time>2020-12-10T10:26:41.000Z</time>
      </trkpt>
      <trkpt lat="47.32958" lon="-2.46555">
        <ele>128.19999694824</ele>
        <time>2020-12-10T10:26:42.000Z</time>
      </trkpt>
      <trkpt lat="47.32957" lon="-2.46548">
        <ele>127.40000152588</ele>
        <time>2020-12-10T10:26:43.000Z</time>
      </trkpt>
      <trkpt lat="47.32957" lon="-2.4654">
        <ele>126.80000305176</ele>
        <time>2020-12-10T10:26:44.000Z</time>
      </trkpt>
      <trkpt lat="47.32957" lon="-2.46533">
        <ele>126</ele>
        <time>2020-12-10T10:26:45.000Z</time>
      </trkpt>
      <trkpt lat="47.32958" lon="-2.46525">
        <ele>126</ele>
        <time>2020-12-10T10:26:46.000Z</time>
      </trkpt>
      <trkpt lat="47.3296" lon="-2.465">
        <ele>126</ele>
        <time>2020-12-10T10:26:49.000Z</time>
      </trkpt>
      <trkpt lat="47.32961" lon="-2.46451">
        <ele>126</ele>
        <time>2020-12-10T10:26:56.000Z</time>
      </trkpt>
      <trkpt lat="47.32961" lon="-2.46438">
        <ele>126.40000152588</ele>
        <time>2020-12-10T10:26:58.000Z</time>
      </trkpt>
      <trkpt lat="47.32961" lon="-2.46432">
        <ele>127</ele>
        <time>2020-12-10T10:26:59.000Z</time>
      </trkpt>
      <trkpt lat="47.32962" lon="-2.46425">
        <ele>127.40000152588</ele>
        <time>2020-12-10T10:27:00.000Z</time>
      </trkpt>
      <trkpt lat="47.32962" lon="-2.46419">
        <ele>127.80000305176</ele>
        <time>2020-12-10T10:27:01.000Z</time>
      </trkpt>
      <trkpt lat="47.32962" lon="-2.46413">
        <ele>128.19999694824</ele>
        <time>2020-12-10T10:27:02.000Z</time>
      </trkpt>
      <trkpt lat="47.32962" lon="-2.46408">
        <ele>128.60000610352</ele>
        <time>2020-12-10T10:27:03.000Z</time>
      </trkpt>
      <trkpt lat="47.32963" lon="-2.46402">
        <ele>129</ele>
        <time>2020-12-10T10:27:04.000Z</time>
      </trkpt>
      <trkpt lat="47.32963" lon="-2.46397">
        <ele>129.39999389648</ele>
        <time>2020-12-10T10:27:05.000Z</time>
      </trkpt>
      <trkpt lat="47.32963" lon="-2.46391">
        <ele>129.80000305176</ele>
        <time>2020-12-10T10:27:06.000Z</time>
      </trkpt>
      <trkpt lat="47.32963" lon="-2.46386">
        <ele>130.39999389648</ele>
        <time>2020-12-10T10:27:07.000Z</time>
      </trkpt>
      <trkpt lat="47.32963" lon="-2.46381">
        <ele>130.80000305176</ele>
        <time>2020-12-10T10:27:08.000Z</time>
      </trkpt>
      <trkpt lat="47.32962" lon="-2.46377">
        <ele>131.19999694824</ele>
        <time>2020-12-10T10:27:09.000Z</time>
      </trkpt>
      <trkpt lat="47.32962" lon="-2.46372">
        <ele>131.60000610352</ele>
        <time>2020-12-10T10:27:10.000Z</time>
      </trkpt>
      <trkpt lat="47.32961" lon="-2.46366">
        <ele>132</ele>
        <time>2020-12-10T10:27:11.000Z</time>
      </trkpt>
      <trkpt lat="47.3296" lon="-2.46361">
        <ele>132.60000610352</ele>
        <time>2020-12-10T10:27:12.000Z</time>
      </trkpt>
      <trkpt lat="47.32958" lon="-2.4635">
        <ele>133</ele>
        <time>2020-12-10T10:27:14.000Z</time>
      </trkpt>
      <trkpt lat="47.32956" lon="-2.46345">
        <ele>133.39999389648</ele>
        <time>2020-12-10T10:27:15.000Z</time>
      </trkpt>
      <trkpt lat="47.32955" lon="-2.46341">
        <ele>133.80000305176</ele>
        <time>2020-12-10T10:27:16.000Z</time>
      </trkpt>
      <trkpt lat="47.32954" lon="-2.46336">
        <ele>134.39999389648</ele>
        <time>2020-12-10T10:27:17.000Z</time>
      </trkpt>
      <trkpt lat="47.32952" lon="-2.46332">
        <ele>134.80000305176</ele>
        <time>2020-12-10T10:27:18.000Z</time>
      </trkpt>
      <trkpt lat="47.3295" lon="-2.46322">
        <ele>135.19999694824</ele>
        <time>2020-12-10T10:27:20.000Z</time>
      </trkpt>
      <trkpt lat="47.32948" lon="-2.46317">
        <ele>135.60000610352</ele>
        <time>2020-12-10T10:27:21.000Z</time>
      </trkpt>
      <trkpt lat="47.32947" lon="-2.46312">
        <ele>136</ele>
        <time>2020-12-10T10:27:22.000Z</time>
      </trkpt>
      <trkpt lat="47.32945" lon="-2.46307">
        <ele>136.39999389648</ele>
        <time>2020-12-10T10:27:23.000Z</time>
      </trkpt>
      <trkpt lat="47.32944" lon="-2.46302">
        <ele>136.80000305176</ele>
        <time>2020-12-10T10:27:24.000Z</time>
      </trkpt>
      <trkpt lat="47.32943" lon="-2.46298">
        <ele>136.80000305176</ele>
        <time>2020-12-10T10:27:25.000Z</time>
      </trkpt>
      <trkpt lat="47.3294" lon="-2.46288">
        <ele>137.39999389648</ele>
        <time>2020-12-10T10:27:27.000Z</time>
      </trkpt>
      <trkpt lat="47.32938" lon="-2.46283">
        <ele>137.80000305176</ele>
        <time>2020-12-10T10:27:28.000Z</time>
      </trkpt>
      <trkpt lat="47.32937" lon="-2.46277">
        <ele>138.19999694824</ele>
        <time>2020-12-10T10:27:29.000Z</time>
      </trkpt>
      <trkpt lat="47.32935" lon="-2.46271">
        <ele>138.60000610352</ele>
        <time>2020-12-10T10:27:30.000Z</time>
      </trkpt>
      <trkpt lat="47.32933" lon="-2.46265">
        <ele>139</ele>
        <time>2020-12-10T10:27:31.000Z</time>
      </trkpt>
      <trkpt lat="47.32931" lon="-2.46259">
        <ele>139</ele>
        <time>2020-12-10T10:27:32.000Z</time>
      </trkpt>
      <trkpt lat="47.32919" lon="-2.46211">
        <ele>139</ele>
        <time>2020-12-10T10:27:39.000Z</time>
      </trkpt>
      <trkpt lat="47.32908" lon="-2.46171">
        <ele>139</ele>
        <time>2020-12-10T10:27:46.000Z</time>
      </trkpt>
      <trkpt lat="47.329" lon="-2.46148">
        <ele>139</ele>
        <time>2020-12-10T10:27:51.000Z</time>
      </trkpt>
      <trkpt lat="47.32895" lon="-2.46146">
        <ele>139</ele>
        <time>2020-12-10T10:27:52.000Z</time>
      </trkpt>
      <trkpt lat="47.32882" lon="-2.46154">
        <ele>139</ele>
        <time>2020-12-10T10:27:55.000Z</time>
      </trkpt>
      <trkpt lat="47.32878" lon="-2.46158">
        <ele>139</ele>
        <time>2020-12-10T10:27:56.000Z</time>
      </trkpt>
      <trkpt lat="47.32855" lon="-2.46172">
        <ele>139</ele>
        <time>2020-12-10T10:28:00.000Z</time>
      </trkpt>
      <trkpt lat="47.32829" lon="-2.46186">
        <ele>138.60000610352</ele>
        <time>2020-12-10T10:28:04.000Z</time>
      </trkpt>
      <trkpt lat="47.32823" lon="-2.46189">
        <ele>138.19999694824</ele>
        <time>2020-12-10T10:28:05.000Z</time>
      </trkpt>
      <trkpt lat="47.32818" lon="-2.46191">
        <ele>137.60000610352</ele>
        <time>2020-12-10T10:28:06.000Z</time>
      </trkpt>
      <trkpt lat="47.32812" lon="-2.4619">
        <ele>137.19999694824</ele>
        <time>2020-12-10T10:28:07.000Z</time>
      </trkpt>
      <trkpt lat="47.32807" lon="-2.46186">
        <ele>136.80000305176</ele>
        <time>2020-12-10T10:28:08.000Z</time>
      </trkpt>
      <trkpt lat="47.32802" lon="-2.46183">
        <ele>136.19999694824</ele>
        <time>2020-12-10T10:28:09.000Z</time>
      </trkpt>
      <trkpt lat="47.32796" lon="-2.4618">
        <ele>135.60000610352</ele>
        <time>2020-12-10T10:28:10.000Z</time>
      </trkpt>
      <trkpt lat="47.32791" lon="-2.46175">
        <ele>135.19999694824</ele>
        <time>2020-12-10T10:28:11.000Z</time>
      </trkpt>
      <trkpt lat="47.32786" lon="-2.46171">
        <ele>134.60000610352</ele>
        <time>2020-12-10T10:28:12.000Z</time>
      </trkpt>
      <trkpt lat="47.32782" lon="-2.46167">
        <ele>134.60000610352</ele>
        <time>2020-12-10T10:28:13.000Z</time>
      </trkpt>
      <trkpt lat="47.32774" lon="-2.46159">
        <ele>134.60000610352</ele>
        <time>2020-12-10T10:28:15.000Z</time>
      </trkpt>
      <trkpt lat="47.32771" lon="-2.46154">
        <ele>134.19999694824</ele>
        <time>2020-12-10T10:28:16.000Z</time>
      </trkpt>
      <trkpt lat="47.32768" lon="-2.4615">
        <ele>133.19999694824</ele>
        <time>2020-12-10T10:28:17.000Z</time>
      </trkpt>
      <trkpt lat="47.32766" lon="-2.46147">
        <ele>132.80000305176</ele>
        <time>2020-12-10T10:28:18.000Z</time>
      </trkpt>
      <trkpt lat="47.32763" lon="-2.46142">
        <ele>132.39999389648</ele>
        <time>2020-12-10T10:28:19.000Z</time>
      </trkpt>
      <trkpt lat="47.3276" lon="-2.46128">
        <ele>132.39999389648</ele>
        <time>2020-12-10T10:28:23.000Z</time>
      </trkpt>
      <trkpt lat="47.32759" lon="-2.46123">
        <ele>132</ele>
        <time>2020-12-10T10:28:25.000Z</time>
      </trkpt>
      <trkpt lat="47.32758" lon="-2.4612">
        <ele>131.60000610352</ele>
        <time>2020-12-10T10:28:26.000Z</time>
      </trkpt>
      <trkpt lat="47.32758" lon="-2.46118">
        <ele>131.19999694824</ele>
        <time>2020-12-10T10:28:27.000Z</time>
      </trkpt>
      <trkpt lat="47.32757" lon="-2.46116">
        <ele>130.80000305176</ele>
        <time>2020-12-10T10:28:28.000Z</time>
      </trkpt>
      <trkpt lat="47.32757" lon="-2.46114">
        <ele>130.39999389648</ele>
        <time>2020-12-10T10:28:29.000Z</time>
      </trkpt>
      <trkpt lat="47.32753" lon="-2.46103">
        <ele>130.39999389648</ele>
        <time>2020-12-10T10:28:35.000Z</time>
      </trkpt>
      <trkpt lat="47.32752" lon="-2.46098">
        <ele>130.39999389648</ele>
        <time>2020-12-10T10:28:38.000Z</time>
      </trkpt>
      <trkpt lat="47.3275" lon="-2.46094">
        <ele>129.80000305176</ele>
        <time>2020-12-10T10:28:40.000Z</time>
      </trkpt>
      <trkpt lat="47.32749" lon="-2.46092">
        <ele>129</ele>
        <time>2020-12-10T10:28:41.000Z</time>
      </trkpt>
      <trkpt lat="47.32748" lon="-2.4609">
        <ele>128.60000610352</ele>
        <time>2020-12-10T10:28:42.000Z</time>
      </trkpt>
      <trkpt lat="47.32747" lon="-2.46089">
        <ele>128.19999694824</ele>
        <time>2020-12-10T10:28:43.000Z</time>
      </trkpt>
      <trkpt lat="47.32742" lon="-2.46084">
        <ele>128.19999694824</ele>
        <time>2020-12-10T10:28:46.000Z</time>
      </trkpt>
      <trkpt lat="47.32733" lon="-2.46075">
        <ele>128.19999694824</ele>
        <time>2020-12-10T10:28:52.000Z</time>
      </trkpt>
      <trkpt lat="47.32731" lon="-2.46074">
        <ele>128.19999694824</ele>
        <time>2020-12-10T10:28:53.000Z</time>
      </trkpt>
      <trkpt lat="47.32722" lon="-2.46063">
        <ele>128.19999694824</ele>
        <time>2020-12-10T10:28:59.000Z</time>
      </trkpt>
      <trkpt lat="47.3271" lon="-2.4605">
        <ele>128.19999694824</ele>
        <time>2020-12-10T10:29:06.000Z</time>
      </trkpt>
      <trkpt lat="47.32707" lon="-2.46045">
        <ele>128.19999694824</ele>
        <time>2020-12-10T10:29:09.000Z</time>
      </trkpt>
      <trkpt lat="47.32703" lon="-2.4604">
        <ele>128.19999694824</ele>
        <time>2020-12-10T10:29:11.000Z</time>
      </trkpt>
      <trkpt lat="47.32699" lon="-2.46035">
        <ele>128.19999694824</ele>
        <time>2020-12-10T10:29:13.000Z</time>
      </trkpt>
      <trkpt lat="47.32695" lon="-2.46027">
        <ele>128.19999694824</ele>
        <time>2020-12-10T10:29:16.000Z</time>
      </trkpt>
      <trkpt lat="47.32689" lon="-2.46016">
        <ele>127.80000305176</ele>
        <time>2020-12-10T10:29:21.000Z</time>
      </trkpt>
      <trkpt lat="47.32688" lon="-2.46013">
        <ele>127.40000152588</ele>
        <time>2020-12-10T10:29:22.000Z</time>
      </trkpt>
      <trkpt lat="47.32687" lon="-2.46011">
        <ele>127</ele>
        <time>2020-12-10T10:29:23.000Z</time>
      </trkpt>
      <trkpt lat="47.32686" lon="-2.46009">
        <ele>126.59999847412</ele>
        <time>2020-12-10T10:29:24.000Z</time>
      </trkpt>
      <trkpt lat="47.32685" lon="-2.46007">
        <ele>126.19999694824</ele>
        <time>2020-12-10T10:29:25.000Z</time>
      </trkpt>
      <trkpt lat="47.32678" lon="-2.45997">
        <ele>126.19999694824</ele>
        <time>2020-12-10T10:29:30.000Z</time>
      </trkpt>
      <trkpt lat="47.32666" lon="-2.45987">
        <ele>126.19999694824</ele>
        <time>2020-12-10T10:29:36.000Z</time>
      </trkpt>
      <trkpt lat="47.32649" lon="-2.45972">
        <ele>126.19999694824</ele>
        <time>2020-12-10T10:29:41.000Z</time>
      </trkpt>
      <trkpt lat="47.32631" lon="-2.45952">
        <ele>126.19999694824</ele>
        <time>2020-12-10T10:29:46.000Z</time>
      </trkpt>
      <trkpt lat="47.32628" lon="-2.45946">
        <ele>126.19999694824</ele>
        <time>2020-12-10T10:29:47.000Z</time>
      </trkpt>
      <trkpt lat="47.3262" lon="-2.45931">
        <ele>126.19999694824</ele>
        <time>2020-12-10T10:29:50.000Z</time>
      </trkpt>
      <trkpt lat="47.3261" lon="-2.45914">
        <ele>126.19999694824</ele>
        <time>2020-12-10T10:29:53.000Z</time>
      </trkpt>
      <trkpt lat="47.32588" lon="-2.45884">
        <ele>126.19999694824</ele>
        <time>2020-12-10T10:29:59.000Z</time>
      </trkpt>
      <trkpt lat="47.32566" lon="-2.45849">
        <ele>126.19999694824</ele>
        <time>2020-12-10T10:30:05.000Z</time>
      </trkpt>
      <trkpt lat="47.32563" lon="-2.45842">
        <ele>126.19999694824</ele>
        <time>2020-12-10T10:30:06.000Z</time>
      </trkpt>
      <trkpt lat="47.32559" lon="-2.45836">
        <ele>126.19999694824</ele>
        <time>2020-12-10T10:30:07.000Z</time>
      </trkpt>
      <trkpt lat="47.32546" lon="-2.45819">
        <ele>126.19999694824</ele>
        <time>2020-12-10T10:30:10.000Z</time>
      </trkpt>
      <trkpt lat="47.32542" lon="-2.45813">
        <ele>126.19999694824</ele>
        <time>2020-12-10T10:30:11.000Z</time>
      </trkpt>
      <trkpt lat="47.32532" lon="-2.458">
        <ele>126.19999694824</ele>
        <time>2020-12-10T10:30:13.000Z</time>
      </trkpt>
      <trkpt lat="47.32524" lon="-2.45784">
        <ele>126.19999694824</ele>
        <time>2020-12-10T10:30:15.000Z</time>
      </trkpt>
      <trkpt lat="47.32498" lon="-2.45736">
        <ele>126.19999694824</ele>
        <time>2020-12-10T10:30:21.000Z</time>
      </trkpt>
      <trkpt lat="47.32463" lon="-2.45677">
        <ele>126.19999694824</ele>
        <time>2020-12-10T10:30:29.000Z</time>
      </trkpt>
      <trkpt lat="47.32439" lon="-2.45642">
        <ele>126.19999694824</ele>
        <time>2020-12-10T10:30:35.000Z</time>
      </trkpt>
      <trkpt lat="47.3243" lon="-2.45626">
        <ele>126.19999694824</ele>
        <time>2020-12-10T10:30:38.000Z</time>
      </trkpt>
      <trkpt lat="47.32418" lon="-2.45604">
        <ele>126.19999694824</ele>
        <time>2020-12-10T10:30:42.000Z</time>
      </trkpt>
      <trkpt lat="47.32399" lon="-2.45562">
        <ele>126.19999694824</ele>
        <time>2020-12-10T10:30:49.000Z</time>
      </trkpt>
      <trkpt lat="47.32377" lon="-2.45519">
        <ele>126.19999694824</ele>
        <time>2020-12-10T10:30:56.000Z</time>
      </trkpt>
      <trkpt lat="47.32347" lon="-2.45473">
        <ele>126.19999694824</ele>
        <time>2020-12-10T10:31:03.000Z</time>
      </trkpt>
      <trkpt lat="47.32317" lon="-2.45424">
        <ele>126.19999694824</ele>
        <time>2020-12-10T10:31:10.000Z</time>
      </trkpt>
      <trkpt lat="47.32313" lon="-2.45417">
        <ele>126.19999694824</ele>
        <time>2020-12-10T10:31:11.000Z</time>
      </trkpt>
      <trkpt lat="47.32312" lon="-2.454">
        <ele>126.19999694824</ele>
        <time>2020-12-10T10:31:13.000Z</time>
      </trkpt>
      <trkpt lat="47.32318" lon="-2.45379">
        <ele>126.19999694824</ele>
        <time>2020-12-10T10:31:16.000Z</time>
      </trkpt>
      <trkpt lat="47.32318" lon="-2.45373">
        <ele>126.19999694824</ele>
        <time>2020-12-10T10:31:17.000Z</time>
      </trkpt>
      <trkpt lat="47.32317" lon="-2.45357">
        <ele>126.19999694824</ele>
        <time>2020-12-10T10:31:20.000Z</time>
      </trkpt>
      <trkpt lat="47.32314" lon="-2.45333">
        <ele>126.59999847412</ele>
        <time>2020-12-10T10:31:24.000Z</time>
      </trkpt>
      <trkpt lat="47.32314" lon="-2.45328">
        <ele>127</ele>
        <time>2020-12-10T10:31:25.000Z</time>
      </trkpt>
      <trkpt lat="47.32313" lon="-2.45322">
        <ele>127.40000152588</ele>
        <time>2020-12-10T10:31:26.000Z</time>
      </trkpt>
      <trkpt lat="47.32313" lon="-2.45316">
        <ele>127.80000305176</ele>
        <time>2020-12-10T10:31:27.000Z</time>
      </trkpt>
      <trkpt lat="47.32313" lon="-2.4531">
        <ele>128.19999694824</ele>
        <time>2020-12-10T10:31:28.000Z</time>
      </trkpt>
      <trkpt lat="47.32311" lon="-2.45292">
        <ele>128.80000305176</ele>
        <time>2020-12-10T10:31:31.000Z</time>
      </trkpt>
      <trkpt lat="47.32309" lon="-2.45286">
        <ele>129.19999694824</ele>
        <time>2020-12-10T10:31:32.000Z</time>
      </trkpt>
      <trkpt lat="47.32307" lon="-2.45279">
        <ele>129.60000610352</ele>
        <time>2020-12-10T10:31:33.000Z</time>
      </trkpt>
      <trkpt lat="47.32306" lon="-2.45272">
        <ele>130.60000610352</ele>
        <time>2020-12-10T10:31:34.000Z</time>
      </trkpt>
      <trkpt lat="47.323" lon="-2.45253">
        <ele>130.60000610352</ele>
        <time>2020-12-10T10:31:37.000Z</time>
      </trkpt>
      <trkpt lat="47.32295" lon="-2.45236">
        <ele>130.60000610352</ele>
        <time>2020-12-10T10:31:39.000Z</time>
      </trkpt>
      <trkpt lat="47.32292" lon="-2.45226">
        <ele>130</ele>
        <time>2020-12-10T10:31:40.000Z</time>
      </trkpt>
      <trkpt lat="47.32288" lon="-2.45218">
        <ele>129.60000610352</ele>
        <time>2020-12-10T10:31:41.000Z</time>
      </trkpt>
      <trkpt lat="47.32284" lon="-2.45209">
        <ele>129.19999694824</ele>
        <time>2020-12-10T10:31:42.000Z</time>
      </trkpt>
      <trkpt lat="47.32279" lon="-2.45201">
        <ele>128.80000305176</ele>
        <time>2020-12-10T10:31:43.000Z</time>
      </trkpt>
      <trkpt lat="47.32276" lon="-2.45193">
        <ele>128.39999389648</ele>
        <time>2020-12-10T10:31:44.000Z</time>
      </trkpt>
      <trkpt lat="47.3227" lon="-2.45177">
        <ele>128.39999389648</ele>
        <time>2020-12-10T10:31:46.000Z</time>
      </trkpt>
      <trkpt lat="47.32267" lon="-2.45164">
        <ele>128.39999389648</ele>
        <time>2020-12-10T10:31:48.000Z</time>
      </trkpt>
      <trkpt lat="47.32266" lon="-2.45158">
        <ele>128.39999389648</ele>
        <time>2020-12-10T10:31:49.000Z</time>
      </trkpt>
      <trkpt lat="47.32263" lon="-2.45145">
        <ele>128.39999389648</ele>
        <time>2020-12-10T10:31:51.000Z</time>
      </trkpt>
      <trkpt lat="47.3226" lon="-2.45133">
        <ele>128.39999389648</ele>
        <time>2020-12-10T10:31:53.000Z</time>
      </trkpt>
      <trkpt lat="47.32258" lon="-2.45127">
        <ele>128.80000305176</ele>
        <time>2020-12-10T10:31:54.000Z</time>
      </trkpt>
      <trkpt lat="47.32256" lon="-2.45121">
        <ele>129.19999694824</ele>
        <time>2020-12-10T10:31:55.000Z</time>
      </trkpt>
      <trkpt lat="47.32253" lon="-2.45115">
        <ele>129.60000610352</ele>
        <time>2020-12-10T10:31:56.000Z</time>
      </trkpt>
      <trkpt lat="47.32251" lon="-2.45108">
        <ele>130.19999694824</ele>
        <time>2020-12-10T10:31:57.000Z</time>
      </trkpt>
      <trkpt lat="47.32248" lon="-2.45103">
        <ele>130.60000610352</ele>
        <time>2020-12-10T10:31:58.000Z</time>
      </trkpt>
      <trkpt lat="47.32246" lon="-2.45097">
        <ele>130.60000610352</ele>
        <time>2020-12-10T10:31:59.000Z</time>
      </trkpt>
      <trkpt lat="47.32241" lon="-2.45085">
        <ele>130.60000610352</ele>
        <time>2020-12-10T10:32:01.000Z</time>
      </trkpt>
      <trkpt lat="47.3223" lon="-2.4506">
        <ele>130.60000610352</ele>
        <time>2020-12-10T10:32:05.000Z</time>
      </trkpt>
      <trkpt lat="47.32211" lon="-2.4502">
        <ele>130.60000610352</ele>
        <time>2020-12-10T10:32:11.000Z</time>
      </trkpt>
      <trkpt lat="47.32191" lon="-2.44983">
        <ele>130.60000610352</ele>
        <time>2020-12-10T10:32:17.000Z</time>
      </trkpt>
      <trkpt lat="47.32182" lon="-2.44971">
        <ele>130.60000610352</ele>
        <time>2020-12-10T10:32:19.000Z</time>
      </trkpt>
      <trkpt lat="47.3217" lon="-2.44961">
        <ele>130.60000610352</ele>
        <time>2020-12-10T10:32:21.000Z</time>
      </trkpt>
      <trkpt lat="47.32139" lon="-2.44934">
        <ele>130.19999694824</ele>
        <time>2020-12-10T10:32:26.000Z</time>
      </trkpt>
      <trkpt lat="47.32133" lon="-2.44927">
        <ele>129.60000610352</ele>
        <time>2020-12-10T10:32:27.000Z</time>
      </trkpt>
      <trkpt lat="47.32128" lon="-2.4492">
        <ele>129.19999694824</ele>
        <time>2020-12-10T10:32:28.000Z</time>
      </trkpt>
      <trkpt lat="47.32123" lon="-2.44911">
        <ele>128.80000305176</ele>
        <time>2020-12-10T10:32:29.000Z</time>
      </trkpt>
      <trkpt lat="47.32119" lon="-2.44902">
        <ele>128.39999389648</ele>
        <time>2020-12-10T10:32:30.000Z</time>
      </trkpt>
      <trkpt lat="47.32111" lon="-2.44884">
        <ele>128.39999389648</ele>
        <time>2020-12-10T10:32:32.000Z</time>
      </trkpt>
      <trkpt lat="47.3208" lon="-2.44809">
        <ele>128.39999389648</ele>
        <time>2020-12-10T10:32:40.000Z</time>
      </trkpt>
      <trkpt lat="47.32064" lon="-2.4477">
        <ele>128.39999389648</ele>
        <time>2020-12-10T10:32:44.000Z</time>
      </trkpt>
      <trkpt lat="47.32055" lon="-2.44754">
        <ele>128.39999389648</ele>
        <time>2020-12-10T10:32:46.000Z</time>
      </trkpt>
      <trkpt lat="47.32044" lon="-2.44737">
        <ele>127.59999847412</ele>
        <time>2020-12-10T10:32:48.000Z</time>
      </trkpt>
      <trkpt lat="47.32039" lon="-2.4473">
        <ele>127.19999694824</ele>
        <time>2020-12-10T10:32:49.000Z</time>
      </trkpt>
      <trkpt lat="47.32033" lon="-2.44722">
        <ele>126.59999847412</ele>
        <time>2020-12-10T10:32:50.000Z</time>
      </trkpt>
      <trkpt lat="47.32028" lon="-2.44715">
        <ele>126.19999694824</ele>
        <time>2020-12-10T10:32:51.000Z</time>
      </trkpt>
      <trkpt lat="47.31989" lon="-2.44661">
        <ele>126.19999694824</ele>
        <time>2020-12-10T10:32:59.000Z</time>
      </trkpt>
      <trkpt lat="47.31984" lon="-2.44654">
        <ele>126.19999694824</ele>
        <time>2020-12-10T10:33:00.000Z</time>
      </trkpt>
      <trkpt lat="47.31953" lon="-2.4462">
        <ele>126.19999694824</ele>
        <time>2020-12-10T10:33:06.000Z</time>
      </trkpt>
      <trkpt lat="47.31937" lon="-2.44603">
        <ele>125.80000305176</ele>
        <time>2020-12-10T10:33:09.000Z</time>
      </trkpt>
      <trkpt lat="47.31932" lon="-2.44597">
        <ele>125.40000152588</ele>
        <time>2020-12-10T10:33:10.000Z</time>
      </trkpt>
      <trkpt lat="47.31927" lon="-2.44591">
        <ele>125</ele>
        <time>2020-12-10T10:33:11.000Z</time>
      </trkpt>
      <trkpt lat="47.31922" lon="-2.44585">
        <ele>124.59999847412</ele>
        <time>2020-12-10T10:33:12.000Z</time>
      </trkpt>
      <trkpt lat="47.31917" lon="-2.44579">
        <ele>124.19999694824</ele>
        <time>2020-12-10T10:33:13.000Z</time>
      </trkpt>
      <trkpt lat="47.31913" lon="-2.44573">
        <ele>124.19999694824</ele>
        <time>2020-12-10T10:33:14.000Z</time>
      </trkpt>
      <trkpt lat="47.31904" lon="-2.44563">
        <ele>124.19999694824</ele>
        <time>2020-12-10T10:33:16.000Z</time>
      </trkpt>
      <trkpt lat="47.31895" lon="-2.44567">
        <ele>124.19999694824</ele>
        <time>2020-12-10T10:33:18.000Z</time>
      </trkpt>
      <trkpt lat="47.31886" lon="-2.44585">
        <ele>124.19999694824</ele>
        <time>2020-12-10T10:33:21.000Z</time>
      </trkpt>
      <trkpt lat="47.31883" lon="-2.44593">
        <ele>124.19999694824</ele>
        <time>2020-12-10T10:33:22.000Z</time>
      </trkpt>
      <trkpt lat="47.31867" lon="-2.44639">
        <ele>124.19999694824</ele>
        <time>2020-12-10T10:33:28.000Z</time>
      </trkpt>
      <trkpt lat="47.31847" lon="-2.44683">
        <ele>124.19999694824</ele>
        <time>2020-12-10T10:33:35.000Z</time>
      </trkpt>
      <trkpt lat="47.31844" lon="-2.44688">
        <ele>123.80000305176</ele>
        <time>2020-12-10T10:33:36.000Z</time>
      </trkpt>
      <trkpt lat="47.31841" lon="-2.44694">
        <ele>123</ele>
        <time>2020-12-10T10:33:37.000Z</time>
      </trkpt>
      <trkpt lat="47.31837" lon="-2.44699">
        <ele>122.59999847412</ele>
        <time>2020-12-10T10:33:38.000Z</time>
      </trkpt>
      <trkpt lat="47.31834" lon="-2.44704">
        <ele>122.19999694824</ele>
        <time>2020-12-10T10:33:39.000Z</time>
      </trkpt>
      <trkpt lat="47.31826" lon="-2.44714">
        <ele>122.19999694824</ele>
        <time>2020-12-10T10:33:41.000Z</time>
      </trkpt>
      <trkpt lat="47.31822" lon="-2.44718">
        <ele>122.19999694824</ele>
        <time>2020-12-10T10:33:42.000Z</time>
      </trkpt>
      <trkpt lat="47.31818" lon="-2.44722">
        <ele>122.19999694824</ele>
        <time>2020-12-10T10:33:43.000Z</time>
      </trkpt>
      <trkpt lat="47.3181" lon="-2.44728">
        <ele>122.19999694824</ele>
        <time>2020-12-10T10:33:45.000Z</time>
      </trkpt>
      <trkpt lat="47.31801" lon="-2.44731">
        <ele>122.19999694824</ele>
        <time>2020-12-10T10:33:47.000Z</time>
      </trkpt>
      <trkpt lat="47.31791" lon="-2.44736">
        <ele>122.19999694824</ele>
        <time>2020-12-10T10:33:51.000Z</time>
      </trkpt>
      <trkpt lat="47.31775" lon="-2.44746">
        <ele>122.19999694824</ele>
        <time>2020-12-10T10:33:58.000Z</time>
      </trkpt>
      <trkpt lat="47.31762" lon="-2.44757">
        <ele>122.19999694824</ele>
        <time>2020-12-10T10:34:05.000Z</time>
      </trkpt>
      <trkpt lat="47.31749" lon="-2.44768">
        <ele>122.19999694824</ele>
        <time>2020-12-10T10:34:11.000Z</time>
      </trkpt>
      <trkpt lat="47.31728" lon="-2.44784">
        <ele>122.19999694824</ele>
        <time>2020-12-10T10:34:19.000Z</time>
      </trkpt>
      <trkpt lat="47.3172" lon="-2.44776">
        <ele>122.19999694824</ele>
        <time>2020-12-10T10:34:22.000Z</time>
      </trkpt>
      <trkpt lat="47.31718" lon="-2.44772">
        <ele>122.19999694824</ele>
        <time>2020-12-10T10:34:23.000Z</time>
      </trkpt>
      <trkpt lat="47.31708" lon="-2.44749">
        <ele>122.19999694824</ele>
        <time>2020-12-10T10:34:27.000Z</time>
      </trkpt>
      <trkpt lat="47.31699" lon="-2.44726">
        <ele>121.80000305176</ele>
        <time>2020-12-10T10:34:32.000Z</time>
      </trkpt>
      <trkpt lat="47.31697" lon="-2.44722">
        <ele>121.40000152588</ele>
        <time>2020-12-10T10:34:33.000Z</time>
      </trkpt>
      <trkpt lat="47.31695" lon="-2.44718">
        <ele>121</ele>
        <time>2020-12-10T10:34:34.000Z</time>
      </trkpt>
      <trkpt lat="47.31694" lon="-2.44714">
        <ele>120.59999847412</ele>
        <time>2020-12-10T10:34:35.000Z</time>
      </trkpt>
      <trkpt lat="47.31692" lon="-2.4471">
        <ele>120.19999694824</ele>
        <time>2020-12-10T10:34:36.000Z</time>
      </trkpt>
      <trkpt lat="47.31684" lon="-2.4469">
        <ele>120.19999694824</ele>
        <time>2020-12-10T10:34:41.000Z</time>
      </trkpt>
      <trkpt lat="47.31671" lon="-2.4466">
        <ele>120.19999694824</ele>
        <time>2020-12-10T10:34:46.000Z</time>
      </trkpt>
      <trkpt lat="47.3165" lon="-2.4461">
        <ele>120.19999694824</ele>
        <time>2020-12-10T10:34:53.000Z</time>
      </trkpt>
      <trkpt lat="47.31613" lon="-2.44543">
        <ele>120.19999694824</ele>
        <time>2020-12-10T10:35:02.000Z</time>
      </trkpt>
      <trkpt lat="47.31588" lon="-2.44492">
        <ele>120.19999694824</ele>
        <time>2020-12-10T10:35:08.000Z</time>
      </trkpt>
      <trkpt lat="47.31575" lon="-2.4443">
        <ele>120.19999694824</ele>
        <time>2020-12-10T10:35:14.000Z</time>
      </trkpt>
      <trkpt lat="47.31564" lon="-2.44344">
        <ele>120.19999694824</ele>
        <time>2020-12-10T10:35:22.000Z</time>
      </trkpt>
      <trkpt lat="47.31552" lon="-2.44268">
        <ele>120.19999694824</ele>
        <time>2020-12-10T10:35:29.000Z</time>
      </trkpt>
      <trkpt lat="47.31534" lon="-2.44188">
        <ele>120.19999694824</ele>
        <time>2020-12-10T10:35:37.000Z</time>
      </trkpt>
      <trkpt lat="47.31514" lon="-2.44147">
        <ele>120.19999694824</ele>
        <time>2020-12-10T10:35:42.000Z</time>
      </trkpt>
      <trkpt lat="47.31481" lon="-2.44102">
        <ele>120.19999694824</ele>
        <time>2020-12-10T10:35:48.000Z</time>
      </trkpt>
      <trkpt lat="47.31436" lon="-2.44043">
        <ele>120.19999694824</ele>
        <time>2020-12-10T10:35:56.000Z</time>
      </trkpt>
      <trkpt lat="47.31396" lon="-2.43992">
        <ele>120.19999694824</ele>
        <time>2020-12-10T10:36:03.000Z</time>
      </trkpt>
      <trkpt lat="47.31364" lon="-2.43946">
        <ele>120.19999694824</ele>
        <time>2020-12-10T10:36:09.000Z</time>
      </trkpt>
      <trkpt lat="47.3136" lon="-2.43937">
        <ele>120.19999694824</ele>
        <time>2020-12-10T10:36:10.000Z</time>
      </trkpt>
      <trkpt lat="47.31333" lon="-2.43864">
        <ele>120.19999694824</ele>
        <time>2020-12-10T10:36:17.000Z</time>
      </trkpt>
      <trkpt lat="47.3132" lon="-2.43833">
        <ele>120.19999694824</ele>
        <time>2020-12-10T10:36:20.000Z</time>
      </trkpt>
      <trkpt lat="47.31308" lon="-2.43816">
        <ele>120.19999694824</ele>
        <time>2020-12-10T10:36:22.000Z</time>
      </trkpt>
      <trkpt lat="47.31295" lon="-2.438">
        <ele>120.19999694824</ele>
        <time>2020-12-10T10:36:24.000Z</time>
      </trkpt>
      <trkpt lat="47.31287" lon="-2.4378">
        <ele>120.19999694824</ele>
        <time>2020-12-10T10:36:26.000Z</time>
      </trkpt>
      <trkpt lat="47.31257" lon="-2.43706">
        <ele>120.19999694824</ele>
        <time>2020-12-10T10:36:33.000Z</time>
      </trkpt>
      <trkpt lat="47.31253" lon="-2.43695">
        <ele>120.19999694824</ele>
        <time>2020-12-10T10:36:34.000Z</time>
      </trkpt>
      <trkpt lat="47.31239" lon="-2.43636">
        <ele>120.19999694824</ele>
        <time>2020-12-10T10:36:39.000Z</time>
      </trkpt>
      <trkpt lat="47.31227" lon="-2.43548">
        <ele>120.19999694824</ele>
        <time>2020-12-10T10:36:46.000Z</time>
      </trkpt>
      <trkpt lat="47.31215" lon="-2.43472">
        <ele>120.19999694824</ele>
        <time>2020-12-10T10:36:52.000Z</time>
      </trkpt>
      <trkpt lat="47.31202" lon="-2.43384">
        <ele>120.19999694824</ele>
        <time>2020-12-10T10:36:59.000Z</time>
      </trkpt>
      <trkpt lat="47.312" lon="-2.43372">
        <ele>120.19999694824</ele>
        <time>2020-12-10T10:37:00.000Z</time>
      </trkpt>
      <trkpt lat="47.31186" lon="-2.43313">
        <ele>120.19999694824</ele>
        <time>2020-12-10T10:37:05.000Z</time>
      </trkpt>
      <trkpt lat="47.31177" lon="-2.43292">
        <ele>120.19999694824</ele>
        <time>2020-12-10T10:37:07.000Z</time>
      </trkpt>
      <trkpt lat="47.31166" lon="-2.43273">
        <ele>120.19999694824</ele>
        <time>2020-12-10T10:37:09.000Z</time>
      </trkpt>
      <trkpt lat="47.31125" lon="-2.43211">
        <ele>120.19999694824</ele>
        <time>2020-12-10T10:37:16.000Z</time>
      </trkpt>
      <trkpt lat="47.31114" lon="-2.43194">
        <ele>120.19999694824</ele>
        <time>2020-12-10T10:37:18.000Z</time>
      </trkpt>
      <trkpt lat="47.31099" lon="-2.43165">
        <ele>120.19999694824</ele>
        <time>2020-12-10T10:37:21.000Z</time>
      </trkpt>
      <trkpt lat="47.31091" lon="-2.43144">
        <ele>120.19999694824</ele>
        <time>2020-12-10T10:37:23.000Z</time>
      </trkpt>
      <trkpt lat="47.31073" lon="-2.43081">
        <ele>120.19999694824</ele>
        <time>2020-12-10T10:37:29.000Z</time>
      </trkpt>
      <trkpt lat="47.31055" lon="-2.43018">
        <ele>120.19999694824</ele>
        <time>2020-12-10T10:37:36.000Z</time>
      </trkpt>
      <trkpt lat="47.31046" lon="-2.42991">
        <ele>120.19999694824</ele>
        <time>2020-12-10T10:37:40.000Z</time>
      </trkpt>
      <trkpt lat="47.31043" lon="-2.42981">
        <ele>120.19999694824</ele>
        <time>2020-12-10T10:37:44.000Z</time>
      </trkpt>
      <trkpt lat="47.31042" lon="-2.42976">
        <ele>120.19999694824</ele>
        <time>2020-12-10T10:37:47.000Z</time>
      </trkpt>
      <trkpt lat="47.31042" lon="-2.42974">
        <ele>120.19999694824</ele>
        <time>2020-12-10T10:37:51.000Z</time>
      </trkpt>
      <trkpt lat="47.31042" lon="-2.42971">
        <ele>120.19999694824</ele>
        <time>2020-12-10T10:37:52.000Z</time>
      </trkpt>
      <trkpt lat="47.31049" lon="-2.4296">
        <ele>120.19999694824</ele>
        <time>2020-12-10T10:37:56.000Z</time>
      </trkpt>
      <trkpt lat="47.31053" lon="-2.42957">
        <ele>120.19999694824</ele>
        <time>2020-12-10T10:37:57.000Z</time>
      </trkpt>
      <trkpt lat="47.31057" lon="-2.42955">
        <ele>120.59999847412</ele>
        <time>2020-12-10T10:37:58.000Z</time>
      </trkpt>
      <trkpt lat="47.31062" lon="-2.42954">
        <ele>121</ele>
        <time>2020-12-10T10:37:59.000Z</time>
      </trkpt>
      <trkpt lat="47.31067" lon="-2.42952">
        <ele>121.40000152588</ele>
        <time>2020-12-10T10:38:00.000Z</time>
      </trkpt>
      <trkpt lat="47.31072" lon="-2.42951">
        <ele>121.80000305176</ele>
        <time>2020-12-10T10:38:01.000Z</time>
      </trkpt>
      <trkpt lat="47.31078" lon="-2.4295">
        <ele>122.19999694824</ele>
        <time>2020-12-10T10:38:02.000Z</time>
      </trkpt>
      <trkpt lat="47.311" lon="-2.42947">
        <ele>122.80000305176</ele>
        <time>2020-12-10T10:38:06.000Z</time>
      </trkpt>
      <trkpt lat="47.31105" lon="-2.42946">
        <ele>123.19999694824</ele>
        <time>2020-12-10T10:38:07.000Z</time>
      </trkpt>
      <trkpt lat="47.31111" lon="-2.42946">
        <ele>123.80000305176</ele>
        <time>2020-12-10T10:38:08.000Z</time>
      </trkpt>
      <trkpt lat="47.31116" lon="-2.42945">
        <ele>124.80000305176</ele>
        <time>2020-12-10T10:38:09.000Z</time>
      </trkpt>
      <trkpt lat="47.31151" lon="-2.42941">
        <ele>124.80000305176</ele>
        <time>2020-12-10T10:38:15.000Z</time>
      </trkpt>
      <trkpt lat="47.31192" lon="-2.42934">
        <ele>124.80000305176</ele>
        <time>2020-12-10T10:38:22.000Z</time>
      </trkpt>
      <trkpt lat="47.31238" lon="-2.42926">
        <ele>124.80000305176</ele>
        <time>2020-12-10T10:38:30.000Z</time>
      </trkpt>
      <trkpt lat="47.31287" lon="-2.42916">
        <ele>124.80000305176</ele>
        <time>2020-12-10T10:38:38.000Z</time>
      </trkpt>
      <trkpt lat="47.31335" lon="-2.42903">
        <ele>124.80000305176</ele>
        <time>2020-12-10T10:38:46.000Z</time>
      </trkpt>
      <trkpt lat="47.31379" lon="-2.42891">
        <ele>124.80000305176</ele>
        <time>2020-12-10T10:38:54.000Z</time>
      </trkpt>
      <trkpt lat="47.31385" lon="-2.4289">
        <ele>125.19999694824</ele>
        <time>2020-12-10T10:38:55.000Z</time>
      </trkpt>
      <trkpt lat="47.3139" lon="-2.42888">
        <ele>125.59999847412</ele>
        <time>2020-12-10T10:38:56.000Z</time>
      </trkpt>
      <trkpt lat="47.31395" lon="-2.42886">
        <ele>126</ele>
        <time>2020-12-10T10:38:57.000Z</time>
      </trkpt>
      <trkpt lat="47.314" lon="-2.42885">
        <ele>126.80000305176</ele>
        <time>2020-12-10T10:38:58.000Z</time>
      </trkpt>
      <trkpt lat="47.31405" lon="-2.42883">
        <ele>126.80000305176</ele>
        <time>2020-12-10T10:38:59.000Z</time>
      </trkpt>
      <trkpt lat="47.31449" lon="-2.42865">
        <ele>126.80000305176</ele>
        <time>2020-12-10T10:39:08.000Z</time>
      </trkpt>
      <trkpt lat="47.31461" lon="-2.42856">
        <ele>126.80000305176</ele>
        <time>2020-12-10T10:39:11.000Z</time>
      </trkpt>
      <trkpt lat="47.31464" lon="-2.4285">
        <ele>126.80000305176</ele>
        <time>2020-12-10T10:39:12.000Z</time>
      </trkpt>
      <trkpt lat="47.31465" lon="-2.42828">
        <ele>126.80000305176</ele>
        <time>2020-12-10T10:39:15.000Z</time>
      </trkpt>
      <trkpt lat="47.31463" lon="-2.4281">
        <ele>126.80000305176</ele>
        <time>2020-12-10T10:39:17.000Z</time>
      </trkpt>
      <trkpt lat="47.31458" lon="-2.42783">
        <ele>126.80000305176</ele>
        <time>2020-12-10T10:39:20.000Z</time>
      </trkpt>
      <trkpt lat="47.31444" lon="-2.42739">
        <ele>126.80000305176</ele>
        <time>2020-12-10T10:39:25.000Z</time>
      </trkpt>
      <trkpt lat="47.31417" lon="-2.42693">
        <ele>126.80000305176</ele>
        <time>2020-12-10T10:39:31.000Z</time>
      </trkpt>
      <trkpt lat="47.31382" lon="-2.42636">
        <ele>126.80000305176</ele>
        <time>2020-12-10T10:39:38.000Z</time>
      </trkpt>
      <trkpt lat="47.31368" lon="-2.42607">
        <ele>126.80000305176</ele>
        <time>2020-12-10T10:39:41.000Z</time>
      </trkpt>
      <trkpt lat="47.31362" lon="-2.42586">
        <ele>126.80000305176</ele>
        <time>2020-12-10T10:39:43.000Z</time>
      </trkpt>
      <trkpt lat="47.31357" lon="-2.42563">
        <ele>126.80000305176</ele>
        <time>2020-12-10T10:39:45.000Z</time>
      </trkpt>
      <trkpt lat="47.31355" lon="-2.4254">
        <ele>126.80000305176</ele>
        <time>2020-12-10T10:39:47.000Z</time>
      </trkpt>
      <trkpt lat="47.31347" lon="-2.42481">
        <ele>126.80000305176</ele>
        <time>2020-12-10T10:39:52.000Z</time>
      </trkpt>
      <trkpt lat="47.31344" lon="-2.42469">
        <ele>126.80000305176</ele>
        <time>2020-12-10T10:39:53.000Z</time>
      </trkpt>
      <trkpt lat="47.31321" lon="-2.42417">
        <ele>126.80000305176</ele>
        <time>2020-12-10T10:39:58.000Z</time>
      </trkpt>
      <trkpt lat="47.31281" lon="-2.42352">
        <ele>126.80000305176</ele>
        <time>2020-12-10T10:40:05.000Z</time>
      </trkpt>
      <trkpt lat="47.31274" lon="-2.42343">
        <ele>126.80000305176</ele>
        <time>2020-12-10T10:40:06.000Z</time>
      </trkpt>
      <trkpt lat="47.31237" lon="-2.42307">
        <ele>126.80000305176</ele>
        <time>2020-12-10T10:40:11.000Z</time>
      </trkpt>
      <trkpt lat="47.31224" lon="-2.4229">
        <ele>126.80000305176</ele>
        <time>2020-12-10T10:40:13.000Z</time>
      </trkpt>
      <trkpt lat="47.31213" lon="-2.42271">
        <ele>126.80000305176</ele>
        <time>2020-12-10T10:40:15.000Z</time>
      </trkpt>
      <trkpt lat="47.31189" lon="-2.4222">
        <ele>126.80000305176</ele>
        <time>2020-12-10T10:40:20.000Z</time>
      </trkpt>
      <trkpt lat="47.31185" lon="-2.42211">
        <ele>126.40000152588</ele>
        <time>2020-12-10T10:40:21.000Z</time>
      </trkpt>
      <trkpt lat="47.31181" lon="-2.42203">
        <ele>126</ele>
        <time>2020-12-10T10:40:22.000Z</time>
      </trkpt>
      <trkpt lat="47.31177" lon="-2.42195">
        <ele>125.40000152588</ele>
        <time>2020-12-10T10:40:23.000Z</time>
      </trkpt>
      <trkpt lat="47.31173" lon="-2.42186">
        <ele>125</ele>
        <time>2020-12-10T10:40:24.000Z</time>
      </trkpt>
      <trkpt lat="47.31169" lon="-2.42178">
        <ele>124.59999847412</ele>
        <time>2020-12-10T10:40:25.000Z</time>
      </trkpt>
      <trkpt lat="47.31161" lon="-2.42162">
        <ele>124.59999847412</ele>
        <time>2020-12-10T10:40:27.000Z</time>
      </trkpt>
      <trkpt lat="47.31136" lon="-2.42108">
        <ele>124.59999847412</ele>
        <time>2020-12-10T10:40:34.000Z</time>
      </trkpt>
      <trkpt lat="47.31106" lon="-2.42039">
        <ele>124.59999847412</ele>
        <time>2020-12-10T10:40:43.000Z</time>
      </trkpt>
      <trkpt lat="47.31086" lon="-2.41971">
        <ele>124.59999847412</ele>
        <time>2020-12-10T10:40:51.000Z</time>
      </trkpt>
      <trkpt lat="47.31078" lon="-2.4195">
        <ele>124.59999847412</ele>
        <time>2020-12-10T10:40:54.000Z</time>
      </trkpt>
      <trkpt lat="47.31074" lon="-2.41946">
        <ele>124.59999847412</ele>
        <time>2020-12-10T10:40:55.000Z</time>
      </trkpt>
      <trkpt lat="47.3106" lon="-2.41952">
        <ele>124.59999847412</ele>
        <time>2020-12-10T10:40:58.000Z</time>
      </trkpt>
      <trkpt lat="47.31056" lon="-2.41958">
        <ele>124.59999847412</ele>
        <time>2020-12-10T10:40:59.000Z</time>
      </trkpt>
      <trkpt lat="47.3103" lon="-2.41988">
        <ele>124.59999847412</ele>
        <time>2020-12-10T10:41:04.000Z</time>
      </trkpt>
      <trkpt lat="47.30993" lon="-2.42035">
        <ele>124.59999847412</ele>
        <time>2020-12-10T10:41:11.000Z</time>
      </trkpt>
      <trkpt lat="47.30958" lon="-2.42068">
        <ele>124.19999694824</ele>
        <time>2020-12-10T10:41:17.000Z</time>
      </trkpt>
      <trkpt lat="47.30952" lon="-2.42074">
        <ele>123.80000305176</ele>
        <time>2020-12-10T10:41:18.000Z</time>
      </trkpt>
      <trkpt lat="47.30946" lon="-2.4208">
        <ele>123.40000152588</ele>
        <time>2020-12-10T10:41:19.000Z</time>
      </trkpt>
      <trkpt lat="47.3094" lon="-2.42086">
        <ele>122.80000305176</ele>
        <time>2020-12-10T10:41:20.000Z</time>
      </trkpt>
      <trkpt lat="47.30934" lon="-2.42092">
        <ele>122.40000152588</ele>
        <time>2020-12-10T10:41:21.000Z</time>
      </trkpt>
      <trkpt lat="47.30916" lon="-2.42111">
        <ele>122.40000152588</ele>
        <time>2020-12-10T10:41:24.000Z</time>
      </trkpt>
      <trkpt lat="47.30875" lon="-2.42163">
        <ele>122.40000152588</ele>
        <time>2020-12-10T10:41:31.000Z</time>
      </trkpt>
      <trkpt lat="47.30871" lon="-2.42172">
        <ele>122.40000152588</ele>
        <time>2020-12-10T10:41:32.000Z</time>
      </trkpt>
      <trkpt lat="47.30859" lon="-2.42198">
        <ele>122</ele>
        <time>2020-12-10T10:41:35.000Z</time>
      </trkpt>
      <trkpt lat="47.30856" lon="-2.42205">
        <ele>121.59999847412</ele>
        <time>2020-12-10T10:41:36.000Z</time>
      </trkpt>
      <trkpt lat="47.30851" lon="-2.42209">
        <ele>121.19999694824</ele>
        <time>2020-12-10T10:41:37.000Z</time>
      </trkpt>
      <trkpt lat="47.30847" lon="-2.42212">
        <ele>120.80000305176</ele>
        <time>2020-12-10T10:41:38.000Z</time>
      </trkpt>
      <trkpt lat="47.30842" lon="-2.42211">
        <ele>120.40000152588</ele>
        <time>2020-12-10T10:41:39.000Z</time>
      </trkpt>
      <trkpt lat="47.3083" lon="-2.42211">
        <ele>120.40000152588</ele>
        <time>2020-12-10T10:41:41.000Z</time>
      </trkpt>
      <trkpt lat="47.30824" lon="-2.42209">
        <ele>120.40000152588</ele>
        <time>2020-12-10T10:41:42.000Z</time>
      </trkpt>
      <trkpt lat="47.30811" lon="-2.42201">
        <ele>120.40000152588</ele>
        <time>2020-12-10T10:41:44.000Z</time>
      </trkpt>
      <trkpt lat="47.30792" lon="-2.42168">
        <ele>120.40000152588</ele>
        <time>2020-12-10T10:41:48.000Z</time>
      </trkpt>
      <trkpt lat="47.30773" lon="-2.42132">
        <ele>120.40000152588</ele>
        <time>2020-12-10T10:41:52.000Z</time>
      </trkpt>
      <trkpt lat="47.30741" lon="-2.4207">
        <ele>120.40000152588</ele>
        <time>2020-12-10T10:41:59.000Z</time>
      </trkpt>
      <trkpt lat="47.3071" lon="-2.42039">
        <ele>120.40000152588</ele>
        <time>2020-12-10T10:42:04.000Z</time>
      </trkpt>
      <trkpt lat="47.30704" lon="-2.42034">
        <ele>120.40000152588</ele>
        <time>2020-12-10T10:42:05.000Z</time>
      </trkpt>
      <trkpt lat="47.30677" lon="-2.42">
        <ele>120.40000152588</ele>
        <time>2020-12-10T10:42:10.000Z</time>
      </trkpt>
      <trkpt lat="47.30672" lon="-2.41993">
        <ele>120</ele>
        <time>2020-12-10T10:42:11.000Z</time>
      </trkpt>
      <trkpt lat="47.30666" lon="-2.41986">
        <ele>119.59999847412</ele>
        <time>2020-12-10T10:42:12.000Z</time>
      </trkpt>
      <trkpt lat="47.30661" lon="-2.41978">
        <ele>119</ele>
        <time>2020-12-10T10:42:13.000Z</time>
      </trkpt>
      <trkpt lat="47.30656" lon="-2.41971">
        <ele>118.59999847412</ele>
        <time>2020-12-10T10:42:14.000Z</time>
      </trkpt>
      <trkpt lat="47.30652" lon="-2.41962">
        <ele>118.19999694824</ele>
        <time>2020-12-10T10:42:15.000Z</time>
      </trkpt>
      <trkpt lat="47.30648" lon="-2.41953">
        <ele>118.19999694824</ele>
        <time>2020-12-10T10:42:16.000Z</time>
      </trkpt>
      <trkpt lat="47.30632" lon="-2.41894">
        <ele>118.19999694824</ele>
        <time>2020-12-10T10:42:22.000Z</time>
      </trkpt>
      <trkpt lat="47.30625" lon="-2.41875">
        <ele>118.19999694824</ele>
        <time>2020-12-10T10:42:24.000Z</time>
      </trkpt>
      <trkpt lat="47.30614" lon="-2.41848">
        <ele>118.19999694824</ele>
        <time>2020-12-10T10:42:27.000Z</time>
      </trkpt>
      <trkpt lat="47.30597" lon="-2.41813">
        <ele>118.19999694824</ele>
        <time>2020-12-10T10:42:31.000Z</time>
      </trkpt>
      <trkpt lat="47.30586" lon="-2.41785">
        <ele>118.19999694824</ele>
        <time>2020-12-10T10:42:34.000Z</time>
      </trkpt>
      <trkpt lat="47.30562" lon="-2.4173">
        <ele>118.19999694824</ele>
        <time>2020-12-10T10:42:40.000Z</time>
      </trkpt>
      <trkpt lat="47.30557" lon="-2.41721">
        <ele>118.19999694824</ele>
        <time>2020-12-10T10:42:41.000Z</time>
      </trkpt>
      <trkpt lat="47.30529" lon="-2.41683">
        <ele>118.19999694824</ele>
        <time>2020-12-10T10:42:46.000Z</time>
      </trkpt>
      <trkpt lat="47.30518" lon="-2.41667">
        <ele>118.19999694824</ele>
        <time>2020-12-10T10:42:48.000Z</time>
      </trkpt>
      <trkpt lat="47.30506" lon="-2.41635">
        <ele>118.19999694824</ele>
        <time>2020-12-10T10:42:51.000Z</time>
      </trkpt>
      <trkpt lat="47.30501" lon="-2.416">
        <ele>118.19999694824</ele>
        <time>2020-12-10T10:42:54.000Z</time>
      </trkpt>
      <trkpt lat="47.30498" lon="-2.41578">
        <ele>118.19999694824</ele>
        <time>2020-12-10T10:42:56.000Z</time>
      </trkpt>
      <trkpt lat="47.30495" lon="-2.41555">
        <ele>118.19999694824</ele>
        <time>2020-12-10T10:42:58.000Z</time>
      </trkpt>
      <trkpt lat="47.30487" lon="-2.41536">
        <ele>118.19999694824</ele>
        <time>2020-12-10T10:43:00.000Z</time>
      </trkpt>
      <trkpt lat="47.30484" lon="-2.41526">
        <ele>118.19999694824</ele>
        <time>2020-12-10T10:43:01.000Z</time>
      </trkpt>
      <trkpt lat="47.30482" lon="-2.41506">
        <ele>118.19999694824</ele>
        <time>2020-12-10T10:43:03.000Z</time>
      </trkpt>
      <trkpt lat="47.30483" lon="-2.41496">
        <ele>118.80000305176</ele>
        <time>2020-12-10T10:43:04.000Z</time>
      </trkpt>
      <trkpt lat="47.30486" lon="-2.41487">
        <ele>119.19999694824</ele>
        <time>2020-12-10T10:43:05.000Z</time>
      </trkpt>
      <trkpt lat="47.30489" lon="-2.41477">
        <ele>119.59999847412</ele>
        <time>2020-12-10T10:43:06.000Z</time>
      </trkpt>
      <trkpt lat="47.30493" lon="-2.41469">
        <ele>120.19999694824</ele>
        <time>2020-12-10T10:43:07.000Z</time>
      </trkpt>
      <trkpt lat="47.30497" lon="-2.41461">
        <ele>120.59999847412</ele>
        <time>2020-12-10T10:43:08.000Z</time>
      </trkpt>
      <trkpt lat="47.305" lon="-2.41452">
        <ele>120.59999847412</ele>
        <time>2020-12-10T10:43:09.000Z</time>
      </trkpt>
      <trkpt lat="47.30502" lon="-2.41442">
        <ele>120.59999847412</ele>
        <time>2020-12-10T10:43:10.000Z</time>
      </trkpt>
      <trkpt lat="47.30498" lon="-2.41412">
        <ele>120.59999847412</ele>
        <time>2020-12-10T10:43:13.000Z</time>
      </trkpt>
      <trkpt lat="47.30496" lon="-2.41403">
        <ele>120.59999847412</ele>
        <time>2020-12-10T10:43:14.000Z</time>
      </trkpt>
      <trkpt lat="47.30484" lon="-2.41353">
        <ele>120.59999847412</ele>
        <time>2020-12-10T10:43:19.000Z</time>
      </trkpt>
      <trkpt lat="47.3048" lon="-2.41332">
        <ele>120.59999847412</ele>
        <time>2020-12-10T10:43:21.000Z</time>
      </trkpt>
      <trkpt lat="47.30473" lon="-2.41301">
        <ele>120.59999847412</ele>
        <time>2020-12-10T10:43:24.000Z</time>
      </trkpt>
      <trkpt lat="47.30462" lon="-2.41248">
        <ele>120.59999847412</ele>
        <time>2020-12-10T10:43:29.000Z</time>
      </trkpt>
      <trkpt lat="47.30452" lon="-2.41184">
        <ele>120.59999847412</ele>
        <time>2020-12-10T10:43:35.000Z</time>
      </trkpt>
      <trkpt lat="47.30449" lon="-2.41174">
        <ele>120.59999847412</ele>
        <time>2020-12-10T10:43:36.000Z</time>
      </trkpt>
      <trkpt lat="47.30435" lon="-2.41151">
        <ele>120.59999847412</ele>
        <time>2020-12-10T10:43:39.000Z</time>
      </trkpt>
      <trkpt lat="47.30413" lon="-2.41149">
        <ele>120.59999847412</ele>
        <time>2020-12-10T10:43:42.000Z</time>
      </trkpt>
      <trkpt lat="47.30406" lon="-2.4115">
        <ele>120.59999847412</ele>
        <time>2020-12-10T10:43:43.000Z</time>
      </trkpt>
      <trkpt lat="47.30384" lon="-2.41153">
        <ele>120.59999847412</ele>
        <time>2020-12-10T10:43:46.000Z</time>
      </trkpt>
      <trkpt lat="47.3037" lon="-2.41152">
        <ele>120.59999847412</ele>
        <time>2020-12-10T10:43:48.000Z</time>
      </trkpt>
      <trkpt lat="47.30348" lon="-2.41144">
        <ele>120.19999694824</ele>
        <time>2020-12-10T10:43:51.000Z</time>
      </trkpt>
      <trkpt lat="47.30341" lon="-2.41141">
        <ele>119.80000305176</ele>
        <time>2020-12-10T10:43:52.000Z</time>
      </trkpt>
      <trkpt lat="47.30335" lon="-2.41138">
        <ele>119.40000152588</ele>
        <time>2020-12-10T10:43:53.000Z</time>
      </trkpt>
      <trkpt lat="47.30328" lon="-2.41135">
        <ele>118.59999847412</ele>
        <time>2020-12-10T10:43:54.000Z</time>
      </trkpt>
      <trkpt lat="47.30297" lon="-2.41123">
        <ele>118.59999847412</ele>
        <time>2020-12-10T10:43:59.000Z</time>
      </trkpt>
      <trkpt lat="47.30283" lon="-2.41107">
        <ele>118.59999847412</ele>
        <time>2020-12-10T10:44:02.000Z</time>
      </trkpt>
      <trkpt lat="47.30276" lon="-2.41093">
        <ele>118.59999847412</ele>
        <time>2020-12-10T10:44:04.000Z</time>
      </trkpt>
      <trkpt lat="47.30273" lon="-2.41085">
        <ele>118.59999847412</ele>
        <time>2020-12-10T10:44:05.000Z</time>
      </trkpt>
      <trkpt lat="47.30272" lon="-2.41077">
        <ele>118.59999847412</ele>
        <time>2020-12-10T10:44:06.000Z</time>
      </trkpt>
      <trkpt lat="47.3027" lon="-2.41037">
        <ele>118.59999847412</ele>
        <time>2020-12-10T10:44:11.000Z</time>
      </trkpt>
      <trkpt lat="47.30269" lon="-2.41029">
        <ele>118.59999847412</ele>
        <time>2020-12-10T10:44:12.000Z</time>
      </trkpt>
      <trkpt lat="47.30263" lon="-2.41015">
        <ele>119</ele>
        <time>2020-12-10T10:44:14.000Z</time>
      </trkpt>
      <trkpt lat="47.30259" lon="-2.41009">
        <ele>119.40000152588</ele>
        <time>2020-12-10T10:44:15.000Z</time>
      </trkpt>
      <trkpt lat="47.30256" lon="-2.41003">
        <ele>119.80000305176</ele>
        <time>2020-12-10T10:44:16.000Z</time>
      </trkpt>
      <trkpt lat="47.30252" lon="-2.40998">
        <ele>120.40000152588</ele>
        <time>2020-12-10T10:44:17.000Z</time>
      </trkpt>
      <trkpt lat="47.30247" lon="-2.40993">
        <ele>120.80000305176</ele>
        <time>2020-12-10T10:44:18.000Z</time>
      </trkpt>
      <trkpt lat="47.30235" lon="-2.40979">
        <ele>120.80000305176</ele>
        <time>2020-12-10T10:44:21.000Z</time>
      </trkpt>
      <trkpt lat="47.30228" lon="-2.4097">
        <ele>120.80000305176</ele>
        <time>2020-12-10T10:44:23.000Z</time>
      </trkpt>
      <trkpt lat="47.30222" lon="-2.40954">
        <ele>120.80000305176</ele>
        <time>2020-12-10T10:44:26.000Z</time>
      </trkpt>
      <trkpt lat="47.30217" lon="-2.40932">
        <ele>120.80000305176</ele>
        <time>2020-12-10T10:44:30.000Z</time>
      </trkpt>
      <trkpt lat="47.30203" lon="-2.40925">
        <ele>120.80000305176</ele>
        <time>2020-12-10T10:44:33.000Z</time>
      </trkpt>
      <trkpt lat="47.30187" lon="-2.4092">
        <ele>120.80000305176</ele>
        <time>2020-12-10T10:44:36.000Z</time>
      </trkpt>
      <trkpt lat="47.30171" lon="-2.40914">
        <ele>120.80000305176</ele>
        <time>2020-12-10T10:44:39.000Z</time>
      </trkpt>
      <trkpt lat="47.30135" lon="-2.40893">
        <ele>120.80000305176</ele>
        <time>2020-12-10T10:44:46.000Z</time>
      </trkpt>
      <trkpt lat="47.30118" lon="-2.40882">
        <ele>120.80000305176</ele>
        <time>2020-12-10T10:44:51.000Z</time>
      </trkpt>
      <trkpt lat="47.301" lon="-2.40867">
        <ele>120.80000305176</ele>
        <time>2020-12-10T10:44:56.000Z</time>
      </trkpt>
      <trkpt lat="47.30074" lon="-2.40843">
        <ele>120.80000305176</ele>
        <time>2020-12-10T10:45:03.000Z</time>
      </trkpt>
      <trkpt lat="47.30059" lon="-2.4083">
        <ele>121.19999694824</ele>
        <time>2020-12-10T10:45:07.000Z</time>
      </trkpt>
      <trkpt lat="47.30055" lon="-2.40826">
        <ele>122</ele>
        <time>2020-12-10T10:45:08.000Z</time>
      </trkpt>
      <trkpt lat="47.30051" lon="-2.40822">
        <ele>122.40000152588</ele>
        <time>2020-12-10T10:45:09.000Z</time>
      </trkpt>
      <trkpt lat="47.30046" lon="-2.40818">
        <ele>122.80000305176</ele>
        <time>2020-12-10T10:45:10.000Z</time>
      </trkpt>
      <trkpt lat="47.30008" lon="-2.40784">
        <ele>122.80000305176</ele>
        <time>2020-12-10T10:45:18.000Z</time>
      </trkpt>
      <trkpt lat="47.29962" lon="-2.40742">
        <ele>122.80000305176</ele>
        <time>2020-12-10T10:45:27.000Z</time>
      </trkpt>
      <trkpt lat="47.29913" lon="-2.40701">
        <ele>122.80000305176</ele>
        <time>2020-12-10T10:45:36.000Z</time>
      </trkpt>
      <trkpt lat="47.29896" lon="-2.40687">
        <ele>123.19999694824</ele>
        <time>2020-12-10T10:45:39.000Z</time>
      </trkpt>
      <trkpt lat="47.29891" lon="-2.40682">
        <ele>123.59999847412</ele>
        <time>2020-12-10T10:45:40.000Z</time>
      </trkpt>
      <trkpt lat="47.29886" lon="-2.40676">
        <ele>124</ele>
        <time>2020-12-10T10:45:41.000Z</time>
      </trkpt>
      <trkpt lat="47.29881" lon="-2.40671">
        <ele>124.40000152588</ele>
        <time>2020-12-10T10:45:42.000Z</time>
      </trkpt>
      <trkpt lat="47.29876" lon="-2.40665">
        <ele>124.80000305176</ele>
        <time>2020-12-10T10:45:43.000Z</time>
      </trkpt>
      <trkpt lat="47.29871" lon="-2.4066">
        <ele>124.80000305176</ele>
        <time>2020-12-10T10:45:44.000Z</time>
      </trkpt>
      <trkpt lat="47.29834" lon="-2.40629">
        <ele>124.80000305176</ele>
        <time>2020-12-10T10:45:50.000Z</time>
      </trkpt>
      <trkpt lat="47.29827" lon="-2.40627">
        <ele>124.80000305176</ele>
        <time>2020-12-10T10:45:51.000Z</time>
      </trkpt>
      <trkpt lat="47.29813" lon="-2.40623">
        <ele>124.80000305176</ele>
        <time>2020-12-10T10:45:53.000Z</time>
      </trkpt>
      <trkpt lat="47.29808" lon="-2.40618">
        <ele>124.80000305176</ele>
        <time>2020-12-10T10:45:54.000Z</time>
      </trkpt>
      <trkpt lat="47.29798" lon="-2.40606">
        <ele>124.80000305176</ele>
        <time>2020-12-10T10:45:56.000Z</time>
      </trkpt>
      <trkpt lat="47.29789" lon="-2.40596">
        <ele>124</ele>
        <time>2020-12-10T10:45:58.000Z</time>
      </trkpt>
      <trkpt lat="47.29787" lon="-2.40589">
        <ele>123.59999847412</ele>
        <time>2020-12-10T10:45:59.000Z</time>
      </trkpt>
      <trkpt lat="47.29788" lon="-2.40583">
        <ele>123.19999694824</ele>
        <time>2020-12-10T10:46:00.000Z</time>
      </trkpt>
      <trkpt lat="47.29791" lon="-2.40577">
        <ele>122.80000305176</ele>
        <time>2020-12-10T10:46:01.000Z</time>
      </trkpt>
      <trkpt lat="47.29796" lon="-2.40554">
        <ele>122.80000305176</ele>
        <time>2020-12-10T10:46:04.000Z</time>
      </trkpt>
      <trkpt lat="47.29791" lon="-2.40528">
        <ele>122.80000305176</ele>
        <time>2020-12-10T10:46:07.000Z</time>
      </trkpt>
      <trkpt lat="47.2979" lon="-2.40519">
        <ele>122.80000305176</ele>
        <time>2020-12-10T10:46:08.000Z</time>
      </trkpt>
      <trkpt lat="47.29778" lon="-2.4046">
        <ele>122.80000305176</ele>
        <time>2020-12-10T10:46:15.000Z</time>
      </trkpt>
      <trkpt lat="47.29774" lon="-2.40428">
        <ele>123.19999694824</ele>
        <time>2020-12-10T10:46:19.000Z</time>
      </trkpt>
      <trkpt lat="47.29774" lon="-2.40419">
        <ele>123.59999847412</ele>
        <time>2020-12-10T10:46:20.000Z</time>
      </trkpt>
      <trkpt lat="47.29774" lon="-2.4041">
        <ele>124</ele>
        <time>2020-12-10T10:46:21.000Z</time>
      </trkpt>
      <trkpt lat="47.29774" lon="-2.40402">
        <ele>125</ele>
        <time>2020-12-10T10:46:22.000Z</time>
      </trkpt>
      <trkpt lat="47.29774" lon="-2.40357">
        <ele>125.40000152588</ele>
        <time>2020-12-10T10:46:28.000Z</time>
      </trkpt>
      <trkpt lat="47.29773" lon="-2.40351">
        <ele>125.80000305176</ele>
        <time>2020-12-10T10:46:29.000Z</time>
      </trkpt>
      <trkpt lat="47.2977" lon="-2.40347">
        <ele>126.19999694824</ele>
        <time>2020-12-10T10:46:30.000Z</time>
      </trkpt>
      <trkpt lat="47.29767" lon="-2.40344">
        <ele>126.80000305176</ele>
        <time>2020-12-10T10:46:31.000Z</time>
      </trkpt>
      <trkpt lat="47.29763" lon="-2.40343">
        <ele>127.19999694824</ele>
        <time>2020-12-10T10:46:32.000Z</time>
      </trkpt>
      <trkpt lat="47.29753" lon="-2.40343">
        <ele>127.59999847412</ele>
        <time>2020-12-10T10:46:34.000Z</time>
      </trkpt>
      <trkpt lat="47.29749" lon="-2.40345">
        <ele>128.19999694824</ele>
        <time>2020-12-10T10:46:35.000Z</time>
      </trkpt>
      <trkpt lat="47.29744" lon="-2.40346">
        <ele>128.80000305176</ele>
        <time>2020-12-10T10:46:36.000Z</time>
      </trkpt>
      <trkpt lat="47.2974" lon="-2.4035">
        <ele>129.19999694824</ele>
        <time>2020-12-10T10:46:37.000Z</time>
      </trkpt>
      <trkpt lat="47.29736" lon="-2.40355">
        <ele>129.80000305176</ele>
        <time>2020-12-10T10:46:38.000Z</time>
      </trkpt>
      <trkpt lat="47.29728" lon="-2.40362">
        <ele>129.80000305176</ele>
        <time>2020-12-10T10:46:40.000Z</time>
      </trkpt>
      <trkpt lat="47.29707" lon="-2.40378">
        <ele>129.80000305176</ele>
        <time>2020-12-10T10:46:45.000Z</time>
      </trkpt>
      <trkpt lat="47.29702" lon="-2.4038">
        <ele>129.80000305176</ele>
        <time>2020-12-10T10:46:46.000Z</time>
      </trkpt>
      <trkpt lat="47.29688" lon="-2.40374">
        <ele>129.80000305176</ele>
        <time>2020-12-10T10:46:49.000Z</time>
      </trkpt>
      <trkpt lat="47.29677" lon="-2.40355">
        <ele>129.80000305176</ele>
        <time>2020-12-10T10:46:52.000Z</time>
      </trkpt>
      <trkpt lat="47.29674" lon="-2.40338">
        <ele>129.80000305176</ele>
        <time>2020-12-10T10:46:54.000Z</time>
      </trkpt>
      <trkpt lat="47.29672" lon="-2.4033">
        <ele>129.80000305176</ele>
        <time>2020-12-10T10:46:55.000Z</time>
      </trkpt>
      <trkpt lat="47.29669" lon="-2.40324">
        <ele>129.80000305176</ele>
        <time>2020-12-10T10:46:56.000Z</time>
      </trkpt>
      <trkpt lat="47.29659" lon="-2.40296">
        <ele>129.80000305176</ele>
        <time>2020-12-10T10:47:01.000Z</time>
      </trkpt>
      <trkpt lat="47.29659" lon="-2.4029">
        <ele>129.80000305176</ele>
        <time>2020-12-10T10:47:02.000Z</time>
      </trkpt>
      <trkpt lat="47.29664" lon="-2.40282">
        <ele>129.80000305176</ele>
        <time>2020-12-10T10:47:04.000Z</time>
      </trkpt>
      <trkpt lat="47.2967" lon="-2.40275">
        <ele>129.80000305176</ele>
        <time>2020-12-10T10:47:06.000Z</time>
      </trkpt>
      <trkpt lat="47.29674" lon="-2.40266">
        <ele>129.80000305176</ele>
        <time>2020-12-10T10:47:08.000Z</time>
      </trkpt>
      <trkpt lat="47.29672" lon="-2.40234">
        <ele>129.80000305176</ele>
        <time>2020-12-10T10:47:12.000Z</time>
      </trkpt>
      <trkpt lat="47.2967" lon="-2.40204">
        <ele>129.39999389648</ele>
        <time>2020-12-10T10:47:15.000Z</time>
      </trkpt>
      <trkpt lat="47.29669" lon="-2.40194">
        <ele>129</ele>
        <time>2020-12-10T10:47:16.000Z</time>
      </trkpt>
      <trkpt lat="47.29668" lon="-2.40183">
        <ele>128.60000610352</ele>
        <time>2020-12-10T10:47:17.000Z</time>
      </trkpt>
      <trkpt lat="47.29667" lon="-2.40173">
        <ele>128.19999694824</ele>
        <time>2020-12-10T10:47:18.000Z</time>
      </trkpt>
      <trkpt lat="47.29667" lon="-2.40164">
        <ele>127.80000305176</ele>
        <time>2020-12-10T10:47:19.000Z</time>
      </trkpt>
      <trkpt lat="47.29664" lon="-2.40138">
        <ele>127.40000152588</ele>
        <time>2020-12-10T10:47:22.000Z</time>
      </trkpt>
      <trkpt lat="47.29662" lon="-2.40132">
        <ele>126.80000305176</ele>
        <time>2020-12-10T10:47:23.000Z</time>
      </trkpt>
      <trkpt lat="47.2966" lon="-2.40126">
        <ele>126.40000152588</ele>
        <time>2020-12-10T10:47:24.000Z</time>
      </trkpt>
      <trkpt lat="47.29658" lon="-2.40121">
        <ele>126</ele>
        <time>2020-12-10T10:47:25.000Z</time>
      </trkpt>
      <trkpt lat="47.29656" lon="-2.40116">
        <ele>125.59999847412</ele>
        <time>2020-12-10T10:47:26.000Z</time>
      </trkpt>
      <trkpt lat="47.29654" lon="-2.4011">
        <ele>125.59999847412</ele>
        <time>2020-12-10T10:47:27.000Z</time>
      </trkpt>
      <trkpt lat="47.29647" lon="-2.40074">
        <ele>125.19999694824</ele>
        <time>2020-12-10T10:47:33.000Z</time>
      </trkpt>
      <trkpt lat="47.29646" lon="-2.4007">
        <ele>124.80000305176</ele>
        <time>2020-12-10T10:47:34.000Z</time>
      </trkpt>
      <trkpt lat="47.29646" lon="-2.40066">
        <ele>124.40000152588</ele>
        <time>2020-12-10T10:47:35.000Z</time>
      </trkpt>
      <trkpt lat="47.29645" lon="-2.40064">
        <ele>123.40000152588</ele>
        <time>2020-12-10T10:47:36.000Z</time>
      </trkpt>
      <trkpt lat="47.29645" lon="-2.40063">
        <ele>123.40000152588</ele>
        <time>2020-12-10T10:47:37.000Z</time>
      </trkpt>
      <trkpt lat="47.29643" lon="-2.40063">
        <ele>123.40000152588</ele>
        <time>2020-12-10T10:47:39.000Z</time>
      </trkpt>
      <trkpt lat="47.29638" lon="-2.4006">
        <ele>123.40000152588</ele>
        <time>2020-12-10T10:47:41.000Z</time>
      </trkpt>
      <trkpt lat="47.29631" lon="-2.40046">
        <ele>123.40000152588</ele>
        <time>2020-12-10T10:47:44.000Z</time>
      </trkpt>
      <trkpt lat="47.29628" lon="-2.4004">
        <ele>123.40000152588</ele>
        <time>2020-12-10T10:47:45.000Z</time>
      </trkpt>
      <trkpt lat="47.29621" lon="-2.40019">
        <ele>123.40000152588</ele>
        <time>2020-12-10T10:47:48.000Z</time>
      </trkpt>
      <trkpt lat="47.29622" lon="-2.40011">
        <ele>123.40000152588</ele>
        <time>2020-12-10T10:47:49.000Z</time>
      </trkpt>
      <trkpt lat="47.29632" lon="-2.39995">
        <ele>123.40000152588</ele>
        <time>2020-12-10T10:47:52.000Z</time>
      </trkpt>
      <trkpt lat="47.29641" lon="-2.3999">
        <ele>123.40000152588</ele>
        <time>2020-12-10T10:47:54.000Z</time>
      </trkpt>
      <trkpt lat="47.29651" lon="-2.39981">
        <ele>123.40000152588</ele>
        <time>2020-12-10T10:47:57.000Z</time>
      </trkpt>
      <trkpt lat="47.29647" lon="-2.39969">
        <ele>123.40000152588</ele>
        <time>2020-12-10T10:48:00.000Z</time>
      </trkpt>
      <trkpt lat="47.29646" lon="-2.39964">
        <ele>123.40000152588</ele>
        <time>2020-12-10T10:48:01.000Z</time>
      </trkpt>
      <trkpt lat="47.29636" lon="-2.39942">
        <ele>123.40000152588</ele>
        <time>2020-12-10T10:48:06.000Z</time>
      </trkpt>
      <trkpt lat="47.29633" lon="-2.39936">
        <ele>123</ele>
        <time>2020-12-10T10:48:07.000Z</time>
      </trkpt>
      <trkpt lat="47.2963" lon="-2.3993">
        <ele>122.59999847412</ele>
        <time>2020-12-10T10:48:08.000Z</time>
      </trkpt>
      <trkpt lat="47.29627" lon="-2.39924">
        <ele>122.19999694824</ele>
        <time>2020-12-10T10:48:09.000Z</time>
      </trkpt>
      <trkpt lat="47.29624" lon="-2.39918">
        <ele>121.80000305176</ele>
        <time>2020-12-10T10:48:10.000Z</time>
      </trkpt>
      <trkpt lat="47.2962" lon="-2.39912">
        <ele>121.40000152588</ele>
        <time>2020-12-10T10:48:11.000Z</time>
      </trkpt>
      <trkpt lat="47.29606" lon="-2.39883">
        <ele>121.40000152588</ele>
        <time>2020-12-10T10:48:15.000Z</time>
      </trkpt>
      <trkpt lat="47.29605" lon="-2.39874">
        <ele>121.40000152588</ele>
        <time>2020-12-10T10:48:16.000Z</time>
      </trkpt>
      <trkpt lat="47.29611" lon="-2.39852">
        <ele>121.40000152588</ele>
        <time>2020-12-10T10:48:19.000Z</time>
      </trkpt>
      <trkpt lat="47.2961" lon="-2.39831">
        <ele>121.40000152588</ele>
        <time>2020-12-10T10:48:22.000Z</time>
      </trkpt>
      <trkpt lat="47.29608" lon="-2.39824">
        <ele>121.40000152588</ele>
        <time>2020-12-10T10:48:23.000Z</time>
      </trkpt>
      <trkpt lat="47.29603" lon="-2.39809">
        <ele>121.40000152588</ele>
        <time>2020-12-10T10:48:25.000Z</time>
      </trkpt>
      <trkpt lat="47.29605" lon="-2.39795">
        <ele>121</ele>
        <time>2020-12-10T10:48:27.000Z</time>
      </trkpt>
      <trkpt lat="47.29607" lon="-2.39789">
        <ele>120.59999847412</ele>
        <time>2020-12-10T10:48:28.000Z</time>
      </trkpt>
      <trkpt lat="47.2961" lon="-2.39784">
        <ele>120.19999694824</ele>
        <time>2020-12-10T10:48:29.000Z</time>
      </trkpt>
      <trkpt lat="47.29613" lon="-2.39777">
        <ele>119.59999847412</ele>
        <time>2020-12-10T10:48:30.000Z</time>
      </trkpt>
      <trkpt lat="47.29615" lon="-2.39769">
        <ele>119.19999694824</ele>
        <time>2020-12-10T10:48:31.000Z</time>
      </trkpt>
      <trkpt lat="47.29611" lon="-2.39746">
        <ele>119.19999694824</ele>
        <time>2020-12-10T10:48:34.000Z</time>
      </trkpt>
      <trkpt lat="47.29605" lon="-2.39732">
        <ele>119.19999694824</ele>
        <time>2020-12-10T10:48:36.000Z</time>
      </trkpt>
      <trkpt lat="47.29596" lon="-2.39705">
        <ele>119.19999694824</ele>
        <time>2020-12-10T10:48:40.000Z</time>
      </trkpt>
      <trkpt lat="47.29604" lon="-2.39687">
        <ele>119.19999694824</ele>
        <time>2020-12-10T10:48:43.000Z</time>
      </trkpt>
      <trkpt lat="47.29607" lon="-2.39681">
        <ele>119.19999694824</ele>
        <time>2020-12-10T10:48:44.000Z</time>
      </trkpt>
      <trkpt lat="47.29625" lon="-2.39648">
        <ele>119.19999694824</ele>
        <time>2020-12-10T10:48:50.000Z</time>
      </trkpt>
      <trkpt lat="47.29627" lon="-2.39641">
        <ele>119.19999694824</ele>
        <time>2020-12-10T10:48:51.000Z</time>
      </trkpt>
      <trkpt lat="47.29628" lon="-2.39624">
        <ele>119.19999694824</ele>
        <time>2020-12-10T10:48:54.000Z</time>
      </trkpt>
      <trkpt lat="47.2963" lon="-2.39586">
        <ele>119.19999694824</ele>
        <time>2020-12-10T10:49:01.000Z</time>
      </trkpt>
      <trkpt lat="47.2963" lon="-2.3958">
        <ele>119.19999694824</ele>
        <time>2020-12-10T10:49:02.000Z</time>
      </trkpt>
      <trkpt lat="47.29625" lon="-2.39574">
        <ele>119.19999694824</ele>
        <time>2020-12-10T10:49:04.000Z</time>
      </trkpt>
      <trkpt lat="47.29613" lon="-2.39571">
        <ele>119.19999694824</ele>
        <time>2020-12-10T10:49:08.000Z</time>
      </trkpt>
      <trkpt lat="47.29615" lon="-2.39564">
        <ele>119.19999694824</ele>
        <time>2020-12-10T10:49:11.000Z</time>
      </trkpt>
      <trkpt lat="47.2962" lon="-2.39562">
        <ele>119.19999694824</ele>
        <time>2020-12-10T10:49:13.000Z</time>
      </trkpt>
      <trkpt lat="47.29624" lon="-2.39558">
        <ele>119.19999694824</ele>
        <time>2020-12-10T10:49:15.000Z</time>
      </trkpt>
      <trkpt lat="47.29625" lon="-2.39556">
        <ele>119.59999847412</ele>
        <time>2020-12-10T10:49:16.000Z</time>
      </trkpt>
      <trkpt lat="47.29624" lon="-2.39553">
        <ele>120</ele>
        <time>2020-12-10T10:49:17.000Z</time>
      </trkpt>
      <trkpt lat="47.29621" lon="-2.39553">
        <ele>120.40000152588</ele>
        <time>2020-12-10T10:49:18.000Z</time>
      </trkpt>
      <trkpt lat="47.29618" lon="-2.39553">
        <ele>120.80000305176</ele>
        <time>2020-12-10T10:49:19.000Z</time>
      </trkpt>
      <trkpt lat="47.29615" lon="-2.39553">
        <ele>121.19999694824</ele>
        <time>2020-12-10T10:49:20.000Z</time>
      </trkpt>
      <trkpt lat="47.29599" lon="-2.39551">
        <ele>121.19999694824</ele>
        <time>2020-12-10T10:49:25.000Z</time>
      </trkpt>
      <trkpt lat="47.29596" lon="-2.3955">
        <ele>121.59999847412</ele>
        <time>2020-12-10T10:49:26.000Z</time>
      </trkpt>
      <trkpt lat="47.29593" lon="-2.39549">
        <ele>122.19999694824</ele>
        <time>2020-12-10T10:49:27.000Z</time>
      </trkpt>
      <trkpt lat="47.29591" lon="-2.39548">
        <ele>122.59999847412</ele>
        <time>2020-12-10T10:49:28.000Z</time>
      </trkpt>
      <trkpt lat="47.29588" lon="-2.39548">
        <ele>123</ele>
        <time>2020-12-10T10:49:29.000Z</time>
      </trkpt>
      <trkpt lat="47.29585" lon="-2.39547">
        <ele>123.40000152588</ele>
        <time>2020-12-10T10:49:30.000Z</time>
      </trkpt>
      <trkpt lat="47.29577" lon="-2.39546">
        <ele>123.40000152588</ele>
        <time>2020-12-10T10:49:32.000Z</time>
      </trkpt>
      <trkpt lat="47.29559" lon="-2.39542">
        <ele>123.40000152588</ele>
        <time>2020-12-10T10:49:36.000Z</time>
      </trkpt>
      <trkpt lat="47.29555" lon="-2.39535">
        <ele>123.40000152588</ele>
        <time>2020-12-10T10:49:38.000Z</time>
      </trkpt>
      <trkpt lat="47.29556" lon="-2.3953">
        <ele>123.40000152588</ele>
        <time>2020-12-10T10:49:39.000Z</time>
      </trkpt>
      <trkpt lat="47.29555" lon="-2.39516">
        <ele>123</ele>
        <time>2020-12-10T10:49:42.000Z</time>
      </trkpt>
      <trkpt lat="47.29555" lon="-2.3951">
        <ele>122.59999847412</ele>
        <time>2020-12-10T10:49:43.000Z</time>
      </trkpt>
      <trkpt lat="47.29555" lon="-2.39505">
        <ele>122</ele>
        <time>2020-12-10T10:49:44.000Z</time>
      </trkpt>
      <trkpt lat="47.29556" lon="-2.39501">
        <ele>121.59999847412</ele>
        <time>2020-12-10T10:49:45.000Z</time>
      </trkpt>
      <trkpt lat="47.29558" lon="-2.39496">
        <ele>121</ele>
        <time>2020-12-10T10:49:46.000Z</time>
      </trkpt>
      <trkpt lat="47.29559" lon="-2.39491">
        <ele>120.59999847412</ele>
        <time>2020-12-10T10:49:47.000Z</time>
      </trkpt>
      <trkpt lat="47.29558" lon="-2.39487">
        <ele>120</ele>
        <time>2020-12-10T10:49:48.000Z</time>
      </trkpt>
      <trkpt lat="47.29557" lon="-2.39484">
        <ele>119.40000152588</ele>
        <time>2020-12-10T10:49:49.000Z</time>
      </trkpt>
      <trkpt lat="47.29555" lon="-2.39482">
        <ele>119</ele>
        <time>2020-12-10T10:49:50.000Z</time>
      </trkpt>
      <trkpt lat="47.29543" lon="-2.39478">
        <ele>119</ele>
        <time>2020-12-10T10:49:53.000Z</time>
      </trkpt>
      <trkpt lat="47.29539" lon="-2.39476">
        <ele>119</ele>
        <time>2020-12-10T10:49:54.000Z</time>
      </trkpt>
      <trkpt lat="47.29503" lon="-2.39468">
        <ele>119</ele>
        <time>2020-12-10T10:50:01.000Z</time>
      </trkpt>
      <trkpt lat="47.29498" lon="-2.39468">
        <ele>119</ele>
        <time>2020-12-10T10:50:02.000Z</time>
      </trkpt>
      <trkpt lat="47.29474" lon="-2.39469">
        <ele>119</ele>
        <time>2020-12-10T10:50:06.000Z</time>
      </trkpt>
      <trkpt lat="47.29423" lon="-2.39464">
        <ele>119</ele>
        <time>2020-12-10T10:50:15.000Z</time>
      </trkpt>
      <trkpt lat="47.29389" lon="-2.39463">
        <ele>119</ele>
        <time>2020-12-10T10:50:22.000Z</time>
      </trkpt>
      <trkpt lat="47.29373" lon="-2.39462">
        <ele>119</ele>
        <time>2020-12-10T10:50:25.000Z</time>
      </trkpt>
      <trkpt lat="47.29363" lon="-2.39458">
        <ele>119</ele>
        <time>2020-12-10T10:50:27.000Z</time>
      </trkpt>
      <trkpt lat="47.29359" lon="-2.39454">
        <ele>119</ele>
        <time>2020-12-10T10:50:28.000Z</time>
      </trkpt>
      <trkpt lat="47.29352" lon="-2.39435">
        <ele>119</ele>
        <time>2020-12-10T10:50:31.000Z</time>
      </trkpt>
      <trkpt lat="47.29351" lon="-2.39427">
        <ele>119</ele>
        <time>2020-12-10T10:50:32.000Z</time>
      </trkpt>
      <trkpt lat="47.2935" lon="-2.39419">
        <ele>119</ele>
        <time>2020-12-10T10:50:33.000Z</time>
      </trkpt>
      <trkpt lat="47.29348" lon="-2.39394">
        <ele>119</ele>
        <time>2020-12-10T10:50:36.000Z</time>
      </trkpt>
      <trkpt lat="47.29347" lon="-2.39324">
        <ele>119</ele>
        <time>2020-12-10T10:50:44.000Z</time>
      </trkpt>
      <trkpt lat="47.29351" lon="-2.39258">
        <ele>119</ele>
        <time>2020-12-10T10:50:51.000Z</time>
      </trkpt>
      <trkpt lat="47.29349" lon="-2.39203">
        <ele>119</ele>
        <time>2020-12-10T10:50:57.000Z</time>
      </trkpt>
      <trkpt lat="47.2935" lon="-2.39184">
        <ele>119</ele>
        <time>2020-12-10T10:50:59.000Z</time>
      </trkpt>
      <trkpt lat="47.29353" lon="-2.39168">
        <ele>119</ele>
        <time>2020-12-10T10:51:01.000Z</time>
      </trkpt>
      <trkpt lat="47.29365" lon="-2.39158">
        <ele>119</ele>
        <time>2020-12-10T10:51:04.000Z</time>
      </trkpt>
      <trkpt lat="47.29377" lon="-2.39164">
        <ele>119</ele>
        <time>2020-12-10T10:51:06.000Z</time>
      </trkpt>
      <trkpt lat="47.29388" lon="-2.39167">
        <ele>119</ele>
        <time>2020-12-10T10:51:08.000Z</time>
      </trkpt>
      <trkpt lat="47.29414" lon="-2.3917">
        <ele>119</ele>
        <time>2020-12-10T10:51:13.000Z</time>
      </trkpt>
      <trkpt lat="47.29418" lon="-2.39166">
        <ele>119</ele>
        <time>2020-12-10T10:51:14.000Z</time>
      </trkpt>
      <trkpt lat="47.29421" lon="-2.39142">
        <ele>119</ele>
        <time>2020-12-10T10:51:17.000Z</time>
      </trkpt>
      <trkpt lat="47.29421" lon="-2.39134">
        <ele>119</ele>
        <time>2020-12-10T10:51:18.000Z</time>
      </trkpt>
      <trkpt lat="47.2942" lon="-2.39078">
        <ele>119</ele>
        <time>2020-12-10T10:51:24.000Z</time>
      </trkpt>
      <trkpt lat="47.29427" lon="-2.39012">
        <ele>119</ele>
        <time>2020-12-10T10:51:31.000Z</time>
      </trkpt>
      <trkpt lat="47.29439" lon="-2.38959">
        <ele>119.40000152588</ele>
        <time>2020-12-10T10:51:37.000Z</time>
      </trkpt>
      <trkpt lat="47.29441" lon="-2.38951">
        <ele>119.80000305176</ele>
        <time>2020-12-10T10:51:38.000Z</time>
      </trkpt>
      <trkpt lat="47.29443" lon="-2.38942">
        <ele>120.19999694824</ele>
        <time>2020-12-10T10:51:39.000Z</time>
      </trkpt>
      <trkpt lat="47.29444" lon="-2.38933">
        <ele>120.59999847412</ele>
        <time>2020-12-10T10:51:40.000Z</time>
      </trkpt>
      <trkpt lat="47.29446" lon="-2.38924">
        <ele>121.19999694824</ele>
        <time>2020-12-10T10:51:41.000Z</time>
      </trkpt>
      <trkpt lat="47.29454" lon="-2.38891">
        <ele>121.19999694824</ele>
        <time>2020-12-10T10:51:45.000Z</time>
      </trkpt>
      <trkpt lat="47.2947" lon="-2.38838">
        <ele>121.19999694824</ele>
        <time>2020-12-10T10:51:52.000Z</time>
      </trkpt>
      <trkpt lat="47.2947" lon="-2.38804">
        <ele>121.19999694824</ele>
        <time>2020-12-10T10:51:56.000Z</time>
      </trkpt>
      <trkpt lat="47.2947" lon="-2.38795">
        <ele>121.19999694824</ele>
        <time>2020-12-10T10:51:57.000Z</time>
      </trkpt>
      <trkpt lat="47.29471" lon="-2.38776">
        <ele>121.19999694824</ele>
        <time>2020-12-10T10:51:59.000Z</time>
      </trkpt>
      <trkpt lat="47.29472" lon="-2.38745">
        <ele>121.19999694824</ele>
        <time>2020-12-10T10:52:02.000Z</time>
      </trkpt>
      <trkpt lat="47.29466" lon="-2.38682">
        <ele>121.19999694824</ele>
        <time>2020-12-10T10:52:08.000Z</time>
      </trkpt>
      <trkpt lat="47.29463" lon="-2.38673">
        <ele>121.19999694824</ele>
        <time>2020-12-10T10:52:09.000Z</time>
      </trkpt>
      <trkpt lat="47.29459" lon="-2.38642">
        <ele>121.19999694824</ele>
        <time>2020-12-10T10:52:12.000Z</time>
      </trkpt>
      <trkpt lat="47.29461" lon="-2.3861">
        <ele>121.19999694824</ele>
        <time>2020-12-10T10:52:15.000Z</time>
      </trkpt>
      <trkpt lat="47.29461" lon="-2.38599">
        <ele>121.19999694824</ele>
        <time>2020-12-10T10:52:16.000Z</time>
      </trkpt>
      <trkpt lat="47.29459" lon="-2.3852">
        <ele>121.19999694824</ele>
        <time>2020-12-10T10:52:23.000Z</time>
      </trkpt>
      <trkpt lat="47.29459" lon="-2.38509">
        <ele>120.80000305176</ele>
        <time>2020-12-10T10:52:24.000Z</time>
      </trkpt>
      <trkpt lat="47.29458" lon="-2.38496">
        <ele>120.40000152588</ele>
        <time>2020-12-10T10:52:25.000Z</time>
      </trkpt>
      <trkpt lat="47.29458" lon="-2.38485">
        <ele>119.80000305176</ele>
        <time>2020-12-10T10:52:26.000Z</time>
      </trkpt>
      <trkpt lat="47.29458" lon="-2.38473">
        <ele>119.40000152588</ele>
        <time>2020-12-10T10:52:27.000Z</time>
      </trkpt>
      <trkpt lat="47.29457" lon="-2.38461">
        <ele>119</ele>
        <time>2020-12-10T10:52:28.000Z</time>
      </trkpt>
      <trkpt lat="47.29455" lon="-2.38383">
        <ele>119</ele>
        <time>2020-12-10T10:52:35.000Z</time>
      </trkpt>
      <trkpt lat="47.29454" lon="-2.38353">
        <ele>119</ele>
        <time>2020-12-10T10:52:38.000Z</time>
      </trkpt>
      <trkpt lat="47.29454" lon="-2.38324">
        <ele>119</ele>
        <time>2020-12-10T10:52:41.000Z</time>
      </trkpt>
      <trkpt lat="47.29456" lon="-2.38271">
        <ele>119</ele>
        <time>2020-12-10T10:52:47.000Z</time>
      </trkpt>
      <trkpt lat="47.29451" lon="-2.38212">
        <ele>119</ele>
        <time>2020-12-10T10:52:54.000Z</time>
      </trkpt>
      <trkpt lat="47.29442" lon="-2.38145">
        <ele>119</ele>
        <time>2020-12-10T10:53:01.000Z</time>
      </trkpt>
      <trkpt lat="47.2943" lon="-2.38102">
        <ele>119</ele>
        <time>2020-12-10T10:53:06.000Z</time>
      </trkpt>
      <trkpt lat="47.29424" lon="-2.38088">
        <ele>119</ele>
        <time>2020-12-10T10:53:08.000Z</time>
      </trkpt>
      <trkpt lat="47.29417" lon="-2.38078">
        <ele>119</ele>
        <time>2020-12-10T10:53:10.000Z</time>
      </trkpt>
      <trkpt lat="47.29405" lon="-2.3808">
        <ele>119</ele>
        <time>2020-12-10T10:53:13.000Z</time>
      </trkpt>
      <trkpt lat="47.29398" lon="-2.38087">
        <ele>119</ele>
        <time>2020-12-10T10:53:15.000Z</time>
      </trkpt>
      <trkpt lat="47.29386" lon="-2.38099">
        <ele>119</ele>
        <time>2020-12-10T10:53:18.000Z</time>
      </trkpt>
      <trkpt lat="47.29351" lon="-2.38128">
        <ele>119</ele>
        <time>2020-12-10T10:53:25.000Z</time>
      </trkpt>
      <trkpt lat="47.29327" lon="-2.38151">
        <ele>119</ele>
        <time>2020-12-10T10:53:30.000Z</time>
      </trkpt>
      <trkpt lat="47.29324" lon="-2.38157">
        <ele>119</ele>
        <time>2020-12-10T10:53:31.000Z</time>
      </trkpt>
      <trkpt lat="47.29319" lon="-2.3817">
        <ele>119</ele>
        <time>2020-12-10T10:53:34.000Z</time>
      </trkpt>
      <trkpt lat="47.29318" lon="-2.38173">
        <ele>119</ele>
        <time>2020-12-10T10:53:36.000Z</time>
      </trkpt>
      <trkpt lat="47.29316" lon="-2.38176">
        <ele>119</ele>
        <time>2020-12-10T10:53:39.000Z</time>
      </trkpt>
      <trkpt lat="47.29315" lon="-2.38176">
        <ele>119</ele>
        <time>2020-12-10T10:53:41.000Z</time>
      </trkpt>
      <trkpt lat="47.29309" lon="-2.38184">
        <ele>117</ele>
        <time>2020-12-10T10:54:16.000Z</time>
      </trkpt>
      <trkpt lat="47.29307" lon="-2.38186">
        <ele>117</ele>
        <time>2020-12-10T10:54:17.000Z</time>
      </trkpt>
      <trkpt lat="47.29296" lon="-2.38195">
        <ele>117</ele>
        <time>2020-12-10T10:54:23.000Z</time>
      </trkpt>
      <trkpt lat="47.29281" lon="-2.3821">
        <ele>117</ele>
        <time>2020-12-10T10:54:32.000Z</time>
      </trkpt>
      <trkpt lat="47.2927" lon="-2.3822">
        <ele>117</ele>
        <time>2020-12-10T10:54:41.000Z</time>
      </trkpt>
      <trkpt lat="47.29261" lon="-2.38231">
        <ele>117</ele>
        <time>2020-12-10T10:54:47.000Z</time>
      </trkpt>
      <trkpt lat="47.29258" lon="-2.38237">
        <ele>117.40000152588</ele>
        <time>2020-12-10T10:54:51.000Z</time>
      </trkpt>
      <trkpt lat="47.29251" lon="-2.38257">
        <ele>121.40000152588</ele>
        <time>2020-12-10T10:56:17.000Z</time>
      </trkpt>
      <trkpt lat="47.29249" lon="-2.38271">
        <ele>121.40000152588</ele>
        <time>2020-12-10T10:56:24.000Z</time>
      </trkpt>
      <trkpt lat="47.2925" lon="-2.3829">
        <ele>121.40000152588</ele>
        <time>2020-12-10T10:56:30.000Z</time>
      </trkpt>
      <trkpt lat="47.29251" lon="-2.38303">
        <ele>121.80000305176</ele>
        <time>2020-12-10T10:56:33.000Z</time>
      </trkpt>
      <trkpt lat="47.29252" lon="-2.38307">
        <ele>122.19999694824</ele>
        <time>2020-12-10T10:56:34.000Z</time>
      </trkpt>
      <trkpt lat="47.29253" lon="-2.38311">
        <ele>122.80000305176</ele>
        <time>2020-12-10T10:56:35.000Z</time>
      </trkpt>
      <trkpt lat="47.29254" lon="-2.38316">
        <ele>123.19999694824</ele>
        <time>2020-12-10T10:56:36.000Z</time>
      </trkpt>
      <trkpt lat="47.29255" lon="-2.38321">
        <ele>123.59999847412</ele>
        <time>2020-12-10T10:56:37.000Z</time>
      </trkpt>
      <trkpt lat="47.29259" lon="-2.3835">
        <ele>123.59999847412</ele>
        <time>2020-12-10T10:56:43.000Z</time>
      </trkpt>
      <trkpt lat="47.29263" lon="-2.38378">
        <ele>123.59999847412</ele>
        <time>2020-12-10T10:56:49.000Z</time>
      </trkpt>
      <trkpt lat="47.29261" lon="-2.38415">
        <ele>123.59999847412</ele>
        <time>2020-12-10T10:56:56.000Z</time>
      </trkpt>
      <trkpt lat="47.29251" lon="-2.38449">
        <ele>123.59999847412</ele>
        <time>2020-12-10T10:57:03.000Z</time>
      </trkpt>
      <trkpt lat="47.29233" lon="-2.38475">
        <ele>123.59999847412</ele>
        <time>2020-12-10T10:57:09.000Z</time>
      </trkpt>
      <trkpt lat="47.29229" lon="-2.38477">
        <ele>123.59999847412</ele>
        <time>2020-12-10T10:57:10.000Z</time>
      </trkpt>
      <trkpt lat="47.29215" lon="-2.38485">
        <ele>123.59999847412</ele>
        <time>2020-12-10T10:57:13.000Z</time>
      </trkpt>
      <trkpt lat="47.29201" lon="-2.38495">
        <ele>123.59999847412</ele>
        <time>2020-12-10T10:57:16.000Z</time>
      </trkpt>
      <trkpt lat="47.29197" lon="-2.38499">
        <ele>123.59999847412</ele>
        <time>2020-12-10T10:57:17.000Z</time>
      </trkpt>
      <trkpt lat="47.29182" lon="-2.38522">
        <ele>123.19999694824</ele>
        <time>2020-12-10T10:57:20.000Z</time>
      </trkpt>
      <trkpt lat="47.29176" lon="-2.3853">
        <ele>122.80000305176</ele>
        <time>2020-12-10T10:57:21.000Z</time>
      </trkpt>
      <trkpt lat="47.29171" lon="-2.38536">
        <ele>122.40000152588</ele>
        <time>2020-12-10T10:57:22.000Z</time>
      </trkpt>
      <trkpt lat="47.29167" lon="-2.38541">
        <ele>121.80000305176</ele>
        <time>2020-12-10T10:57:23.000Z</time>
      </trkpt>
      <trkpt lat="47.29163" lon="-2.38545">
        <ele>121</ele>
        <time>2020-12-10T10:57:24.000Z</time>
      </trkpt>
      <trkpt lat="47.2916" lon="-2.38547">
        <ele>120.40000152588</ele>
        <time>2020-12-10T10:57:25.000Z</time>
      </trkpt>
      <trkpt lat="47.29157" lon="-2.38548">
        <ele>119.80000305176</ele>
        <time>2020-12-10T10:57:26.000Z</time>
      </trkpt>
      <trkpt lat="47.29155" lon="-2.3855">
        <ele>119.19999694824</ele>
        <time>2020-12-10T10:57:27.000Z</time>
      </trkpt>
      <trkpt lat="47.29153" lon="-2.38551">
        <ele>119.19999694824</ele>
        <time>2020-12-10T10:57:28.000Z</time>
      </trkpt>
      <trkpt lat="47.29136" lon="-2.38553">
        <ele>119.19999694824</ele>
        <time>2020-12-10T10:57:33.000Z</time>
      </trkpt>
      <trkpt lat="47.29114" lon="-2.38564">
        <ele>119.19999694824</ele>
        <time>2020-12-10T10:57:39.000Z</time>
      </trkpt>
      <trkpt lat="47.29111" lon="-2.38581">
        <ele>119.19999694824</ele>
        <time>2020-12-10T10:57:43.000Z</time>
      </trkpt>
      <trkpt lat="47.29114" lon="-2.38601">
        <ele>119.19999694824</ele>
        <time>2020-12-10T10:57:48.000Z</time>
      </trkpt>
      <trkpt lat="47.29108" lon="-2.38607">
        <ele>119.19999694824</ele>
        <time>2020-12-10T10:57:51.000Z</time>
      </trkpt>
      <trkpt lat="47.29102" lon="-2.38609">
        <ele>119.19999694824</ele>
        <time>2020-12-10T10:57:53.000Z</time>
      </trkpt>
      <trkpt lat="47.29085" lon="-2.38617">
        <ele>119.19999694824</ele>
        <time>2020-12-10T10:57:58.000Z</time>
      </trkpt>
      <trkpt lat="47.29061" lon="-2.38632">
        <ele>119.19999694824</ele>
        <time>2020-12-10T10:58:05.000Z</time>
      </trkpt>
      <trkpt lat="47.29057" lon="-2.3863">
        <ele>119.19999694824</ele>
        <time>2020-12-10T10:58:07.000Z</time>
      </trkpt>
      <trkpt lat="47.29055" lon="-2.38628">
        <ele>119.19999694824</ele>
        <time>2020-12-10T10:58:08.000Z</time>
      </trkpt>
      <trkpt lat="47.29044" lon="-2.3861">
        <ele>119.19999694824</ele>
        <time>2020-12-10T10:58:14.000Z</time>
      </trkpt>
      <trkpt lat="47.29039" lon="-2.38599">
        <ele>118.80000305176</ele>
        <time>2020-12-10T10:58:17.000Z</time>
      </trkpt>
      <trkpt lat="47.29037" lon="-2.38596">
        <ele>118.40000152588</ele>
        <time>2020-12-10T10:58:18.000Z</time>
      </trkpt>
      <trkpt lat="47.29035" lon="-2.38592">
        <ele>118</ele>
        <time>2020-12-10T10:58:19.000Z</time>
      </trkpt>
      <trkpt lat="47.29033" lon="-2.38587">
        <ele>117.19999694824</ele>
        <time>2020-12-10T10:58:20.000Z</time>
      </trkpt>
      <trkpt lat="47.29026" lon="-2.38559">
        <ele>117.19999694824</ele>
        <time>2020-12-10T10:58:26.000Z</time>
      </trkpt>
      <trkpt lat="47.29017" lon="-2.38518">
        <ele>117.19999694824</ele>
        <time>2020-12-10T10:58:34.000Z</time>
      </trkpt>
      <trkpt lat="47.29015" lon="-2.38512">
        <ele>117.19999694824</ele>
        <time>2020-12-10T10:58:35.000Z</time>
      </trkpt>
      <trkpt lat="47.2901" lon="-2.38485">
        <ele>117.19999694824</ele>
        <time>2020-12-10T10:58:39.000Z</time>
      </trkpt>
      <trkpt lat="47.29009" lon="-2.38478">
        <ele>117.19999694824</ele>
        <time>2020-12-10T10:58:40.000Z</time>
      </trkpt>
      <trkpt lat="47.29009" lon="-2.38437">
        <ele>117.19999694824</ele>
        <time>2020-12-10T10:58:46.000Z</time>
      </trkpt>
      <trkpt lat="47.29017" lon="-2.38412">
        <ele>117.19999694824</ele>
        <time>2020-12-10T10:58:50.000Z</time>
      </trkpt>
      <trkpt lat="47.29014" lon="-2.384">
        <ele>117.19999694824</ele>
        <time>2020-12-10T10:58:52.000Z</time>
      </trkpt>
      <trkpt lat="47.29013" lon="-2.38393">
        <ele>117.19999694824</ele>
        <time>2020-12-10T10:58:53.000Z</time>
      </trkpt>
      <trkpt lat="47.29008" lon="-2.38349">
        <ele>117.19999694824</ele>
        <time>2020-12-10T10:59:00.000Z</time>
      </trkpt>
      <trkpt lat="47.29006" lon="-2.3833">
        <ele>117.19999694824</ele>
        <time>2020-12-10T10:59:03.000Z</time>
      </trkpt>
      <trkpt lat="47.29004" lon="-2.38317">
        <ele>117.19999694824</ele>
        <time>2020-12-10T10:59:05.000Z</time>
      </trkpt>
      <trkpt lat="47.29003" lon="-2.3831">
        <ele>117.19999694824</ele>
        <time>2020-12-10T10:59:06.000Z</time>
      </trkpt>
      <trkpt lat="47.29002" lon="-2.38304">
        <ele>117.19999694824</ele>
        <time>2020-12-10T10:59:07.000Z</time>
      </trkpt>
      <trkpt lat="47.29" lon="-2.3828">
        <ele>117.19999694824</ele>
        <time>2020-12-10T10:59:11.000Z</time>
      </trkpt>
      <trkpt lat="47.29" lon="-2.38275">
        <ele>117.19999694824</ele>
        <time>2020-12-10T10:59:12.000Z</time>
      </trkpt>
      <trkpt lat="47.28994" lon="-2.38267">
        <ele>117.19999694824</ele>
        <time>2020-12-10T10:59:14.000Z</time>
      </trkpt>
      <trkpt lat="47.2899" lon="-2.38266">
        <ele>117.19999694824</ele>
        <time>2020-12-10T10:59:15.000Z</time>
      </trkpt>
      <trkpt lat="47.28979" lon="-2.3827">
        <ele>117.19999694824</ele>
        <time>2020-12-10T10:59:18.000Z</time>
      </trkpt>
      <trkpt lat="47.28975" lon="-2.3827">
        <ele>117.19999694824</ele>
        <time>2020-12-10T10:59:19.000Z</time>
      </trkpt>
      <trkpt lat="47.2895" lon="-2.38274">
        <ele>117.19999694824</ele>
        <time>2020-12-10T10:59:26.000Z</time>
      </trkpt>
      <trkpt lat="47.28941" lon="-2.38271">
        <ele>117.19999694824</ele>
        <time>2020-12-10T10:59:29.000Z</time>
      </trkpt>
      <trkpt lat="47.28939" lon="-2.38267">
        <ele>117.19999694824</ele>
        <time>2020-12-10T10:59:30.000Z</time>
      </trkpt>
      <trkpt lat="47.28937" lon="-2.38251">
        <ele>117.19999694824</ele>
        <time>2020-12-10T10:59:34.000Z</time>
      </trkpt>
      <trkpt lat="47.2893" lon="-2.38223">
        <ele>117.19999694824</ele>
        <time>2020-12-10T10:59:39.000Z</time>
      </trkpt>
      <trkpt lat="47.28926" lon="-2.38219">
        <ele>117.19999694824</ele>
        <time>2020-12-10T10:59:40.000Z</time>
      </trkpt>
      <trkpt lat="47.28911" lon="-2.3821">
        <ele>117.19999694824</ele>
        <time>2020-12-10T10:59:43.000Z</time>
      </trkpt>
      <trkpt lat="47.28907" lon="-2.38206">
        <ele>117.19999694824</ele>
        <time>2020-12-10T10:59:44.000Z</time>
      </trkpt>
      <trkpt lat="47.28902" lon="-2.38203">
        <ele>117.59999847412</ele>
        <time>2020-12-10T10:59:45.000Z</time>
      </trkpt>
      <trkpt lat="47.28899" lon="-2.38197">
        <ele>118</ele>
        <time>2020-12-10T10:59:46.000Z</time>
      </trkpt>
      <trkpt lat="47.28897" lon="-2.38191">
        <ele>118.59999847412</ele>
        <time>2020-12-10T10:59:47.000Z</time>
      </trkpt>
      <trkpt lat="47.28897" lon="-2.38184">
        <ele>119</ele>
        <time>2020-12-10T10:59:48.000Z</time>
      </trkpt>
      <trkpt lat="47.28898" lon="-2.38177">
        <ele>119.40000152588</ele>
        <time>2020-12-10T10:59:49.000Z</time>
      </trkpt>
      <trkpt lat="47.28899" lon="-2.38169">
        <ele>119.40000152588</ele>
        <time>2020-12-10T10:59:50.000Z</time>
      </trkpt>
      <trkpt lat="47.28901" lon="-2.38147">
        <ele>119.40000152588</ele>
        <time>2020-12-10T10:59:53.000Z</time>
      </trkpt>
      <trkpt lat="47.28906" lon="-2.38085">
        <ele>119.40000152588</ele>
        <time>2020-12-10T11:00:01.000Z</time>
      </trkpt>
      <trkpt lat="47.2891" lon="-2.38011">
        <ele>119.40000152588</ele>
        <time>2020-12-10T11:00:10.000Z</time>
      </trkpt>
      <trkpt lat="47.28913" lon="-2.37951">
        <ele>119.40000152588</ele>
        <time>2020-12-10T11:00:17.000Z</time>
      </trkpt>
      <trkpt lat="47.28916" lon="-2.3792">
        <ele>119.40000152588</ele>
        <time>2020-12-10T11:00:21.000Z</time>
      </trkpt>
      <trkpt lat="47.28918" lon="-2.37905">
        <ele>119.40000152588</ele>
        <time>2020-12-10T11:00:23.000Z</time>
      </trkpt>
      <trkpt lat="47.28923" lon="-2.37845">
        <ele>119.40000152588</ele>
        <time>2020-12-10T11:00:31.000Z</time>
      </trkpt>
      <trkpt lat="47.28928" lon="-2.37782">
        <ele>119.40000152588</ele>
        <time>2020-12-10T11:00:39.000Z</time>
      </trkpt>
      <trkpt lat="47.28932" lon="-2.37714">
        <ele>119.40000152588</ele>
        <time>2020-12-10T11:00:47.000Z</time>
      </trkpt>
      <trkpt lat="47.28931" lon="-2.37707">
        <ele>119.40000152588</ele>
        <time>2020-12-10T11:00:48.000Z</time>
      </trkpt>
      <trkpt lat="47.2893" lon="-2.37692">
        <ele>119.40000152588</ele>
        <time>2020-12-10T11:00:50.000Z</time>
      </trkpt>
      <trkpt lat="47.28931" lon="-2.37684">
        <ele>119.40000152588</ele>
        <time>2020-12-10T11:00:51.000Z</time>
      </trkpt>
      <trkpt lat="47.28931" lon="-2.37654">
        <ele>119.40000152588</ele>
        <time>2020-12-10T11:00:56.000Z</time>
      </trkpt>
      <trkpt lat="47.2893" lon="-2.37651">
        <ele>119.40000152588</ele>
        <time>2020-12-10T11:00:57.000Z</time>
      </trkpt>
      <trkpt lat="47.28919" lon="-2.37644">
        <ele>119.40000152588</ele>
        <time>2020-12-10T11:01:01.000Z</time>
      </trkpt>
      <trkpt lat="47.28902" lon="-2.3765">
        <ele>119.40000152588</ele>
        <time>2020-12-10T11:01:05.000Z</time>
      </trkpt>
      <trkpt lat="47.28894" lon="-2.37651">
        <ele>119.40000152588</ele>
        <time>2020-12-10T11:01:07.000Z</time>
      </trkpt>
      <trkpt lat="47.28885" lon="-2.37653">
        <ele>119.40000152588</ele>
        <time>2020-12-10T11:01:09.000Z</time>
      </trkpt>
      <trkpt lat="47.2888" lon="-2.37654">
        <ele>119.40000152588</ele>
        <time>2020-12-10T11:01:10.000Z</time>
      </trkpt>
      <trkpt lat="47.28863" lon="-2.37648">
        <ele>119.40000152588</ele>
        <time>2020-12-10T11:01:14.000Z</time>
      </trkpt>
      <trkpt lat="47.28859" lon="-2.37628">
        <ele>119.40000152588</ele>
        <time>2020-12-10T11:01:17.000Z</time>
      </trkpt>
      <trkpt lat="47.28859" lon="-2.37611">
        <ele>119.40000152588</ele>
        <time>2020-12-10T11:01:21.000Z</time>
      </trkpt>
      <trkpt lat="47.28857" lon="-2.37592">
        <ele>119.40000152588</ele>
        <time>2020-12-10T11:01:25.000Z</time>
      </trkpt>
      <trkpt lat="47.28863" lon="-2.37573">
        <ele>119.40000152588</ele>
        <time>2020-12-10T11:01:29.000Z</time>
      </trkpt>
      <trkpt lat="47.28873" lon="-2.37551">
        <ele>119.40000152588</ele>
        <time>2020-12-10T11:01:33.000Z</time>
      </trkpt>
      <trkpt lat="47.2888" lon="-2.37535">
        <ele>119.40000152588</ele>
        <time>2020-12-10T11:01:36.000Z</time>
      </trkpt>
      <trkpt lat="47.2888" lon="-2.37529">
        <ele>119.40000152588</ele>
        <time>2020-12-10T11:01:37.000Z</time>
      </trkpt>
      <trkpt lat="47.28878" lon="-2.37517">
        <ele>119.40000152588</ele>
        <time>2020-12-10T11:01:39.000Z</time>
      </trkpt>
      <trkpt lat="47.28871" lon="-2.37469">
        <ele>119.40000152588</ele>
        <time>2020-12-10T11:01:46.000Z</time>
      </trkpt>
      <trkpt lat="47.28867" lon="-2.37426">
        <ele>119.40000152588</ele>
        <time>2020-12-10T11:01:52.000Z</time>
      </trkpt>
      <trkpt lat="47.28862" lon="-2.37389">
        <ele>119.80000305176</ele>
        <time>2020-12-10T11:01:57.000Z</time>
      </trkpt>
      <trkpt lat="47.28861" lon="-2.37382">
        <ele>120.19999694824</ele>
        <time>2020-12-10T11:01:58.000Z</time>
      </trkpt>
      <trkpt lat="47.2886" lon="-2.37374">
        <ele>120.59999847412</ele>
        <time>2020-12-10T11:01:59.000Z</time>
      </trkpt>
      <trkpt lat="47.28859" lon="-2.37367">
        <ele>121</ele>
        <time>2020-12-10T11:02:00.000Z</time>
      </trkpt>
      <trkpt lat="47.28859" lon="-2.37359">
        <ele>121.40000152588</ele>
        <time>2020-12-10T11:02:01.000Z</time>
      </trkpt>
      <trkpt lat="47.28854" lon="-2.37313">
        <ele>121.40000152588</ele>
        <time>2020-12-10T11:02:07.000Z</time>
      </trkpt>
      <trkpt lat="47.2885" lon="-2.37266">
        <ele>121.40000152588</ele>
        <time>2020-12-10T11:02:13.000Z</time>
      </trkpt>
      <trkpt lat="47.28851" lon="-2.37259">
        <ele>121.40000152588</ele>
        <time>2020-12-10T11:02:14.000Z</time>
      </trkpt>
      <trkpt lat="47.28849" lon="-2.37244">
        <ele>121.40000152588</ele>
        <time>2020-12-10T11:02:16.000Z</time>
      </trkpt>
      <trkpt lat="47.28847" lon="-2.37237">
        <ele>121.40000152588</ele>
        <time>2020-12-10T11:02:17.000Z</time>
      </trkpt>
      <trkpt lat="47.28838" lon="-2.37205">
        <ele>121.40000152588</ele>
        <time>2020-12-10T11:02:22.000Z</time>
      </trkpt>
      <trkpt lat="47.28835" lon="-2.37181">
        <ele>121.40000152588</ele>
        <time>2020-12-10T11:02:26.000Z</time>
      </trkpt>
      <trkpt lat="47.2883" lon="-2.37146">
        <ele>121.40000152588</ele>
        <time>2020-12-10T11:02:31.000Z</time>
      </trkpt>
      <trkpt lat="47.28828" lon="-2.37132">
        <ele>121.40000152588</ele>
        <time>2020-12-10T11:02:33.000Z</time>
      </trkpt>
      <trkpt lat="47.28829" lon="-2.37104">
        <ele>121.40000152588</ele>
        <time>2020-12-10T11:02:37.000Z</time>
      </trkpt>
      <trkpt lat="47.28829" lon="-2.37098">
        <ele>121.80000305176</ele>
        <time>2020-12-10T11:02:38.000Z</time>
      </trkpt>
      <trkpt lat="47.28829" lon="-2.37091">
        <ele>122.19999694824</ele>
        <time>2020-12-10T11:02:39.000Z</time>
      </trkpt>
      <trkpt lat="47.28828" lon="-2.37085">
        <ele>122.59999847412</ele>
        <time>2020-12-10T11:02:40.000Z</time>
      </trkpt>
      <trkpt lat="47.28827" lon="-2.37078">
        <ele>123.19999694824</ele>
        <time>2020-12-10T11:02:41.000Z</time>
      </trkpt>
      <trkpt lat="47.28827" lon="-2.3707">
        <ele>123.59999847412</ele>
        <time>2020-12-10T11:02:42.000Z</time>
      </trkpt>
      <trkpt lat="47.28819" lon="-2.37046">
        <ele>123.59999847412</ele>
        <time>2020-12-10T11:02:46.000Z</time>
      </trkpt>
      <trkpt lat="47.28815" lon="-2.37031">
        <ele>123.59999847412</ele>
        <time>2020-12-10T11:02:48.000Z</time>
      </trkpt>
      <trkpt lat="47.28805" lon="-2.37004">
        <ele>123.59999847412</ele>
        <time>2020-12-10T11:02:52.000Z</time>
      </trkpt>
      <trkpt lat="47.28793" lon="-2.36963">
        <ele>123.59999847412</ele>
        <time>2020-12-10T11:02:58.000Z</time>
      </trkpt>
      <trkpt lat="47.28783" lon="-2.36922">
        <ele>123.59999847412</ele>
        <time>2020-12-10T11:03:04.000Z</time>
      </trkpt>
      <trkpt lat="47.2877" lon="-2.36908">
        <ele>123.59999847412</ele>
        <time>2020-12-10T11:03:08.000Z</time>
      </trkpt>
      <trkpt lat="47.28756" lon="-2.36904">
        <ele>124</ele>
        <time>2020-12-10T11:03:12.000Z</time>
      </trkpt>
      <trkpt lat="47.28752" lon="-2.36904">
        <ele>124.40000152588</ele>
        <time>2020-12-10T11:03:13.000Z</time>
      </trkpt>
      <trkpt lat="47.28749" lon="-2.36905">
        <ele>124.80000305176</ele>
        <time>2020-12-10T11:03:14.000Z</time>
      </trkpt>
      <trkpt lat="47.28747" lon="-2.36906">
        <ele>125.19999694824</ele>
        <time>2020-12-10T11:03:15.000Z</time>
      </trkpt>
      <trkpt lat="47.28744" lon="-2.36906">
        <ele>125.59999847412</ele>
        <time>2020-12-10T11:03:16.000Z</time>
      </trkpt>
      <trkpt lat="47.28737" lon="-2.36906">
        <ele>126.19999694824</ele>
        <time>2020-12-10T11:03:19.000Z</time>
      </trkpt>
      <trkpt lat="47.28735" lon="-2.36905">
        <ele>126.59999847412</ele>
        <time>2020-12-10T11:03:20.000Z</time>
      </trkpt>
      <trkpt lat="47.28733" lon="-2.36904">
        <ele>127</ele>
        <time>2020-12-10T11:03:21.000Z</time>
      </trkpt>
      <trkpt lat="47.28732" lon="-2.36903">
        <ele>127.59999847412</ele>
        <time>2020-12-10T11:03:22.000Z</time>
      </trkpt>
      <trkpt lat="47.28731" lon="-2.369">
        <ele>128</ele>
        <time>2020-12-10T11:03:23.000Z</time>
      </trkpt>
      <trkpt lat="47.28728" lon="-2.36896">
        <ele>128.39999389648</ele>
        <time>2020-12-10T11:03:25.000Z</time>
      </trkpt>
      <trkpt lat="47.28727" lon="-2.36893">
        <ele>128.80000305176</ele>
        <time>2020-12-10T11:03:26.000Z</time>
      </trkpt>
      <trkpt lat="47.28726" lon="-2.36891">
        <ele>129.19999694824</ele>
        <time>2020-12-10T11:03:27.000Z</time>
      </trkpt>
      <trkpt lat="47.28725" lon="-2.36889">
        <ele>129.80000305176</ele>
        <time>2020-12-10T11:03:28.000Z</time>
      </trkpt>
      <trkpt lat="47.28724" lon="-2.36885">
        <ele>130.19999694824</ele>
        <time>2020-12-10T11:03:29.000Z</time>
      </trkpt>
      <trkpt lat="47.2872" lon="-2.36876">
        <ele>130.19999694824</ele>
        <time>2020-12-10T11:03:32.000Z</time>
      </trkpt>
      <trkpt lat="47.28719" lon="-2.36874">
        <ele>130.60000610352</ele>
        <time>2020-12-10T11:03:33.000Z</time>
      </trkpt>
      <trkpt lat="47.28716" lon="-2.36869">
        <ele>131</ele>
        <time>2020-12-10T11:03:34.000Z</time>
      </trkpt>
      <trkpt lat="47.28714" lon="-2.36865">
        <ele>131.39999389648</ele>
        <time>2020-12-10T11:03:35.000Z</time>
      </trkpt>
      <trkpt lat="47.28712" lon="-2.36862">
        <ele>132</ele>
        <time>2020-12-10T11:03:36.000Z</time>
      </trkpt>
      <trkpt lat="47.2871" lon="-2.36858">
        <ele>132.39999389648</ele>
        <time>2020-12-10T11:03:37.000Z</time>
      </trkpt>
      <trkpt lat="47.28709" lon="-2.36854">
        <ele>132.39999389648</ele>
        <time>2020-12-10T11:03:38.000Z</time>
      </trkpt>
      <trkpt lat="47.28702" lon="-2.36833">
        <ele>132.80000305176</ele>
        <time>2020-12-10T11:03:44.000Z</time>
      </trkpt>
      <trkpt lat="47.287" lon="-2.3683">
        <ele>133.19999694824</ele>
        <time>2020-12-10T11:03:45.000Z</time>
      </trkpt>
      <trkpt lat="47.28699" lon="-2.36827">
        <ele>133.60000610352</ele>
        <time>2020-12-10T11:03:46.000Z</time>
      </trkpt>
      <trkpt lat="47.28698" lon="-2.36824">
        <ele>134</ele>
        <time>2020-12-10T11:03:47.000Z</time>
      </trkpt>
      <trkpt lat="47.28697" lon="-2.36822">
        <ele>134.39999389648</ele>
        <time>2020-12-10T11:03:48.000Z</time>
      </trkpt>
      <trkpt lat="47.28695" lon="-2.36813">
        <ele>134.39999389648</ele>
        <time>2020-12-10T11:03:51.000Z</time>
      </trkpt>
      <trkpt lat="47.28693" lon="-2.36799">
        <ele>134.80000305176</ele>
        <time>2020-12-10T11:03:55.000Z</time>
      </trkpt>
      <trkpt lat="47.28693" lon="-2.36793">
        <ele>135.19999694824</ele>
        <time>2020-12-10T11:03:56.000Z</time>
      </trkpt>
      <trkpt lat="47.28693" lon="-2.36788">
        <ele>135.60000610352</ele>
        <time>2020-12-10T11:03:57.000Z</time>
      </trkpt>
      <trkpt lat="47.28693" lon="-2.36783">
        <ele>136</ele>
        <time>2020-12-10T11:03:58.000Z</time>
      </trkpt>
      <trkpt lat="47.28692" lon="-2.36779">
        <ele>136.39999389648</ele>
        <time>2020-12-10T11:03:59.000Z</time>
      </trkpt>
      <trkpt lat="47.28692" lon="-2.36768">
        <ele>136.39999389648</ele>
        <time>2020-12-10T11:04:02.000Z</time>
      </trkpt>
      <trkpt lat="47.28692" lon="-2.36751">
        <ele>136.80000305176</ele>
        <time>2020-12-10T11:04:07.000Z</time>
      </trkpt>
      <trkpt lat="47.28693" lon="-2.36748">
        <ele>137.19999694824</ele>
        <time>2020-12-10T11:04:08.000Z</time>
      </trkpt>
      <trkpt lat="47.28695" lon="-2.36745">
        <ele>137.60000610352</ele>
        <time>2020-12-10T11:04:09.000Z</time>
      </trkpt>
      <trkpt lat="47.28696" lon="-2.36743">
        <ele>138</ele>
        <time>2020-12-10T11:04:10.000Z</time>
      </trkpt>
      <trkpt lat="47.28699" lon="-2.36741">
        <ele>138.39999389648</ele>
        <time>2020-12-10T11:04:11.000Z</time>
      </trkpt>
      <trkpt lat="47.28706" lon="-2.36729">
        <ele>138.39999389648</ele>
        <time>2020-12-10T11:04:15.000Z</time>
      </trkpt>
      <trkpt lat="47.28717" lon="-2.36705">
        <ele>138.39999389648</ele>
        <time>2020-12-10T11:04:23.000Z</time>
      </trkpt>
      <trkpt lat="47.28728" lon="-2.36688">
        <ele>138.39999389648</ele>
        <time>2020-12-10T11:04:29.000Z</time>
      </trkpt>
      <trkpt lat="47.2873" lon="-2.36686">
        <ele>139.39999389648</ele>
        <time>2020-12-10T11:04:30.000Z</time>
      </trkpt>
      <trkpt lat="47.28732" lon="-2.36683">
        <ele>139.80000305176</ele>
        <time>2020-12-10T11:04:31.000Z</time>
      </trkpt>
      <trkpt lat="47.28733" lon="-2.36681">
        <ele>140.19999694824</ele>
        <time>2020-12-10T11:04:32.000Z</time>
      </trkpt>
      <trkpt lat="47.28734" lon="-2.36679">
        <ele>140.60000610352</ele>
        <time>2020-12-10T11:04:33.000Z</time>
      </trkpt>
      <trkpt lat="47.28738" lon="-2.36671">
        <ele>140.60000610352</ele>
        <time>2020-12-10T11:04:36.000Z</time>
      </trkpt>
      <trkpt lat="47.28743" lon="-2.36663">
        <ele>141</ele>
        <time>2020-12-10T11:04:39.000Z</time>
      </trkpt>
      <trkpt lat="47.28745" lon="-2.36661">
        <ele>141.39999389648</ele>
        <time>2020-12-10T11:04:40.000Z</time>
      </trkpt>
      <trkpt lat="47.28746" lon="-2.36658">
        <ele>141.80000305176</ele>
        <time>2020-12-10T11:04:41.000Z</time>
      </trkpt>
      <trkpt lat="47.28747" lon="-2.36655">
        <ele>142.19999694824</ele>
        <time>2020-12-10T11:04:42.000Z</time>
      </trkpt>
      <trkpt lat="47.28749" lon="-2.36652">
        <ele>142.80000305176</ele>
        <time>2020-12-10T11:04:43.000Z</time>
      </trkpt>
      <trkpt lat="47.2876" lon="-2.36632">
        <ele>142.80000305176</ele>
        <time>2020-12-10T11:04:50.000Z</time>
      </trkpt>
      <trkpt lat="47.28764" lon="-2.36621">
        <ele>143.19999694824</ele>
        <time>2020-12-10T11:04:53.000Z</time>
      </trkpt>
      <trkpt lat="47.28765" lon="-2.36618">
        <ele>143.60000610352</ele>
        <time>2020-12-10T11:04:54.000Z</time>
      </trkpt>
      <trkpt lat="47.28766" lon="-2.36614">
        <ele>144.39999389648</ele>
        <time>2020-12-10T11:04:55.000Z</time>
      </trkpt>
      <trkpt lat="47.28766" lon="-2.36611">
        <ele>144.80000305176</ele>
        <time>2020-12-10T11:04:56.000Z</time>
      </trkpt>
      <trkpt lat="47.28762" lon="-2.36596">
        <ele>144.80000305176</ele>
        <time>2020-12-10T11:05:02.000Z</time>
      </trkpt>
      <trkpt lat="47.2876" lon="-2.36593">
        <ele>144.80000305176</ele>
        <time>2020-12-10T11:05:04.000Z</time>
      </trkpt>
      <trkpt lat="47.28753" lon="-2.36584">
        <ele>144.80000305176</ele>
        <time>2020-12-10T11:05:08.000Z</time>
      </trkpt>
      <trkpt lat="47.2875" lon="-2.36582">
        <ele>144.80000305176</ele>
        <time>2020-12-10T11:05:09.000Z</time>
      </trkpt>
      <trkpt lat="47.28747" lon="-2.36581">
        <ele>145.19999694824</ele>
        <time>2020-12-10T11:05:10.000Z</time>
      </trkpt>
      <trkpt lat="47.28745" lon="-2.3658">
        <ele>145.80000305176</ele>
        <time>2020-12-10T11:05:11.000Z</time>
      </trkpt>
      <trkpt lat="47.28742" lon="-2.3658">
        <ele>146.19999694824</ele>
        <time>2020-12-10T11:05:12.000Z</time>
      </trkpt>
      <trkpt lat="47.2874" lon="-2.36579">
        <ele>146.60000610352</ele>
        <time>2020-12-10T11:05:13.000Z</time>
      </trkpt>
      <trkpt lat="47.28739" lon="-2.36578">
        <ele>147</ele>
        <time>2020-12-10T11:05:14.000Z</time>
      </trkpt>
      <trkpt lat="47.28737" lon="-2.36576">
        <ele>147</ele>
        <time>2020-12-10T11:05:15.000Z</time>
      </trkpt>
      <trkpt lat="47.28736" lon="-2.36574">
        <ele>147.60000610352</ele>
        <time>2020-12-10T11:05:16.000Z</time>
      </trkpt>
      <trkpt lat="47.28735" lon="-2.36571">
        <ele>148</ele>
        <time>2020-12-10T11:05:17.000Z</time>
      </trkpt>
      <trkpt lat="47.28734" lon="-2.36566">
        <ele>148.39999389648</ele>
        <time>2020-12-10T11:05:18.000Z</time>
      </trkpt>
      <trkpt lat="47.28735" lon="-2.36562">
        <ele>149.19999694824</ele>
        <time>2020-12-10T11:05:19.000Z</time>
      </trkpt>
      <trkpt lat="47.28736" lon="-2.36547">
        <ele>149.19999694824</ele>
        <time>2020-12-10T11:05:22.000Z</time>
      </trkpt>
      <trkpt lat="47.28741" lon="-2.36533">
        <ele>149.19999694824</ele>
        <time>2020-12-10T11:05:25.000Z</time>
      </trkpt>
      <trkpt lat="47.28751" lon="-2.36509">
        <ele>149.19999694824</ele>
        <time>2020-12-10T11:05:31.000Z</time>
      </trkpt>
      <trkpt lat="47.28762" lon="-2.36479">
        <ele>149.19999694824</ele>
        <time>2020-12-10T11:05:38.000Z</time>
      </trkpt>
      <trkpt lat="47.28763" lon="-2.36469">
        <ele>149.19999694824</ele>
        <time>2020-12-10T11:05:42.000Z</time>
      </trkpt>
      <trkpt lat="47.28759" lon="-2.36457">
        <ele>149.19999694824</ele>
        <time>2020-12-10T11:05:46.000Z</time>
      </trkpt>
      <trkpt lat="47.28757" lon="-2.36453">
        <ele>149.19999694824</ele>
        <time>2020-12-10T11:05:51.000Z</time>
      </trkpt>
      <trkpt lat="47.28757" lon="-2.36452">
        <ele>149.19999694824</ele>
        <time>2020-12-10T11:05:52.000Z</time>
      </trkpt>
      <trkpt lat="47.2874" lon="-2.36399">
        <ele>153.39999389648</ele>
        <time>2020-12-10T11:06:29.000Z</time>
      </trkpt>
      <trkpt lat="47.28738" lon="-2.36394">
        <ele>153.80000305176</ele>
        <time>2020-12-10T11:06:31.000Z</time>
      </trkpt>
      <trkpt lat="47.28737" lon="-2.36392">
        <ele>154.19999694824</ele>
        <time>2020-12-10T11:06:32.000Z</time>
      </trkpt>
      <trkpt lat="47.28737" lon="-2.3639">
        <ele>155</ele>
        <time>2020-12-10T11:06:33.000Z</time>
      </trkpt>
      <trkpt lat="47.28736" lon="-2.36387">
        <ele>155.60000610352</ele>
        <time>2020-12-10T11:06:34.000Z</time>
      </trkpt>
      <trkpt lat="47.2873" lon="-2.36383">
        <ele>156</ele>
        <time>2020-12-10T11:06:38.000Z</time>
      </trkpt>
      <trkpt lat="47.28729" lon="-2.36383">
        <ele>156.39999389648</ele>
        <time>2020-12-10T11:06:39.000Z</time>
      </trkpt>
      <trkpt lat="47.28726" lon="-2.36384">
        <ele>156.80000305176</ele>
        <time>2020-12-10T11:06:40.000Z</time>
      </trkpt>
      <trkpt lat="47.28723" lon="-2.36386">
        <ele>157.19999694824</ele>
        <time>2020-12-10T11:06:41.000Z</time>
      </trkpt>
      <trkpt lat="47.2872" lon="-2.36387">
        <ele>157.60000610352</ele>
        <time>2020-12-10T11:06:42.000Z</time>
      </trkpt>
      <trkpt lat="47.28712" lon="-2.3639">
        <ele>157.60000610352</ele>
        <time>2020-12-10T11:06:44.000Z</time>
      </trkpt>
      <trkpt lat="47.28707" lon="-2.36392">
        <ele>157.60000610352</ele>
        <time>2020-12-10T11:06:45.000Z</time>
      </trkpt>
      <trkpt lat="47.28695" lon="-2.364">
        <ele>157.60000610352</ele>
        <time>2020-12-10T11:06:49.000Z</time>
      </trkpt>
      <trkpt lat="47.28695" lon="-2.36404">
        <ele>157.60000610352</ele>
        <time>2020-12-10T11:06:50.000Z</time>
      </trkpt>
      <trkpt lat="47.28694" lon="-2.3641">
        <ele>158</ele>
        <time>2020-12-10T11:06:52.000Z</time>
      </trkpt>
      <trkpt lat="47.28694" lon="-2.36415">
        <ele>158.39999389648</ele>
        <time>2020-12-10T11:06:53.000Z</time>
      </trkpt>
      <trkpt lat="47.28694" lon="-2.36419">
        <ele>159</ele>
        <time>2020-12-10T11:06:54.000Z</time>
      </trkpt>
      <trkpt lat="47.28694" lon="-2.36424">
        <ele>159.39999389648</ele>
        <time>2020-12-10T11:06:55.000Z</time>
      </trkpt>
      <trkpt lat="47.28694" lon="-2.36429">
        <ele>159.80000305176</ele>
        <time>2020-12-10T11:06:56.000Z</time>
      </trkpt>
      <trkpt lat="47.28694" lon="-2.36438">
        <ele>159.80000305176</ele>
        <time>2020-12-10T11:06:59.000Z</time>
      </trkpt>
      <trkpt lat="47.28692" lon="-2.36452">
        <ele>159.80000305176</ele>
        <time>2020-12-10T11:07:06.000Z</time>
      </trkpt>
      <trkpt lat="47.2869" lon="-2.3647">
        <ele>159.80000305176</ele>
        <time>2020-12-10T11:07:14.000Z</time>
      </trkpt>
      <trkpt lat="47.28691" lon="-2.3648">
        <ele>159.80000305176</ele>
        <time>2020-12-10T11:07:18.000Z</time>
      </trkpt>
      <trkpt lat="47.2869" lon="-2.36483">
        <ele>159.80000305176</ele>
        <time>2020-12-10T11:07:20.000Z</time>
      </trkpt>
      <trkpt lat="47.28687" lon="-2.36496">
        <ele>159.80000305176</ele>
        <time>2020-12-10T11:07:26.000Z</time>
      </trkpt>
      <trkpt lat="47.28687" lon="-2.36498">
        <ele>159.80000305176</ele>
        <time>2020-12-10T11:07:27.000Z</time>
      </trkpt>
      <trkpt lat="47.28688" lon="-2.36492">
        <ele>159.80000305176</ele>
        <time>2020-12-10T11:07:38.000Z</time>
      </trkpt>
      <trkpt lat="47.28688" lon="-2.36488">
        <ele>159.80000305176</ele>
        <time>2020-12-10T11:07:41.000Z</time>
      </trkpt>
      <trkpt lat="47.28689" lon="-2.36471">
        <ele>159.80000305176</ele>
        <time>2020-12-10T11:07:48.000Z</time>
      </trkpt>
      <trkpt lat="47.28689" lon="-2.36461">
        <ele>159.80000305176</ele>
        <time>2020-12-10T11:07:54.000Z</time>
      </trkpt>
      <trkpt lat="47.28658" lon="-2.36456">
        <ele>168.19999694824</ele>
        <time>2020-12-10T11:08:49.000Z</time>
      </trkpt>
      <trkpt lat="47.28654" lon="-2.36442">
        <ele>168.19999694824</ele>
        <time>2020-12-10T11:08:55.000Z</time>
      </trkpt>
      <trkpt lat="47.28649" lon="-2.36422">
        <ele>168.19999694824</ele>
        <time>2020-12-10T11:09:01.000Z</time>
      </trkpt>
      <trkpt lat="47.28649" lon="-2.36415">
        <ele>168.19999694824</ele>
        <time>2020-12-10T11:09:03.000Z</time>
      </trkpt>
      <trkpt lat="47.28649" lon="-2.3641">
        <ele>168.19999694824</ele>
        <time>2020-12-10T11:09:06.000Z</time>
      </trkpt>
      <trkpt lat="47.28649" lon="-2.364">
        <ele>168.19999694824</ele>
        <time>2020-12-10T11:09:17.000Z</time>
      </trkpt>
      <trkpt lat="47.28651" lon="-2.36393">
        <ele>168.19999694824</ele>
        <time>2020-12-10T11:09:18.000Z</time>
      </trkpt>
      <trkpt lat="47.28653" lon="-2.36389">
        <ele>167.60000610352</ele>
        <time>2020-12-10T11:09:19.000Z</time>
      </trkpt>
      <trkpt lat="47.28654" lon="-2.36385">
        <ele>167.19999694824</ele>
        <time>2020-12-10T11:09:20.000Z</time>
      </trkpt>
      <trkpt lat="47.28656" lon="-2.36382">
        <ele>166.80000305176</ele>
        <time>2020-12-10T11:09:21.000Z</time>
      </trkpt>
      <trkpt lat="47.28658" lon="-2.36378">
        <ele>166.39999389648</ele>
        <time>2020-12-10T11:09:22.000Z</time>
      </trkpt>
      <trkpt lat="47.28659" lon="-2.36374">
        <ele>166</ele>
        <time>2020-12-10T11:09:23.000Z</time>
      </trkpt>
      <trkpt lat="47.28661" lon="-2.36364">
        <ele>165.60000610352</ele>
        <time>2020-12-10T11:09:25.000Z</time>
      </trkpt>
      <trkpt lat="47.2866" lon="-2.36357">
        <ele>164.80000305176</ele>
        <time>2020-12-10T11:09:26.000Z</time>
      </trkpt>
      <trkpt lat="47.28659" lon="-2.36352">
        <ele>164.39999389648</ele>
        <time>2020-12-10T11:09:27.000Z</time>
      </trkpt>
      <trkpt lat="47.28658" lon="-2.36349">
        <ele>163.80000305176</ele>
        <time>2020-12-10T11:09:28.000Z</time>
      </trkpt>
      <trkpt lat="47.28656" lon="-2.36345">
        <ele>163.39999389648</ele>
        <time>2020-12-10T11:09:29.000Z</time>
      </trkpt>
      <trkpt lat="47.28655" lon="-2.36343">
        <ele>163</ele>
        <time>2020-12-10T11:09:30.000Z</time>
      </trkpt>
      <trkpt lat="47.28653" lon="-2.36339">
        <ele>162.60000610352</ele>
        <time>2020-12-10T11:09:31.000Z</time>
      </trkpt>
      <trkpt lat="47.28651" lon="-2.36335">
        <ele>162.19999694824</ele>
        <time>2020-12-10T11:09:32.000Z</time>
      </trkpt>
      <trkpt lat="47.2865" lon="-2.36332">
        <ele>161.60000610352</ele>
        <time>2020-12-10T11:09:33.000Z</time>
      </trkpt>
      <trkpt lat="47.2865" lon="-2.36327">
        <ele>161</ele>
        <time>2020-12-10T11:09:34.000Z</time>
      </trkpt>
      <trkpt lat="47.28651" lon="-2.36322">
        <ele>160.39999389648</ele>
        <time>2020-12-10T11:09:35.000Z</time>
      </trkpt>
      <trkpt lat="47.28653" lon="-2.36318">
        <ele>160</ele>
        <time>2020-12-10T11:09:36.000Z</time>
      </trkpt>
      <trkpt lat="47.28655" lon="-2.36314">
        <ele>159.39999389648</ele>
        <time>2020-12-10T11:09:37.000Z</time>
      </trkpt>
      <trkpt lat="47.28657" lon="-2.36311">
        <ele>158.80000305176</ele>
        <time>2020-12-10T11:09:38.000Z</time>
      </trkpt>
      <trkpt lat="47.28661" lon="-2.36307">
        <ele>158.39999389648</ele>
        <time>2020-12-10T11:09:39.000Z</time>
      </trkpt>
      <trkpt lat="47.28665" lon="-2.36302">
        <ele>157.80000305176</ele>
        <time>2020-12-10T11:09:40.000Z</time>
      </trkpt>
      <trkpt lat="47.28668" lon="-2.363">
        <ele>157.19999694824</ele>
        <time>2020-12-10T11:09:41.000Z</time>
      </trkpt>
      <trkpt lat="47.2867" lon="-2.363">
        <ele>156.80000305176</ele>
        <time>2020-12-10T11:09:42.000Z</time>
      </trkpt>
      <trkpt lat="47.28672" lon="-2.36301">
        <ele>156.39999389648</ele>
        <time>2020-12-10T11:09:43.000Z</time>
      </trkpt>
      <trkpt lat="47.28673" lon="-2.36303">
        <ele>156</ele>
        <time>2020-12-10T11:09:44.000Z</time>
      </trkpt>
      <trkpt lat="47.28674" lon="-2.36306">
        <ele>155.60000610352</ele>
        <time>2020-12-10T11:09:45.000Z</time>
      </trkpt>
      <trkpt lat="47.28675" lon="-2.36308">
        <ele>155.19999694824</ele>
        <time>2020-12-10T11:09:46.000Z</time>
      </trkpt>
      <trkpt lat="47.28678" lon="-2.36314">
        <ele>155.19999694824</ele>
        <time>2020-12-10T11:09:48.000Z</time>
      </trkpt>
      <trkpt lat="47.28683" lon="-2.3632">
        <ele>155.60000610352</ele>
        <time>2020-12-10T11:09:50.000Z</time>
      </trkpt>
      <trkpt lat="47.28684" lon="-2.36323">
        <ele>156</ele>
        <time>2020-12-10T11:09:51.000Z</time>
      </trkpt>
      <trkpt lat="47.28686" lon="-2.36326">
        <ele>156.39999389648</ele>
        <time>2020-12-10T11:09:52.000Z</time>
      </trkpt>
      <trkpt lat="47.28688" lon="-2.36329">
        <ele>157</ele>
        <time>2020-12-10T11:09:53.000Z</time>
      </trkpt>
      <trkpt lat="47.28689" lon="-2.36331">
        <ele>157.39999389648</ele>
        <time>2020-12-10T11:09:54.000Z</time>
      </trkpt>
      <trkpt lat="47.28692" lon="-2.36335">
        <ele>157.39999389648</ele>
        <time>2020-12-10T11:09:56.000Z</time>
      </trkpt>
      <trkpt lat="47.28697" lon="-2.36351">
        <ele>157.39999389648</ele>
        <time>2020-12-10T11:10:01.000Z</time>
      </trkpt>
      <trkpt lat="47.28699" lon="-2.36353">
        <ele>157.39999389648</ele>
        <time>2020-12-10T11:10:04.000Z</time>
      </trkpt>
      <trkpt lat="47.28701" lon="-2.36348">
        <ele>157.39999389648</ele>
        <time>2020-12-10T11:10:06.000Z</time>
      </trkpt>
      <trkpt lat="47.28703" lon="-2.36338">
        <ele>157.39999389648</ele>
        <time>2020-12-10T11:10:08.000Z</time>
      </trkpt>
      <trkpt lat="47.28706" lon="-2.36327">
        <ele>157.39999389648</ele>
        <time>2020-12-10T11:10:10.000Z</time>
      </trkpt>
      <trkpt lat="47.28712" lon="-2.363">
        <ele>157</ele>
        <time>2020-12-10T11:10:14.000Z</time>
      </trkpt>
      <trkpt lat="47.28713" lon="-2.36292">
        <ele>156.39999389648</ele>
        <time>2020-12-10T11:10:15.000Z</time>
      </trkpt>
      <trkpt lat="47.28713" lon="-2.36285">
        <ele>155.60000610352</ele>
        <time>2020-12-10T11:10:16.000Z</time>
      </trkpt>
      <trkpt lat="47.28714" lon="-2.36279">
        <ele>155.19999694824</ele>
        <time>2020-12-10T11:10:17.000Z</time>
      </trkpt>
      <trkpt lat="47.28715" lon="-2.36275">
        <ele>154.60000610352</ele>
        <time>2020-12-10T11:10:18.000Z</time>
      </trkpt>
      <trkpt lat="47.28717" lon="-2.36268">
        <ele>154.19999694824</ele>
        <time>2020-12-10T11:10:19.000Z</time>
      </trkpt>
      <trkpt lat="47.28719" lon="-2.36263">
        <ele>153.80000305176</ele>
        <time>2020-12-10T11:10:20.000Z</time>
      </trkpt>
      <trkpt lat="47.28721" lon="-2.36258">
        <ele>153.19999694824</ele>
        <time>2020-12-10T11:10:21.000Z</time>
      </trkpt>
      <trkpt lat="47.28723" lon="-2.36253">
        <ele>152.80000305176</ele>
        <time>2020-12-10T11:10:22.000Z</time>
      </trkpt>
      <trkpt lat="47.2873" lon="-2.36224">
        <ele>152.80000305176</ele>
        <time>2020-12-10T11:10:28.000Z</time>
      </trkpt>
      <trkpt lat="47.28726" lon="-2.36219">
        <ele>152.80000305176</ele>
        <time>2020-12-10T11:10:31.000Z</time>
      </trkpt>
      <trkpt lat="47.28716" lon="-2.36223">
        <ele>152.80000305176</ele>
        <time>2020-12-10T11:10:35.000Z</time>
      </trkpt>
      <trkpt lat="47.2871" lon="-2.3622">
        <ele>152.80000305176</ele>
        <time>2020-12-10T11:10:37.000Z</time>
      </trkpt>
      <trkpt lat="47.28705" lon="-2.36209">
        <ele>152.80000305176</ele>
        <time>2020-12-10T11:10:40.000Z</time>
      </trkpt>
      <trkpt lat="47.28705" lon="-2.36205">
        <ele>152.80000305176</ele>
        <time>2020-12-10T11:10:41.000Z</time>
      </trkpt>
      <trkpt lat="47.28704" lon="-2.36195">
        <ele>152.80000305176</ele>
        <time>2020-12-10T11:10:43.000Z</time>
      </trkpt>
      <trkpt lat="47.28699" lon="-2.36187">
        <ele>152.80000305176</ele>
        <time>2020-12-10T11:10:45.000Z</time>
      </trkpt>
      <trkpt lat="47.28687" lon="-2.36169">
        <ele>152.80000305176</ele>
        <time>2020-12-10T11:10:51.000Z</time>
      </trkpt>
      <trkpt lat="47.28685" lon="-2.36162">
        <ele>152.80000305176</ele>
        <time>2020-12-10T11:10:55.000Z</time>
      </trkpt>
      <trkpt lat="47.28686" lon="-2.36155">
        <ele>152.80000305176</ele>
        <time>2020-12-10T11:10:57.000Z</time>
      </trkpt>
      <trkpt lat="47.28679" lon="-2.3613">
        <ele>152.80000305176</ele>
        <time>2020-12-10T11:11:01.000Z</time>
      </trkpt>
      <trkpt lat="47.28666" lon="-2.36096">
        <ele>152.80000305176</ele>
        <time>2020-12-10T11:11:06.000Z</time>
      </trkpt>
      <trkpt lat="47.28656" lon="-2.36072">
        <ele>152.80000305176</ele>
        <time>2020-12-10T11:11:11.000Z</time>
      </trkpt>
      <trkpt lat="47.28643" lon="-2.36059">
        <ele>152.80000305176</ele>
        <time>2020-12-10T11:11:14.000Z</time>
      </trkpt>
      <trkpt lat="47.28633" lon="-2.36052">
        <ele>152.80000305176</ele>
        <time>2020-12-10T11:11:16.000Z</time>
      </trkpt>
      <trkpt lat="47.2861" lon="-2.36024">
        <ele>152.80000305176</ele>
        <time>2020-12-10T11:11:22.000Z</time>
      </trkpt>
      <trkpt lat="47.28607" lon="-2.36018">
        <ele>152.80000305176</ele>
        <time>2020-12-10T11:11:23.000Z</time>
      </trkpt>
      <trkpt lat="47.28592" lon="-2.35976">
        <ele>152.80000305176</ele>
        <time>2020-12-10T11:11:28.000Z</time>
      </trkpt>
      <trkpt lat="47.28591" lon="-2.35966">
        <ele>152</ele>
        <time>2020-12-10T11:11:30.000Z</time>
      </trkpt>
      <trkpt lat="47.28591" lon="-2.35962">
        <ele>151.39999389648</ele>
        <time>2020-12-10T11:11:31.000Z</time>
      </trkpt>
      <trkpt lat="47.28591" lon="-2.35958">
        <ele>151</ele>
        <time>2020-12-10T11:11:32.000Z</time>
      </trkpt>
      <trkpt lat="47.28591" lon="-2.35954">
        <ele>150.60000610352</ele>
        <time>2020-12-10T11:11:33.000Z</time>
      </trkpt>
      <trkpt lat="47.2859" lon="-2.35942">
        <ele>150.60000610352</ele>
        <time>2020-12-10T11:11:35.000Z</time>
      </trkpt>
      <trkpt lat="47.28589" lon="-2.35928">
        <ele>150.60000610352</ele>
        <time>2020-12-10T11:11:37.000Z</time>
      </trkpt>
      <trkpt lat="47.28587" lon="-2.35905">
        <ele>150.60000610352</ele>
        <time>2020-12-10T11:11:40.000Z</time>
      </trkpt>
      <trkpt lat="47.28584" lon="-2.35898">
        <ele>150.19999694824</ele>
        <time>2020-12-10T11:11:41.000Z</time>
      </trkpt>
      <trkpt lat="47.28581" lon="-2.35891">
        <ele>149.80000305176</ele>
        <time>2020-12-10T11:11:42.000Z</time>
      </trkpt>
      <trkpt lat="47.28578" lon="-2.35883">
        <ele>149.39999389648</ele>
        <time>2020-12-10T11:11:43.000Z</time>
      </trkpt>
      <trkpt lat="47.28574" lon="-2.35875">
        <ele>149</ele>
        <time>2020-12-10T11:11:44.000Z</time>
      </trkpt>
      <trkpt lat="47.2857" lon="-2.35869">
        <ele>148.60000610352</ele>
        <time>2020-12-10T11:11:45.000Z</time>
      </trkpt>
      <trkpt lat="47.28562" lon="-2.35856">
        <ele>148.60000610352</ele>
        <time>2020-12-10T11:11:47.000Z</time>
      </trkpt>
      <trkpt lat="47.28552" lon="-2.35846">
        <ele>148.60000610352</ele>
        <time>2020-12-10T11:11:49.000Z</time>
      </trkpt>
      <trkpt lat="47.28528" lon="-2.35832">
        <ele>148.60000610352</ele>
        <time>2020-12-10T11:11:53.000Z</time>
      </trkpt>
      <trkpt lat="47.28522" lon="-2.3583">
        <ele>148.60000610352</ele>
        <time>2020-12-10T11:11:54.000Z</time>
      </trkpt>
      <trkpt lat="47.28489" lon="-2.35816">
        <ele>148.19999694824</ele>
        <time>2020-12-10T11:12:00.000Z</time>
      </trkpt>
      <trkpt lat="47.28484" lon="-2.35816">
        <ele>147.80000305176</ele>
        <time>2020-12-10T11:12:01.000Z</time>
      </trkpt>
      <trkpt lat="47.2848" lon="-2.35817">
        <ele>147.39999389648</ele>
        <time>2020-12-10T11:12:02.000Z</time>
      </trkpt>
      <trkpt lat="47.28477" lon="-2.35819">
        <ele>147</ele>
        <time>2020-12-10T11:12:03.000Z</time>
      </trkpt>
      <trkpt lat="47.28474" lon="-2.35821">
        <ele>146.60000610352</ele>
        <time>2020-12-10T11:12:04.000Z</time>
      </trkpt>
      <trkpt lat="47.28466" lon="-2.35832">
        <ele>146.60000610352</ele>
        <time>2020-12-10T11:12:08.000Z</time>
      </trkpt>
      <trkpt lat="47.28457" lon="-2.35837">
        <ele>146.60000610352</ele>
        <time>2020-12-10T11:12:12.000Z</time>
      </trkpt>
      <trkpt lat="47.28451" lon="-2.3584">
        <ele>146.60000610352</ele>
        <time>2020-12-10T11:12:14.000Z</time>
      </trkpt>
      <trkpt lat="47.28439" lon="-2.35847">
        <ele>146.60000610352</ele>
        <time>2020-12-10T11:12:18.000Z</time>
      </trkpt>
      <trkpt lat="47.28429" lon="-2.35841">
        <ele>146.60000610352</ele>
        <time>2020-12-10T11:12:22.000Z</time>
      </trkpt>
      <trkpt lat="47.28417" lon="-2.35824">
        <ele>146.60000610352</ele>
        <time>2020-12-10T11:12:27.000Z</time>
      </trkpt>
      <trkpt lat="47.28397" lon="-2.35803">
        <ele>146.60000610352</ele>
        <time>2020-12-10T11:12:33.000Z</time>
      </trkpt>
      <trkpt lat="47.28383" lon="-2.35797">
        <ele>146.60000610352</ele>
        <time>2020-12-10T11:12:37.000Z</time>
      </trkpt>
      <trkpt lat="47.28379" lon="-2.35798">
        <ele>146.60000610352</ele>
        <time>2020-12-10T11:12:38.000Z</time>
      </trkpt>
      <trkpt lat="47.28374" lon="-2.358">
        <ele>146.60000610352</ele>
        <time>2020-12-10T11:12:39.000Z</time>
      </trkpt>
      <trkpt lat="47.28366" lon="-2.35805">
        <ele>146.19999694824</ele>
        <time>2020-12-10T11:12:41.000Z</time>
      </trkpt>
      <trkpt lat="47.28362" lon="-2.35807">
        <ele>145.80000305176</ele>
        <time>2020-12-10T11:12:42.000Z</time>
      </trkpt>
      <trkpt lat="47.28359" lon="-2.35809">
        <ele>145.19999694824</ele>
        <time>2020-12-10T11:12:43.000Z</time>
      </trkpt>
      <trkpt lat="47.28356" lon="-2.35811">
        <ele>144.39999389648</ele>
        <time>2020-12-10T11:12:44.000Z</time>
      </trkpt>
      <trkpt lat="47.28339" lon="-2.35825">
        <ele>144.39999389648</ele>
        <time>2020-12-10T11:12:49.000Z</time>
      </trkpt>
      <trkpt lat="47.28323" lon="-2.35839">
        <ele>144.39999389648</ele>
        <time>2020-12-10T11:12:54.000Z</time>
      </trkpt>
      <trkpt lat="47.28314" lon="-2.35845">
        <ele>144.39999389648</ele>
        <time>2020-12-10T11:12:56.000Z</time>
      </trkpt>
      <trkpt lat="47.28301" lon="-2.35858">
        <ele>144.39999389648</ele>
        <time>2020-12-10T11:12:59.000Z</time>
      </trkpt>
      <trkpt lat="47.28297" lon="-2.35861">
        <ele>144</ele>
        <time>2020-12-10T11:13:00.000Z</time>
      </trkpt>
      <trkpt lat="47.28292" lon="-2.35866">
        <ele>143.60000610352</ele>
        <time>2020-12-10T11:13:01.000Z</time>
      </trkpt>
      <trkpt lat="47.28288" lon="-2.35868">
        <ele>143</ele>
        <time>2020-12-10T11:13:02.000Z</time>
      </trkpt>
      <trkpt lat="47.28286" lon="-2.35868">
        <ele>142.60000610352</ele>
        <time>2020-12-10T11:13:03.000Z</time>
      </trkpt>
      <trkpt lat="47.28284" lon="-2.35868">
        <ele>142.19999694824</ele>
        <time>2020-12-10T11:13:04.000Z</time>
      </trkpt>
      <trkpt lat="47.28281" lon="-2.35867">
        <ele>142.19999694824</ele>
        <time>2020-12-10T11:13:06.000Z</time>
      </trkpt>
      <trkpt lat="47.28283" lon="-2.35863">
        <ele>142.19999694824</ele>
        <time>2020-12-10T11:13:18.000Z</time>
      </trkpt>
      <trkpt lat="47.28274" lon="-2.35854">
        <ele>142.19999694824</ele>
        <time>2020-12-10T11:13:24.000Z</time>
      </trkpt>
      <trkpt lat="47.28268" lon="-2.35836">
        <ele>142.19999694824</ele>
        <time>2020-12-10T11:13:28.000Z</time>
      </trkpt>
      <trkpt lat="47.28265" lon="-2.35806">
        <ele>142.19999694824</ele>
        <time>2020-12-10T11:13:34.000Z</time>
      </trkpt>
      <trkpt lat="47.28262" lon="-2.35776">
        <ele>142.19999694824</ele>
        <time>2020-12-10T11:13:40.000Z</time>
      </trkpt>
      <trkpt lat="47.28259" lon="-2.35774">
        <ele>142.19999694824</ele>
        <time>2020-12-10T11:13:42.000Z</time>
      </trkpt>
      <trkpt lat="47.28254" lon="-2.35774">
        <ele>142.19999694824</ele>
        <time>2020-12-10T11:13:44.000Z</time>
      </trkpt>
      <trkpt lat="47.28237" lon="-2.35768">
        <ele>142.19999694824</ele>
        <time>2020-12-10T11:13:50.000Z</time>
      </trkpt>
      <trkpt lat="47.28225" lon="-2.35751">
        <ele>142.19999694824</ele>
        <time>2020-12-10T11:13:56.000Z</time>
      </trkpt>
      <trkpt lat="47.28215" lon="-2.35737">
        <ele>142.19999694824</ele>
        <time>2020-12-10T11:14:02.000Z</time>
      </trkpt>
      <trkpt lat="47.28205" lon="-2.3572">
        <ele>142.19999694824</ele>
        <time>2020-12-10T11:14:07.000Z</time>
      </trkpt>
      <trkpt lat="47.28202" lon="-2.35718">
        <ele>142.19999694824</ele>
        <time>2020-12-10T11:14:08.000Z</time>
      </trkpt>
      <trkpt lat="47.28188" lon="-2.35709">
        <ele>142.19999694824</ele>
        <time>2020-12-10T11:14:15.000Z</time>
      </trkpt>
      <trkpt lat="47.28187" lon="-2.35707">
        <ele>142.19999694824</ele>
        <time>2020-12-10T11:14:16.000Z</time>
      </trkpt>
      <trkpt lat="47.28182" lon="-2.35695">
        <ele>142.19999694824</ele>
        <time>2020-12-10T11:14:22.000Z</time>
      </trkpt>
      <trkpt lat="47.28181" lon="-2.35694">
        <ele>143.19999694824</ele>
        <time>2020-12-10T11:14:23.000Z</time>
      </trkpt>
      <trkpt lat="47.28179" lon="-2.35692">
        <ele>143.60000610352</ele>
        <time>2020-12-10T11:14:24.000Z</time>
      </trkpt>
      <trkpt lat="47.28178" lon="-2.3569">
        <ele>144</ele>
        <time>2020-12-10T11:14:25.000Z</time>
      </trkpt>
      <trkpt lat="47.28177" lon="-2.35688">
        <ele>144.60000610352</ele>
        <time>2020-12-10T11:14:26.000Z</time>
      </trkpt>
      <trkpt lat="47.28176" lon="-2.35686">
        <ele>145</ele>
        <time>2020-12-10T11:14:27.000Z</time>
      </trkpt>
      <trkpt lat="47.28175" lon="-2.35685">
        <ele>145.39999389648</ele>
        <time>2020-12-10T11:14:28.000Z</time>
      </trkpt>
      <trkpt lat="47.28175" lon="-2.35683">
        <ele>145.80000305176</ele>
        <time>2020-12-10T11:14:29.000Z</time>
      </trkpt>
      <trkpt lat="47.28174" lon="-2.35683">
        <ele>146.39999389648</ele>
        <time>2020-12-10T11:14:30.000Z</time>
      </trkpt>
      <trkpt lat="47.28173" lon="-2.35684">
        <ele>146.80000305176</ele>
        <time>2020-12-10T11:14:31.000Z</time>
      </trkpt>
      <trkpt lat="47.28169" lon="-2.35683">
        <ele>146.80000305176</ele>
        <time>2020-12-10T11:14:34.000Z</time>
      </trkpt>
      <trkpt lat="47.28165" lon="-2.35678">
        <ele>147.19999694824</ele>
        <time>2020-12-10T11:14:37.000Z</time>
      </trkpt>
      <trkpt lat="47.28163" lon="-2.35677">
        <ele>147.60000610352</ele>
        <time>2020-12-10T11:14:38.000Z</time>
      </trkpt>
      <trkpt lat="47.28161" lon="-2.35676">
        <ele>148.19999694824</ele>
        <time>2020-12-10T11:14:39.000Z</time>
      </trkpt>
      <trkpt lat="47.2816" lon="-2.35675">
        <ele>148.60000610352</ele>
        <time>2020-12-10T11:14:40.000Z</time>
      </trkpt>
      <trkpt lat="47.28158" lon="-2.35673">
        <ele>149</ele>
        <time>2020-12-10T11:14:41.000Z</time>
      </trkpt>
      <trkpt lat="47.28154" lon="-2.35671">
        <ele>149.39999389648</ele>
        <time>2020-12-10T11:14:43.000Z</time>
      </trkpt>
      <trkpt lat="47.28153" lon="-2.3567">
        <ele>149.80000305176</ele>
        <time>2020-12-10T11:14:44.000Z</time>
      </trkpt>
      <trkpt lat="47.28151" lon="-2.3567">
        <ele>150.19999694824</ele>
        <time>2020-12-10T11:14:45.000Z</time>
      </trkpt>
      <trkpt lat="47.2815" lon="-2.3567">
        <ele>150.60000610352</ele>
        <time>2020-12-10T11:14:46.000Z</time>
      </trkpt>
      <trkpt lat="47.28148" lon="-2.35671">
        <ele>151</ele>
        <time>2020-12-10T11:14:47.000Z</time>
      </trkpt>
      <trkpt lat="47.28137" lon="-2.35676">
        <ele>151</ele>
        <time>2020-12-10T11:14:52.000Z</time>
      </trkpt>
      <trkpt lat="47.28129" lon="-2.35678">
        <ele>150.60000610352</ele>
        <time>2020-12-10T11:14:56.000Z</time>
      </trkpt>
      <trkpt lat="47.28127" lon="-2.35678">
        <ele>150.19999694824</ele>
        <time>2020-12-10T11:14:57.000Z</time>
      </trkpt>
      <trkpt lat="47.28125" lon="-2.35679">
        <ele>149.80000305176</ele>
        <time>2020-12-10T11:14:58.000Z</time>
      </trkpt>
      <trkpt lat="47.28122" lon="-2.3568">
        <ele>149.39999389648</ele>
        <time>2020-12-10T11:14:59.000Z</time>
      </trkpt>
      <trkpt lat="47.2812" lon="-2.35681">
        <ele>149</ele>
        <time>2020-12-10T11:15:00.000Z</time>
      </trkpt>
      <trkpt lat="47.28116" lon="-2.35683">
        <ele>148.60000610352</ele>
        <time>2020-12-10T11:15:01.000Z</time>
      </trkpt>
      <trkpt lat="47.28113" lon="-2.35685">
        <ele>148.19999694824</ele>
        <time>2020-12-10T11:15:02.000Z</time>
      </trkpt>
      <trkpt lat="47.2811" lon="-2.35688">
        <ele>147.60000610352</ele>
        <time>2020-12-10T11:15:03.000Z</time>
      </trkpt>
      <trkpt lat="47.28107" lon="-2.35691">
        <ele>147.19999694824</ele>
        <time>2020-12-10T11:15:04.000Z</time>
      </trkpt>
      <trkpt lat="47.28105" lon="-2.35694">
        <ele>146.60000610352</ele>
        <time>2020-12-10T11:15:05.000Z</time>
      </trkpt>
      <trkpt lat="47.28102" lon="-2.35696">
        <ele>146.19999694824</ele>
        <time>2020-12-10T11:15:06.000Z</time>
      </trkpt>
      <trkpt lat="47.28099" lon="-2.35696">
        <ele>145.60000610352</ele>
        <time>2020-12-10T11:15:07.000Z</time>
      </trkpt>
      <trkpt lat="47.28097" lon="-2.35694">
        <ele>145.19999694824</ele>
        <time>2020-12-10T11:15:08.000Z</time>
      </trkpt>
      <trkpt lat="47.28095" lon="-2.35692">
        <ele>144.60000610352</ele>
        <time>2020-12-10T11:15:09.000Z</time>
      </trkpt>
      <trkpt lat="47.28092" lon="-2.35672">
        <ele>144.60000610352</ele>
        <time>2020-12-10T11:15:13.000Z</time>
      </trkpt>
      <trkpt lat="47.2809" lon="-2.35665">
        <ele>144.19999694824</ele>
        <time>2020-12-10T11:15:14.000Z</time>
      </trkpt>
      <trkpt lat="47.28088" lon="-2.35659">
        <ele>143.80000305176</ele>
        <time>2020-12-10T11:15:15.000Z</time>
      </trkpt>
      <trkpt lat="47.28087" lon="-2.35653">
        <ele>143.39999389648</ele>
        <time>2020-12-10T11:15:16.000Z</time>
      </trkpt>
      <trkpt lat="47.28086" lon="-2.35648">
        <ele>143</ele>
        <time>2020-12-10T11:15:17.000Z</time>
      </trkpt>
      <trkpt lat="47.28085" lon="-2.35642">
        <ele>142.60000610352</ele>
        <time>2020-12-10T11:15:18.000Z</time>
      </trkpt>
      <trkpt lat="47.28083" lon="-2.35633">
        <ele>142</ele>
        <time>2020-12-10T11:15:20.000Z</time>
      </trkpt>
      <trkpt lat="47.28082" lon="-2.35628">
        <ele>141.60000610352</ele>
        <time>2020-12-10T11:15:21.000Z</time>
      </trkpt>
      <trkpt lat="47.28082" lon="-2.35623">
        <ele>141</ele>
        <time>2020-12-10T11:15:22.000Z</time>
      </trkpt>
      <trkpt lat="47.28081" lon="-2.35619">
        <ele>140.60000610352</ele>
        <time>2020-12-10T11:15:23.000Z</time>
      </trkpt>
      <trkpt lat="47.28081" lon="-2.35615">
        <ele>140.19999694824</ele>
        <time>2020-12-10T11:15:24.000Z</time>
      </trkpt>
      <trkpt lat="47.28081" lon="-2.35612">
        <ele>139.80000305176</ele>
        <time>2020-12-10T11:15:25.000Z</time>
      </trkpt>
      <trkpt lat="47.28082" lon="-2.35609">
        <ele>139.39999389648</ele>
        <time>2020-12-10T11:15:26.000Z</time>
      </trkpt>
      <trkpt lat="47.28083" lon="-2.35608">
        <ele>139</ele>
        <time>2020-12-10T11:15:27.000Z</time>
      </trkpt>
      <trkpt lat="47.28085" lon="-2.3561">
        <ele>138.39999389648</ele>
        <time>2020-12-10T11:15:28.000Z</time>
      </trkpt>
      <trkpt lat="47.28086" lon="-2.35611">
        <ele>138</ele>
        <time>2020-12-10T11:15:29.000Z</time>
      </trkpt>
      <trkpt lat="47.2809" lon="-2.35618">
        <ele>138</ele>
        <time>2020-12-10T11:15:33.000Z</time>
      </trkpt>
      <trkpt lat="47.28085" lon="-2.35611">
        <ele>140.19999694824</ele>
        <time>2020-12-10T11:28:58.000Z</time>
      </trkpt>
      <trkpt lat="47.28071" lon="-2.35592">
        <ele>140.19999694824</ele>
        <time>2020-12-10T11:29:05.000Z</time>
      </trkpt>
      <trkpt lat="47.28055" lon="-2.35577">
        <ele>140.19999694824</ele>
        <time>2020-12-10T11:29:12.000Z</time>
      </trkpt>
      <trkpt lat="47.28042" lon="-2.35576">
        <ele>140.19999694824</ele>
        <time>2020-12-10T11:29:15.000Z</time>
      </trkpt>
      <trkpt lat="47.28038" lon="-2.35574">
        <ele>140.19999694824</ele>
        <time>2020-12-10T11:29:16.000Z</time>
      </trkpt>
      <trkpt lat="47.28018" lon="-2.35566">
        <ele>140.19999694824</ele>
        <time>2020-12-10T11:29:20.000Z</time>
      </trkpt>
      <trkpt lat="47.28003" lon="-2.3557">
        <ele>140.19999694824</ele>
        <time>2020-12-10T11:29:23.000Z</time>
      </trkpt>
      <trkpt lat="47.27998" lon="-2.3557">
        <ele>139.60000610352</ele>
        <time>2020-12-10T11:29:24.000Z</time>
      </trkpt>
      <trkpt lat="47.27994" lon="-2.3557">
        <ele>139.19999694824</ele>
        <time>2020-12-10T11:29:25.000Z</time>
      </trkpt>
      <trkpt lat="47.27989" lon="-2.35569">
        <ele>138.80000305176</ele>
        <time>2020-12-10T11:29:26.000Z</time>
      </trkpt>
      <trkpt lat="47.27985" lon="-2.35569">
        <ele>138.39999389648</ele>
        <time>2020-12-10T11:29:27.000Z</time>
      </trkpt>
      <trkpt lat="47.27981" lon="-2.35569">
        <ele>138</ele>
        <time>2020-12-10T11:29:28.000Z</time>
      </trkpt>
      <trkpt lat="47.27971" lon="-2.3557">
        <ele>138</ele>
        <time>2020-12-10T11:29:31.000Z</time>
      </trkpt>
      <trkpt lat="47.27959" lon="-2.35575">
        <ele>138</ele>
        <time>2020-12-10T11:29:34.000Z</time>
      </trkpt>
      <trkpt lat="47.2793" lon="-2.35585">
        <ele>138</ele>
        <time>2020-12-10T11:29:40.000Z</time>
      </trkpt>
      <trkpt lat="47.27889" lon="-2.35597">
        <ele>138</ele>
        <time>2020-12-10T11:29:47.000Z</time>
      </trkpt>
      <trkpt lat="47.27864" lon="-2.35603">
        <ele>137.60000610352</ele>
        <time>2020-12-10T11:29:51.000Z</time>
      </trkpt>
      <trkpt lat="47.27857" lon="-2.35605">
        <ele>137.19999694824</ele>
        <time>2020-12-10T11:29:52.000Z</time>
      </trkpt>
      <trkpt lat="47.27851" lon="-2.35607">
        <ele>136.80000305176</ele>
        <time>2020-12-10T11:29:53.000Z</time>
      </trkpt>
      <trkpt lat="47.27844" lon="-2.35609">
        <ele>136.39999389648</ele>
        <time>2020-12-10T11:29:54.000Z</time>
      </trkpt>
      <trkpt lat="47.27838" lon="-2.35612">
        <ele>135.80000305176</ele>
        <time>2020-12-10T11:29:55.000Z</time>
      </trkpt>
      <trkpt lat="47.2783" lon="-2.35614">
        <ele>135.80000305176</ele>
        <time>2020-12-10T11:29:56.000Z</time>
      </trkpt>
      <trkpt lat="47.2781" lon="-2.35618">
        <ele>135.39999389648</ele>
        <time>2020-12-10T11:29:59.000Z</time>
      </trkpt>
      <trkpt lat="47.27803" lon="-2.3562">
        <ele>135</ele>
        <time>2020-12-10T11:30:00.000Z</time>
      </trkpt>
      <trkpt lat="47.27797" lon="-2.35623">
        <ele>134.60000610352</ele>
        <time>2020-12-10T11:30:01.000Z</time>
      </trkpt>
      <trkpt lat="47.2779" lon="-2.35627">
        <ele>133.80000305176</ele>
        <time>2020-12-10T11:30:02.000Z</time>
      </trkpt>
      <trkpt lat="47.27784" lon="-2.35631">
        <ele>133.80000305176</ele>
        <time>2020-12-10T11:30:03.000Z</time>
      </trkpt>
      <trkpt lat="47.27759" lon="-2.35653">
        <ele>133.80000305176</ele>
        <time>2020-12-10T11:30:07.000Z</time>
      </trkpt>
      <trkpt lat="47.27754" lon="-2.35659">
        <ele>133.80000305176</ele>
        <time>2020-12-10T11:30:08.000Z</time>
      </trkpt>
      <trkpt lat="47.27749" lon="-2.35667">
        <ele>133.80000305176</ele>
        <time>2020-12-10T11:30:09.000Z</time>
      </trkpt>
      <trkpt lat="47.27745" lon="-2.35674">
        <ele>133.39999389648</ele>
        <time>2020-12-10T11:30:10.000Z</time>
      </trkpt>
      <trkpt lat="47.27741" lon="-2.35681">
        <ele>133</ele>
        <time>2020-12-10T11:30:11.000Z</time>
      </trkpt>
      <trkpt lat="47.27736" lon="-2.35688">
        <ele>132.60000610352</ele>
        <time>2020-12-10T11:30:12.000Z</time>
      </trkpt>
      <trkpt lat="47.27732" lon="-2.35694">
        <ele>132.19999694824</ele>
        <time>2020-12-10T11:30:13.000Z</time>
      </trkpt>
      <trkpt lat="47.27727" lon="-2.35701">
        <ele>131.80000305176</ele>
        <time>2020-12-10T11:30:14.000Z</time>
      </trkpt>
      <trkpt lat="47.27699" lon="-2.35728">
        <ele>131.80000305176</ele>
        <time>2020-12-10T11:30:19.000Z</time>
      </trkpt>
      <trkpt lat="47.27688" lon="-2.35738">
        <ele>131.80000305176</ele>
        <time>2020-12-10T11:30:21.000Z</time>
      </trkpt>
      <trkpt lat="47.27675" lon="-2.35748">
        <ele>131.19999694824</ele>
        <time>2020-12-10T11:30:24.000Z</time>
      </trkpt>
      <trkpt lat="47.27672" lon="-2.35747">
        <ele>130.80000305176</ele>
        <time>2020-12-10T11:30:25.000Z</time>
      </trkpt>
      <trkpt lat="47.27669" lon="-2.35744">
        <ele>130</ele>
        <time>2020-12-10T11:30:26.000Z</time>
      </trkpt>
      <trkpt lat="47.27665" lon="-2.35739">
        <ele>129.60000610352</ele>
        <time>2020-12-10T11:30:27.000Z</time>
      </trkpt>
      <trkpt lat="47.27646" lon="-2.35724">
        <ele>129</ele>
        <time>2020-12-10T11:30:31.000Z</time>
      </trkpt>
      <trkpt lat="47.27639" lon="-2.35721">
        <ele>128.60000610352</ele>
        <time>2020-12-10T11:30:32.000Z</time>
      </trkpt>
      <trkpt lat="47.27633" lon="-2.35719">
        <ele>128.19999694824</ele>
        <time>2020-12-10T11:30:33.000Z</time>
      </trkpt>
      <trkpt lat="47.27626" lon="-2.35716">
        <ele>127.80000305176</ele>
        <time>2020-12-10T11:30:34.000Z</time>
      </trkpt>
      <trkpt lat="47.2762" lon="-2.35713">
        <ele>127.40000152588</ele>
        <time>2020-12-10T11:30:35.000Z</time>
      </trkpt>
      <trkpt lat="47.27594" lon="-2.35705">
        <ele>127.40000152588</ele>
        <time>2020-12-10T11:30:39.000Z</time>
      </trkpt>
      <trkpt lat="47.27555" lon="-2.35695">
        <ele>127</ele>
        <time>2020-12-10T11:30:45.000Z</time>
      </trkpt>
      <trkpt lat="47.27549" lon="-2.35694">
        <ele>126.59999847412</ele>
        <time>2020-12-10T11:30:46.000Z</time>
      </trkpt>
      <trkpt lat="47.27542" lon="-2.35693">
        <ele>126.19999694824</ele>
        <time>2020-12-10T11:30:47.000Z</time>
      </trkpt>
      <trkpt lat="47.27536" lon="-2.35691">
        <ele>125.80000305176</ele>
        <time>2020-12-10T11:30:48.000Z</time>
      </trkpt>
      <trkpt lat="47.27529" lon="-2.3569">
        <ele>125.40000152588</ele>
        <time>2020-12-10T11:30:49.000Z</time>
      </trkpt>
      <trkpt lat="47.27507" lon="-2.35687">
        <ele>125.40000152588</ele>
        <time>2020-12-10T11:30:52.000Z</time>
      </trkpt>
      <trkpt lat="47.27459" lon="-2.35678">
        <ele>125.40000152588</ele>
        <time>2020-12-10T11:30:59.000Z</time>
      </trkpt>
      <trkpt lat="47.27418" lon="-2.35671">
        <ele>125.40000152588</ele>
        <time>2020-12-10T11:31:05.000Z</time>
      </trkpt>
      <trkpt lat="47.27411" lon="-2.35671">
        <ele>125.40000152588</ele>
        <time>2020-12-10T11:31:06.000Z</time>
      </trkpt>
      <trkpt lat="47.27384" lon="-2.35683">
        <ele>125.40000152588</ele>
        <time>2020-12-10T11:31:10.000Z</time>
      </trkpt>
      <trkpt lat="47.2736" lon="-2.357">
        <ele>125</ele>
        <time>2020-12-10T11:31:14.000Z</time>
      </trkpt>
      <trkpt lat="47.27355" lon="-2.35704">
        <ele>124.59999847412</ele>
        <time>2020-12-10T11:31:15.000Z</time>
      </trkpt>
      <trkpt lat="47.27349" lon="-2.35708">
        <ele>123.80000305176</ele>
        <time>2020-12-10T11:31:16.000Z</time>
      </trkpt>
      <trkpt lat="47.27344" lon="-2.35713">
        <ele>123.40000152588</ele>
        <time>2020-12-10T11:31:17.000Z</time>
      </trkpt>
      <trkpt lat="47.2733" lon="-2.35726">
        <ele>123.40000152588</ele>
        <time>2020-12-10T11:31:20.000Z</time>
      </trkpt>
      <trkpt lat="47.27326" lon="-2.3573">
        <ele>123.40000152588</ele>
        <time>2020-12-10T11:31:21.000Z</time>
      </trkpt>
      <trkpt lat="47.27313" lon="-2.35742">
        <ele>123.40000152588</ele>
        <time>2020-12-10T11:31:25.000Z</time>
      </trkpt>
      <trkpt lat="47.2731" lon="-2.35739">
        <ele>123.40000152588</ele>
        <time>2020-12-10T11:31:26.000Z</time>
      </trkpt>
      <trkpt lat="47.27303" lon="-2.35721">
        <ele>123.40000152588</ele>
        <time>2020-12-10T11:31:30.000Z</time>
      </trkpt>
      <trkpt lat="47.27301" lon="-2.35714">
        <ele>123.40000152588</ele>
        <time>2020-12-10T11:31:31.000Z</time>
      </trkpt>
      <trkpt lat="47.27286" lon="-2.35682">
        <ele>123.40000152588</ele>
        <time>2020-12-10T11:31:36.000Z</time>
      </trkpt>
      <trkpt lat="47.27268" lon="-2.35641">
        <ele>123.40000152588</ele>
        <time>2020-12-10T11:31:42.000Z</time>
      </trkpt>
      <trkpt lat="47.27244" lon="-2.35584">
        <ele>123.40000152588</ele>
        <time>2020-12-10T11:31:50.000Z</time>
      </trkpt>
      <trkpt lat="47.27213" lon="-2.35517">
        <ele>123.40000152588</ele>
        <time>2020-12-10T11:31:59.000Z</time>
      </trkpt>
      <trkpt lat="47.27178" lon="-2.35449">
        <ele>123.40000152588</ele>
        <time>2020-12-10T11:32:08.000Z</time>
      </trkpt>
      <trkpt lat="47.27142" lon="-2.35382">
        <ele>123.40000152588</ele>
        <time>2020-12-10T11:32:16.000Z</time>
      </trkpt>
      <trkpt lat="47.27102" lon="-2.35315">
        <ele>123.40000152588</ele>
        <time>2020-12-10T11:32:24.000Z</time>
      </trkpt>
      <trkpt lat="47.27097" lon="-2.35307">
        <ele>123.40000152588</ele>
        <time>2020-12-10T11:32:25.000Z</time>
      </trkpt>
      <trkpt lat="47.27058" lon="-2.35246">
        <ele>123.40000152588</ele>
        <time>2020-12-10T11:32:32.000Z</time>
      </trkpt>
      <trkpt lat="47.27047" lon="-2.35228">
        <ele>123.40000152588</ele>
        <time>2020-12-10T11:32:34.000Z</time>
      </trkpt>
      <trkpt lat="47.27007" lon="-2.35166">
        <ele>123.40000152588</ele>
        <time>2020-12-10T11:32:41.000Z</time>
      </trkpt>
      <trkpt lat="47.26995" lon="-2.35148">
        <ele>123.40000152588</ele>
        <time>2020-12-10T11:32:43.000Z</time>
      </trkpt>
      <trkpt lat="47.26954" lon="-2.35088">
        <ele>123.40000152588</ele>
        <time>2020-12-10T11:32:50.000Z</time>
      </trkpt>
      <trkpt lat="47.26949" lon="-2.35079">
        <ele>123.40000152588</ele>
        <time>2020-12-10T11:32:51.000Z</time>
      </trkpt>
      <trkpt lat="47.26908" lon="-2.35017">
        <ele>123.40000152588</ele>
        <time>2020-12-10T11:32:58.000Z</time>
      </trkpt>
      <trkpt lat="47.26896" lon="-2.34999">
        <ele>123.40000152588</ele>
        <time>2020-12-10T11:33:00.000Z</time>
      </trkpt>
      <trkpt lat="47.26856" lon="-2.34938">
        <ele>123.40000152588</ele>
        <time>2020-12-10T11:33:07.000Z</time>
      </trkpt>
      <trkpt lat="47.2685" lon="-2.34929">
        <ele>123.40000152588</ele>
        <time>2020-12-10T11:33:08.000Z</time>
      </trkpt>
      <trkpt lat="47.26815" lon="-2.34876">
        <ele>123.40000152588</ele>
        <time>2020-12-10T11:33:14.000Z</time>
      </trkpt>
      <trkpt lat="47.26775" lon="-2.34817">
        <ele>123.40000152588</ele>
        <time>2020-12-10T11:33:21.000Z</time>
      </trkpt>
      <trkpt lat="47.26762" lon="-2.34802">
        <ele>123.40000152588</ele>
        <time>2020-12-10T11:33:23.000Z</time>
      </trkpt>
      <trkpt lat="47.26732" lon="-2.34763">
        <ele>123.40000152588</ele>
        <time>2020-12-10T11:33:28.000Z</time>
      </trkpt>
      <trkpt lat="47.26694" lon="-2.34718">
        <ele>123.40000152588</ele>
        <time>2020-12-10T11:33:34.000Z</time>
      </trkpt>
      <trkpt lat="47.2665" lon="-2.34664">
        <ele>123.40000152588</ele>
        <time>2020-12-10T11:33:41.000Z</time>
      </trkpt>
      <trkpt lat="47.26632" lon="-2.34639">
        <ele>123.40000152588</ele>
        <time>2020-12-10T11:33:44.000Z</time>
      </trkpt>
      <trkpt lat="47.26588" lon="-2.34586">
        <ele>123.40000152588</ele>
        <time>2020-12-10T11:33:51.000Z</time>
      </trkpt>
      <trkpt lat="47.26575" lon="-2.34573">
        <ele>123.40000152588</ele>
        <time>2020-12-10T11:33:53.000Z</time>
      </trkpt>
      <trkpt lat="47.2653" lon="-2.34526">
        <ele>123.40000152588</ele>
        <time>2020-12-10T11:34:00.000Z</time>
      </trkpt>
      <trkpt lat="47.26517" lon="-2.34515">
        <ele>123.40000152588</ele>
        <time>2020-12-10T11:34:02.000Z</time>
      </trkpt>
      <trkpt lat="47.26468" lon="-2.34482">
        <ele>123.40000152588</ele>
        <time>2020-12-10T11:34:09.000Z</time>
      </trkpt>
      <trkpt lat="47.2646" lon="-2.34477">
        <ele>123.40000152588</ele>
        <time>2020-12-10T11:34:10.000Z</time>
      </trkpt>
      <trkpt lat="47.26439" lon="-2.34463">
        <ele>123.40000152588</ele>
        <time>2020-12-10T11:34:14.000Z</time>
      </trkpt>
      <trkpt lat="47.26409" lon="-2.3444">
        <ele>123.40000152588</ele>
        <time>2020-12-10T11:34:19.000Z</time>
      </trkpt>
      <trkpt lat="47.26359" lon="-2.34398">
        <ele>123.40000152588</ele>
        <time>2020-12-10T11:34:27.000Z</time>
      </trkpt>
      <trkpt lat="47.26353" lon="-2.34392">
        <ele>123.40000152588</ele>
        <time>2020-12-10T11:34:28.000Z</time>
      </trkpt>
      <trkpt lat="47.26334" lon="-2.34378">
        <ele>123.40000152588</ele>
        <time>2020-12-10T11:34:31.000Z</time>
      </trkpt>
      <trkpt lat="47.2632" lon="-2.34371">
        <ele>123.40000152588</ele>
        <time>2020-12-10T11:34:33.000Z</time>
      </trkpt>
      <trkpt lat="47.26305" lon="-2.34349">
        <ele>123.40000152588</ele>
        <time>2020-12-10T11:34:36.000Z</time>
      </trkpt>
      <trkpt lat="47.26293" lon="-2.34337">
        <ele>123.40000152588</ele>
        <time>2020-12-10T11:34:38.000Z</time>
      </trkpt>
      <trkpt lat="47.2627" lon="-2.34313">
        <ele>123.40000152588</ele>
        <time>2020-12-10T11:34:42.000Z</time>
      </trkpt>
      <trkpt lat="47.2623" lon="-2.34269">
        <ele>123.40000152588</ele>
        <time>2020-12-10T11:34:49.000Z</time>
      </trkpt>
      <trkpt lat="47.26186" lon="-2.34223">
        <ele>123.40000152588</ele>
        <time>2020-12-10T11:34:57.000Z</time>
      </trkpt>
      <trkpt lat="47.2618" lon="-2.34218">
        <ele>123.40000152588</ele>
        <time>2020-12-10T11:34:58.000Z</time>
      </trkpt>
      <trkpt lat="47.26141" lon="-2.34183">
        <ele>123.40000152588</ele>
        <time>2020-12-10T11:35:05.000Z</time>
      </trkpt>
      <trkpt lat="47.26135" lon="-2.34181">
        <ele>123.40000152588</ele>
        <time>2020-12-10T11:35:06.000Z</time>
      </trkpt>
      <trkpt lat="47.26118" lon="-2.34165">
        <ele>123.40000152588</ele>
        <time>2020-12-10T11:35:09.000Z</time>
      </trkpt>
      <trkpt lat="47.26112" lon="-2.3416">
        <ele>123.40000152588</ele>
        <time>2020-12-10T11:35:10.000Z</time>
      </trkpt>
      <trkpt lat="47.26099" lon="-2.34153">
        <ele>123.40000152588</ele>
        <time>2020-12-10T11:35:12.000Z</time>
      </trkpt>
      <trkpt lat="47.26047" lon="-2.34126">
        <ele>123.40000152588</ele>
        <time>2020-12-10T11:35:20.000Z</time>
      </trkpt>
      <trkpt lat="47.25995" lon="-2.341">
        <ele>123.40000152588</ele>
        <time>2020-12-10T11:35:28.000Z</time>
      </trkpt>
      <trkpt lat="47.25989" lon="-2.34098">
        <ele>123.40000152588</ele>
        <time>2020-12-10T11:35:29.000Z</time>
      </trkpt>
      <trkpt lat="47.25933" lon="-2.34073">
        <ele>123.40000152588</ele>
        <time>2020-12-10T11:35:38.000Z</time>
      </trkpt>
      <trkpt lat="47.25914" lon="-2.3407">
        <ele>123.40000152588</ele>
        <time>2020-12-10T11:35:41.000Z</time>
      </trkpt>
      <trkpt lat="47.25903" lon="-2.34066">
        <ele>123.40000152588</ele>
        <time>2020-12-10T11:35:43.000Z</time>
      </trkpt>
      <trkpt lat="47.25899" lon="-2.3406">
        <ele>123</ele>
        <time>2020-12-10T11:35:44.000Z</time>
      </trkpt>
      <trkpt lat="47.25896" lon="-2.34053">
        <ele>122.40000152588</ele>
        <time>2020-12-10T11:35:45.000Z</time>
      </trkpt>
      <trkpt lat="47.25894" lon="-2.34045">
        <ele>122</ele>
        <time>2020-12-10T11:35:46.000Z</time>
      </trkpt>
      <trkpt lat="47.25894" lon="-2.34036">
        <ele>121.59999847412</ele>
        <time>2020-12-10T11:35:47.000Z</time>
      </trkpt>
      <trkpt lat="47.25896" lon="-2.34028">
        <ele>121.19999694824</ele>
        <time>2020-12-10T11:35:48.000Z</time>
      </trkpt>
      <trkpt lat="47.25898" lon="-2.34019">
        <ele>121.19999694824</ele>
        <time>2020-12-10T11:35:49.000Z</time>
      </trkpt>
      <trkpt lat="47.25902" lon="-2.34003">
        <ele>121.19999694824</ele>
        <time>2020-12-10T11:35:51.000Z</time>
      </trkpt>
      <trkpt lat="47.25912" lon="-2.33971">
        <ele>121.19999694824</ele>
        <time>2020-12-10T11:35:55.000Z</time>
      </trkpt>
      <trkpt lat="47.25926" lon="-2.33939">
        <ele>121.19999694824</ele>
        <time>2020-12-10T11:35:59.000Z</time>
      </trkpt>
      <trkpt lat="47.25935" lon="-2.33926">
        <ele>121.19999694824</ele>
        <time>2020-12-10T11:36:01.000Z</time>
      </trkpt>
      <trkpt lat="47.25943" lon="-2.33912">
        <ele>121.19999694824</ele>
        <time>2020-12-10T11:36:03.000Z</time>
      </trkpt>
      <trkpt lat="47.25948" lon="-2.33896">
        <ele>121.19999694824</ele>
        <time>2020-12-10T11:36:05.000Z</time>
      </trkpt>
      <trkpt lat="47.25951" lon="-2.33889">
        <ele>121.80000305176</ele>
        <time>2020-12-10T11:36:06.000Z</time>
      </trkpt>
      <trkpt lat="47.25954" lon="-2.33881">
        <ele>122.19999694824</ele>
        <time>2020-12-10T11:36:07.000Z</time>
      </trkpt>
      <trkpt lat="47.25956" lon="-2.33873">
        <ele>122.59999847412</ele>
        <time>2020-12-10T11:36:08.000Z</time>
      </trkpt>
      <trkpt lat="47.25959" lon="-2.33866">
        <ele>123</ele>
        <time>2020-12-10T11:36:09.000Z</time>
      </trkpt>
      <trkpt lat="47.25961" lon="-2.33857">
        <ele>122.80000305176</ele>
        <time>2020-12-10T11:36:10.000Z</time>
      </trkpt>
      <trkpt lat="47.25964" lon="-2.33849">
        <ele>122.40000152588</ele>
        <time>2020-12-10T11:36:11.000Z</time>
      </trkpt>
      <trkpt lat="47.25967" lon="-2.33841">
        <ele>122</ele>
        <time>2020-12-10T11:36:12.000Z</time>
      </trkpt>
      <trkpt lat="47.2597" lon="-2.33833">
        <ele>121.19999694824</ele>
        <time>2020-12-10T11:36:13.000Z</time>
      </trkpt>
      <trkpt lat="47.25987" lon="-2.33777">
        <ele>121.19999694824</ele>
        <time>2020-12-10T11:36:20.000Z</time>
      </trkpt>
      <trkpt lat="47.26005" lon="-2.33721">
        <ele>121.19999694824</ele>
        <time>2020-12-10T11:36:27.000Z</time>
      </trkpt>
      <trkpt lat="47.26021" lon="-2.33673">
        <ele>121.19999694824</ele>
        <time>2020-12-10T11:36:34.000Z</time>
      </trkpt>
      <trkpt lat="47.26023" lon="-2.33668">
        <ele>121.19999694824</ele>
        <time>2020-12-10T11:36:35.000Z</time>
      </trkpt>
      <trkpt lat="47.26031" lon="-2.33665">
        <ele>121.19999694824</ele>
        <time>2020-12-10T11:36:37.000Z</time>
      </trkpt>
      <trkpt lat="47.2604" lon="-2.33667">
        <ele>121.19999694824</ele>
        <time>2020-12-10T11:36:39.000Z</time>
      </trkpt>
      <trkpt lat="47.26048" lon="-2.33668">
        <ele>121.19999694824</ele>
        <time>2020-12-10T11:36:41.000Z</time>
      </trkpt>
      <trkpt lat="47.26053" lon="-2.33667">
        <ele>121.19999694824</ele>
        <time>2020-12-10T11:36:42.000Z</time>
      </trkpt>
      <trkpt lat="47.26059" lon="-2.33659">
        <ele>121.19999694824</ele>
        <time>2020-12-10T11:36:44.000Z</time>
      </trkpt>
      <trkpt lat="47.26066" lon="-2.3364">
        <ele>121.19999694824</ele>
        <time>2020-12-10T11:36:47.000Z</time>
      </trkpt>
      <trkpt lat="47.2607" lon="-2.33628">
        <ele>121.19999694824</ele>
        <time>2020-12-10T11:36:49.000Z</time>
      </trkpt>
      <trkpt lat="47.2609" lon="-2.33571">
        <ele>121.19999694824</ele>
        <time>2020-12-10T11:36:57.000Z</time>
      </trkpt>
      <trkpt lat="47.26115" lon="-2.33505">
        <ele>121.19999694824</ele>
        <time>2020-12-10T11:37:06.000Z</time>
      </trkpt>
      <trkpt lat="47.26128" lon="-2.33464">
        <ele>121.19999694824</ele>
        <time>2020-12-10T11:37:12.000Z</time>
      </trkpt>
      <trkpt lat="47.26133" lon="-2.33453">
        <ele>121.19999694824</ele>
        <time>2020-12-10T11:37:14.000Z</time>
      </trkpt>
      <trkpt lat="47.26139" lon="-2.3344">
        <ele>121.19999694824</ele>
        <time>2020-12-10T11:37:17.000Z</time>
      </trkpt>
      <trkpt lat="47.26141" lon="-2.33419">
        <ele>121.19999694824</ele>
        <time>2020-12-10T11:37:21.000Z</time>
      </trkpt>
      <trkpt lat="47.2613" lon="-2.33412">
        <ele>121.19999694824</ele>
        <time>2020-12-10T11:37:24.000Z</time>
      </trkpt>
      <trkpt lat="47.26125" lon="-2.33411">
        <ele>121.19999694824</ele>
        <time>2020-12-10T11:37:25.000Z</time>
      </trkpt>
      <trkpt lat="47.26121" lon="-2.33408">
        <ele>121.19999694824</ele>
        <time>2020-12-10T11:37:26.000Z</time>
      </trkpt>
      <trkpt lat="47.26109" lon="-2.33393">
        <ele>121.19999694824</ele>
        <time>2020-12-10T11:37:29.000Z</time>
      </trkpt>
      <trkpt lat="47.26104" lon="-2.33387">
        <ele>121.19999694824</ele>
        <time>2020-12-10T11:37:30.000Z</time>
      </trkpt>
      <trkpt lat="47.26095" lon="-2.33377">
        <ele>121.19999694824</ele>
        <time>2020-12-10T11:37:32.000Z</time>
      </trkpt>
      <trkpt lat="47.26086" lon="-2.33365">
        <ele>121.19999694824</ele>
        <time>2020-12-10T11:37:34.000Z</time>
      </trkpt>
      <trkpt lat="47.26076" lon="-2.33342">
        <ele>121.19999694824</ele>
        <time>2020-12-10T11:37:37.000Z</time>
      </trkpt>
      <trkpt lat="47.26073" lon="-2.33334">
        <ele>121.19999694824</ele>
        <time>2020-12-10T11:37:38.000Z</time>
      </trkpt>
      <trkpt lat="47.26049" lon="-2.33266">
        <ele>121.19999694824</ele>
        <time>2020-12-10T11:37:46.000Z</time>
      </trkpt>
      <trkpt lat="47.26026" lon="-2.332">
        <ele>121.19999694824</ele>
        <time>2020-12-10T11:37:54.000Z</time>
      </trkpt>
      <trkpt lat="47.26005" lon="-2.33143">
        <ele>121.19999694824</ele>
        <time>2020-12-10T11:38:01.000Z</time>
      </trkpt>
      <trkpt lat="47.25987" lon="-2.33089">
        <ele>121.19999694824</ele>
        <time>2020-12-10T11:38:08.000Z</time>
      </trkpt>
      <trkpt lat="47.25969" lon="-2.33034">
        <ele>121.19999694824</ele>
        <time>2020-12-10T11:38:15.000Z</time>
      </trkpt>
      <trkpt lat="47.25954" lon="-2.32986">
        <ele>121.19999694824</ele>
        <time>2020-12-10T11:38:21.000Z</time>
      </trkpt>
      <trkpt lat="47.25931" lon="-2.32918">
        <ele>121.19999694824</ele>
        <time>2020-12-10T11:38:29.000Z</time>
      </trkpt>
      <trkpt lat="47.25904" lon="-2.32849">
        <ele>121.19999694824</ele>
        <time>2020-12-10T11:38:37.000Z</time>
      </trkpt>
      <trkpt lat="47.25883" lon="-2.3279">
        <ele>121.19999694824</ele>
        <time>2020-12-10T11:38:44.000Z</time>
      </trkpt>
      <trkpt lat="47.25868" lon="-2.3274">
        <ele>121.19999694824</ele>
        <time>2020-12-10T11:38:50.000Z</time>
      </trkpt>
      <trkpt lat="47.25858" lon="-2.32707">
        <ele>121.19999694824</ele>
        <time>2020-12-10T11:38:54.000Z</time>
      </trkpt>
      <trkpt lat="47.2584" lon="-2.3264">
        <ele>121.19999694824</ele>
        <time>2020-12-10T11:39:02.000Z</time>
      </trkpt>
      <trkpt lat="47.25825" lon="-2.32579">
        <ele>121.19999694824</ele>
        <time>2020-12-10T11:39:09.000Z</time>
      </trkpt>
      <trkpt lat="47.25813" lon="-2.32526">
        <ele>121.19999694824</ele>
        <time>2020-12-10T11:39:15.000Z</time>
      </trkpt>
      <trkpt lat="47.25803" lon="-2.32481">
        <ele>121.19999694824</ele>
        <time>2020-12-10T11:39:21.000Z</time>
      </trkpt>
      <trkpt lat="47.25808" lon="-2.32463">
        <ele>121.19999694824</ele>
        <time>2020-12-10T11:39:25.000Z</time>
      </trkpt>
      <trkpt lat="47.2582" lon="-2.32459">
        <ele>121.19999694824</ele>
        <time>2020-12-10T11:39:29.000Z</time>
      </trkpt>
      <trkpt lat="47.25828" lon="-2.32464">
        <ele>121.19999694824</ele>
        <time>2020-12-10T11:39:31.000Z</time>
      </trkpt>
      <trkpt lat="47.25841" lon="-2.3247">
        <ele>121.19999694824</ele>
        <time>2020-12-10T11:39:34.000Z</time>
      </trkpt>
      <trkpt lat="47.25855" lon="-2.32472">
        <ele>121.19999694824</ele>
        <time>2020-12-10T11:39:37.000Z</time>
      </trkpt>
      <trkpt lat="47.25865" lon="-2.32471">
        <ele>121.19999694824</ele>
        <time>2020-12-10T11:39:39.000Z</time>
      </trkpt>
      <trkpt lat="47.25888" lon="-2.32465">
        <ele>121.19999694824</ele>
        <time>2020-12-10T11:39:44.000Z</time>
      </trkpt>
      <trkpt lat="47.25897" lon="-2.32457">
        <ele>121.19999694824</ele>
        <time>2020-12-10T11:39:46.000Z</time>
      </trkpt>
      <trkpt lat="47.25924" lon="-2.32427">
        <ele>121.19999694824</ele>
        <time>2020-12-10T11:39:52.000Z</time>
      </trkpt>
      <trkpt lat="47.25963" lon="-2.32377">
        <ele>121.19999694824</ele>
        <time>2020-12-10T11:40:01.000Z</time>
      </trkpt>
      <trkpt lat="47.2599" lon="-2.32342">
        <ele>121.19999694824</ele>
        <time>2020-12-10T11:40:08.000Z</time>
      </trkpt>
      <trkpt lat="47.26016" lon="-2.32308">
        <ele>121.19999694824</ele>
        <time>2020-12-10T11:40:15.000Z</time>
      </trkpt>
      <trkpt lat="47.26039" lon="-2.3228">
        <ele>121.19999694824</ele>
        <time>2020-12-10T11:40:21.000Z</time>
      </trkpt>
      <trkpt lat="47.26075" lon="-2.32239">
        <ele>121.19999694824</ele>
        <time>2020-12-10T11:40:30.000Z</time>
      </trkpt>
      <trkpt lat="47.26099" lon="-2.32201">
        <ele>121.19999694824</ele>
        <time>2020-12-10T11:40:37.000Z</time>
      </trkpt>
      <trkpt lat="47.26101" lon="-2.32195">
        <ele>121.19999694824</ele>
        <time>2020-12-10T11:40:38.000Z</time>
      </trkpt>
      <trkpt lat="47.26115" lon="-2.32165">
        <ele>121.19999694824</ele>
        <time>2020-12-10T11:40:43.000Z</time>
      </trkpt>
      <trkpt lat="47.26135" lon="-2.3211">
        <ele>121.19999694824</ele>
        <time>2020-12-10T11:40:51.000Z</time>
      </trkpt>
      <trkpt lat="47.2614" lon="-2.32091">
        <ele>121.19999694824</ele>
        <time>2020-12-10T11:40:54.000Z</time>
      </trkpt>
      <trkpt lat="47.26144" lon="-2.32079">
        <ele>121.19999694824</ele>
        <time>2020-12-10T11:40:56.000Z</time>
      </trkpt>
      <trkpt lat="47.26162" lon="-2.32031">
        <ele>121.19999694824</ele>
        <time>2020-12-10T11:41:04.000Z</time>
      </trkpt>
      <trkpt lat="47.26175" lon="-2.32019">
        <ele>121.19999694824</ele>
        <time>2020-12-10T11:41:08.000Z</time>
      </trkpt>
      <trkpt lat="47.26186" lon="-2.32022">
        <ele>121.19999694824</ele>
        <time>2020-12-10T11:41:12.000Z</time>
      </trkpt>
      <trkpt lat="47.26189" lon="-2.32023">
        <ele>121.19999694824</ele>
        <time>2020-12-10T11:41:14.000Z</time>
      </trkpt>
      <trkpt lat="47.26192" lon="-2.32024">
        <ele>120.80000305176</ele>
        <time>2020-12-10T11:41:16.000Z</time>
      </trkpt>
      <trkpt lat="47.26192" lon="-2.32024">
        <ele>120.40000152588</ele>
        <time>2020-12-10T11:41:17.000Z</time>
      </trkpt>
      <trkpt lat="47.26193" lon="-2.32023">
        <ele>120</ele>
        <time>2020-12-10T11:41:18.000Z</time>
      </trkpt>
      <trkpt lat="47.26193" lon="-2.3202">
        <ele>119.59999847412</ele>
        <time>2020-12-10T11:41:19.000Z</time>
      </trkpt>
      <trkpt lat="47.26193" lon="-2.32017">
        <ele>119.19999694824</ele>
        <time>2020-12-10T11:41:20.000Z</time>
      </trkpt>
      <trkpt lat="47.26194" lon="-2.32014">
        <ele>119.19999694824</ele>
        <time>2020-12-10T11:41:21.000Z</time>
      </trkpt>
      <trkpt lat="47.26195" lon="-2.3201">
        <ele>119.19999694824</ele>
        <time>2020-12-10T11:41:22.000Z</time>
      </trkpt>
      <trkpt lat="47.26199" lon="-2.32006">
        <ele>119.19999694824</ele>
        <time>2020-12-10T11:41:25.000Z</time>
      </trkpt>
      <trkpt lat="47.26208" lon="-2.31996">
        <ele>119.19999694824</ele>
        <time>2020-12-10T11:41:30.000Z</time>
      </trkpt>
      <trkpt lat="47.26215" lon="-2.31987">
        <ele>119.19999694824</ele>
        <time>2020-12-10T11:41:33.000Z</time>
      </trkpt>
      <trkpt lat="47.2622" lon="-2.31981">
        <ele>119.19999694824</ele>
        <time>2020-12-10T11:41:35.000Z</time>
      </trkpt>
      <trkpt lat="47.26238" lon="-2.3196">
        <ele>119.19999694824</ele>
        <time>2020-12-10T11:41:41.000Z</time>
      </trkpt>
      <trkpt lat="47.26251" lon="-2.31937">
        <ele>119.19999694824</ele>
        <time>2020-12-10T11:41:47.000Z</time>
      </trkpt>
      <trkpt lat="47.26264" lon="-2.31918">
        <ele>119.19999694824</ele>
        <time>2020-12-10T11:41:52.000Z</time>
      </trkpt>
      <trkpt lat="47.26289" lon="-2.31892">
        <ele>119.19999694824</ele>
        <time>2020-12-10T11:41:59.000Z</time>
      </trkpt>
      <trkpt lat="47.26298" lon="-2.3187">
        <ele>119.19999694824</ele>
        <time>2020-12-10T11:42:04.000Z</time>
      </trkpt>
      <trkpt lat="47.26303" lon="-2.31846">
        <ele>119.19999694824</ele>
        <time>2020-12-10T11:42:09.000Z</time>
      </trkpt>
      <trkpt lat="47.26306" lon="-2.31809">
        <ele>119.19999694824</ele>
        <time>2020-12-10T11:42:16.000Z</time>
      </trkpt>
      <trkpt lat="47.26305" lon="-2.31782">
        <ele>119.19999694824</ele>
        <time>2020-12-10T11:42:21.000Z</time>
      </trkpt>
      <trkpt lat="47.26303" lon="-2.31747">
        <ele>119.19999694824</ele>
        <time>2020-12-10T11:42:27.000Z</time>
      </trkpt>
      <trkpt lat="47.26305" lon="-2.31727">
        <ele>119.19999694824</ele>
        <time>2020-12-10T11:42:30.000Z</time>
      </trkpt>
      <trkpt lat="47.26308" lon="-2.31721">
        <ele>119.19999694824</ele>
        <time>2020-12-10T11:42:31.000Z</time>
      </trkpt>
      <trkpt lat="47.26318" lon="-2.31714">
        <ele>119.19999694824</ele>
        <time>2020-12-10T11:42:34.000Z</time>
      </trkpt>
      <trkpt lat="47.26321" lon="-2.31712">
        <ele>119.19999694824</ele>
        <time>2020-12-10T11:42:35.000Z</time>
      </trkpt>
      <trkpt lat="47.26324" lon="-2.3171">
        <ele>119.59999847412</ele>
        <time>2020-12-10T11:42:36.000Z</time>
      </trkpt>
      <trkpt lat="47.26328" lon="-2.31708">
        <ele>120</ele>
        <time>2020-12-10T11:42:37.000Z</time>
      </trkpt>
      <trkpt lat="47.26331" lon="-2.31706">
        <ele>120.40000152588</ele>
        <time>2020-12-10T11:42:38.000Z</time>
      </trkpt>
      <trkpt lat="47.26333" lon="-2.31702">
        <ele>120.80000305176</ele>
        <time>2020-12-10T11:42:39.000Z</time>
      </trkpt>
      <trkpt lat="47.26334" lon="-2.31698">
        <ele>121.40000152588</ele>
        <time>2020-12-10T11:42:40.000Z</time>
      </trkpt>
      <trkpt lat="47.26339" lon="-2.31688">
        <ele>121.40000152588</ele>
        <time>2020-12-10T11:42:43.000Z</time>
      </trkpt>
      <trkpt lat="47.26342" lon="-2.31686">
        <ele>121.40000152588</ele>
        <time>2020-12-10T11:42:44.000Z</time>
      </trkpt>
      <trkpt lat="47.26346" lon="-2.31683">
        <ele>121.80000305176</ele>
        <time>2020-12-10T11:42:46.000Z</time>
      </trkpt>
      <trkpt lat="47.26349" lon="-2.31682">
        <ele>122.19999694824</ele>
        <time>2020-12-10T11:42:47.000Z</time>
      </trkpt>
      <trkpt lat="47.26352" lon="-2.3168">
        <ele>122.59999847412</ele>
        <time>2020-12-10T11:42:48.000Z</time>
      </trkpt>
      <trkpt lat="47.26355" lon="-2.31679">
        <ele>123.40000152588</ele>
        <time>2020-12-10T11:42:49.000Z</time>
      </trkpt>
      <trkpt lat="47.26364" lon="-2.31675">
        <ele>123.40000152588</ele>
        <time>2020-12-10T11:42:52.000Z</time>
      </trkpt>
      <trkpt lat="47.2638" lon="-2.31666">
        <ele>123.40000152588</ele>
        <time>2020-12-10T11:42:57.000Z</time>
      </trkpt>
      <trkpt lat="47.2639" lon="-2.31661">
        <ele>123.80000305176</ele>
        <time>2020-12-10T11:43:00.000Z</time>
      </trkpt>
      <trkpt lat="47.26392" lon="-2.3166">
        <ele>124.19999694824</ele>
        <time>2020-12-10T11:43:01.000Z</time>
      </trkpt>
      <trkpt lat="47.26394" lon="-2.31659">
        <ele>124.59999847412</ele>
        <time>2020-12-10T11:43:02.000Z</time>
      </trkpt>
      <trkpt lat="47.26396" lon="-2.31658">
        <ele>125</ele>
        <time>2020-12-10T11:43:03.000Z</time>
      </trkpt>
      <trkpt lat="47.26399" lon="-2.31656">
        <ele>125.40000152588</ele>
        <time>2020-12-10T11:43:04.000Z</time>
      </trkpt>
      <trkpt lat="47.26407" lon="-2.31648">
        <ele>125.40000152588</ele>
        <time>2020-12-10T11:43:07.000Z</time>
      </trkpt>
      <trkpt lat="47.26408" lon="-2.31644">
        <ele>125.40000152588</ele>
        <time>2020-12-10T11:43:08.000Z</time>
      </trkpt>
      <trkpt lat="47.2641" lon="-2.31615">
        <ele>125.40000152588</ele>
        <time>2020-12-10T11:43:14.000Z</time>
      </trkpt>
      <trkpt lat="47.26407" lon="-2.31588">
        <ele>125.40000152588</ele>
        <time>2020-12-10T11:43:20.000Z</time>
      </trkpt>
      <trkpt lat="47.26408" lon="-2.31564">
        <ele>125.40000152588</ele>
        <time>2020-12-10T11:43:25.000Z</time>
      </trkpt>
      <trkpt lat="47.26411" lon="-2.31553">
        <ele>125.40000152588</ele>
        <time>2020-12-10T11:43:28.000Z</time>
      </trkpt>
      <trkpt lat="47.26414" lon="-2.31553">
        <ele>125.40000152588</ele>
        <time>2020-12-10T11:43:29.000Z</time>
      </trkpt>
      <trkpt lat="47.26419" lon="-2.31555">
        <ele>125.40000152588</ele>
        <time>2020-12-10T11:43:32.000Z</time>
      </trkpt>
      <trkpt lat="47.26419" lon="-2.31556">
        <ele>126</ele>
        <time>2020-12-10T11:43:33.000Z</time>
      </trkpt>
      <trkpt lat="47.26419" lon="-2.31557">
        <ele>126.40000152588</ele>
        <time>2020-12-10T11:43:34.000Z</time>
      </trkpt>
      <trkpt lat="47.26419" lon="-2.31557">
        <ele>126.80000305176</ele>
        <time>2020-12-10T11:43:35.000Z</time>
      </trkpt>
      <trkpt lat="47.26419" lon="-2.31557">
        <ele>127.19999694824</ele>
        <time>2020-12-10T11:43:36.000Z</time>
      </trkpt>
    </trkseg>
  </trk>
</gpx>